<?xml version="1.0" encoding="UTF-8"?><gpx xmlns="http://www.topografix.com/GPX/1/1" version="1.1" creator="iOrient"><trk><name>Кольский марш-бросок 2022</name><trkseg><trkpt lat="67.8859187" lon="33.1047874"><time>2022-08-20T07:05:58</time></trkpt><trkpt lat="67.8859054" lon="33.1047310"><time>2022-08-20T07:06:27</time></trkpt><trkpt lat="67.8858773" lon="33.1047561"><time>2022-08-20T07:06:49</time></trkpt><trkpt lat="67.8858883" lon="33.1045765"><time>2022-08-20T07:06:56</time></trkpt><trkpt lat="67.8858602" lon="33.1043863"><time>2022-08-20T07:07:02</time></trkpt><trkpt lat="67.8858054" lon="33.1039253"><time>2022-08-20T07:07:17</time></trkpt><trkpt lat="67.8857732" lon="33.1035321"><time>2022-08-20T07:07:31</time></trkpt><trkpt lat="67.8857127" lon="33.1033168"><time>2022-08-20T07:07:40</time></trkpt><trkpt lat="67.8856878" lon="33.1032130"><time>2022-08-20T07:07:43</time></trkpt><trkpt lat="67.8856482" lon="33.1029415"><time>2022-08-20T07:07:49</time></trkpt><trkpt lat="67.8856007" lon="33.1026623"><time>2022-08-20T07:08:02</time></trkpt><trkpt lat="67.8856509" lon="33.1024916"><time>2022-08-20T07:08:12</time></trkpt><trkpt lat="67.8857537" lon="33.1024361"><time>2022-08-20T07:08:27</time></trkpt><trkpt lat="67.8858280" lon="33.1023453"><time>2022-08-20T07:08:47</time></trkpt><trkpt lat="67.8858509" lon="33.1023519"><time>2022-08-20T07:08:50</time></trkpt><trkpt lat="67.8858597" lon="33.1023019"><time>2022-08-20T07:08:52</time></trkpt><trkpt lat="67.8858766" lon="33.1021257"><time>2022-08-20T07:09:05</time></trkpt><trkpt lat="67.8858611" lon="33.1021733"><time>2022-08-20T07:09:10</time></trkpt><trkpt lat="67.8859395" lon="33.1022401"><time>2022-08-20T07:09:23</time></trkpt><trkpt lat="67.8859860" lon="33.1021956"><time>2022-08-20T07:09:45</time></trkpt><trkpt lat="67.8860027" lon="33.1020168"><time>2022-08-20T07:10:08</time></trkpt><trkpt lat="67.8860198" lon="33.1019082"><time>2022-08-20T07:10:23</time></trkpt><trkpt lat="67.8860450" lon="33.1018775"><time>2022-08-20T07:10:41</time></trkpt><trkpt lat="67.8860110" lon="33.1017167"><time>2022-08-20T07:10:48</time></trkpt><trkpt lat="67.8859526" lon="33.1014817"><time>2022-08-20T07:10:59</time></trkpt><trkpt lat="67.8858702" lon="33.1014128"><time>2022-08-20T07:11:09</time></trkpt><trkpt lat="67.8858286" lon="33.1013585"><time>2022-08-20T07:11:13</time></trkpt><trkpt lat="67.8856981" lon="33.1012372"><time>2022-08-20T07:11:25</time></trkpt><trkpt lat="67.8855962" lon="33.1011506"><time>2022-08-20T07:11:38</time></trkpt><trkpt lat="67.8855445" lon="33.1010722"><time>2022-08-20T07:11:48</time></trkpt><trkpt lat="67.8854600" lon="33.1009273"><time>2022-08-20T07:12:02</time></trkpt><trkpt lat="67.8854259" lon="33.1008788"><time>2022-08-20T07:12:19</time></trkpt><trkpt lat="67.8853719" lon="33.1009971"><time>2022-08-20T07:12:42</time></trkpt><trkpt lat="67.8853905" lon="33.1009220"><time>2022-08-20T07:12:51</time></trkpt><trkpt lat="67.8853274" lon="33.1009031"><time>2022-08-20T07:12:58</time></trkpt><trkpt lat="67.8852577" lon="33.1009246"><time>2022-08-20T07:13:04</time></trkpt><trkpt lat="67.8851189" lon="33.1009830"><time>2022-08-20T07:13:17</time></trkpt><trkpt lat="67.8850303" lon="33.1011852"><time>2022-08-20T07:13:27</time></trkpt><trkpt lat="67.8848608" lon="33.1014684"><time>2022-08-20T07:13:44</time></trkpt><trkpt lat="67.8847673" lon="33.1017512"><time>2022-08-20T07:13:53</time></trkpt><trkpt lat="67.8845878" lon="33.1020236"><time>2022-08-20T07:14:10</time></trkpt><trkpt lat="67.8845584" lon="33.1020744"><time>2022-08-20T07:14:13</time></trkpt><trkpt lat="67.8844766" lon="33.1024562"><time>2022-08-20T07:14:27</time></trkpt><trkpt lat="67.8844059" lon="33.1030048"><time>2022-08-20T07:14:44</time></trkpt><trkpt lat="67.8843942" lon="33.1032201"><time>2022-08-20T07:14:48</time></trkpt><trkpt lat="67.8843569" lon="33.1034424"><time>2022-08-20T07:14:55</time></trkpt><trkpt lat="67.8843196" lon="33.1036555"><time>2022-08-20T07:15:03</time></trkpt><trkpt lat="67.8843002" lon="33.1041084"><time>2022-08-20T07:15:15</time></trkpt><trkpt lat="67.8843063" lon="33.1042138"><time>2022-08-20T07:15:18</time></trkpt><trkpt lat="67.8842990" lon="33.1044082"><time>2022-08-20T07:15:26</time></trkpt><trkpt lat="67.8841544" lon="33.1046396"><time>2022-08-20T07:15:44</time></trkpt><trkpt lat="67.8840345" lon="33.1048487"><time>2022-08-20T07:15:53</time></trkpt><trkpt lat="67.8838952" lon="33.1052495"><time>2022-08-20T07:16:08</time></trkpt><trkpt lat="67.8838260" lon="33.1054548"><time>2022-08-20T07:16:18</time></trkpt><trkpt lat="67.8836555" lon="33.1055050"><time>2022-08-20T07:16:34</time></trkpt><trkpt lat="67.8835139" lon="33.1054513"><time>2022-08-20T07:16:47</time></trkpt><trkpt lat="67.8833065" lon="33.1053568"><time>2022-08-20T07:17:03</time></trkpt><trkpt lat="67.8832551" lon="33.1053397"><time>2022-08-20T07:17:08</time></trkpt><trkpt lat="67.8830852" lon="33.1052514"><time>2022-08-20T07:17:22</time></trkpt><trkpt lat="67.8828649" lon="33.1050812"><time>2022-08-20T07:17:36</time></trkpt><trkpt lat="67.8828419" lon="33.1050603"><time>2022-08-20T07:17:38</time></trkpt><trkpt lat="67.8826936" lon="33.1049617"><time>2022-08-20T07:17:52</time></trkpt><trkpt lat="67.8826109" lon="33.1045781"><time>2022-08-20T07:18:10</time></trkpt><trkpt lat="67.8825164" lon="33.1042198"><time>2022-08-20T07:18:25</time></trkpt><trkpt lat="67.8824796" lon="33.1041220"><time>2022-08-20T07:18:29</time></trkpt><trkpt lat="67.8824470" lon="33.1040403"><time>2022-08-20T07:18:34</time></trkpt><trkpt lat="67.8824094" lon="33.1040159"><time>2022-08-20T07:18:38</time></trkpt><trkpt lat="67.8823576" lon="33.1039456"><time>2022-08-20T07:18:59</time></trkpt><trkpt lat="67.8823187" lon="33.1039580"><time>2022-08-20T07:19:14</time></trkpt><trkpt lat="67.8822861" lon="33.1038621"><time>2022-08-20T07:19:34</time></trkpt><trkpt lat="67.8822713" lon="33.1038662"><time>2022-08-20T07:19:52</time></trkpt><trkpt lat="67.8822248" lon="33.1038527"><time>2022-08-20T07:20:06</time></trkpt><trkpt lat="67.8821944" lon="33.1039087"><time>2022-08-20T07:20:27</time></trkpt><trkpt lat="67.8821154" lon="33.1040401"><time>2022-08-20T07:20:37</time></trkpt><trkpt lat="67.8820399" lon="33.1042728"><time>2022-08-20T07:20:49</time></trkpt><trkpt lat="67.8819505" lon="33.1044953"><time>2022-08-20T07:21:03</time></trkpt><trkpt lat="67.8818933" lon="33.1047598"><time>2022-08-20T07:21:17</time></trkpt><trkpt lat="67.8818427" lon="33.1049547"><time>2022-08-20T07:21:33</time></trkpt><trkpt lat="67.8817653" lon="33.1051037"><time>2022-08-20T07:21:49</time></trkpt><trkpt lat="67.8816545" lon="33.1052094"><time>2022-08-20T07:22:01</time></trkpt><trkpt lat="67.8815389" lon="33.1054215"><time>2022-08-20T07:22:14</time></trkpt><trkpt lat="67.8815165" lon="33.1054820"><time>2022-08-20T07:22:17</time></trkpt><trkpt lat="67.8814553" lon="33.1055887"><time>2022-08-20T07:22:25</time></trkpt><trkpt lat="67.8813213" lon="33.1058680"><time>2022-08-20T07:22:40</time></trkpt><trkpt lat="67.8811883" lon="33.1059481"><time>2022-08-20T07:22:53</time></trkpt><trkpt lat="67.8810524" lon="33.1060091"><time>2022-08-20T07:23:06</time></trkpt><trkpt lat="67.8810250" lon="33.1060138"><time>2022-08-20T07:23:08</time></trkpt><trkpt lat="67.8809464" lon="33.1060384"><time>2022-08-20T07:23:24</time></trkpt><trkpt lat="67.8809322" lon="33.1060218"><time>2022-08-20T07:23:27</time></trkpt><trkpt lat="67.8807373" lon="33.1060273"><time>2022-08-20T07:23:42</time></trkpt><trkpt lat="67.8806542" lon="33.1060267"><time>2022-08-20T07:23:49</time></trkpt><trkpt lat="67.8806208" lon="33.1060284"><time>2022-08-20T07:23:54</time></trkpt><trkpt lat="67.8805321" lon="33.1060527"><time>2022-08-20T07:24:02</time></trkpt><trkpt lat="67.8803345" lon="33.1061275"><time>2022-08-20T07:24:17</time></trkpt><trkpt lat="67.8801885" lon="33.1062434"><time>2022-08-20T07:24:31</time></trkpt><trkpt lat="67.8800933" lon="33.1064185"><time>2022-08-20T07:24:41</time></trkpt><trkpt lat="67.8800631" lon="33.1064600"><time>2022-08-20T07:24:43</time></trkpt><trkpt lat="67.8798740" lon="33.1067531"><time>2022-08-20T07:24:58</time></trkpt><trkpt lat="67.8797675" lon="33.1070849"><time>2022-08-20T07:25:08</time></trkpt><trkpt lat="67.8797409" lon="33.1072412"><time>2022-08-20T07:25:12</time></trkpt><trkpt lat="67.8796318" lon="33.1075295"><time>2022-08-20T07:25:24</time></trkpt><trkpt lat="67.8795157" lon="33.1075447"><time>2022-08-20T07:25:38</time></trkpt><trkpt lat="67.8794916" lon="33.1075459"><time>2022-08-20T07:25:40</time></trkpt><trkpt lat="67.8793462" lon="33.1075965"><time>2022-08-20T07:25:54</time></trkpt><trkpt lat="67.8792236" lon="33.1076840"><time>2022-08-20T07:26:07</time></trkpt><trkpt lat="67.8791097" lon="33.1078260"><time>2022-08-20T07:26:24</time></trkpt><trkpt lat="67.8790352" lon="33.1078336"><time>2022-08-20T07:26:39</time></trkpt><trkpt lat="67.8790267" lon="33.1078368"><time>2022-08-20T07:26:40</time></trkpt><trkpt lat="67.8790062" lon="33.1078286"><time>2022-08-20T07:26:43</time></trkpt><trkpt lat="67.8788865" lon="33.1077451"><time>2022-08-20T07:26:53</time></trkpt><trkpt lat="67.8787217" lon="33.1076319"><time>2022-08-20T07:27:09</time></trkpt><trkpt lat="67.8786370" lon="33.1076709"><time>2022-08-20T07:27:21</time></trkpt><trkpt lat="67.8786214" lon="33.1076954"><time>2022-08-20T07:27:24</time></trkpt><trkpt lat="67.8784518" lon="33.1076124"><time>2022-08-20T07:27:40</time></trkpt><trkpt lat="67.8784027" lon="33.1075579"><time>2022-08-20T07:27:44</time></trkpt><trkpt lat="67.8782416" lon="33.1075016"><time>2022-08-20T07:27:57</time></trkpt><trkpt lat="67.8780966" lon="33.1074209"><time>2022-08-20T07:28:11</time></trkpt><trkpt lat="67.8780340" lon="33.1074316"><time>2022-08-20T07:28:27</time></trkpt><trkpt lat="67.8780263" lon="33.1074257"><time>2022-08-20T07:28:28</time></trkpt><trkpt lat="67.8779584" lon="33.1073510"><time>2022-08-20T07:28:36</time></trkpt><trkpt lat="67.8778956" lon="33.1073132"><time>2022-08-20T07:28:43</time></trkpt><trkpt lat="67.8778767" lon="33.1072916"><time>2022-08-20T07:28:45</time></trkpt><trkpt lat="67.8778285" lon="33.1071806"><time>2022-08-20T07:28:53</time></trkpt><trkpt lat="67.8777965" lon="33.1071645"><time>2022-08-20T07:28:58</time></trkpt><trkpt lat="67.8777391" lon="33.1072167"><time>2022-08-20T07:29:13</time></trkpt><trkpt lat="67.8776699" lon="33.1074796"><time>2022-08-20T07:29:35</time></trkpt><trkpt lat="67.8776091" lon="33.1077345"><time>2022-08-20T07:29:51</time></trkpt><trkpt lat="67.8775031" lon="33.1078125"><time>2022-08-20T07:30:05</time></trkpt><trkpt lat="67.8774639" lon="33.1079438"><time>2022-08-20T07:30:14</time></trkpt><trkpt lat="67.8774163" lon="33.1079596"><time>2022-08-20T07:30:19</time></trkpt><trkpt lat="67.8773123" lon="33.1079290"><time>2022-08-20T07:30:32</time></trkpt><trkpt lat="67.8772081" lon="33.1077857"><time>2022-08-20T07:30:45</time></trkpt><trkpt lat="67.8771138" lon="33.1075508"><time>2022-08-20T07:31:00</time></trkpt><trkpt lat="67.8770386" lon="33.1073548"><time>2022-08-20T07:31:12</time></trkpt><trkpt lat="67.8769794" lon="33.1072669"><time>2022-08-20T07:31:23</time></trkpt><trkpt lat="67.8769130" lon="33.1071924"><time>2022-08-20T07:31:36</time></trkpt><trkpt lat="67.8768718" lon="33.1070639"><time>2022-08-20T07:31:46</time></trkpt><trkpt lat="67.8768465" lon="33.1069543"><time>2022-08-20T07:31:53</time></trkpt><trkpt lat="67.8768416" lon="33.1069032"><time>2022-08-20T07:31:56</time></trkpt><trkpt lat="67.8768641" lon="33.1067411"><time>2022-08-20T07:32:09</time></trkpt><trkpt lat="67.8768815" lon="33.1066592"><time>2022-08-20T07:32:13</time></trkpt><trkpt lat="67.8769497" lon="33.1065157"><time>2022-08-20T07:32:29</time></trkpt><trkpt lat="67.8769583" lon="33.1063380"><time>2022-08-20T07:32:48</time></trkpt><trkpt lat="67.8769509" lon="33.1062162"><time>2022-08-20T07:33:02</time></trkpt><trkpt lat="67.8769136" lon="33.1060010"><time>2022-08-20T07:33:18</time></trkpt><trkpt lat="67.8768641" lon="33.1058659"><time>2022-08-20T07:33:30</time></trkpt><trkpt lat="67.8768554" lon="33.1057523"><time>2022-08-20T07:33:44</time></trkpt><trkpt lat="67.8768952" lon="33.1056860"><time>2022-08-20T07:34:00</time></trkpt><trkpt lat="67.8769442" lon="33.1054535"><time>2022-08-20T07:34:16</time></trkpt><trkpt lat="67.8769280" lon="33.1053006"><time>2022-08-20T07:34:30</time></trkpt><trkpt lat="67.8769075" lon="33.1052913"><time>2022-08-20T07:34:51</time></trkpt><trkpt lat="67.8769177" lon="33.1052053"><time>2022-08-20T07:35:24</time></trkpt><trkpt lat="67.8769230" lon="33.1051653"><time>2022-08-20T07:35:50</time></trkpt><trkpt lat="67.8769697" lon="33.1051015"><time>2022-08-20T07:36:19</time></trkpt><trkpt lat="67.8770044" lon="33.1049261"><time>2022-08-20T07:36:39</time></trkpt><trkpt lat="67.8770381" lon="33.1046557"><time>2022-08-20T07:36:59</time></trkpt><trkpt lat="67.8771227" lon="33.1043876"><time>2022-08-20T07:37:18</time></trkpt><trkpt lat="67.8772130" lon="33.1042180"><time>2022-08-20T07:37:33</time></trkpt><trkpt lat="67.8773205" lon="33.1039879"><time>2022-08-20T07:37:54</time></trkpt><trkpt lat="67.8773970" lon="33.1037758"><time>2022-08-20T07:38:12</time></trkpt><trkpt lat="67.8774561" lon="33.1032627"><time>2022-08-20T07:38:34</time></trkpt><trkpt lat="67.8775475" lon="33.1028748"><time>2022-08-20T07:38:57</time></trkpt><trkpt lat="67.8775765" lon="33.1026862"><time>2022-08-20T07:39:10</time></trkpt><trkpt lat="67.8776025" lon="33.1023686"><time>2022-08-20T07:39:24</time></trkpt><trkpt lat="67.8776428" lon="33.1019621"><time>2022-08-20T07:39:39</time></trkpt><trkpt lat="67.8776508" lon="33.1017655"><time>2022-08-20T07:39:57</time></trkpt><trkpt lat="67.8777253" lon="33.1015970"><time>2022-08-20T07:40:16</time></trkpt><trkpt lat="67.8778993" lon="33.1012820"><time>2022-08-20T07:40:37</time></trkpt><trkpt lat="67.8780025" lon="33.1010253"><time>2022-08-20T07:40:55</time></trkpt><trkpt lat="67.8781110" lon="33.1006911"><time>2022-08-20T07:41:17</time></trkpt><trkpt lat="67.8782765" lon="33.1005086"><time>2022-08-20T07:41:35</time></trkpt><trkpt lat="67.8784190" lon="33.1003353"><time>2022-08-20T07:41:58</time></trkpt><trkpt lat="67.8785566" lon="33.1001644"><time>2022-08-20T07:42:17</time></trkpt><trkpt lat="67.8786513" lon="33.1000564"><time>2022-08-20T07:42:34</time></trkpt><trkpt lat="67.8786894" lon="33.0998796"><time>2022-08-20T07:42:58</time></trkpt><trkpt lat="67.8789220" lon="33.0996669"><time>2022-08-20T07:43:23</time></trkpt><trkpt lat="67.8790342" lon="33.0993760"><time>2022-08-20T07:43:42</time></trkpt><trkpt lat="67.8791479" lon="33.0991770"><time>2022-08-20T07:43:59</time></trkpt><trkpt lat="67.8792628" lon="33.0990828"><time>2022-08-20T07:44:18</time></trkpt><trkpt lat="67.8793212" lon="33.0990477"><time>2022-08-20T07:44:35</time></trkpt><trkpt lat="67.8793227" lon="33.0988576"><time>2022-08-20T07:44:51</time></trkpt><trkpt lat="67.8793083" lon="33.0986607"><time>2022-08-20T07:45:05</time></trkpt><trkpt lat="67.8793418" lon="33.0984121"><time>2022-08-20T07:45:19</time></trkpt><trkpt lat="67.8794178" lon="33.0980502"><time>2022-08-20T07:45:34</time></trkpt><trkpt lat="67.8796005" lon="33.0979494"><time>2022-08-20T07:45:52</time></trkpt><trkpt lat="67.8796767" lon="33.0980881"><time>2022-08-20T07:46:05</time></trkpt><trkpt lat="67.8797031" lon="33.0980477"><time>2022-08-20T07:46:25</time></trkpt><trkpt lat="67.8797007" lon="33.0979704"><time>2022-08-20T07:46:37</time></trkpt><trkpt lat="67.8796596" lon="33.0979842"><time>2022-08-20T07:47:06</time></trkpt><trkpt lat="67.8796525" lon="33.0977611"><time>2022-08-20T07:47:28</time></trkpt><trkpt lat="67.8796449" lon="33.0977524"><time>2022-08-20T07:47:29</time></trkpt><trkpt lat="67.8796345" lon="33.0976224"><time>2022-08-20T07:47:39</time></trkpt><trkpt lat="67.8796829" lon="33.0975390"><time>2022-08-20T07:48:01</time></trkpt><trkpt lat="67.8796721" lon="33.0974319"><time>2022-08-20T07:48:20</time></trkpt><trkpt lat="67.8796543" lon="33.0974528"><time>2022-08-20T07:48:49</time></trkpt><trkpt lat="67.8796936" lon="33.0971455"><time>2022-08-20T07:49:03</time></trkpt><trkpt lat="67.8796871" lon="33.0969848"><time>2022-08-20T07:49:16</time></trkpt><trkpt lat="67.8796575" lon="33.0968335"><time>2022-08-20T07:49:46</time></trkpt><trkpt lat="67.8796399" lon="33.0965933"><time>2022-08-20T07:50:02</time></trkpt><trkpt lat="67.8795902" lon="33.0963882"><time>2022-08-20T07:50:14</time></trkpt><trkpt lat="67.8795711" lon="33.0962082"><time>2022-08-20T07:50:27</time></trkpt><trkpt lat="67.8795750" lon="33.0960860"><time>2022-08-20T07:50:49</time></trkpt><trkpt lat="67.8795467" lon="33.0959864"><time>2022-08-20T07:51:02</time></trkpt><trkpt lat="67.8795327" lon="33.0959008"><time>2022-08-20T07:51:07</time></trkpt><trkpt lat="67.8795508" lon="33.0956734"><time>2022-08-20T07:51:20</time></trkpt><trkpt lat="67.8795098" lon="33.0954228"><time>2022-08-20T07:51:34</time></trkpt><trkpt lat="67.8794607" lon="33.0952746"><time>2022-08-20T07:51:53</time></trkpt><trkpt lat="67.8794353" lon="33.0952262"><time>2022-08-20T07:52:23</time></trkpt><trkpt lat="67.8794400" lon="33.0951101"><time>2022-08-20T07:52:54</time></trkpt><trkpt lat="67.8794106" lon="33.0950562"><time>2022-08-20T07:53:00</time></trkpt><trkpt lat="67.8794084" lon="33.0949957"><time>2022-08-20T07:53:03</time></trkpt><trkpt lat="67.8793958" lon="33.0948817"><time>2022-08-20T07:53:10</time></trkpt><trkpt lat="67.8793711" lon="33.0947691"><time>2022-08-20T07:53:22</time></trkpt><trkpt lat="67.8793701" lon="33.0946381"><time>2022-08-20T07:53:29</time></trkpt><trkpt lat="67.8793751" lon="33.0945861"><time>2022-08-20T07:53:31</time></trkpt><trkpt lat="67.8793828" lon="33.0945533"><time>2022-08-20T07:53:33</time></trkpt><trkpt lat="67.8793576" lon="33.0944120"><time>2022-08-20T07:53:42</time></trkpt><trkpt lat="67.8793172" lon="33.0942662"><time>2022-08-20T07:53:54</time></trkpt><trkpt lat="67.8792729" lon="33.0940588"><time>2022-08-20T07:54:07</time></trkpt><trkpt lat="67.8792701" lon="33.0940334"><time>2022-08-20T07:54:08</time></trkpt><trkpt lat="67.8792378" lon="33.0938044"><time>2022-08-20T07:54:19</time></trkpt><trkpt lat="67.8791881" lon="33.0936858"><time>2022-08-20T07:54:31</time></trkpt><trkpt lat="67.8791223" lon="33.0934858"><time>2022-08-20T07:54:43</time></trkpt><trkpt lat="67.8790550" lon="33.0934447"><time>2022-08-20T07:54:58</time></trkpt><trkpt lat="67.8790100" lon="33.0934436"><time>2022-08-20T07:55:08</time></trkpt><trkpt lat="67.8789073" lon="33.0933988"><time>2022-08-20T07:55:21</time></trkpt><trkpt lat="67.8788400" lon="33.0933187"><time>2022-08-20T07:55:36</time></trkpt><trkpt lat="67.8786935" lon="33.0933918"><time>2022-08-20T07:55:51</time></trkpt><trkpt lat="67.8786824" lon="33.0933702"><time>2022-08-20T07:56:06</time></trkpt><trkpt lat="67.8786837" lon="33.0934076"><time>2022-08-20T07:56:26</time></trkpt><trkpt lat="67.8786356" lon="33.0935014"><time>2022-08-20T07:56:40</time></trkpt><trkpt lat="67.8784918" lon="33.0936032"><time>2022-08-20T07:56:54</time></trkpt><trkpt lat="67.8783273" lon="33.0937376"><time>2022-08-20T07:57:10</time></trkpt><trkpt lat="67.8782771" lon="33.0937899"><time>2022-08-20T07:57:28</time></trkpt><trkpt lat="67.8782755" lon="33.0938027"><time>2022-08-20T07:57:29</time></trkpt><trkpt lat="67.8782322" lon="33.0938717"><time>2022-08-20T07:57:52</time></trkpt><trkpt lat="67.8782196" lon="33.0938604"><time>2022-08-20T07:58:21</time></trkpt><trkpt lat="67.8782165" lon="33.0938327"><time>2022-08-20T07:58:44</time></trkpt><trkpt lat="67.8781904" lon="33.0935759"><time>2022-08-20T07:59:00</time></trkpt><trkpt lat="67.8781671" lon="33.0933703"><time>2022-08-20T07:59:15</time></trkpt><trkpt lat="67.8781418" lon="33.0933206"><time>2022-08-20T07:59:34</time></trkpt><trkpt lat="67.8780548" lon="33.0931051"><time>2022-08-20T07:59:53</time></trkpt><trkpt lat="67.8780118" lon="33.0930419"><time>2022-08-20T07:59:59</time></trkpt><trkpt lat="67.8779317" lon="33.0928988"><time>2022-08-20T08:00:16</time></trkpt><trkpt lat="67.8778089" lon="33.0926697"><time>2022-08-20T08:00:34</time></trkpt><trkpt lat="67.8776820" lon="33.0924933"><time>2022-08-20T08:00:54</time></trkpt><trkpt lat="67.8776646" lon="33.0922397"><time>2022-08-20T08:01:10</time></trkpt><trkpt lat="67.8775944" lon="33.0920384"><time>2022-08-20T08:01:27</time></trkpt><trkpt lat="67.8775278" lon="33.0919287"><time>2022-08-20T08:01:41</time></trkpt><trkpt lat="67.8773910" lon="33.0916315"><time>2022-08-20T08:02:03</time></trkpt><trkpt lat="67.8773145" lon="33.0915111"><time>2022-08-20T08:02:18</time></trkpt><trkpt lat="67.8772138" lon="33.0914945"><time>2022-08-20T08:02:34</time></trkpt><trkpt lat="67.8771357" lon="33.0913095"><time>2022-08-20T08:02:52</time></trkpt><trkpt lat="67.8771000" lon="33.0912212"><time>2022-08-20T08:03:08</time></trkpt><trkpt lat="67.8771570" lon="33.0910640"><time>2022-08-20T08:03:26</time></trkpt><trkpt lat="67.8771957" lon="33.0909532"><time>2022-08-20T08:03:34</time></trkpt><trkpt lat="67.8772886" lon="33.0906379"><time>2022-08-20T08:03:53</time></trkpt><trkpt lat="67.8773256" lon="33.0904087"><time>2022-08-20T08:04:07</time></trkpt><trkpt lat="67.8773306" lon="33.0901625"><time>2022-08-20T08:04:26</time></trkpt><trkpt lat="67.8774316" lon="33.0902947"><time>2022-08-20T08:04:48</time></trkpt><trkpt lat="67.8774923" lon="33.0902957"><time>2022-08-20T08:05:04</time></trkpt><trkpt lat="67.8775888" lon="33.0901549"><time>2022-08-20T08:05:24</time></trkpt><trkpt lat="67.8776024" lon="33.0901080"><time>2022-08-20T08:05:28</time></trkpt><trkpt lat="67.8775857" lon="33.0898482"><time>2022-08-20T08:05:43</time></trkpt><trkpt lat="67.8775407" lon="33.0897535"><time>2022-08-20T08:05:56</time></trkpt><trkpt lat="67.8774632" lon="33.0896758"><time>2022-08-20T08:06:10</time></trkpt><trkpt lat="67.8774200" lon="33.0894229"><time>2022-08-20T08:06:27</time></trkpt><trkpt lat="67.8773697" lon="33.0893057"><time>2022-08-20T08:06:42</time></trkpt><trkpt lat="67.8773412" lon="33.0890550"><time>2022-08-20T08:06:59</time></trkpt><trkpt lat="67.8772743" lon="33.0888116"><time>2022-08-20T08:07:13</time></trkpt><trkpt lat="67.8772595" lon="33.0884334"><time>2022-08-20T08:07:31</time></trkpt><trkpt lat="67.8772549" lon="33.0881232"><time>2022-08-20T08:07:48</time></trkpt><trkpt lat="67.8773100" lon="33.0877680"><time>2022-08-20T08:08:07</time></trkpt><trkpt lat="67.8772996" lon="33.0877264"><time>2022-08-20T08:08:34</time></trkpt><trkpt lat="67.8773616" lon="33.0877525"><time>2022-08-20T08:09:06</time></trkpt><trkpt lat="67.8774194" lon="33.0876842"><time>2022-08-20T08:09:20</time></trkpt><trkpt lat="67.8775311" lon="33.0876781"><time>2022-08-20T08:09:37</time></trkpt><trkpt lat="67.8775395" lon="33.0877245"><time>2022-08-20T08:09:51</time></trkpt><trkpt lat="67.8775778" lon="33.0876601"><time>2022-08-20T08:10:06</time></trkpt><trkpt lat="67.8776896" lon="33.0874550"><time>2022-08-20T08:10:22</time></trkpt><trkpt lat="67.8777834" lon="33.0871154"><time>2022-08-20T08:10:39</time></trkpt><trkpt lat="67.8778614" lon="33.0868143"><time>2022-08-20T08:10:54</time></trkpt><trkpt lat="67.8778181" lon="33.0865096"><time>2022-08-20T08:11:08</time></trkpt><trkpt lat="67.8777811" lon="33.0861814"><time>2022-08-20T08:11:26</time></trkpt><trkpt lat="67.8778020" lon="33.0858057"><time>2022-08-20T08:11:46</time></trkpt><trkpt lat="67.8778800" lon="33.0854910"><time>2022-08-20T08:11:59</time></trkpt><trkpt lat="67.8780117" lon="33.0852127"><time>2022-08-20T08:12:16</time></trkpt><trkpt lat="67.8780973" lon="33.0849091"><time>2022-08-20T08:12:32</time></trkpt><trkpt lat="67.8781925" lon="33.0847194"><time>2022-08-20T08:12:51</time></trkpt><trkpt lat="67.8783088" lon="33.0844099"><time>2022-08-20T08:13:09</time></trkpt><trkpt lat="67.8784449" lon="33.0841463"><time>2022-08-20T08:13:26</time></trkpt><trkpt lat="67.8785692" lon="33.0837793"><time>2022-08-20T08:13:45</time></trkpt><trkpt lat="67.8786785" lon="33.0834442"><time>2022-08-20T08:14:00</time></trkpt><trkpt lat="67.8787324" lon="33.0832658"><time>2022-08-20T08:14:07</time></trkpt><trkpt lat="67.8787661" lon="33.0827896"><time>2022-08-20T08:14:21</time></trkpt><trkpt lat="67.8787788" lon="33.0827050"><time>2022-08-20T08:14:25</time></trkpt><trkpt lat="67.8787909" lon="33.0825071"><time>2022-08-20T08:14:40</time></trkpt><trkpt lat="67.8788438" lon="33.0824492"><time>2022-08-20T08:14:51</time></trkpt><trkpt lat="67.8789106" lon="33.0822755"><time>2022-08-20T08:15:08</time></trkpt><trkpt lat="67.8789927" lon="33.0822272"><time>2022-08-20T08:15:19</time></trkpt><trkpt lat="67.8791254" lon="33.0822472"><time>2022-08-20T08:15:35</time></trkpt><trkpt lat="67.8791748" lon="33.0822108"><time>2022-08-20T08:16:02</time></trkpt><trkpt lat="67.8792338" lon="33.0820226"><time>2022-08-20T08:16:17</time></trkpt><trkpt lat="67.8792592" lon="33.0815612"><time>2022-08-20T08:16:35</time></trkpt><trkpt lat="67.8792755" lon="33.0813680"><time>2022-08-20T08:16:40</time></trkpt><trkpt lat="67.8792988" lon="33.0808282"><time>2022-08-20T08:16:57</time></trkpt><trkpt lat="67.8793800" lon="33.0804123"><time>2022-08-20T08:17:09</time></trkpt><trkpt lat="67.8794488" lon="33.0800392"><time>2022-08-20T08:17:25</time></trkpt><trkpt lat="67.8796269" lon="33.0795783"><time>2022-08-20T08:17:46</time></trkpt><trkpt lat="67.8798288" lon="33.0791816"><time>2022-08-20T08:18:05</time></trkpt><trkpt lat="67.8798805" lon="33.0790991"><time>2022-08-20T08:18:11</time></trkpt><trkpt lat="67.8799513" lon="33.0789660"><time>2022-08-20T08:18:21</time></trkpt><trkpt lat="67.8799614" lon="33.0785872"><time>2022-08-20T08:18:34</time></trkpt><trkpt lat="67.8799588" lon="33.0780019"><time>2022-08-20T08:18:52</time></trkpt><trkpt lat="67.8798808" lon="33.0775622"><time>2022-08-20T08:19:09</time></trkpt><trkpt lat="67.8798066" lon="33.0773026"><time>2022-08-20T08:19:18</time></trkpt><trkpt lat="67.8797747" lon="33.0769514"><time>2022-08-20T08:19:35</time></trkpt><trkpt lat="67.8797264" lon="33.0767891"><time>2022-08-20T08:20:04</time></trkpt><trkpt lat="67.8797175" lon="33.0766005"><time>2022-08-20T08:20:12</time></trkpt><trkpt lat="67.8797148" lon="33.0764963"><time>2022-08-20T08:20:15</time></trkpt><trkpt lat="67.8796785" lon="33.0761439"><time>2022-08-20T08:20:30</time></trkpt><trkpt lat="67.8797190" lon="33.0758741"><time>2022-08-20T08:20:47</time></trkpt><trkpt lat="67.8797416" lon="33.0757494"><time>2022-08-20T08:20:53</time></trkpt><trkpt lat="67.8797866" lon="33.0750649"><time>2022-08-20T08:21:09</time></trkpt><trkpt lat="67.8798391" lon="33.0745102"><time>2022-08-20T08:21:23</time></trkpt><trkpt lat="67.8799010" lon="33.0738275"><time>2022-08-20T08:21:43</time></trkpt><trkpt lat="67.8799088" lon="33.0737074"><time>2022-08-20T08:21:48</time></trkpt><trkpt lat="67.8799420" lon="33.0730006"><time>2022-08-20T08:22:06</time></trkpt><trkpt lat="67.8799886" lon="33.0724214"><time>2022-08-20T08:22:21</time></trkpt><trkpt lat="67.8799091" lon="33.0724892"><time>2022-08-20T08:22:28</time></trkpt><trkpt lat="67.8797079" lon="33.0726390"><time>2022-08-20T08:22:44</time></trkpt><trkpt lat="67.8796848" lon="33.0727753"><time>2022-08-20T08:23:02</time></trkpt><trkpt lat="67.8796986" lon="33.0727343"><time>2022-08-20T08:23:04</time></trkpt><trkpt lat="67.8798847" lon="33.0725399"><time>2022-08-20T08:23:22</time></trkpt><trkpt lat="67.8799205" lon="33.0724923"><time>2022-08-20T08:23:26</time></trkpt><trkpt lat="67.8800062" lon="33.0720626"><time>2022-08-20T08:23:38</time></trkpt><trkpt lat="67.8800263" lon="33.0718654"><time>2022-08-20T08:23:44</time></trkpt><trkpt lat="67.8800349" lon="33.0717685"><time>2022-08-20T08:23:47</time></trkpt><trkpt lat="67.8800604" lon="33.0712808"><time>2022-08-20T08:24:04</time></trkpt><trkpt lat="67.8801150" lon="33.0710321"><time>2022-08-20T08:24:25</time></trkpt><trkpt lat="67.8800873" lon="33.0709774"><time>2022-08-20T08:24:51</time></trkpt><trkpt lat="67.8801059" lon="33.0707756"><time>2022-08-20T08:25:19</time></trkpt><trkpt lat="67.8801893" lon="33.0703394"><time>2022-08-20T08:25:34</time></trkpt><trkpt lat="67.8802330" lon="33.0698732"><time>2022-08-20T08:25:49</time></trkpt><trkpt lat="67.8801707" lon="33.0696344"><time>2022-08-20T08:26:02</time></trkpt><trkpt lat="67.8801797" lon="33.0693354"><time>2022-08-20T08:26:14</time></trkpt><trkpt lat="67.8802000" lon="33.0688166"><time>2022-08-20T08:26:33</time></trkpt><trkpt lat="67.8802211" lon="33.0682960"><time>2022-08-20T08:26:47</time></trkpt><trkpt lat="67.8802198" lon="33.0681810"><time>2022-08-20T08:27:10</time></trkpt><trkpt lat="67.8802308" lon="33.0680371"><time>2022-08-20T08:27:28</time></trkpt><trkpt lat="67.8802376" lon="33.0679903"><time>2022-08-20T08:27:31</time></trkpt><trkpt lat="67.8802187" lon="33.0678937"><time>2022-08-20T08:27:45</time></trkpt><trkpt lat="67.8801588" lon="33.0676131"><time>2022-08-20T08:27:57</time></trkpt><trkpt lat="67.8801547" lon="33.0675880"><time>2022-08-20T08:27:58</time></trkpt><trkpt lat="67.8801710" lon="33.0674653"><time>2022-08-20T08:28:02</time></trkpt><trkpt lat="67.8801883" lon="33.0673904"><time>2022-08-20T08:28:05</time></trkpt><trkpt lat="67.8803403" lon="33.0670905"><time>2022-08-20T08:28:23</time></trkpt><trkpt lat="67.8803833" lon="33.0670163"><time>2022-08-20T08:28:29</time></trkpt><trkpt lat="67.8804594" lon="33.0670646"><time>2022-08-20T08:28:36</time></trkpt><trkpt lat="67.8805568" lon="33.0672129"><time>2022-08-20T08:28:50</time></trkpt><trkpt lat="67.8806755" lon="33.0671207"><time>2022-08-20T08:29:08</time></trkpt><trkpt lat="67.8807342" lon="33.0669360"><time>2022-08-20T08:29:24</time></trkpt><trkpt lat="67.8808027" lon="33.0666751"><time>2022-08-20T08:29:41</time></trkpt><trkpt lat="67.8809270" lon="33.0663549"><time>2022-08-20T08:29:56</time></trkpt><trkpt lat="67.8809783" lon="33.0661187"><time>2022-08-20T08:30:16</time></trkpt><trkpt lat="67.8810795" lon="33.0658308"><time>2022-08-20T08:30:36</time></trkpt><trkpt lat="67.8812278" lon="33.0656176"><time>2022-08-20T08:30:51</time></trkpt><trkpt lat="67.8812825" lon="33.0654995"><time>2022-08-20T08:30:59</time></trkpt><trkpt lat="67.8813396" lon="33.0652641"><time>2022-08-20T08:31:09</time></trkpt><trkpt lat="67.8814067" lon="33.0649296"><time>2022-08-20T08:31:23</time></trkpt><trkpt lat="67.8814654" lon="33.0646008"><time>2022-08-20T08:31:36</time></trkpt><trkpt lat="67.8815150" lon="33.0645298"><time>2022-08-20T08:32:02</time></trkpt><trkpt lat="67.8815545" lon="33.0643880"><time>2022-08-20T08:32:07</time></trkpt><trkpt lat="67.8815945" lon="33.0642910"><time>2022-08-20T08:32:11</time></trkpt><trkpt lat="67.8816862" lon="33.0639496"><time>2022-08-20T08:32:28</time></trkpt><trkpt lat="67.8817861" lon="33.0637603"><time>2022-08-20T08:32:43</time></trkpt><trkpt lat="67.8818039" lon="33.0637629"><time>2022-08-20T08:33:10</time></trkpt><trkpt lat="67.8817985" lon="33.0637277"><time>2022-08-20T08:33:26</time></trkpt><trkpt lat="67.8818000" lon="33.0637392"><time>2022-08-20T08:33:27</time></trkpt><trkpt lat="67.8817436" lon="33.0638809"><time>2022-08-20T08:33:44</time></trkpt><trkpt lat="67.8817186" lon="33.0638606"><time>2022-08-20T08:33:49</time></trkpt><trkpt lat="67.8816538" lon="33.0637504"><time>2022-08-20T08:34:05</time></trkpt><trkpt lat="67.8817102" lon="33.0635711"><time>2022-08-20T08:34:20</time></trkpt><trkpt lat="67.8817079" lon="33.0633164"><time>2022-08-20T08:34:35</time></trkpt><trkpt lat="67.8816664" lon="33.0632356"><time>2022-08-20T08:34:51</time></trkpt><trkpt lat="67.8816612" lon="33.0633064"><time>2022-08-20T08:35:04</time></trkpt><trkpt lat="67.8816601" lon="33.0633403"><time>2022-08-20T08:35:27</time></trkpt><trkpt lat="67.8816992" lon="33.0633147"><time>2022-08-20T08:36:04</time></trkpt><trkpt lat="67.8816944" lon="33.0633126"><time>2022-08-20T08:36:34</time></trkpt><trkpt lat="67.8817183" lon="33.0633663"><time>2022-08-20T08:37:09</time></trkpt><trkpt lat="67.8817590" lon="33.0633953"><time>2022-08-20T08:37:31</time></trkpt><trkpt lat="67.8817774" lon="33.0633539"><time>2022-08-20T08:37:39</time></trkpt><trkpt lat="67.8818399" lon="33.0631746"><time>2022-08-20T08:37:55</time></trkpt><trkpt lat="67.8818969" lon="33.0629128"><time>2022-08-20T08:38:07</time></trkpt><trkpt lat="67.8819430" lon="33.0627853"><time>2022-08-20T08:38:15</time></trkpt><trkpt lat="67.8820621" lon="33.0623757"><time>2022-08-20T08:38:31</time></trkpt><trkpt lat="67.8821155" lon="33.0621304"><time>2022-08-20T08:38:41</time></trkpt><trkpt lat="67.8821705" lon="33.0616565"><time>2022-08-20T08:38:55</time></trkpt><trkpt lat="67.8821647" lon="33.0612531"><time>2022-08-20T08:39:11</time></trkpt><trkpt lat="67.8821937" lon="33.0608475"><time>2022-08-20T08:39:26</time></trkpt><trkpt lat="67.8822555" lon="33.0603917"><time>2022-08-20T08:39:45</time></trkpt><trkpt lat="67.8822865" lon="33.0600929"><time>2022-08-20T08:39:54</time></trkpt><trkpt lat="67.8823634" lon="33.0597147"><time>2022-08-20T08:40:09</time></trkpt><trkpt lat="67.8824742" lon="33.0592546"><time>2022-08-20T08:40:28</time></trkpt><trkpt lat="67.8825537" lon="33.0588150"><time>2022-08-20T08:40:45</time></trkpt><trkpt lat="67.8826541" lon="33.0582207"><time>2022-08-20T08:41:02</time></trkpt><trkpt lat="67.8827921" lon="33.0577288"><time>2022-08-20T08:41:18</time></trkpt><trkpt lat="67.8827957" lon="33.0577077"><time>2022-08-20T08:41:19</time></trkpt><trkpt lat="67.8828972" lon="33.0571970"><time>2022-08-20T08:41:33</time></trkpt><trkpt lat="67.8829291" lon="33.0570305"><time>2022-08-20T08:41:38</time></trkpt><trkpt lat="67.8832178" lon="33.0563878"><time>2022-08-20T08:41:55</time></trkpt><trkpt lat="67.8832791" lon="33.0562198"><time>2022-08-20T08:42:01</time></trkpt><trkpt lat="67.8833819" lon="33.0558018"><time>2022-08-20T08:42:18</time></trkpt><trkpt lat="67.8833717" lon="33.0555318"><time>2022-08-20T08:42:33</time></trkpt><trkpt lat="67.8833137" lon="33.0554204"><time>2022-08-20T08:43:03</time></trkpt><trkpt lat="67.8833063" lon="33.0554017"><time>2022-08-20T08:43:35</time></trkpt><trkpt lat="67.8832351" lon="33.0551950"><time>2022-08-20T08:44:14</time></trkpt><trkpt lat="67.8833137" lon="33.0554670"><time>2022-08-20T08:44:23</time></trkpt><trkpt lat="67.8834519" lon="33.0553415"><time>2022-08-20T08:44:39</time></trkpt><trkpt lat="67.8835741" lon="33.0548087"><time>2022-08-20T08:44:57</time></trkpt><trkpt lat="67.8835667" lon="33.0547877"><time>2022-08-20T08:44:58</time></trkpt><trkpt lat="67.8835722" lon="33.0546198"><time>2022-08-20T08:45:03</time></trkpt><trkpt lat="67.8835922" lon="33.0544496"><time>2022-08-20T08:45:16</time></trkpt><trkpt lat="67.8836344" lon="33.0543717"><time>2022-08-20T08:45:25</time></trkpt><trkpt lat="67.8836587" lon="33.0540238"><time>2022-08-20T08:45:40</time></trkpt><trkpt lat="67.8836611" lon="33.0536860"><time>2022-08-20T08:45:54</time></trkpt><trkpt lat="67.8836652" lon="33.0532623"><time>2022-08-20T08:46:11</time></trkpt><trkpt lat="67.8836581" lon="33.0526971"><time>2022-08-20T08:46:26</time></trkpt><trkpt lat="67.8836461" lon="33.0523186"><time>2022-08-20T08:46:40</time></trkpt><trkpt lat="67.8836489" lon="33.0519414"><time>2022-08-20T08:46:53</time></trkpt><trkpt lat="67.8836524" lon="33.0518499"><time>2022-08-20T08:46:56</time></trkpt><trkpt lat="67.8835978" lon="33.0510905"><time>2022-08-20T08:47:15</time></trkpt><trkpt lat="67.8835695" lon="33.0505753"><time>2022-08-20T08:47:35</time></trkpt><trkpt lat="67.8835690" lon="33.0501096"><time>2022-08-20T08:47:49</time></trkpt><trkpt lat="67.8836432" lon="33.0499938"><time>2022-08-20T08:48:05</time></trkpt><trkpt lat="67.8836443" lon="33.0499711"><time>2022-08-20T08:48:19</time></trkpt><trkpt lat="67.8835994" lon="33.0500206"><time>2022-08-20T08:48:23</time></trkpt><trkpt lat="67.8835266" lon="33.0497015"><time>2022-08-20T08:48:34</time></trkpt><trkpt lat="67.8835215" lon="33.0496753"><time>2022-08-20T08:48:35</time></trkpt><trkpt lat="67.8835141" lon="33.0494932"><time>2022-08-20T08:48:49</time></trkpt><trkpt lat="67.8835074" lon="33.0492007"><time>2022-08-20T08:49:04</time></trkpt><trkpt lat="67.8834938" lon="33.0489885"><time>2022-08-20T08:49:16</time></trkpt><trkpt lat="67.8834812" lon="33.0485982"><time>2022-08-20T08:49:30</time></trkpt><trkpt lat="67.8834158" lon="33.0481276"><time>2022-08-20T08:49:41</time></trkpt><trkpt lat="67.8833217" lon="33.0476292"><time>2022-08-20T08:49:54</time></trkpt><trkpt lat="67.8831961" lon="33.0471198"><time>2022-08-20T08:50:09</time></trkpt><trkpt lat="67.8831290" lon="33.0467287"><time>2022-08-20T08:50:21</time></trkpt><trkpt lat="67.8830064" lon="33.0461713"><time>2022-08-20T08:50:38</time></trkpt><trkpt lat="67.8829091" lon="33.0457413"><time>2022-08-20T08:50:53</time></trkpt><trkpt lat="67.8827508" lon="33.0452049"><time>2022-08-20T08:51:14</time></trkpt><trkpt lat="67.8827112" lon="33.0450697"><time>2022-08-20T08:51:19</time></trkpt><trkpt lat="67.8825547" lon="33.0445020"><time>2022-08-20T08:51:37</time></trkpt><trkpt lat="67.8824195" lon="33.0439059"><time>2022-08-20T08:51:54</time></trkpt><trkpt lat="67.8823817" lon="33.0437258"><time>2022-08-20T08:52:02</time></trkpt><trkpt lat="67.8822264" lon="33.0431786"><time>2022-08-20T08:52:19</time></trkpt><trkpt lat="67.8821310" lon="33.0428325"><time>2022-08-20T08:52:30</time></trkpt><trkpt lat="67.8820051" lon="33.0424688"><time>2022-08-20T08:52:47</time></trkpt><trkpt lat="67.8819264" lon="33.0422066"><time>2022-08-20T08:53:00</time></trkpt><trkpt lat="67.8817452" lon="33.0421053"><time>2022-08-20T08:53:15</time></trkpt><trkpt lat="67.8817076" lon="33.0421511"><time>2022-08-20T08:53:18</time></trkpt><trkpt lat="67.8816639" lon="33.0422593"><time>2022-08-20T08:53:22</time></trkpt><trkpt lat="67.8816393" lon="33.0423225"><time>2022-08-20T08:53:26</time></trkpt><trkpt lat="67.8816184" lon="33.0423744"><time>2022-08-20T08:53:28</time></trkpt><trkpt lat="67.8815981" lon="33.0424056"><time>2022-08-20T08:53:30</time></trkpt><trkpt lat="67.8815316" lon="33.0425289"><time>2022-08-20T08:53:37</time></trkpt><trkpt lat="67.8814172" lon="33.0428094"><time>2022-08-20T08:53:52</time></trkpt><trkpt lat="67.8814090" lon="33.0428201"><time>2022-08-20T08:53:53</time></trkpt><trkpt lat="67.8813917" lon="33.0428630"><time>2022-08-20T08:53:55</time></trkpt><trkpt lat="67.8813279" lon="33.0430187"><time>2022-08-20T08:54:04</time></trkpt><trkpt lat="67.8813101" lon="33.0430727"><time>2022-08-20T08:54:07</time></trkpt><trkpt lat="67.8812230" lon="33.0434164"><time>2022-08-20T08:54:20</time></trkpt><trkpt lat="67.8811712" lon="33.0435919"><time>2022-08-20T08:54:27</time></trkpt><trkpt lat="67.8810959" lon="33.0439054"><time>2022-08-20T08:54:40</time></trkpt><trkpt lat="67.8810728" lon="33.0439977"><time>2022-08-20T08:54:43</time></trkpt><trkpt lat="67.8810178" lon="33.0441682"><time>2022-08-20T08:54:48</time></trkpt><trkpt lat="67.8809370" lon="33.0444926"><time>2022-08-20T08:55:04</time></trkpt><trkpt lat="67.8809314" lon="33.0445038"><time>2022-08-20T08:55:05</time></trkpt><trkpt lat="67.8808875" lon="33.0444612"><time>2022-08-20T08:55:11</time></trkpt><trkpt lat="67.8808639" lon="33.0444672"><time>2022-08-20T08:55:13</time></trkpt><trkpt lat="67.8808277" lon="33.0445370"><time>2022-08-20T08:55:29</time></trkpt><trkpt lat="67.8808109" lon="33.0446182"><time>2022-08-20T08:56:05</time></trkpt><trkpt lat="67.8808189" lon="33.0446165"><time>2022-08-20T08:56:13</time></trkpt><trkpt lat="67.8808198" lon="33.0446179"><time>2022-08-20T08:56:14</time></trkpt><trkpt lat="67.8808176" lon="33.0446121"><time>2022-08-20T08:56:16</time></trkpt><trkpt lat="67.8807820" lon="33.0445773"><time>2022-08-20T08:56:34</time></trkpt><trkpt lat="67.8807478" lon="33.0445463"><time>2022-08-20T08:56:37</time></trkpt><trkpt lat="67.8806986" lon="33.0445352"><time>2022-08-20T08:56:42</time></trkpt><trkpt lat="67.8806091" lon="33.0445518"><time>2022-08-20T08:56:50</time></trkpt><trkpt lat="67.8805709" lon="33.0445546"><time>2022-08-20T08:56:53</time></trkpt><trkpt lat="67.8805098" lon="33.0445924"><time>2022-08-20T08:57:07</time></trkpt><trkpt lat="67.8804594" lon="33.0446029"><time>2022-08-20T08:57:23</time></trkpt><trkpt lat="67.8804274" lon="33.0446488"><time>2022-08-20T08:57:27</time></trkpt><trkpt lat="67.8803222" lon="33.0446898"><time>2022-08-20T08:57:40</time></trkpt><trkpt lat="67.8802737" lon="33.0447200"><time>2022-08-20T08:57:47</time></trkpt><trkpt lat="67.8802061" lon="33.0447296"><time>2022-08-20T08:57:55</time></trkpt><trkpt lat="67.8800882" lon="33.0447066"><time>2022-08-20T08:58:09</time></trkpt><trkpt lat="67.8800428" lon="33.0447064"><time>2022-08-20T08:58:13</time></trkpt><trkpt lat="67.8800188" lon="33.0447060"><time>2022-08-20T08:58:16</time></trkpt><trkpt lat="67.8799965" lon="33.0447013"><time>2022-08-20T08:58:18</time></trkpt><trkpt lat="67.8799813" lon="33.0447011"><time>2022-08-20T08:58:20</time></trkpt><trkpt lat="67.8799733" lon="33.0447012"><time>2022-08-20T08:58:21</time></trkpt><trkpt lat="67.8799042" lon="33.0446269"><time>2022-08-20T08:58:30</time></trkpt><trkpt lat="67.8798907" lon="33.0445888"><time>2022-08-20T08:58:32</time></trkpt><trkpt lat="67.8798548" lon="33.0445329"><time>2022-08-20T08:58:36</time></trkpt><trkpt lat="67.8798372" lon="33.0445105"><time>2022-08-20T08:58:38</time></trkpt><trkpt lat="67.8797773" lon="33.0443784"><time>2022-08-20T08:58:50</time></trkpt><trkpt lat="67.8796470" lon="33.0440276"><time>2022-08-20T08:59:08</time></trkpt><trkpt lat="67.8795765" lon="33.0437663"><time>2022-08-20T08:59:23</time></trkpt><trkpt lat="67.8795220" lon="33.0434932"><time>2022-08-20T08:59:44</time></trkpt><trkpt lat="67.8794521" lon="33.0432328"><time>2022-08-20T09:00:00</time></trkpt><trkpt lat="67.8793711" lon="33.0427995"><time>2022-08-20T09:00:17</time></trkpt><trkpt lat="67.8793662" lon="33.0427741"><time>2022-08-20T09:00:18</time></trkpt><trkpt lat="67.8792219" lon="33.0422616"><time>2022-08-20T09:00:36</time></trkpt><trkpt lat="67.8792008" lon="33.0421844"><time>2022-08-20T09:00:39</time></trkpt><trkpt lat="67.8790932" lon="33.0417439"><time>2022-08-20T09:00:52</time></trkpt><trkpt lat="67.8789700" lon="33.0413545"><time>2022-08-20T09:01:08</time></trkpt><trkpt lat="67.8789294" lon="33.0412503"><time>2022-08-20T09:01:12</time></trkpt><trkpt lat="67.8788597" lon="33.0411150"><time>2022-08-20T09:01:18</time></trkpt><trkpt lat="67.8787602" lon="33.0408876"><time>2022-08-20T09:01:28</time></trkpt><trkpt lat="67.8787008" lon="33.0407878"><time>2022-08-20T09:01:33</time></trkpt><trkpt lat="67.8786171" lon="33.0407161"><time>2022-08-20T09:01:50</time></trkpt><trkpt lat="67.8786386" lon="33.0407220"><time>2022-08-20T09:01:52</time></trkpt><trkpt lat="67.8786308" lon="33.0409199"><time>2022-08-20T09:02:05</time></trkpt><trkpt lat="67.8786413" lon="33.0409005"><time>2022-08-20T09:02:19</time></trkpt><trkpt lat="67.8786694" lon="33.0407690"><time>2022-08-20T09:02:24</time></trkpt><trkpt lat="67.8784961" lon="33.0405646"><time>2022-08-20T09:02:40</time></trkpt><trkpt lat="67.8783444" lon="33.0404887"><time>2022-08-20T09:02:54</time></trkpt><trkpt lat="67.8782050" lon="33.0405094"><time>2022-08-20T09:03:12</time></trkpt><trkpt lat="67.8781562" lon="33.0405228"><time>2022-08-20T09:03:17</time></trkpt><trkpt lat="67.8780316" lon="33.0404606"><time>2022-08-20T09:03:29</time></trkpt><trkpt lat="67.8779852" lon="33.0405537"><time>2022-08-20T09:03:43</time></trkpt><trkpt lat="67.8779875" lon="33.0405333"><time>2022-08-20T09:03:44</time></trkpt><trkpt lat="67.8779206" lon="33.0401761"><time>2022-08-20T09:04:00</time></trkpt><trkpt lat="67.8778655" lon="33.0397748"><time>2022-08-20T09:04:15</time></trkpt><trkpt lat="67.8777773" lon="33.0393463"><time>2022-08-20T09:04:31</time></trkpt><trkpt lat="67.8776075" lon="33.0388734"><time>2022-08-20T09:04:49</time></trkpt><trkpt lat="67.8774344" lon="33.0385530"><time>2022-08-20T09:05:05</time></trkpt><trkpt lat="67.8772750" lon="33.0382936"><time>2022-08-20T09:05:22</time></trkpt><trkpt lat="67.8771155" lon="33.0379448"><time>2022-08-20T09:05:39</time></trkpt><trkpt lat="67.8769511" lon="33.0374898"><time>2022-08-20T09:05:57</time></trkpt><trkpt lat="67.8768379" lon="33.0370382"><time>2022-08-20T09:06:16</time></trkpt><trkpt lat="67.8767188" lon="33.0367290"><time>2022-08-20T09:06:33</time></trkpt><trkpt lat="67.8766986" lon="33.0366885"><time>2022-08-20T09:07:04</time></trkpt><trkpt lat="67.8766883" lon="33.0367071"><time>2022-08-20T09:07:10</time></trkpt><trkpt lat="67.8765192" lon="33.0367193"><time>2022-08-20T09:07:28</time></trkpt><trkpt lat="67.8763222" lon="33.0368104"><time>2022-08-20T09:07:44</time></trkpt><trkpt lat="67.8760936" lon="33.0368528"><time>2022-08-20T09:08:03</time></trkpt><trkpt lat="67.8758771" lon="33.0369515"><time>2022-08-20T09:08:22</time></trkpt><trkpt lat="67.8758248" lon="33.0369631"><time>2022-08-20T09:08:31</time></trkpt><trkpt lat="67.8757537" lon="33.0370746"><time>2022-08-20T09:08:43</time></trkpt><trkpt lat="67.8756275" lon="33.0372367"><time>2022-08-20T09:08:56</time></trkpt><trkpt lat="67.8754997" lon="33.0374171"><time>2022-08-20T09:09:14</time></trkpt><trkpt lat="67.8754101" lon="33.0375904"><time>2022-08-20T09:09:28</time></trkpt><trkpt lat="67.8753310" lon="33.0377025"><time>2022-08-20T09:09:38</time></trkpt><trkpt lat="67.8752209" lon="33.0378467"><time>2022-08-20T09:09:52</time></trkpt><trkpt lat="67.8751721" lon="33.0379374"><time>2022-08-20T09:10:06</time></trkpt><trkpt lat="67.8750647" lon="33.0380234"><time>2022-08-20T09:10:25</time></trkpt><trkpt lat="67.8749792" lon="33.0380112"><time>2022-08-20T09:10:45</time></trkpt><trkpt lat="67.8749092" lon="33.0380474"><time>2022-08-20T09:11:02</time></trkpt><trkpt lat="67.8748347" lon="33.0381258"><time>2022-08-20T09:11:19</time></trkpt><trkpt lat="67.8747342" lon="33.0381810"><time>2022-08-20T09:11:36</time></trkpt><trkpt lat="67.8747128" lon="33.0382140"><time>2022-08-20T09:11:39</time></trkpt><trkpt lat="67.8747373" lon="33.0384469"><time>2022-08-20T09:11:56</time></trkpt><trkpt lat="67.8746919" lon="33.0387375"><time>2022-08-20T09:12:11</time></trkpt><trkpt lat="67.8746762" lon="33.0390001"><time>2022-08-20T09:12:26</time></trkpt><trkpt lat="67.8746116" lon="33.0391967"><time>2022-08-20T09:12:42</time></trkpt><trkpt lat="67.8745904" lon="33.0392353"><time>2022-08-20T09:13:20</time></trkpt><trkpt lat="67.8746006" lon="33.0392376"><time>2022-08-20T09:13:24</time></trkpt><trkpt lat="67.8745974" lon="33.0392675"><time>2022-08-20T09:13:27</time></trkpt><trkpt lat="67.8746116" lon="33.0393528"><time>2022-08-20T09:13:31</time></trkpt><trkpt lat="67.8745965" lon="33.0393222"><time>2022-08-20T09:13:54</time></trkpt><trkpt lat="67.8745983" lon="33.0395119"><time>2022-08-20T09:14:06</time></trkpt><trkpt lat="67.8745341" lon="33.0395553"><time>2022-08-20T09:14:19</time></trkpt><trkpt lat="67.8745344" lon="33.0396503"><time>2022-08-20T09:14:33</time></trkpt><trkpt lat="67.8745233" lon="33.0396090"><time>2022-08-20T09:14:49</time></trkpt><trkpt lat="67.8744935" lon="33.0396504"><time>2022-08-20T09:15:00</time></trkpt><trkpt lat="67.8744760" lon="33.0397135"><time>2022-08-20T09:15:16</time></trkpt><trkpt lat="67.8744686" lon="33.0399448"><time>2022-08-20T09:15:30</time></trkpt><trkpt lat="67.8744834" lon="33.0401406"><time>2022-08-20T09:15:38</time></trkpt><trkpt lat="67.8744225" lon="33.0403388"><time>2022-08-20T09:15:47</time></trkpt><trkpt lat="67.8744307" lon="33.0405787"><time>2022-08-20T09:16:00</time></trkpt><trkpt lat="67.8744309" lon="33.0407854"><time>2022-08-20T09:16:11</time></trkpt><trkpt lat="67.8744434" lon="33.0410536"><time>2022-08-20T09:16:24</time></trkpt><trkpt lat="67.8744429" lon="33.0410770"><time>2022-08-20T09:16:25</time></trkpt><trkpt lat="67.8744602" lon="33.0411822"><time>2022-08-20T09:16:29</time></trkpt><trkpt lat="67.8744813" lon="33.0412414"><time>2022-08-20T09:16:35</time></trkpt><trkpt lat="67.8745251" lon="33.0414548"><time>2022-08-20T09:16:49</time></trkpt><trkpt lat="67.8745566" lon="33.0416099"><time>2022-08-20T09:16:56</time></trkpt><trkpt lat="67.8745729" lon="33.0417352"><time>2022-08-20T09:17:01</time></trkpt><trkpt lat="67.8745671" lon="33.0420008"><time>2022-08-20T09:17:15</time></trkpt><trkpt lat="67.8746180" lon="33.0423954"><time>2022-08-20T09:17:28</time></trkpt><trkpt lat="67.8746185" lon="33.0424285"><time>2022-08-20T09:17:29</time></trkpt><trkpt lat="67.8746413" lon="33.0426540"><time>2022-08-20T09:17:39</time></trkpt><trkpt lat="67.8746448" lon="33.0427034"><time>2022-08-20T09:17:41</time></trkpt><trkpt lat="67.8745721" lon="33.0430562"><time>2022-08-20T09:17:59</time></trkpt><trkpt lat="67.8745669" lon="33.0434991"><time>2022-08-20T09:18:16</time></trkpt><trkpt lat="67.8745852" lon="33.0435903"><time>2022-08-20T09:18:36</time></trkpt><trkpt lat="67.8745769" lon="33.0436303"><time>2022-08-20T09:18:41</time></trkpt><trkpt lat="67.8745732" lon="33.0436142"><time>2022-08-20T09:18:51</time></trkpt><trkpt lat="67.8745370" lon="33.0435945"><time>2022-08-20T09:18:57</time></trkpt><trkpt lat="67.8745515" lon="33.0436317"><time>2022-08-20T09:19:00</time></trkpt><trkpt lat="67.8745599" lon="33.0437319"><time>2022-08-20T09:19:05</time></trkpt><trkpt lat="67.8745726" lon="33.0439671"><time>2022-08-20T09:19:16</time></trkpt><trkpt lat="67.8745729" lon="33.0440297"><time>2022-08-20T09:19:24</time></trkpt><trkpt lat="67.8745688" lon="33.0442458"><time>2022-08-20T09:19:37</time></trkpt><trkpt lat="67.8746141" lon="33.0444942"><time>2022-08-20T09:19:51</time></trkpt><trkpt lat="67.8746233" lon="33.0448032"><time>2022-08-20T09:20:04</time></trkpt><trkpt lat="67.8746170" lon="33.0448524"><time>2022-08-20T09:20:07</time></trkpt><trkpt lat="67.8746296" lon="33.0449768"><time>2022-08-20T09:20:11</time></trkpt><trkpt lat="67.8746354" lon="33.0452220"><time>2022-08-20T09:20:25</time></trkpt><trkpt lat="67.8746984" lon="33.0455092"><time>2022-08-20T09:20:40</time></trkpt><trkpt lat="67.8747749" lon="33.0457575"><time>2022-08-20T09:20:56</time></trkpt><trkpt lat="67.8747790" lon="33.0457580"><time>2022-08-20T09:21:13</time></trkpt><trkpt lat="67.8747663" lon="33.0458234"><time>2022-08-20T09:21:44</time></trkpt><trkpt lat="67.8747572" lon="33.0458541"><time>2022-08-20T09:21:57</time></trkpt><trkpt lat="67.8746800" lon="33.0457145"><time>2022-08-20T09:22:10</time></trkpt><trkpt lat="67.8746542" lon="33.0455865"><time>2022-08-20T09:22:24</time></trkpt><trkpt lat="67.8746459" lon="33.0454948"><time>2022-08-20T09:22:30</time></trkpt><trkpt lat="67.8745942" lon="33.0454403"><time>2022-08-20T09:22:35</time></trkpt><trkpt lat="67.8745345" lon="33.0453137"><time>2022-08-20T09:22:51</time></trkpt><trkpt lat="67.8744646" lon="33.0452036"><time>2022-08-20T09:23:04</time></trkpt><trkpt lat="67.8744598" lon="33.0452012"><time>2022-08-20T09:23:06</time></trkpt><trkpt lat="67.8744493" lon="33.0452341"><time>2022-08-20T09:23:12</time></trkpt><trkpt lat="67.8744285" lon="33.0452361"><time>2022-08-20T09:23:14</time></trkpt><trkpt lat="67.8743470" lon="33.0450353"><time>2022-08-20T09:23:24</time></trkpt><trkpt lat="67.8743122" lon="33.0450262"><time>2022-08-20T09:23:36</time></trkpt><trkpt lat="67.8742599" lon="33.0447346"><time>2022-08-20T09:23:51</time></trkpt><trkpt lat="67.8742157" lon="33.0445112"><time>2022-08-20T09:24:02</time></trkpt><trkpt lat="67.8742134" lon="33.0445033"><time>2022-08-20T09:24:04</time></trkpt><trkpt lat="67.8742096" lon="33.0444947"><time>2022-08-20T09:24:05</time></trkpt><trkpt lat="67.8742050" lon="33.0444728"><time>2022-08-20T09:24:06</time></trkpt><trkpt lat="67.8740809" lon="33.0443155"><time>2022-08-20T09:24:18</time></trkpt><trkpt lat="67.8740645" lon="33.0442949"><time>2022-08-20T09:24:20</time></trkpt><trkpt lat="67.8739953" lon="33.0441977"><time>2022-08-20T09:24:26</time></trkpt><trkpt lat="67.8738922" lon="33.0440625"><time>2022-08-20T09:24:40</time></trkpt><trkpt lat="67.8738823" lon="33.0439375"><time>2022-08-20T09:24:53</time></trkpt><trkpt lat="67.8738860" lon="33.0439476"><time>2022-08-20T09:24:58</time></trkpt><trkpt lat="67.8737930" lon="33.0438463"><time>2022-08-20T09:25:10</time></trkpt><trkpt lat="67.8737708" lon="33.0436543"><time>2022-08-20T09:25:24</time></trkpt><trkpt lat="67.8737495" lon="33.0436060"><time>2022-08-20T09:25:31</time></trkpt><trkpt lat="67.8737595" lon="33.0434963"><time>2022-08-20T09:25:44</time></trkpt><trkpt lat="67.8737803" lon="33.0434364"><time>2022-08-20T09:25:51</time></trkpt><trkpt lat="67.8736553" lon="33.0433979"><time>2022-08-20T09:26:05</time></trkpt><trkpt lat="67.8736491" lon="33.0433911"><time>2022-08-20T09:26:06</time></trkpt><trkpt lat="67.8736427" lon="33.0433784"><time>2022-08-20T09:26:07</time></trkpt><trkpt lat="67.8736017" lon="33.0432534"><time>2022-08-20T09:26:25</time></trkpt><trkpt lat="67.8735378" lon="33.0430854"><time>2022-08-20T09:26:37</time></trkpt><trkpt lat="67.8735026" lon="33.0430218"><time>2022-08-20T09:26:45</time></trkpt><trkpt lat="67.8734912" lon="33.0429910"><time>2022-08-20T09:26:49</time></trkpt><trkpt lat="67.8734857" lon="33.0429555"><time>2022-08-20T09:26:53</time></trkpt><trkpt lat="67.8734853" lon="33.0429037"><time>2022-08-20T09:26:56</time></trkpt><trkpt lat="67.8733901" lon="33.0426680"><time>2022-08-20T09:27:11</time></trkpt><trkpt lat="67.8733336" lon="33.0425055"><time>2022-08-20T09:27:20</time></trkpt><trkpt lat="67.8733458" lon="33.0424313"><time>2022-08-20T09:27:29</time></trkpt><trkpt lat="67.8733440" lon="33.0424336"><time>2022-08-20T09:27:31</time></trkpt><trkpt lat="67.8733450" lon="33.0424372"><time>2022-08-20T09:27:32</time></trkpt><trkpt lat="67.8733543" lon="33.0424033"><time>2022-08-20T09:27:39</time></trkpt><trkpt lat="67.8733548" lon="33.0423933"><time>2022-08-20T09:27:40</time></trkpt><trkpt lat="67.8733541" lon="33.0423719"><time>2022-08-20T09:27:41</time></trkpt><trkpt lat="67.8733492" lon="33.0423479"><time>2022-08-20T09:27:42</time></trkpt><trkpt lat="67.8733005" lon="33.0423294"><time>2022-08-20T09:27:48</time></trkpt><trkpt lat="67.8731953" lon="33.0423810"><time>2022-08-20T09:28:00</time></trkpt><trkpt lat="67.8731535" lon="33.0424416"><time>2022-08-20T09:28:07</time></trkpt><trkpt lat="67.8731205" lon="33.0424990"><time>2022-08-20T09:28:19</time></trkpt><trkpt lat="67.8730613" lon="33.0425560"><time>2022-08-20T09:28:30</time></trkpt><trkpt lat="67.8730503" lon="33.0425755"><time>2022-08-20T09:28:32</time></trkpt><trkpt lat="67.8729641" lon="33.0426046"><time>2022-08-20T09:28:45</time></trkpt><trkpt lat="67.8729376" lon="33.0426430"><time>2022-08-20T09:28:51</time></trkpt><trkpt lat="67.8729222" lon="33.0426530"><time>2022-08-20T09:29:04</time></trkpt><trkpt lat="67.8728758" lon="33.0427591"><time>2022-08-20T09:29:17</time></trkpt><trkpt lat="67.8728716" lon="33.0427574"><time>2022-08-20T09:29:20</time></trkpt><trkpt lat="67.8728557" lon="33.0428006"><time>2022-08-20T09:29:22</time></trkpt><trkpt lat="67.8728150" lon="33.0428773"><time>2022-08-20T09:29:29</time></trkpt><trkpt lat="67.8727422" lon="33.0428177"><time>2022-08-20T09:29:39</time></trkpt><trkpt lat="67.8727048" lon="33.0427855"><time>2022-08-20T09:29:47</time></trkpt><trkpt lat="67.8726142" lon="33.0426137"><time>2022-08-20T09:30:00</time></trkpt><trkpt lat="67.8724686" lon="33.0424253"><time>2022-08-20T09:30:16</time></trkpt><trkpt lat="67.8724281" lon="33.0421780"><time>2022-08-20T09:30:29</time></trkpt><trkpt lat="67.8723614" lon="33.0418784"><time>2022-08-20T09:30:46</time></trkpt><trkpt lat="67.8723593" lon="33.0417331"><time>2022-08-20T09:31:04</time></trkpt><trkpt lat="67.8723376" lon="33.0416557"><time>2022-08-20T09:31:10</time></trkpt><trkpt lat="67.8722895" lon="33.0414327"><time>2022-08-20T09:31:23</time></trkpt><trkpt lat="67.8722100" lon="33.0412456"><time>2022-08-20T09:31:36</time></trkpt><trkpt lat="67.8721513" lon="33.0410297"><time>2022-08-20T09:31:51</time></trkpt><trkpt lat="67.8720589" lon="33.0408911"><time>2022-08-20T09:32:05</time></trkpt><trkpt lat="67.8720760" lon="33.0409206"><time>2022-08-20T09:32:12</time></trkpt><trkpt lat="67.8720707" lon="33.0409124"><time>2022-08-20T09:32:21</time></trkpt><trkpt lat="67.8720507" lon="33.0408337"><time>2022-08-20T09:32:25</time></trkpt><trkpt lat="67.8719892" lon="33.0406349"><time>2022-08-20T09:32:35</time></trkpt><trkpt lat="67.8718993" lon="33.0409173"><time>2022-08-20T09:32:46</time></trkpt><trkpt lat="67.8718868" lon="33.0410793"><time>2022-08-20T09:32:50</time></trkpt><trkpt lat="67.8718870" lon="33.0412810"><time>2022-08-20T09:32:56</time></trkpt><trkpt lat="67.8719212" lon="33.0416119"><time>2022-08-20T09:33:12</time></trkpt><trkpt lat="67.8719283" lon="33.0416052"><time>2022-08-20T09:33:15</time></trkpt><trkpt lat="67.8718969" lon="33.0411835"><time>2022-08-20T09:33:30</time></trkpt><trkpt lat="67.8718957" lon="33.0411595"><time>2022-08-20T09:33:31</time></trkpt><trkpt lat="67.8719322" lon="33.0407380"><time>2022-08-20T09:33:45</time></trkpt><trkpt lat="67.8719400" lon="33.0404467"><time>2022-08-20T09:33:58</time></trkpt><trkpt lat="67.8718201" lon="33.0402383"><time>2022-08-20T09:34:10</time></trkpt><trkpt lat="67.8716935" lon="33.0400133"><time>2022-08-20T09:34:24</time></trkpt><trkpt lat="67.8716316" lon="33.0399015"><time>2022-08-20T09:34:37</time></trkpt><trkpt lat="67.8715727" lon="33.0398104"><time>2022-08-20T09:35:04</time></trkpt><trkpt lat="67.8714252" lon="33.0396163"><time>2022-08-20T09:35:20</time></trkpt><trkpt lat="67.8713979" lon="33.0396161"><time>2022-08-20T09:35:22</time></trkpt><trkpt lat="67.8712944" lon="33.0393383"><time>2022-08-20T09:35:38</time></trkpt><trkpt lat="67.8710954" lon="33.0390610"><time>2022-08-20T09:35:54</time></trkpt><trkpt lat="67.8710062" lon="33.0390169"><time>2022-08-20T09:36:00</time></trkpt><trkpt lat="67.8708850" lon="33.0390018"><time>2022-08-20T09:36:10</time></trkpt><trkpt lat="67.8707846" lon="33.0388923"><time>2022-08-20T09:36:24</time></trkpt><trkpt lat="67.8706506" lon="33.0387602"><time>2022-08-20T09:36:33</time></trkpt><trkpt lat="67.8706429" lon="33.0387683"><time>2022-08-20T09:36:34</time></trkpt><trkpt lat="67.8706213" lon="33.0387957"><time>2022-08-20T09:36:38</time></trkpt><trkpt lat="67.8705523" lon="33.0386974"><time>2022-08-20T09:36:52</time></trkpt><trkpt lat="67.8705161" lon="33.0385671"><time>2022-08-20T09:37:07</time></trkpt><trkpt lat="67.8704838" lon="33.0383877"><time>2022-08-20T09:37:16</time></trkpt><trkpt lat="67.8704396" lon="33.0382490"><time>2022-08-20T09:37:20</time></trkpt><trkpt lat="67.8704058" lon="33.0381877"><time>2022-08-20T09:37:23</time></trkpt><trkpt lat="67.8703608" lon="33.0381386"><time>2022-08-20T09:37:28</time></trkpt><trkpt lat="67.8702577" lon="33.0381542"><time>2022-08-20T09:37:35</time></trkpt><trkpt lat="67.8702217" lon="33.0381711"><time>2022-08-20T09:37:39</time></trkpt><trkpt lat="67.8702005" lon="33.0381416"><time>2022-08-20T09:37:43</time></trkpt><trkpt lat="67.8701894" lon="33.0380883"><time>2022-08-20T09:37:47</time></trkpt><trkpt lat="67.8701553" lon="33.0379739"><time>2022-08-20T09:37:56</time></trkpt><trkpt lat="67.8701532" lon="33.0379286"><time>2022-08-20T09:37:58</time></trkpt><trkpt lat="67.8701510" lon="33.0379135"><time>2022-08-20T09:37:59</time></trkpt><trkpt lat="67.8701422" lon="33.0378766"><time>2022-08-20T09:38:03</time></trkpt><trkpt lat="67.8701393" lon="33.0378683"><time>2022-08-20T09:38:04</time></trkpt><trkpt lat="67.8700960" lon="33.0376392"><time>2022-08-20T09:38:15</time></trkpt><trkpt lat="67.8700919" lon="33.0375875"><time>2022-08-20T09:38:17</time></trkpt><trkpt lat="67.8700854" lon="33.0374939"><time>2022-08-20T09:38:21</time></trkpt><trkpt lat="67.8700711" lon="33.0373536"><time>2022-08-20T09:38:28</time></trkpt><trkpt lat="67.8700760" lon="33.0372739"><time>2022-08-20T09:38:31</time></trkpt><trkpt lat="67.8700764" lon="33.0372273"><time>2022-08-20T09:38:33</time></trkpt><trkpt lat="67.8700693" lon="33.0371690"><time>2022-08-20T09:38:35</time></trkpt><trkpt lat="67.8700606" lon="33.0371374"><time>2022-08-20T09:38:36</time></trkpt><trkpt lat="67.8698943" lon="33.0370482"><time>2022-08-20T09:38:45</time></trkpt><trkpt lat="67.8697177" lon="33.0370987"><time>2022-08-20T09:38:56</time></trkpt><trkpt lat="67.8695172" lon="33.0370313"><time>2022-08-20T09:39:11</time></trkpt><trkpt lat="67.8694338" lon="33.0369326"><time>2022-08-20T09:39:28</time></trkpt><trkpt lat="67.8693667" lon="33.0369383"><time>2022-08-20T09:39:42</time></trkpt><trkpt lat="67.8692925" lon="33.0369204"><time>2022-08-20T09:40:01</time></trkpt><trkpt lat="67.8691977" lon="33.0368487"><time>2022-08-20T09:40:11</time></trkpt><trkpt lat="67.8690852" lon="33.0366943"><time>2022-08-20T09:40:26</time></trkpt><trkpt lat="67.8690070" lon="33.0367675"><time>2022-08-20T09:40:33</time></trkpt><trkpt lat="67.8689831" lon="33.0367412"><time>2022-08-20T09:40:36</time></trkpt><trkpt lat="67.8689569" lon="33.0367230"><time>2022-08-20T09:40:38</time></trkpt><trkpt lat="67.8688206" lon="33.0367828"><time>2022-08-20T09:40:51</time></trkpt><trkpt lat="67.8687290" lon="33.0368388"><time>2022-08-20T09:41:00</time></trkpt><trkpt lat="67.8685721" lon="33.0366621"><time>2022-08-20T09:41:15</time></trkpt><trkpt lat="67.8685369" lon="33.0366024"><time>2022-08-20T09:41:22</time></trkpt><trkpt lat="67.8683970" lon="33.0366259"><time>2022-08-20T09:41:33</time></trkpt><trkpt lat="67.8682638" lon="33.0367620"><time>2022-08-20T09:41:48</time></trkpt><trkpt lat="67.8682462" lon="33.0368456"><time>2022-08-20T09:42:04</time></trkpt><trkpt lat="67.8681197" lon="33.0370177"><time>2022-08-20T09:42:19</time></trkpt><trkpt lat="67.8680251" lon="33.0372415"><time>2022-08-20T09:42:34</time></trkpt><trkpt lat="67.8679355" lon="33.0374258"><time>2022-08-20T09:42:43</time></trkpt><trkpt lat="67.8679060" lon="33.0375129"><time>2022-08-20T09:42:48</time></trkpt><trkpt lat="67.8678655" lon="33.0375973"><time>2022-08-20T09:42:53</time></trkpt><trkpt lat="67.8678252" lon="33.0377262"><time>2022-08-20T09:42:58</time></trkpt><trkpt lat="67.8677228" lon="33.0377798"><time>2022-08-20T09:43:07</time></trkpt><trkpt lat="67.8675848" lon="33.0377837"><time>2022-08-20T09:43:20</time></trkpt><trkpt lat="67.8675278" lon="33.0377434"><time>2022-08-20T09:43:24</time></trkpt><trkpt lat="67.8674739" lon="33.0377607"><time>2022-08-20T09:43:33</time></trkpt><trkpt lat="67.8674704" lon="33.0377673"><time>2022-08-20T09:43:40</time></trkpt><trkpt lat="67.8674279" lon="33.0377189"><time>2022-08-20T09:43:55</time></trkpt><trkpt lat="67.8673875" lon="33.0376733"><time>2022-08-20T09:44:08</time></trkpt><trkpt lat="67.8673139" lon="33.0376019"><time>2022-08-20T09:44:21</time></trkpt><trkpt lat="67.8672669" lon="33.0375867"><time>2022-08-20T09:44:28</time></trkpt><trkpt lat="67.8672382" lon="33.0376547"><time>2022-08-20T09:44:43</time></trkpt><trkpt lat="67.8671868" lon="33.0378305"><time>2022-08-20T09:44:57</time></trkpt><trkpt lat="67.8671859" lon="33.0378603"><time>2022-08-20T09:44:58</time></trkpt><trkpt lat="67.8671723" lon="33.0379138"><time>2022-08-20T09:45:00</time></trkpt><trkpt lat="67.8670951" lon="33.0380941"><time>2022-08-20T09:45:11</time></trkpt><trkpt lat="67.8669966" lon="33.0380846"><time>2022-08-20T09:45:24</time></trkpt><trkpt lat="67.8669034" lon="33.0381159"><time>2022-08-20T09:45:33</time></trkpt><trkpt lat="67.8668562" lon="33.0381529"><time>2022-08-20T09:45:37</time></trkpt><trkpt lat="67.8667710" lon="33.0381633"><time>2022-08-20T09:45:52</time></trkpt><trkpt lat="67.8667785" lon="33.0383058"><time>2022-08-20T09:46:13</time></trkpt><trkpt lat="67.8667781" lon="33.0382585"><time>2022-08-20T09:46:34</time></trkpt><trkpt lat="67.8667679" lon="33.0381817"><time>2022-08-20T09:46:38</time></trkpt><trkpt lat="67.8666099" lon="33.0378606"><time>2022-08-20T09:46:57</time></trkpt><trkpt lat="67.8665741" lon="33.0377226"><time>2022-08-20T09:47:05</time></trkpt><trkpt lat="67.8665465" lon="33.0375708"><time>2022-08-20T09:47:12</time></trkpt><trkpt lat="67.8665188" lon="33.0374242"><time>2022-08-20T09:47:19</time></trkpt><trkpt lat="67.8664802" lon="33.0372535"><time>2022-08-20T09:47:29</time></trkpt><trkpt lat="67.8664122" lon="33.0368229"><time>2022-08-20T09:47:43</time></trkpt><trkpt lat="67.8663772" lon="33.0366425"><time>2022-08-20T09:47:51</time></trkpt><trkpt lat="67.8663759" lon="33.0366421"><time>2022-08-20T09:47:52</time></trkpt><trkpt lat="67.8663739" lon="33.0366269"><time>2022-08-20T09:47:53</time></trkpt><trkpt lat="67.8663406" lon="33.0363842"><time>2022-08-20T09:48:01</time></trkpt><trkpt lat="67.8663215" lon="33.0363442"><time>2022-08-20T09:48:04</time></trkpt><trkpt lat="67.8662819" lon="33.0362440"><time>2022-08-20T09:48:09</time></trkpt><trkpt lat="67.8662736" lon="33.0360127"><time>2022-08-20T09:48:18</time></trkpt><trkpt lat="67.8662164" lon="33.0358378"><time>2022-08-20T09:48:29</time></trkpt><trkpt lat="67.8661457" lon="33.0357023"><time>2022-08-20T09:48:38</time></trkpt><trkpt lat="67.8660581" lon="33.0356168"><time>2022-08-20T09:48:52</time></trkpt><trkpt lat="67.8660737" lon="33.0356450"><time>2022-08-20T09:48:56</time></trkpt><trkpt lat="67.8661051" lon="33.0355857"><time>2022-08-20T09:49:11</time></trkpt><trkpt lat="67.8660648" lon="33.0356476"><time>2022-08-20T09:49:17</time></trkpt><trkpt lat="67.8660246" lon="33.0355593"><time>2022-08-20T09:49:30</time></trkpt><trkpt lat="67.8660583" lon="33.0356296"><time>2022-08-20T09:49:43</time></trkpt><trkpt lat="67.8661344" lon="33.0355578"><time>2022-08-20T09:49:57</time></trkpt><trkpt lat="67.8661121" lon="33.0355795"><time>2022-08-20T09:50:13</time></trkpt><trkpt lat="67.8660422" lon="33.0355673"><time>2022-08-20T09:50:25</time></trkpt><trkpt lat="67.8659996" lon="33.0354890"><time>2022-08-20T09:50:39</time></trkpt><trkpt lat="67.8659833" lon="33.0353768"><time>2022-08-20T09:50:52</time></trkpt><trkpt lat="67.8659779" lon="33.0351704"><time>2022-08-20T09:51:06</time></trkpt><trkpt lat="67.8659557" lon="33.0348670"><time>2022-08-20T09:51:19</time></trkpt><trkpt lat="67.8659419" lon="33.0346817"><time>2022-08-20T09:51:30</time></trkpt><trkpt lat="67.8659769" lon="33.0345346"><time>2022-08-20T09:51:36</time></trkpt><trkpt lat="67.8659885" lon="33.0343414"><time>2022-08-20T09:51:44</time></trkpt><trkpt lat="67.8658971" lon="33.0341166"><time>2022-08-20T09:51:57</time></trkpt><trkpt lat="67.8658416" lon="33.0339452"><time>2022-08-20T09:52:06</time></trkpt><trkpt lat="67.8658060" lon="33.0338648"><time>2022-08-20T09:52:10</time></trkpt><trkpt lat="67.8657961" lon="33.0338489"><time>2022-08-20T09:52:12</time></trkpt><trkpt lat="67.8657440" lon="33.0336357"><time>2022-08-20T09:52:26</time></trkpt><trkpt lat="67.8657312" lon="33.0335997"><time>2022-08-20T09:52:28</time></trkpt><trkpt lat="67.8657006" lon="33.0334485"><time>2022-08-20T09:52:42</time></trkpt><trkpt lat="67.8656713" lon="33.0333717"><time>2022-08-20T09:52:48</time></trkpt><trkpt lat="67.8656397" lon="33.0332439"><time>2022-08-20T09:52:56</time></trkpt><trkpt lat="67.8656091" lon="33.0331746"><time>2022-08-20T09:53:01</time></trkpt><trkpt lat="67.8655431" lon="33.0329558"><time>2022-08-20T09:53:16</time></trkpt><trkpt lat="67.8654990" lon="33.0326673"><time>2022-08-20T09:53:34</time></trkpt><trkpt lat="67.8654767" lon="33.0324494"><time>2022-08-20T09:53:49</time></trkpt><trkpt lat="67.8654628" lon="33.0322586"><time>2022-08-20T09:53:59</time></trkpt><trkpt lat="67.8654066" lon="33.0319368"><time>2022-08-20T09:54:15</time></trkpt><trkpt lat="67.8653558" lon="33.0316483"><time>2022-08-20T09:54:30</time></trkpt><trkpt lat="67.8653153" lon="33.0313705"><time>2022-08-20T09:54:47</time></trkpt><trkpt lat="67.8652687" lon="33.0312173"><time>2022-08-20T09:55:02</time></trkpt><trkpt lat="67.8652462" lon="33.0311109"><time>2022-08-20T09:55:17</time></trkpt><trkpt lat="67.8652401" lon="33.0309409"><time>2022-08-20T09:55:30</time></trkpt><trkpt lat="67.8652142" lon="33.0307030"><time>2022-08-20T09:55:45</time></trkpt><trkpt lat="67.8651315" lon="33.0304437"><time>2022-08-20T09:55:58</time></trkpt><trkpt lat="67.8650372" lon="33.0302372"><time>2022-08-20T09:56:13</time></trkpt><trkpt lat="67.8649506" lon="33.0300606"><time>2022-08-20T09:56:28</time></trkpt><trkpt lat="67.8648748" lon="33.0299451"><time>2022-08-20T09:56:43</time></trkpt><trkpt lat="67.8647876" lon="33.0298213"><time>2022-08-20T09:56:59</time></trkpt><trkpt lat="67.8647629" lon="33.0297947"><time>2022-08-20T09:57:23</time></trkpt><trkpt lat="67.8647383" lon="33.0298079"><time>2022-08-20T09:58:07</time></trkpt><trkpt lat="67.8647213" lon="33.0297448"><time>2022-08-20T09:58:43</time></trkpt><trkpt lat="67.8646413" lon="33.0296313"><time>2022-08-20T09:58:59</time></trkpt><trkpt lat="67.8645805" lon="33.0295817"><time>2022-08-20T09:59:21</time></trkpt><trkpt lat="67.8644742" lon="33.0295921"><time>2022-08-20T09:59:36</time></trkpt><trkpt lat="67.8644330" lon="33.0295249"><time>2022-08-20T09:59:55</time></trkpt><trkpt lat="67.8643788" lon="33.0295649"><time>2022-08-20T10:00:07</time></trkpt><trkpt lat="67.8643856" lon="33.0296190"><time>2022-08-20T10:00:25</time></trkpt><trkpt lat="67.8643898" lon="33.0295497"><time>2022-08-20T10:00:50</time></trkpt><trkpt lat="67.8643390" lon="33.0294442"><time>2022-08-20T10:00:57</time></trkpt><trkpt lat="67.8642846" lon="33.0294173"><time>2022-08-20T10:01:05</time></trkpt><trkpt lat="67.8642411" lon="33.0293997"><time>2022-08-20T10:01:16</time></trkpt><trkpt lat="67.8642100" lon="33.0294053"><time>2022-08-20T10:01:19</time></trkpt><trkpt lat="67.8641009" lon="33.0293958"><time>2022-08-20T10:01:30</time></trkpt><trkpt lat="67.8640661" lon="33.0293486"><time>2022-08-20T10:01:43</time></trkpt><trkpt lat="67.8640662" lon="33.0293492"><time>2022-08-20T10:01:46</time></trkpt><trkpt lat="67.8640672" lon="33.0293525"><time>2022-08-20T10:01:48</time></trkpt><trkpt lat="67.8640677" lon="33.0293578"><time>2022-08-20T10:01:50</time></trkpt><trkpt lat="67.8640619" lon="33.0293547"><time>2022-08-20T10:01:51</time></trkpt><trkpt lat="67.8639920" lon="33.0292972"><time>2022-08-20T10:02:00</time></trkpt><trkpt lat="67.8639723" lon="33.0292631"><time>2022-08-20T10:02:04</time></trkpt><trkpt lat="67.8639022" lon="33.0292497"><time>2022-08-20T10:02:17</time></trkpt><trkpt lat="67.8637931" lon="33.0292455"><time>2022-08-20T10:02:33</time></trkpt><trkpt lat="67.8638007" lon="33.0292687"><time>2022-08-20T10:02:44</time></trkpt><trkpt lat="67.8639040" lon="33.0293470"><time>2022-08-20T10:02:58</time></trkpt><trkpt lat="67.8640195" lon="33.0294139"><time>2022-08-20T10:03:12</time></trkpt><trkpt lat="67.8640481" lon="33.0294378"><time>2022-08-20T10:03:16</time></trkpt><trkpt lat="67.8641118" lon="33.0294755"><time>2022-08-20T10:03:20</time></trkpt><trkpt lat="67.8642548" lon="33.0295411"><time>2022-08-20T10:03:33</time></trkpt><trkpt lat="67.8643613" lon="33.0297121"><time>2022-08-20T10:03:46</time></trkpt><trkpt lat="67.8643472" lon="33.0297608"><time>2022-08-20T10:03:51</time></trkpt><trkpt lat="67.8643214" lon="33.0299471"><time>2022-08-20T10:04:03</time></trkpt><trkpt lat="67.8642658" lon="33.0301524"><time>2022-08-20T10:04:16</time></trkpt><trkpt lat="67.8642024" lon="33.0302241"><time>2022-08-20T10:04:25</time></trkpt><trkpt lat="67.8641373" lon="33.0303764"><time>2022-08-20T10:04:37</time></trkpt><trkpt lat="67.8640854" lon="33.0306067"><time>2022-08-20T10:04:50</time></trkpt><trkpt lat="67.8640463" lon="33.0307649"><time>2022-08-20T10:05:03</time></trkpt><trkpt lat="67.8639399" lon="33.0309089"><time>2022-08-20T10:05:20</time></trkpt><trkpt lat="67.8638821" lon="33.0310679"><time>2022-08-20T10:05:34</time></trkpt><trkpt lat="67.8637878" lon="33.0312452"><time>2022-08-20T10:05:48</time></trkpt><trkpt lat="67.8636845" lon="33.0314519"><time>2022-08-20T10:06:02</time></trkpt><trkpt lat="67.8636134" lon="33.0315950"><time>2022-08-20T10:06:12</time></trkpt><trkpt lat="67.8635122" lon="33.0316868"><time>2022-08-20T10:06:27</time></trkpt><trkpt lat="67.8634486" lon="33.0317795"><time>2022-08-20T10:06:36</time></trkpt><trkpt lat="67.8633915" lon="33.0318930"><time>2022-08-20T10:06:45</time></trkpt><trkpt lat="67.8632775" lon="33.0320013"><time>2022-08-20T10:07:01</time></trkpt><trkpt lat="67.8631636" lon="33.0321682"><time>2022-08-20T10:07:15</time></trkpt><trkpt lat="67.8631198" lon="33.0323214"><time>2022-08-20T10:07:22</time></trkpt><trkpt lat="67.8630569" lon="33.0325677"><time>2022-08-20T10:07:35</time></trkpt><trkpt lat="67.8630542" lon="33.0326425"><time>2022-08-20T10:07:44</time></trkpt><trkpt lat="67.8630402" lon="33.0327015"><time>2022-08-20T10:07:47</time></trkpt><trkpt lat="67.8630075" lon="33.0327468"><time>2022-08-20T10:07:52</time></trkpt><trkpt lat="67.8629604" lon="33.0327863"><time>2022-08-20T10:07:58</time></trkpt><trkpt lat="67.8629184" lon="33.0327859"><time>2022-08-20T10:08:07</time></trkpt><trkpt lat="67.8629154" lon="33.0328310"><time>2022-08-20T10:08:17</time></trkpt><trkpt lat="67.8628886" lon="33.0328691"><time>2022-08-20T10:08:21</time></trkpt><trkpt lat="67.8628599" lon="33.0328872"><time>2022-08-20T10:08:24</time></trkpt><trkpt lat="67.8628155" lon="33.0329137"><time>2022-08-20T10:08:40</time></trkpt><trkpt lat="67.8627193" lon="33.0329949"><time>2022-08-20T10:08:51</time></trkpt><trkpt lat="67.8626787" lon="33.0330382"><time>2022-08-20T10:08:56</time></trkpt><trkpt lat="67.8626385" lon="33.0330385"><time>2022-08-20T10:09:00</time></trkpt><trkpt lat="67.8626014" lon="33.0330313"><time>2022-08-20T10:09:04</time></trkpt><trkpt lat="67.8625830" lon="33.0330116"><time>2022-08-20T10:09:06</time></trkpt><trkpt lat="67.8624736" lon="33.0330287"><time>2022-08-20T10:09:20</time></trkpt><trkpt lat="67.8623954" lon="33.0334755"><time>2022-08-20T10:09:35</time></trkpt><trkpt lat="67.8623332" lon="33.0337101"><time>2022-08-20T10:09:46</time></trkpt><trkpt lat="67.8623110" lon="33.0337476"><time>2022-08-20T10:09:49</time></trkpt><trkpt lat="67.8621753" lon="33.0340420"><time>2022-08-20T10:10:04</time></trkpt><trkpt lat="67.8621478" lon="33.0342198"><time>2022-08-20T10:10:19</time></trkpt><trkpt lat="67.8621482" lon="33.0342360"><time>2022-08-20T10:10:33</time></trkpt><trkpt lat="67.8621380" lon="33.0342409"><time>2022-08-20T10:10:35</time></trkpt><trkpt lat="67.8620720" lon="33.0342178"><time>2022-08-20T10:10:42</time></trkpt><trkpt lat="67.8620000" lon="33.0340866"><time>2022-08-20T10:10:50</time></trkpt><trkpt lat="67.8618804" lon="33.0337840"><time>2022-08-20T10:11:06</time></trkpt><trkpt lat="67.8618697" lon="33.0337631"><time>2022-08-20T10:11:12</time></trkpt><trkpt lat="67.8618256" lon="33.0336843"><time>2022-08-20T10:11:18</time></trkpt><trkpt lat="67.8618002" lon="33.0334144"><time>2022-08-20T10:11:33</time></trkpt><trkpt lat="67.8617531" lon="33.0335029"><time>2022-08-20T10:11:47</time></trkpt><trkpt lat="67.8617422" lon="33.0334852"><time>2022-08-20T10:11:49</time></trkpt><trkpt lat="67.8617209" lon="33.0333947"><time>2022-08-20T10:12:05</time></trkpt><trkpt lat="67.8617368" lon="33.0334468"><time>2022-08-20T10:12:17</time></trkpt><trkpt lat="67.8617609" lon="33.0334474"><time>2022-08-20T10:12:24</time></trkpt><trkpt lat="67.8617724" lon="33.0333905"><time>2022-08-20T10:12:42</time></trkpt><trkpt lat="67.8617682" lon="33.0333503"><time>2022-08-20T10:13:07</time></trkpt><trkpt lat="67.8617787" lon="33.0333443"><time>2022-08-20T10:13:43</time></trkpt><trkpt lat="67.8617669" lon="33.0333970"><time>2022-08-20T10:13:48</time></trkpt><trkpt lat="67.8617365" lon="33.0334029"><time>2022-08-20T10:14:02</time></trkpt><trkpt lat="67.8617373" lon="33.0334475"><time>2022-08-20T10:14:20</time></trkpt><trkpt lat="67.8617122" lon="33.0333915"><time>2022-08-20T10:14:31</time></trkpt><trkpt lat="67.8616890" lon="33.0333288"><time>2022-08-20T10:14:36</time></trkpt><trkpt lat="67.8616365" lon="33.0333811"><time>2022-08-20T10:14:48</time></trkpt><trkpt lat="67.8616599" lon="33.0333666"><time>2022-08-20T10:15:00</time></trkpt><trkpt lat="67.8616542" lon="33.0333746"><time>2022-08-20T10:15:02</time></trkpt><trkpt lat="67.8616841" lon="33.0334580"><time>2022-08-20T10:15:12</time></trkpt><trkpt lat="67.8617723" lon="33.0336368"><time>2022-08-20T10:15:22</time></trkpt><trkpt lat="67.8618272" lon="33.0338899"><time>2022-08-20T10:15:32</time></trkpt><trkpt lat="67.8619064" lon="33.0341154"><time>2022-08-20T10:15:42</time></trkpt><trkpt lat="67.8619438" lon="33.0341739"><time>2022-08-20T10:15:46</time></trkpt><trkpt lat="67.8621151" lon="33.0343132"><time>2022-08-20T10:16:02</time></trkpt><trkpt lat="67.8621291" lon="33.0343373"><time>2022-08-20T10:16:05</time></trkpt><trkpt lat="67.8621794" lon="33.0343465"><time>2022-08-20T10:16:14</time></trkpt><trkpt lat="67.8621951" lon="33.0343361"><time>2022-08-20T10:16:16</time></trkpt><trkpt lat="67.8622017" lon="33.0343228"><time>2022-08-20T10:16:17</time></trkpt><trkpt lat="67.8621436" lon="33.0341380"><time>2022-08-20T10:16:23</time></trkpt><trkpt lat="67.8620168" lon="33.0339877"><time>2022-08-20T10:16:32</time></trkpt><trkpt lat="67.8619271" lon="33.0337163"><time>2022-08-20T10:16:41</time></trkpt><trkpt lat="67.8617717" lon="33.0334572"><time>2022-08-20T10:16:56</time></trkpt><trkpt lat="67.8617259" lon="33.0333583"><time>2022-08-20T10:17:14</time></trkpt><trkpt lat="67.8617498" lon="33.0333419"><time>2022-08-20T10:17:25</time></trkpt><trkpt lat="67.8617572" lon="33.0333448"><time>2022-08-20T10:17:28</time></trkpt><trkpt lat="67.8617437" lon="33.0333457"><time>2022-08-20T10:18:02</time></trkpt><trkpt lat="67.8617277" lon="33.0333612"><time>2022-08-20T10:18:27</time></trkpt><trkpt lat="67.8617445" lon="33.0333412"><time>2022-08-20T10:18:55</time></trkpt><trkpt lat="67.8617297" lon="33.0332228"><time>2022-08-20T10:19:23</time></trkpt><trkpt lat="67.8617285" lon="33.0332120"><time>2022-08-20T10:19:24</time></trkpt><trkpt lat="67.8617292" lon="33.0331901"><time>2022-08-20T10:19:26</time></trkpt><trkpt lat="67.8617401" lon="33.0331423"><time>2022-08-20T10:19:31</time></trkpt><trkpt lat="67.8617509" lon="33.0331490"><time>2022-08-20T10:19:45</time></trkpt><trkpt lat="67.8617523" lon="33.0331460"><time>2022-08-20T10:19:47</time></trkpt><trkpt lat="67.8617507" lon="33.0330935"><time>2022-08-20T10:20:06</time></trkpt><trkpt lat="67.8617521" lon="33.0330931"><time>2022-08-20T10:20:17</time></trkpt><trkpt lat="67.8617517" lon="33.0331021"><time>2022-08-20T10:20:54</time></trkpt><trkpt lat="67.8617596" lon="33.0330470"><time>2022-08-20T10:21:19</time></trkpt><trkpt lat="67.8617597" lon="33.0330551"><time>2022-08-20T10:21:21</time></trkpt><trkpt lat="67.8617424" lon="33.0330903"><time>2022-08-20T10:21:54</time></trkpt><trkpt lat="67.8617389" lon="33.0330897"><time>2022-08-20T10:22:26</time></trkpt><trkpt lat="67.8617408" lon="33.0331142"><time>2022-08-20T10:22:58</time></trkpt><trkpt lat="67.8617347" lon="33.0330876"><time>2022-08-20T10:23:27</time></trkpt><trkpt lat="67.8617309" lon="33.0331208"><time>2022-08-20T10:23:53</time></trkpt><trkpt lat="67.8617362" lon="33.0331223"><time>2022-08-20T10:23:55</time></trkpt><trkpt lat="67.8617569" lon="33.0331281"><time>2022-08-20T10:24:10</time></trkpt><trkpt lat="67.8617841" lon="33.0330971"><time>2022-08-20T10:24:27</time></trkpt><trkpt lat="67.8617681" lon="33.0331337"><time>2022-08-20T10:24:35</time></trkpt><trkpt lat="67.8618120" lon="33.0330279"><time>2022-08-20T10:24:41</time></trkpt><trkpt lat="67.8619517" lon="33.0329605"><time>2022-08-20T10:24:53</time></trkpt><trkpt lat="67.8621523" lon="33.0329889"><time>2022-08-20T10:25:08</time></trkpt><trkpt lat="67.8622480" lon="33.0329023"><time>2022-08-20T10:25:23</time></trkpt><trkpt lat="67.8623837" lon="33.0325931"><time>2022-08-20T10:25:36</time></trkpt><trkpt lat="67.8624499" lon="33.0325040"><time>2022-08-20T10:25:42</time></trkpt><trkpt lat="67.8625393" lon="33.0324224"><time>2022-08-20T10:25:56</time></trkpt><trkpt lat="67.8625402" lon="33.0324166"><time>2022-08-20T10:25:59</time></trkpt><trkpt lat="67.8625451" lon="33.0324102"><time>2022-08-20T10:26:13</time></trkpt><trkpt lat="67.8625530" lon="33.0323497"><time>2022-08-20T10:26:17</time></trkpt><trkpt lat="67.8625850" lon="33.0322281"><time>2022-08-20T10:26:32</time></trkpt><trkpt lat="67.8625907" lon="33.0322202"><time>2022-08-20T10:26:38</time></trkpt><trkpt lat="67.8626248" lon="33.0321818"><time>2022-08-20T10:26:43</time></trkpt><trkpt lat="67.8626496" lon="33.0322082"><time>2022-08-20T10:26:46</time></trkpt><trkpt lat="67.8627010" lon="33.0321195"><time>2022-08-20T10:27:00</time></trkpt><trkpt lat="67.8627332" lon="33.0320882"><time>2022-08-20T10:27:05</time></trkpt><trkpt lat="67.8628008" lon="33.0320850"><time>2022-08-20T10:27:12</time></trkpt><trkpt lat="67.8628512" lon="33.0322001"><time>2022-08-20T10:27:24</time></trkpt><trkpt lat="67.8628988" lon="33.0321015"><time>2022-08-20T10:27:34</time></trkpt><trkpt lat="67.8629010" lon="33.0321010"><time>2022-08-20T10:27:35</time></trkpt><trkpt lat="67.8629092" lon="33.0321084"><time>2022-08-20T10:27:50</time></trkpt><trkpt lat="67.8629615" lon="33.0320149"><time>2022-08-20T10:28:03</time></trkpt><trkpt lat="67.8630175" lon="33.0318783"><time>2022-08-20T10:28:14</time></trkpt><trkpt lat="67.8630377" lon="33.0318996"><time>2022-08-20T10:28:19</time></trkpt><trkpt lat="67.8630569" lon="33.0318823"><time>2022-08-20T10:28:21</time></trkpt><trkpt lat="67.8630880" lon="33.0318788"><time>2022-08-20T10:28:26</time></trkpt><trkpt lat="67.8631299" lon="33.0318747"><time>2022-08-20T10:28:30</time></trkpt><trkpt lat="67.8631479" lon="33.0318848"><time>2022-08-20T10:28:33</time></trkpt><trkpt lat="67.8631965" lon="33.0318922"><time>2022-08-20T10:28:39</time></trkpt><trkpt lat="67.8632598" lon="33.0318146"><time>2022-08-20T10:28:53</time></trkpt><trkpt lat="67.8632715" lon="33.0317738"><time>2022-08-20T10:29:00</time></trkpt><trkpt lat="67.8632859" lon="33.0317488"><time>2022-08-20T10:29:04</time></trkpt><trkpt lat="67.8632919" lon="33.0317400"><time>2022-08-20T10:29:06</time></trkpt><trkpt lat="67.8633268" lon="33.0315378"><time>2022-08-20T10:29:17</time></trkpt><trkpt lat="67.8633277" lon="33.0315252"><time>2022-08-20T10:29:18</time></trkpt><trkpt lat="67.8633443" lon="33.0315071"><time>2022-08-20T10:29:20</time></trkpt><trkpt lat="67.8634237" lon="33.0315023"><time>2022-08-20T10:29:34</time></trkpt><trkpt lat="67.8634488" lon="33.0315034"><time>2022-08-20T10:29:38</time></trkpt><trkpt lat="67.8635147" lon="33.0314726"><time>2022-08-20T10:29:51</time></trkpt><trkpt lat="67.8635562" lon="33.0314740"><time>2022-08-20T10:29:58</time></trkpt><trkpt lat="67.8635834" lon="33.0315259"><time>2022-08-20T10:30:02</time></trkpt><trkpt lat="67.8636810" lon="33.0315920"><time>2022-08-20T10:30:15</time></trkpt><trkpt lat="67.8637116" lon="33.0315738"><time>2022-08-20T10:30:19</time></trkpt><trkpt lat="67.8637139" lon="33.0315758"><time>2022-08-20T10:30:21</time></trkpt><trkpt lat="67.8637468" lon="33.0315009"><time>2022-08-20T10:30:40</time></trkpt><trkpt lat="67.8637781" lon="33.0314816"><time>2022-08-20T10:31:21</time></trkpt><trkpt lat="67.8638092" lon="33.0314096"><time>2022-08-20T10:31:35</time></trkpt><trkpt lat="67.8638779" lon="33.0313126"><time>2022-08-20T10:31:47</time></trkpt><trkpt lat="67.8639124" lon="33.0312301"><time>2022-08-20T10:31:52</time></trkpt><trkpt lat="67.8639678" lon="33.0310899"><time>2022-08-20T10:32:04</time></trkpt><trkpt lat="67.8640533" lon="33.0309438"><time>2022-08-20T10:32:19</time></trkpt><trkpt lat="67.8640619" lon="33.0309295"><time>2022-08-20T10:32:20</time></trkpt><trkpt lat="67.8641061" lon="33.0307854"><time>2022-08-20T10:32:28</time></trkpt><trkpt lat="67.8641599" lon="33.0305315"><time>2022-08-20T10:32:42</time></trkpt><trkpt lat="67.8642272" lon="33.0304279"><time>2022-08-20T10:32:55</time></trkpt><trkpt lat="67.8642198" lon="33.0304023"><time>2022-08-20T10:32:59</time></trkpt><trkpt lat="67.8642241" lon="33.0304139"><time>2022-08-20T10:33:03</time></trkpt><trkpt lat="67.8642793" lon="33.0303221"><time>2022-08-20T10:33:24</time></trkpt><trkpt lat="67.8642732" lon="33.0302164"><time>2022-08-20T10:33:37</time></trkpt><trkpt lat="67.8643376" lon="33.0300600"><time>2022-08-20T10:33:52</time></trkpt><trkpt lat="67.8643863" lon="33.0298896"><time>2022-08-20T10:34:14</time></trkpt><trkpt lat="67.8643836" lon="33.0298204"><time>2022-08-20T10:34:17</time></trkpt><trkpt lat="67.8644349" lon="33.0296118"><time>2022-08-20T10:34:31</time></trkpt><trkpt lat="67.8644304" lon="33.0294551"><time>2022-08-20T10:34:45</time></trkpt><trkpt lat="67.8644193" lon="33.0292634"><time>2022-08-20T10:34:58</time></trkpt><trkpt lat="67.8644389" lon="33.0291505"><time>2022-08-20T10:35:09</time></trkpt><trkpt lat="67.8644707" lon="33.0290894"><time>2022-08-20T10:35:22</time></trkpt><trkpt lat="67.8645410" lon="33.0290065"><time>2022-08-20T10:35:46</time></trkpt><trkpt lat="67.8645585" lon="33.0289562"><time>2022-08-20T10:35:50</time></trkpt><trkpt lat="67.8645689" lon="33.0289133"><time>2022-08-20T10:35:52</time></trkpt><trkpt lat="67.8645741" lon="33.0288842"><time>2022-08-20T10:35:54</time></trkpt><trkpt lat="67.8645620" lon="33.0288075"><time>2022-08-20T10:35:59</time></trkpt><trkpt lat="67.8645612" lon="33.0287528"><time>2022-08-20T10:36:02</time></trkpt><trkpt lat="67.8645633" lon="33.0287291"><time>2022-08-20T10:36:04</time></trkpt><trkpt lat="67.8646112" lon="33.0286856"><time>2022-08-20T10:36:19</time></trkpt><trkpt lat="67.8647349" lon="33.0285957"><time>2022-08-20T10:36:34</time></trkpt><trkpt lat="67.8647891" lon="33.0284817"><time>2022-08-20T10:36:51</time></trkpt><trkpt lat="67.8648457" lon="33.0285185"><time>2022-08-20T10:37:05</time></trkpt><trkpt lat="67.8649017" lon="33.0285532"><time>2022-08-20T10:37:16</time></trkpt><trkpt lat="67.8649500" lon="33.0285354"><time>2022-08-20T10:37:25</time></trkpt><trkpt lat="67.8649636" lon="33.0285232"><time>2022-08-20T10:37:28</time></trkpt><trkpt lat="67.8649712" lon="33.0285056"><time>2022-08-20T10:37:31</time></trkpt><trkpt lat="67.8649735" lon="33.0285016"><time>2022-08-20T10:37:35</time></trkpt><trkpt lat="67.8650537" lon="33.0284420"><time>2022-08-20T10:37:50</time></trkpt><trkpt lat="67.8650663" lon="33.0284061"><time>2022-08-20T10:37:52</time></trkpt><trkpt lat="67.8650812" lon="33.0283188"><time>2022-08-20T10:37:56</time></trkpt><trkpt lat="67.8650919" lon="33.0282637"><time>2022-08-20T10:37:59</time></trkpt><trkpt lat="67.8651004" lon="33.0282037"><time>2022-08-20T10:38:01</time></trkpt><trkpt lat="67.8650998" lon="33.0281820"><time>2022-08-20T10:38:05</time></trkpt><trkpt lat="67.8651304" lon="33.0281276"><time>2022-08-20T10:38:09</time></trkpt><trkpt lat="67.8651947" lon="33.0279860"><time>2022-08-20T10:38:20</time></trkpt><trkpt lat="67.8651812" lon="33.0280829"><time>2022-08-20T10:38:27</time></trkpt><trkpt lat="67.8652636" lon="33.0281103"><time>2022-08-20T10:38:41</time></trkpt><trkpt lat="67.8652990" lon="33.0281276"><time>2022-08-20T10:38:46</time></trkpt><trkpt lat="67.8653894" lon="33.0282041"><time>2022-08-20T10:39:03</time></trkpt><trkpt lat="67.8654466" lon="33.0282157"><time>2022-08-20T10:39:24</time></trkpt><trkpt lat="67.8654770" lon="33.0281871"><time>2022-08-20T10:39:27</time></trkpt><trkpt lat="67.8655191" lon="33.0281140"><time>2022-08-20T10:39:32</time></trkpt><trkpt lat="67.8656300" lon="33.0279088"><time>2022-08-20T10:39:47</time></trkpt><trkpt lat="67.8657145" lon="33.0277695"><time>2022-08-20T10:40:03</time></trkpt><trkpt lat="67.8657317" lon="33.0277416"><time>2022-08-20T10:40:05</time></trkpt><trkpt lat="67.8658072" lon="33.0276394"><time>2022-08-20T10:40:18</time></trkpt><trkpt lat="67.8658493" lon="33.0275374"><time>2022-08-20T10:40:24</time></trkpt><trkpt lat="67.8658598" lon="33.0275057"><time>2022-08-20T10:40:26</time></trkpt><trkpt lat="67.8658839" lon="33.0274685"><time>2022-08-20T10:40:29</time></trkpt><trkpt lat="67.8658993" lon="33.0274557"><time>2022-08-20T10:40:31</time></trkpt><trkpt lat="67.8659287" lon="33.0274258"><time>2022-08-20T10:40:48</time></trkpt><trkpt lat="67.8659722" lon="33.0273317"><time>2022-08-20T10:41:02</time></trkpt><trkpt lat="67.8659982" lon="33.0271424"><time>2022-08-20T10:41:15</time></trkpt><trkpt lat="67.8659832" lon="33.0269503"><time>2022-08-20T10:41:31</time></trkpt><trkpt lat="67.8659727" lon="33.0268207"><time>2022-08-20T10:41:39</time></trkpt><trkpt lat="67.8659849" lon="33.0266232"><time>2022-08-20T10:41:54</time></trkpt><trkpt lat="67.8660671" lon="33.0265526"><time>2022-08-20T10:42:10</time></trkpt><trkpt lat="67.8661173" lon="33.0263809"><time>2022-08-20T10:42:26</time></trkpt><trkpt lat="67.8661533" lon="33.0261211"><time>2022-08-20T10:42:40</time></trkpt><trkpt lat="67.8661606" lon="33.0260752"><time>2022-08-20T10:42:44</time></trkpt><trkpt lat="67.8661707" lon="33.0258952"><time>2022-08-20T10:43:16</time></trkpt><trkpt lat="67.8661765" lon="33.0256636"><time>2022-08-20T10:43:33</time></trkpt><trkpt lat="67.8661562" lon="33.0255138"><time>2022-08-20T10:43:47</time></trkpt><trkpt lat="67.8662147" lon="33.0254359"><time>2022-08-20T10:44:04</time></trkpt><trkpt lat="67.8662509" lon="33.0253251"><time>2022-08-20T10:44:21</time></trkpt><trkpt lat="67.8663324" lon="33.0252874"><time>2022-08-20T10:44:37</time></trkpt><trkpt lat="67.8663988" lon="33.0251097"><time>2022-08-20T10:44:56</time></trkpt><trkpt lat="67.8664419" lon="33.0249597"><time>2022-08-20T10:45:18</time></trkpt><trkpt lat="67.8664149" lon="33.0248029"><time>2022-08-20T10:45:28</time></trkpt><trkpt lat="67.8664421" lon="33.0246671"><time>2022-08-20T10:45:41</time></trkpt><trkpt lat="67.8664616" lon="33.0244636"><time>2022-08-20T10:45:56</time></trkpt><trkpt lat="67.8664359" lon="33.0243320"><time>2022-08-20T10:46:01</time></trkpt><trkpt lat="67.8664518" lon="33.0244175"><time>2022-08-20T10:46:17</time></trkpt><trkpt lat="67.8664905" lon="33.0245366"><time>2022-08-20T10:46:30</time></trkpt><trkpt lat="67.8665466" lon="33.0245507"><time>2022-08-20T10:46:46</time></trkpt><trkpt lat="67.8665571" lon="33.0245580"><time>2022-08-20T10:47:06</time></trkpt><trkpt lat="67.8665733" lon="33.0245729"><time>2022-08-20T10:47:22</time></trkpt><trkpt lat="67.8666405" lon="33.0246217"><time>2022-08-20T10:47:31</time></trkpt><trkpt lat="67.8667258" lon="33.0246778"><time>2022-08-20T10:47:39</time></trkpt><trkpt lat="67.8668042" lon="33.0245467"><time>2022-08-20T10:47:51</time></trkpt><trkpt lat="67.8668401" lon="33.0243584"><time>2022-08-20T10:48:02</time></trkpt><trkpt lat="67.8668716" lon="33.0242800"><time>2022-08-20T10:48:07</time></trkpt><trkpt lat="67.8668934" lon="33.0241722"><time>2022-08-20T10:48:12</time></trkpt><trkpt lat="67.8668693" lon="33.0239580"><time>2022-08-20T10:48:24</time></trkpt><trkpt lat="67.8668640" lon="33.0239036"><time>2022-08-20T10:48:34</time></trkpt><trkpt lat="67.8668406" lon="33.0237975"><time>2022-08-20T10:48:39</time></trkpt><trkpt lat="67.8667914" lon="33.0235760"><time>2022-08-20T10:48:51</time></trkpt><trkpt lat="67.8667907" lon="33.0235505"><time>2022-08-20T10:48:52</time></trkpt><trkpt lat="67.8667311" lon="33.0233542"><time>2022-08-20T10:49:06</time></trkpt><trkpt lat="67.8666606" lon="33.0230946"><time>2022-08-20T10:49:21</time></trkpt><trkpt lat="67.8666349" lon="33.0228767"><time>2022-08-20T10:49:35</time></trkpt><trkpt lat="67.8666558" lon="33.0227968"><time>2022-08-20T10:49:42</time></trkpt><trkpt lat="67.8666719" lon="33.0227778"><time>2022-08-20T10:49:45</time></trkpt><trkpt lat="67.8667225" lon="33.0226859"><time>2022-08-20T10:49:56</time></trkpt><trkpt lat="67.8667363" lon="33.0226697"><time>2022-08-20T10:49:58</time></trkpt><trkpt lat="67.8667910" lon="33.0226106"><time>2022-08-20T10:50:06</time></trkpt><trkpt lat="67.8668105" lon="33.0226075"><time>2022-08-20T10:50:08</time></trkpt><trkpt lat="67.8669278" lon="33.0224944"><time>2022-08-20T10:50:22</time></trkpt><trkpt lat="67.8670317" lon="33.0223641"><time>2022-08-20T10:50:41</time></trkpt><trkpt lat="67.8670627" lon="33.0223271"><time>2022-08-20T10:50:45</time></trkpt><trkpt lat="67.8671111" lon="33.0221588"><time>2022-08-20T10:51:04</time></trkpt><trkpt lat="67.8671538" lon="33.0220358"><time>2022-08-20T10:51:15</time></trkpt><trkpt lat="67.8671635" lon="33.0219197"><time>2022-08-20T10:51:22</time></trkpt><trkpt lat="67.8671806" lon="33.0217783"><time>2022-08-20T10:51:29</time></trkpt><trkpt lat="67.8672641" lon="33.0215633"><time>2022-08-20T10:51:44</time></trkpt><trkpt lat="67.8673200" lon="33.0212149"><time>2022-08-20T10:52:05</time></trkpt><trkpt lat="67.8673185" lon="33.0211280"><time>2022-08-20T10:52:12</time></trkpt><trkpt lat="67.8673128" lon="33.0210680"><time>2022-08-20T10:52:21</time></trkpt><trkpt lat="67.8673049" lon="33.0210159"><time>2022-08-20T10:52:32</time></trkpt><trkpt lat="67.8673103" lon="33.0209952"><time>2022-08-20T10:52:34</time></trkpt><trkpt lat="67.8673399" lon="33.0208741"><time>2022-08-20T10:52:47</time></trkpt><trkpt lat="67.8673461" lon="33.0208986"><time>2022-08-20T10:53:02</time></trkpt><trkpt lat="67.8673412" lon="33.0208908"><time>2022-08-20T10:53:03</time></trkpt><trkpt lat="67.8673010" lon="33.0208002"><time>2022-08-20T10:53:10</time></trkpt><trkpt lat="67.8672763" lon="33.0205768"><time>2022-08-20T10:53:22</time></trkpt><trkpt lat="67.8672626" lon="33.0204763"><time>2022-08-20T10:53:30</time></trkpt><trkpt lat="67.8672592" lon="33.0204444"><time>2022-08-20T10:53:34</time></trkpt><trkpt lat="67.8673009" lon="33.0202042"><time>2022-08-20T10:53:46</time></trkpt><trkpt lat="67.8673527" lon="33.0200670"><time>2022-08-20T10:53:57</time></trkpt><trkpt lat="67.8673599" lon="33.0200508"><time>2022-08-20T10:53:58</time></trkpt><trkpt lat="67.8673817" lon="33.0200110"><time>2022-08-20T10:54:02</time></trkpt><trkpt lat="67.8673835" lon="33.0199768"><time>2022-08-20T10:54:04</time></trkpt><trkpt lat="67.8673920" lon="33.0199371"><time>2022-08-20T10:54:07</time></trkpt><trkpt lat="67.8673991" lon="33.0199077"><time>2022-08-20T10:54:10</time></trkpt><trkpt lat="67.8673863" lon="33.0198529"><time>2022-08-20T10:54:17</time></trkpt><trkpt lat="67.8673874" lon="33.0198511"><time>2022-08-20T10:54:19</time></trkpt><trkpt lat="67.8674033" lon="33.0197409"><time>2022-08-20T10:54:29</time></trkpt><trkpt lat="67.8673997" lon="33.0197005"><time>2022-08-20T10:54:33</time></trkpt><trkpt lat="67.8673973" lon="33.0195690"><time>2022-08-20T10:54:53</time></trkpt><trkpt lat="67.8673992" lon="33.0195456"><time>2022-08-20T10:54:56</time></trkpt><trkpt lat="67.8673895" lon="33.0194222"><time>2022-08-20T10:55:10</time></trkpt><trkpt lat="67.8674027" lon="33.0193934"><time>2022-08-20T10:55:13</time></trkpt><trkpt lat="67.8674771" lon="33.0192434"><time>2022-08-20T10:55:26</time></trkpt><trkpt lat="67.8674796" lon="33.0192205"><time>2022-08-20T10:55:28</time></trkpt><trkpt lat="67.8674993" lon="33.0190685"><time>2022-08-20T10:55:39</time></trkpt><trkpt lat="67.8675342" lon="33.0189856"><time>2022-08-20T10:55:49</time></trkpt><trkpt lat="67.8675876" lon="33.0188720"><time>2022-08-20T10:56:01</time></trkpt><trkpt lat="67.8676003" lon="33.0188152"><time>2022-08-20T10:56:04</time></trkpt><trkpt lat="67.8676198" lon="33.0186978"><time>2022-08-20T10:56:10</time></trkpt><trkpt lat="67.8676340" lon="33.0186230"><time>2022-08-20T10:56:15</time></trkpt><trkpt lat="67.8676552" lon="33.0184924"><time>2022-08-20T10:56:22</time></trkpt><trkpt lat="67.8676787" lon="33.0183893"><time>2022-08-20T10:56:30</time></trkpt><trkpt lat="67.8676874" lon="33.0182904"><time>2022-08-20T10:56:37</time></trkpt><trkpt lat="67.8676930" lon="33.0182135"><time>2022-08-20T10:56:44</time></trkpt><trkpt lat="67.8677060" lon="33.0181370"><time>2022-08-20T10:56:50</time></trkpt><trkpt lat="67.8677115" lon="33.0180402"><time>2022-08-20T10:57:02</time></trkpt><trkpt lat="67.8677051" lon="33.0180120"><time>2022-08-20T10:57:10</time></trkpt><trkpt lat="67.8677080" lon="33.0180068"><time>2022-08-20T10:57:11</time></trkpt><trkpt lat="67.8677206" lon="33.0179658"><time>2022-08-20T10:57:14</time></trkpt><trkpt lat="67.8677792" lon="33.0178353"><time>2022-08-20T10:57:25</time></trkpt><trkpt lat="67.8678141" lon="33.0176627"><time>2022-08-20T10:57:38</time></trkpt><trkpt lat="67.8678638" lon="33.0174926"><time>2022-08-20T10:57:50</time></trkpt><trkpt lat="67.8679102" lon="33.0173617"><time>2022-08-20T10:58:01</time></trkpt><trkpt lat="67.8679692" lon="33.0171958"><time>2022-08-20T10:58:13</time></trkpt><trkpt lat="67.8680096" lon="33.0170667"><time>2022-08-20T10:58:24</time></trkpt><trkpt lat="67.8680206" lon="33.0170226"><time>2022-08-20T10:58:26</time></trkpt><trkpt lat="67.8680321" lon="33.0169705"><time>2022-08-20T10:58:30</time></trkpt><trkpt lat="67.8680949" lon="33.0168394"><time>2022-08-20T10:58:41</time></trkpt><trkpt lat="67.8681050" lon="33.0166909"><time>2022-08-20T10:58:50</time></trkpt><trkpt lat="67.8681074" lon="33.0166311"><time>2022-08-20T10:58:52</time></trkpt><trkpt lat="67.8681360" lon="33.0164974"><time>2022-08-20T10:59:00</time></trkpt><trkpt lat="67.8681758" lon="33.0164403"><time>2022-08-20T10:59:06</time></trkpt><trkpt lat="67.8682419" lon="33.0162791"><time>2022-08-20T10:59:19</time></trkpt><trkpt lat="67.8682819" lon="33.0161547"><time>2022-08-20T10:59:26</time></trkpt><trkpt lat="67.8683852" lon="33.0160299"><time>2022-08-20T10:59:40</time></trkpt><trkpt lat="67.8683993" lon="33.0160104"><time>2022-08-20T10:59:42</time></trkpt><trkpt lat="67.8684308" lon="33.0159175"><time>2022-08-20T10:59:48</time></trkpt><trkpt lat="67.8684791" lon="33.0158667"><time>2022-08-20T11:00:01</time></trkpt><trkpt lat="67.8685540" lon="33.0156817"><time>2022-08-20T11:00:15</time></trkpt><trkpt lat="67.8685642" lon="33.0156563"><time>2022-08-20T11:00:17</time></trkpt><trkpt lat="67.8685779" lon="33.0155344"><time>2022-08-20T11:00:23</time></trkpt><trkpt lat="67.8685883" lon="33.0154280"><time>2022-08-20T11:00:29</time></trkpt><trkpt lat="67.8686177" lon="33.0153237"><time>2022-08-20T11:00:36</time></trkpt><trkpt lat="67.8686476" lon="33.0151087"><time>2022-08-20T11:00:48</time></trkpt><trkpt lat="67.8686746" lon="33.0149084"><time>2022-08-20T11:01:00</time></trkpt><trkpt lat="67.8687343" lon="33.0147545"><time>2022-08-20T11:01:10</time></trkpt><trkpt lat="67.8687550" lon="33.0146999"><time>2022-08-20T11:01:14</time></trkpt><trkpt lat="67.8687757" lon="33.0146580"><time>2022-08-20T11:01:17</time></trkpt><trkpt lat="67.8688013" lon="33.0145667"><time>2022-08-20T11:01:22</time></trkpt><trkpt lat="67.8688218" lon="33.0145261"><time>2022-08-20T11:01:25</time></trkpt><trkpt lat="67.8688782" lon="33.0143567"><time>2022-08-20T11:01:34</time></trkpt><trkpt lat="67.8688803" lon="33.0143514"><time>2022-08-20T11:01:35</time></trkpt><trkpt lat="67.8688865" lon="33.0142919"><time>2022-08-20T11:01:44</time></trkpt><trkpt lat="67.8688894" lon="33.0142714"><time>2022-08-20T11:01:53</time></trkpt><trkpt lat="67.8688994" lon="33.0142516"><time>2022-08-20T11:01:55</time></trkpt><trkpt lat="67.8689233" lon="33.0141717"><time>2022-08-20T11:02:00</time></trkpt><trkpt lat="67.8689311" lon="33.0141241"><time>2022-08-20T11:02:03</time></trkpt><trkpt lat="67.8689384" lon="33.0140632"><time>2022-08-20T11:02:06</time></trkpt><trkpt lat="67.8689246" lon="33.0140071"><time>2022-08-20T11:02:09</time></trkpt><trkpt lat="67.8689772" lon="33.0138583"><time>2022-08-20T11:02:19</time></trkpt><trkpt lat="67.8689827" lon="33.0138402"><time>2022-08-20T11:02:21</time></trkpt><trkpt lat="67.8690092" lon="33.0138107"><time>2022-08-20T11:02:25</time></trkpt><trkpt lat="67.8690461" lon="33.0137704"><time>2022-08-20T11:02:31</time></trkpt><trkpt lat="67.8690653" lon="33.0137262"><time>2022-08-20T11:02:34</time></trkpt><trkpt lat="67.8691307" lon="33.0136164"><time>2022-08-20T11:02:46</time></trkpt><trkpt lat="67.8691542" lon="33.0135568"><time>2022-08-20T11:02:52</time></trkpt><trkpt lat="67.8691758" lon="33.0135426"><time>2022-08-20T11:02:55</time></trkpt><trkpt lat="67.8691922" lon="33.0135137"><time>2022-08-20T11:02:57</time></trkpt><trkpt lat="67.8692075" lon="33.0134645"><time>2022-08-20T11:03:00</time></trkpt><trkpt lat="67.8692251" lon="33.0134186"><time>2022-08-20T11:03:03</time></trkpt><trkpt lat="67.8692406" lon="33.0133616"><time>2022-08-20T11:03:06</time></trkpt><trkpt lat="67.8692821" lon="33.0132873"><time>2022-08-20T11:03:12</time></trkpt><trkpt lat="67.8692902" lon="33.0132709"><time>2022-08-20T11:03:14</time></trkpt><trkpt lat="67.8693450" lon="33.0131796"><time>2022-08-20T11:03:24</time></trkpt><trkpt lat="67.8693978" lon="33.0131013"><time>2022-08-20T11:03:32</time></trkpt><trkpt lat="67.8694116" lon="33.0130408"><time>2022-08-20T11:03:42</time></trkpt><trkpt lat="67.8694373" lon="33.0129609"><time>2022-08-20T11:04:01</time></trkpt><trkpt lat="67.8694309" lon="33.0129671"><time>2022-08-20T11:04:23</time></trkpt><trkpt lat="67.8694393" lon="33.0129057"><time>2022-08-20T11:04:29</time></trkpt><trkpt lat="67.8694532" lon="33.0128625"><time>2022-08-20T11:04:32</time></trkpt><trkpt lat="67.8694745" lon="33.0128203"><time>2022-08-20T11:04:35</time></trkpt><trkpt lat="67.8695092" lon="33.0127001"><time>2022-08-20T11:04:41</time></trkpt><trkpt lat="67.8695546" lon="33.0125792"><time>2022-08-20T11:04:53</time></trkpt><trkpt lat="67.8695419" lon="33.0125845"><time>2022-08-20T11:04:58</time></trkpt><trkpt lat="67.8695098" lon="33.0126219"><time>2022-08-20T11:05:02</time></trkpt><trkpt lat="67.8694069" lon="33.0126158"><time>2022-08-20T11:05:14</time></trkpt><trkpt lat="67.8694093" lon="33.0125831"><time>2022-08-20T11:05:29</time></trkpt><trkpt lat="67.8693988" lon="33.0125398"><time>2022-08-20T11:05:36</time></trkpt><trkpt lat="67.8693875" lon="33.0124367"><time>2022-08-20T11:05:45</time></trkpt><trkpt lat="67.8693909" lon="33.0124462"><time>2022-08-20T11:05:46</time></trkpt><trkpt lat="67.8693927" lon="33.0124495"><time>2022-08-20T11:05:47</time></trkpt><trkpt lat="67.8694060" lon="33.0123276"><time>2022-08-20T11:05:57</time></trkpt><trkpt lat="67.8694197" lon="33.0122148"><time>2022-08-20T11:06:05</time></trkpt><trkpt lat="67.8694291" lon="33.0121625"><time>2022-08-20T11:06:08</time></trkpt><trkpt lat="67.8694613" lon="33.0119518"><time>2022-08-20T11:06:21</time></trkpt><trkpt lat="67.8694999" lon="33.0118207"><time>2022-08-20T11:06:32</time></trkpt><trkpt lat="67.8695372" lon="33.0118003"><time>2022-08-20T11:06:37</time></trkpt><trkpt lat="67.8695470" lon="33.0117967"><time>2022-08-20T11:06:39</time></trkpt><trkpt lat="67.8695670" lon="33.0117557"><time>2022-08-20T11:06:42</time></trkpt><trkpt lat="67.8695900" lon="33.0117233"><time>2022-08-20T11:06:45</time></trkpt><trkpt lat="67.8696036" lon="33.0117012"><time>2022-08-20T11:06:47</time></trkpt><trkpt lat="67.8696260" lon="33.0116470"><time>2022-08-20T11:06:52</time></trkpt><trkpt lat="67.8696394" lon="33.0115366"><time>2022-08-20T11:06:58</time></trkpt><trkpt lat="67.8696558" lon="33.0114698"><time>2022-08-20T11:07:02</time></trkpt><trkpt lat="67.8696953" lon="33.0113832"><time>2022-08-20T11:07:10</time></trkpt><trkpt lat="67.8696943" lon="33.0113609"><time>2022-08-20T11:07:15</time></trkpt><trkpt lat="67.8696956" lon="33.0113642"><time>2022-08-20T11:07:19</time></trkpt><trkpt lat="67.8696962" lon="33.0113684"><time>2022-08-20T11:07:39</time></trkpt><trkpt lat="67.8696750" lon="33.0113321"><time>2022-08-20T11:08:04</time></trkpt><trkpt lat="67.8696604" lon="33.0113046"><time>2022-08-20T11:08:06</time></trkpt><trkpt lat="67.8696484" lon="33.0112800"><time>2022-08-20T11:08:09</time></trkpt><trkpt lat="67.8696559" lon="33.0112218"><time>2022-08-20T11:08:16</time></trkpt><trkpt lat="67.8696560" lon="33.0112232"><time>2022-08-20T11:08:18</time></trkpt><trkpt lat="67.8696533" lon="33.0111153"><time>2022-08-20T11:08:31</time></trkpt><trkpt lat="67.8696549" lon="33.0108629"><time>2022-08-20T11:08:43</time></trkpt><trkpt lat="67.8696628" lon="33.0108244"><time>2022-08-20T11:08:47</time></trkpt><trkpt lat="67.8696644" lon="33.0108285"><time>2022-08-20T11:08:50</time></trkpt><trkpt lat="67.8696665" lon="33.0108523"><time>2022-08-20T11:09:10</time></trkpt><trkpt lat="67.8697211" lon="33.0108691"><time>2022-08-20T11:09:24</time></trkpt><trkpt lat="67.8697097" lon="33.0108390"><time>2022-08-20T11:09:41</time></trkpt><trkpt lat="67.8697261" lon="33.0108513"><time>2022-08-20T11:09:44</time></trkpt><trkpt lat="67.8697624" lon="33.0108517"><time>2022-08-20T11:09:48</time></trkpt><trkpt lat="67.8697955" lon="33.0108585"><time>2022-08-20T11:09:52</time></trkpt><trkpt lat="67.8698352" lon="33.0108805"><time>2022-08-20T11:09:59</time></trkpt><trkpt lat="67.8698367" lon="33.0108802"><time>2022-08-20T11:10:00</time></trkpt><trkpt lat="67.8698464" lon="33.0108566"><time>2022-08-20T11:10:16</time></trkpt><trkpt lat="67.8698648" lon="33.0108406"><time>2022-08-20T11:10:18</time></trkpt><trkpt lat="67.8698981" lon="33.0107811"><time>2022-08-20T11:10:23</time></trkpt><trkpt lat="67.8699016" lon="33.0107726"><time>2022-08-20T11:10:43</time></trkpt><trkpt lat="67.8699168" lon="33.0107593"><time>2022-08-20T11:10:45</time></trkpt><trkpt lat="67.8698998" lon="33.0107626"><time>2022-08-20T11:10:56</time></trkpt><trkpt lat="67.8698948" lon="33.0107060"><time>2022-08-20T11:10:59</time></trkpt><trkpt lat="67.8699506" lon="33.0106613"><time>2022-08-20T11:11:11</time></trkpt><trkpt lat="67.8699824" lon="33.0106291"><time>2022-08-20T11:11:24</time></trkpt><trkpt lat="67.8700065" lon="33.0105728"><time>2022-08-20T11:11:28</time></trkpt><trkpt lat="67.8700203" lon="33.0105305"><time>2022-08-20T11:11:31</time></trkpt><trkpt lat="67.8700619" lon="33.0104536"><time>2022-08-20T11:11:42</time></trkpt><trkpt lat="67.8700648" lon="33.0104522"><time>2022-08-20T11:11:43</time></trkpt><trkpt lat="67.8700787" lon="33.0103137"><time>2022-08-20T11:11:54</time></trkpt><trkpt lat="67.8701127" lon="33.0101820"><time>2022-08-20T11:12:06</time></trkpt><trkpt lat="67.8701402" lon="33.0102115"><time>2022-08-20T11:12:17</time></trkpt><trkpt lat="67.8702223" lon="33.0101970"><time>2022-08-20T11:12:29</time></trkpt><trkpt lat="67.8702722" lon="33.0101123"><time>2022-08-20T11:12:42</time></trkpt><trkpt lat="67.8703210" lon="33.0099904"><time>2022-08-20T11:12:54</time></trkpt><trkpt lat="67.8703186" lon="33.0099795"><time>2022-08-20T11:12:55</time></trkpt><trkpt lat="67.8702713" lon="33.0098348"><time>2022-08-20T11:13:07</time></trkpt><trkpt lat="67.8702676" lon="33.0097080"><time>2022-08-20T11:13:17</time></trkpt><trkpt lat="67.8702654" lon="33.0096691"><time>2022-08-20T11:13:24</time></trkpt><trkpt lat="67.8702645" lon="33.0096415"><time>2022-08-20T11:13:59</time></trkpt><trkpt lat="67.8702671" lon="33.0096278"><time>2022-08-20T11:14:32</time></trkpt><trkpt lat="67.8702608" lon="33.0096266"><time>2022-08-20T11:14:34</time></trkpt><trkpt lat="67.8702479" lon="33.0096696"><time>2022-08-20T11:14:51</time></trkpt><trkpt lat="67.8702438" lon="33.0096490"><time>2022-08-20T11:15:22</time></trkpt><trkpt lat="67.8702334" lon="33.0096684"><time>2022-08-20T11:15:53</time></trkpt><trkpt lat="67.8702523" lon="33.0096429"><time>2022-08-20T11:16:24</time></trkpt><trkpt lat="67.8702465" lon="33.0096458"><time>2022-08-20T11:16:49</time></trkpt><trkpt lat="67.8702415" lon="33.0096544"><time>2022-08-20T11:17:16</time></trkpt><trkpt lat="67.8702601" lon="33.0096354"><time>2022-08-20T11:17:53</time></trkpt><trkpt lat="67.8702521" lon="33.0096368"><time>2022-08-20T11:18:37</time></trkpt><trkpt lat="67.8702693" lon="33.0096264"><time>2022-08-20T11:19:17</time></trkpt><trkpt lat="67.8702569" lon="33.0096247"><time>2022-08-20T11:19:55</time></trkpt><trkpt lat="67.8702572" lon="33.0096900"><time>2022-08-20T11:20:13</time></trkpt><trkpt lat="67.8702734" lon="33.0096447"><time>2022-08-20T11:20:25</time></trkpt><trkpt lat="67.8703011" lon="33.0095838"><time>2022-08-20T11:20:32</time></trkpt><trkpt lat="67.8702916" lon="33.0095938"><time>2022-08-20T11:20:35</time></trkpt><trkpt lat="67.8702785" lon="33.0095997"><time>2022-08-20T11:20:37</time></trkpt><trkpt lat="67.8702545" lon="33.0096321"><time>2022-08-20T11:20:40</time></trkpt><trkpt lat="67.8702666" lon="33.0096219"><time>2022-08-20T11:20:43</time></trkpt><trkpt lat="67.8703009" lon="33.0095480"><time>2022-08-20T11:20:48</time></trkpt><trkpt lat="67.8702935" lon="33.0094648"><time>2022-08-20T11:20:56</time></trkpt><trkpt lat="67.8703110" lon="33.0090579"><time>2022-08-20T11:21:10</time></trkpt><trkpt lat="67.8703291" lon="33.0089191"><time>2022-08-20T11:21:17</time></trkpt><trkpt lat="67.8703528" lon="33.0088076"><time>2022-08-20T11:21:22</time></trkpt><trkpt lat="67.8704085" lon="33.0084986"><time>2022-08-20T11:21:35</time></trkpt><trkpt lat="67.8704074" lon="33.0083659"><time>2022-08-20T11:21:46</time></trkpt><trkpt lat="67.8704025" lon="33.0083663"><time>2022-08-20T11:22:15</time></trkpt><trkpt lat="67.8704049" lon="33.0083489"><time>2022-08-20T11:22:16</time></trkpt><trkpt lat="67.8704347" lon="33.0081934"><time>2022-08-20T11:22:30</time></trkpt><trkpt lat="67.8704493" lon="33.0081145"><time>2022-08-20T11:22:55</time></trkpt><trkpt lat="67.8704658" lon="33.0081681"><time>2022-08-20T11:23:10</time></trkpt><trkpt lat="67.8704673" lon="33.0081877"><time>2022-08-20T11:23:11</time></trkpt><trkpt lat="67.8705100" lon="33.0085769"><time>2022-08-20T11:23:26</time></trkpt><trkpt lat="67.8705073" lon="33.0086018"><time>2022-08-20T11:23:27</time></trkpt><trkpt lat="67.8705017" lon="33.0088196"><time>2022-08-20T11:23:33</time></trkpt><trkpt lat="67.8704941" lon="33.0090113"><time>2022-08-20T11:23:40</time></trkpt><trkpt lat="67.8704836" lon="33.0090871"><time>2022-08-20T11:23:46</time></trkpt><trkpt lat="67.8704879" lon="33.0092246"><time>2022-08-20T11:23:52</time></trkpt><trkpt lat="67.8704535" lon="33.0092119"><time>2022-08-20T11:24:09</time></trkpt><trkpt lat="67.8704503" lon="33.0092113"><time>2022-08-20T11:24:16</time></trkpt><trkpt lat="67.8704446" lon="33.0092196"><time>2022-08-20T11:24:42</time></trkpt><trkpt lat="67.8704779" lon="33.0092687"><time>2022-08-20T11:24:46</time></trkpt><trkpt lat="67.8705355" lon="33.0093473"><time>2022-08-20T11:24:58</time></trkpt><trkpt lat="67.8705447" lon="33.0093511"><time>2022-08-20T11:24:59</time></trkpt><trkpt lat="67.8706316" lon="33.0093527"><time>2022-08-20T11:25:14</time></trkpt><trkpt lat="67.8706454" lon="33.0093569"><time>2022-08-20T11:25:28</time></trkpt><trkpt lat="67.8707100" lon="33.0094007"><time>2022-08-20T11:25:33</time></trkpt><trkpt lat="67.8707649" lon="33.0094143"><time>2022-08-20T11:25:37</time></trkpt><trkpt lat="67.8708202" lon="33.0094309"><time>2022-08-20T11:25:41</time></trkpt><trkpt lat="67.8709705" lon="33.0092950"><time>2022-08-20T11:25:54</time></trkpt><trkpt lat="67.8710447" lon="33.0092830"><time>2022-08-20T11:26:02</time></trkpt><trkpt lat="67.8711328" lon="33.0092690"><time>2022-08-20T11:26:10</time></trkpt><trkpt lat="67.8712083" lon="33.0093594"><time>2022-08-20T11:26:21</time></trkpt><trkpt lat="67.8712192" lon="33.0093988"><time>2022-08-20T11:26:23</time></trkpt><trkpt lat="67.8712490" lon="33.0094118"><time>2022-08-20T11:26:26</time></trkpt><trkpt lat="67.8713392" lon="33.0094599"><time>2022-08-20T11:26:37</time></trkpt><trkpt lat="67.8714272" lon="33.0095522"><time>2022-08-20T11:26:50</time></trkpt><trkpt lat="67.8714808" lon="33.0094661"><time>2022-08-20T11:26:58</time></trkpt><trkpt lat="67.8715237" lon="33.0092630"><time>2022-08-20T11:27:08</time></trkpt><trkpt lat="67.8715728" lon="33.0092786"><time>2022-08-20T11:27:15</time></trkpt><trkpt lat="67.8716145" lon="33.0093164"><time>2022-08-20T11:27:20</time></trkpt><trkpt lat="67.8717568" lon="33.0093158"><time>2022-08-20T11:27:35</time></trkpt><trkpt lat="67.8718089" lon="33.0092717"><time>2022-08-20T11:27:42</time></trkpt><trkpt lat="67.8719532" lon="33.0095103"><time>2022-08-20T11:27:56</time></trkpt><trkpt lat="67.8720619" lon="33.0096036"><time>2022-08-20T11:28:08</time></trkpt><trkpt lat="67.8720704" lon="33.0095936"><time>2022-08-20T11:28:09</time></trkpt><trkpt lat="67.8721116" lon="33.0096098"><time>2022-08-20T11:28:17</time></trkpt><trkpt lat="67.8722163" lon="33.0095350"><time>2022-08-20T11:28:30</time></trkpt><trkpt lat="67.8723041" lon="33.0094914"><time>2022-08-20T11:28:44</time></trkpt><trkpt lat="67.8723836" lon="33.0095454"><time>2022-08-20T11:28:56</time></trkpt><trkpt lat="67.8724095" lon="33.0095867"><time>2022-08-20T11:28:59</time></trkpt><trkpt lat="67.8724600" lon="33.0096552"><time>2022-08-20T11:29:05</time></trkpt><trkpt lat="67.8725170" lon="33.0097154"><time>2022-08-20T11:29:13</time></trkpt><trkpt lat="67.8726155" lon="33.0097955"><time>2022-08-20T11:29:25</time></trkpt><trkpt lat="67.8726981" lon="33.0101275"><time>2022-08-20T11:29:39</time></trkpt><trkpt lat="67.8727224" lon="33.0101484"><time>2022-08-20T11:29:42</time></trkpt><trkpt lat="67.8728629" lon="33.0101832"><time>2022-08-20T11:29:56</time></trkpt><trkpt lat="67.8729409" lon="33.0101738"><time>2022-08-20T11:30:05</time></trkpt><trkpt lat="67.8729843" lon="33.0103250"><time>2022-08-20T11:30:12</time></trkpt><trkpt lat="67.8730913" lon="33.0103918"><time>2022-08-20T11:30:25</time></trkpt><trkpt lat="67.8731142" lon="33.0104508"><time>2022-08-20T11:30:29</time></trkpt><trkpt lat="67.8731713" lon="33.0106691"><time>2022-08-20T11:30:41</time></trkpt><trkpt lat="67.8732340" lon="33.0107691"><time>2022-08-20T11:30:48</time></trkpt><trkpt lat="67.8733695" lon="33.0108519"><time>2022-08-20T11:31:03</time></trkpt><trkpt lat="67.8734824" lon="33.0109940"><time>2022-08-20T11:31:17</time></trkpt><trkpt lat="67.8735669" lon="33.0110950"><time>2022-08-20T11:31:27</time></trkpt><trkpt lat="67.8736811" lon="33.0111028"><time>2022-08-20T11:31:40</time></trkpt><trkpt lat="67.8737230" lon="33.0111556"><time>2022-08-20T11:31:45</time></trkpt><trkpt lat="67.8737758" lon="33.0112037"><time>2022-08-20T11:32:00</time></trkpt><trkpt lat="67.8737941" lon="33.0112372"><time>2022-08-20T11:32:07</time></trkpt><trkpt lat="67.8738105" lon="33.0112688"><time>2022-08-20T11:32:09</time></trkpt><trkpt lat="67.8738500" lon="33.0113651"><time>2022-08-20T11:32:14</time></trkpt><trkpt lat="67.8739095" lon="33.0113499"><time>2022-08-20T11:32:19</time></trkpt><trkpt lat="67.8739548" lon="33.0113697"><time>2022-08-20T11:32:24</time></trkpt><trkpt lat="67.8741002" lon="33.0112418"><time>2022-08-20T11:32:40</time></trkpt><trkpt lat="67.8741129" lon="33.0112452"><time>2022-08-20T11:32:42</time></trkpt><trkpt lat="67.8741444" lon="33.0111928"><time>2022-08-20T11:32:48</time></trkpt><trkpt lat="67.8741247" lon="33.0113470"><time>2022-08-20T11:32:54</time></trkpt><trkpt lat="67.8741556" lon="33.0117820"><time>2022-08-20T11:33:08</time></trkpt><trkpt lat="67.8742102" lon="33.0119056"><time>2022-08-20T11:33:13</time></trkpt><trkpt lat="67.8742876" lon="33.0120090"><time>2022-08-20T11:33:21</time></trkpt><trkpt lat="67.8744567" lon="33.0121290"><time>2022-08-20T11:33:35</time></trkpt><trkpt lat="67.8744624" lon="33.0121373"><time>2022-08-20T11:33:36</time></trkpt><trkpt lat="67.8745134" lon="33.0121533"><time>2022-08-20T11:33:40</time></trkpt><trkpt lat="67.8745994" lon="33.0120717"><time>2022-08-20T11:33:49</time></trkpt><trkpt lat="67.8746846" lon="33.0120413"><time>2022-08-20T11:33:55</time></trkpt><trkpt lat="67.8748488" lon="33.0118790"><time>2022-08-20T11:34:11</time></trkpt><trkpt lat="67.8749216" lon="33.0118779"><time>2022-08-20T11:34:16</time></trkpt><trkpt lat="67.8749728" lon="33.0119396"><time>2022-08-20T11:34:22</time></trkpt><trkpt lat="67.8750524" lon="33.0119492"><time>2022-08-20T11:34:29</time></trkpt><trkpt lat="67.8750781" lon="33.0119317"><time>2022-08-20T11:34:32</time></trkpt><trkpt lat="67.8751046" lon="33.0118983"><time>2022-08-20T11:34:36</time></trkpt><trkpt lat="67.8752229" lon="33.0118653"><time>2022-08-20T11:34:49</time></trkpt><trkpt lat="67.8752411" lon="33.0118675"><time>2022-08-20T11:34:51</time></trkpt><trkpt lat="67.8753058" lon="33.0118218"><time>2022-08-20T11:34:59</time></trkpt><trkpt lat="67.8754137" lon="33.0117793"><time>2022-08-20T11:35:12</time></trkpt><trkpt lat="67.8754784" lon="33.0117328"><time>2022-08-20T11:35:26</time></trkpt><trkpt lat="67.8755133" lon="33.0116885"><time>2022-08-20T11:35:38</time></trkpt><trkpt lat="67.8755662" lon="33.0116278"><time>2022-08-20T11:35:44</time></trkpt><trkpt lat="67.8756235" lon="33.0115449"><time>2022-08-20T11:35:52</time></trkpt><trkpt lat="67.8756450" lon="33.0115620"><time>2022-08-20T11:35:55</time></trkpt><trkpt lat="67.8756894" lon="33.0115059"><time>2022-08-20T11:36:00</time></trkpt><trkpt lat="67.8757001" lon="33.0115922"><time>2022-08-20T11:36:16</time></trkpt><trkpt lat="67.8757200" lon="33.0116303"><time>2022-08-20T11:36:44</time></trkpt><trkpt lat="67.8757615" lon="33.0116649"><time>2022-08-20T11:36:51</time></trkpt><trkpt lat="67.8757879" lon="33.0116700"><time>2022-08-20T11:36:55</time></trkpt><trkpt lat="67.8758745" lon="33.0116594"><time>2022-08-20T11:37:06</time></trkpt><trkpt lat="67.8759650" lon="33.0116164"><time>2022-08-20T11:37:17</time></trkpt><trkpt lat="67.8760540" lon="33.0116456"><time>2022-08-20T11:37:29</time></trkpt><trkpt lat="67.8761073" lon="33.0117016"><time>2022-08-20T11:37:38</time></trkpt><trkpt lat="67.8761823" lon="33.0116775"><time>2022-08-20T11:37:51</time></trkpt><trkpt lat="67.8762501" lon="33.0116030"><time>2022-08-20T11:38:04</time></trkpt><trkpt lat="67.8762493" lon="33.0115977"><time>2022-08-20T11:38:08</time></trkpt><trkpt lat="67.8762677" lon="33.0115683"><time>2022-08-20T11:38:10</time></trkpt><trkpt lat="67.8763044" lon="33.0115359"><time>2022-08-20T11:38:14</time></trkpt><trkpt lat="67.8763411" lon="33.0115232"><time>2022-08-20T11:38:19</time></trkpt><trkpt lat="67.8763900" lon="33.0114685"><time>2022-08-20T11:38:26</time></trkpt><trkpt lat="67.8764846" lon="33.0115035"><time>2022-08-20T11:38:37</time></trkpt><trkpt lat="67.8765226" lon="33.0115341"><time>2022-08-20T11:38:42</time></trkpt><trkpt lat="67.8766241" lon="33.0115527"><time>2022-08-20T11:38:53</time></trkpt><trkpt lat="67.8766267" lon="33.0115446"><time>2022-08-20T11:38:54</time></trkpt><trkpt lat="67.8766527" lon="33.0115459"><time>2022-08-20T11:38:57</time></trkpt><trkpt lat="67.8766931" lon="33.0115646"><time>2022-08-20T11:39:03</time></trkpt><trkpt lat="67.8767510" lon="33.0115559"><time>2022-08-20T11:39:10</time></trkpt><trkpt lat="67.8767762" lon="33.0115406"><time>2022-08-20T11:39:13</time></trkpt><trkpt lat="67.8768208" lon="33.0115598"><time>2022-08-20T11:39:18</time></trkpt><trkpt lat="67.8768396" lon="33.0115650"><time>2022-08-20T11:39:20</time></trkpt><trkpt lat="67.8768768" lon="33.0115938"><time>2022-08-20T11:39:24</time></trkpt><trkpt lat="67.8768902" lon="33.0116097"><time>2022-08-20T11:39:26</time></trkpt><trkpt lat="67.8769289" lon="33.0116243"><time>2022-08-20T11:39:29</time></trkpt><trkpt lat="67.8769578" lon="33.0116548"><time>2022-08-20T11:39:33</time></trkpt><trkpt lat="67.8769963" lon="33.0117244"><time>2022-08-20T11:39:45</time></trkpt><trkpt lat="67.8770332" lon="33.0118352"><time>2022-08-20T11:39:52</time></trkpt><trkpt lat="67.8771139" lon="33.0119640"><time>2022-08-20T11:40:02</time></trkpt><trkpt lat="67.8771493" lon="33.0119654"><time>2022-08-20T11:40:06</time></trkpt><trkpt lat="67.8771779" lon="33.0119666"><time>2022-08-20T11:40:09</time></trkpt><trkpt lat="67.8772134" lon="33.0119993"><time>2022-08-20T11:40:14</time></trkpt><trkpt lat="67.8772515" lon="33.0120917"><time>2022-08-20T11:40:20</time></trkpt><trkpt lat="67.8772646" lon="33.0121311"><time>2022-08-20T11:40:22</time></trkpt><trkpt lat="67.8772796" lon="33.0121655"><time>2022-08-20T11:40:24</time></trkpt><trkpt lat="67.8772851" lon="33.0122910"><time>2022-08-20T11:40:35</time></trkpt><trkpt lat="67.8772658" lon="33.0123427"><time>2022-08-20T11:40:38</time></trkpt><trkpt lat="67.8772486" lon="33.0123382"><time>2022-08-20T11:40:40</time></trkpt><trkpt lat="67.8772208" lon="33.0123062"><time>2022-08-20T11:40:44</time></trkpt><trkpt lat="67.8771986" lon="33.0123020"><time>2022-08-20T11:40:47</time></trkpt><trkpt lat="67.8771770" lon="33.0122976"><time>2022-08-20T11:40:51</time></trkpt><trkpt lat="67.8771545" lon="33.0123584"><time>2022-08-20T11:40:57</time></trkpt><trkpt lat="67.8771262" lon="33.0124156"><time>2022-08-20T11:41:00</time></trkpt><trkpt lat="67.8771098" lon="33.0124134"><time>2022-08-20T11:41:02</time></trkpt><trkpt lat="67.8770690" lon="33.0123911"><time>2022-08-20T11:41:06</time></trkpt><trkpt lat="67.8770345" lon="33.0123312"><time>2022-08-20T11:41:10</time></trkpt><trkpt lat="67.8769281" lon="33.0122213"><time>2022-08-20T11:41:22</time></trkpt><trkpt lat="67.8768822" lon="33.0121836"><time>2022-08-20T11:41:27</time></trkpt><trkpt lat="67.8768380" lon="33.0121834"><time>2022-08-20T11:41:32</time></trkpt><trkpt lat="67.8768139" lon="33.0121536"><time>2022-08-20T11:41:36</time></trkpt><trkpt lat="67.8767588" lon="33.0120317"><time>2022-08-20T11:41:49</time></trkpt><trkpt lat="67.8767519" lon="33.0119951"><time>2022-08-20T11:41:53</time></trkpt><trkpt lat="67.8767357" lon="33.0119184"><time>2022-08-20T11:41:58</time></trkpt><trkpt lat="67.8767426" lon="33.0117273"><time>2022-08-20T11:42:11</time></trkpt><trkpt lat="67.8767619" lon="33.0116864"><time>2022-08-20T11:42:15</time></trkpt><trkpt lat="67.8767738" lon="33.0116506"><time>2022-08-20T11:42:34</time></trkpt><trkpt lat="67.8767717" lon="33.0116696"><time>2022-08-20T11:42:56</time></trkpt><trkpt lat="67.8767747" lon="33.0116679"><time>2022-08-20T11:42:57</time></trkpt><trkpt lat="67.8767921" lon="33.0117198"><time>2022-08-20T11:43:01</time></trkpt><trkpt lat="67.8768292" lon="33.0117309"><time>2022-08-20T11:43:06</time></trkpt><trkpt lat="67.8768582" lon="33.0117069"><time>2022-08-20T11:43:19</time></trkpt><trkpt lat="67.8768590" lon="33.0117086"><time>2022-08-20T11:43:21</time></trkpt><trkpt lat="67.8768560" lon="33.0116863"><time>2022-08-20T11:43:45</time></trkpt><trkpt lat="67.8768675" lon="33.0116866"><time>2022-08-20T11:43:50</time></trkpt><trkpt lat="67.8768810" lon="33.0116819"><time>2022-08-20T11:43:52</time></trkpt><trkpt lat="67.8769383" lon="33.0116585"><time>2022-08-20T11:43:59</time></trkpt><trkpt lat="67.8769779" lon="33.0115955"><time>2022-08-20T11:44:04</time></trkpt><trkpt lat="67.8770098" lon="33.0115610"><time>2022-08-20T11:44:09</time></trkpt><trkpt lat="67.8770188" lon="33.0115492"><time>2022-08-20T11:44:11</time></trkpt><trkpt lat="67.8770870" lon="33.0115926"><time>2022-08-20T11:44:24</time></trkpt><trkpt lat="67.8771795" lon="33.0115329"><time>2022-08-20T11:44:36</time></trkpt><trkpt lat="67.8772164" lon="33.0115279"><time>2022-08-20T11:44:41</time></trkpt><trkpt lat="67.8772353" lon="33.0115604"><time>2022-08-20T11:44:45</time></trkpt><trkpt lat="67.8772567" lon="33.0115330"><time>2022-08-20T11:44:48</time></trkpt><trkpt lat="67.8773259" lon="33.0115227"><time>2022-08-20T11:44:57</time></trkpt><trkpt lat="67.8773905" lon="33.0114926"><time>2022-08-20T11:45:06</time></trkpt><trkpt lat="67.8774323" lon="33.0115119"><time>2022-08-20T11:45:11</time></trkpt><trkpt lat="67.8774762" lon="33.0115159"><time>2022-08-20T11:45:16</time></trkpt><trkpt lat="67.8775119" lon="33.0115642"><time>2022-08-20T11:45:28</time></trkpt><trkpt lat="67.8775187" lon="33.0115493"><time>2022-08-20T11:45:39</time></trkpt><trkpt lat="67.8775414" lon="33.0115491"><time>2022-08-20T11:45:42</time></trkpt><trkpt lat="67.8775792" lon="33.0116136"><time>2022-08-20T11:45:55</time></trkpt><trkpt lat="67.8776497" lon="33.0117583"><time>2022-08-20T11:46:07</time></trkpt><trkpt lat="67.8776933" lon="33.0118227"><time>2022-08-20T11:46:19</time></trkpt><trkpt lat="67.8777378" lon="33.0119157"><time>2022-08-20T11:46:32</time></trkpt><trkpt lat="67.8777856" lon="33.0120253"><time>2022-08-20T11:46:44</time></trkpt><trkpt lat="67.8778800" lon="33.0121251"><time>2022-08-20T11:46:57</time></trkpt><trkpt lat="67.8778925" lon="33.0121548"><time>2022-08-20T11:47:00</time></trkpt><trkpt lat="67.8779289" lon="33.0121645"><time>2022-08-20T11:47:12</time></trkpt><trkpt lat="67.8779521" lon="33.0121903"><time>2022-08-20T11:47:18</time></trkpt><trkpt lat="67.8779673" lon="33.0123100"><time>2022-08-20T11:47:29</time></trkpt><trkpt lat="67.8779870" lon="33.0123464"><time>2022-08-20T11:47:44</time></trkpt><trkpt lat="67.8780362" lon="33.0123266"><time>2022-08-20T11:47:56</time></trkpt><trkpt lat="67.8780403" lon="33.0123784"><time>2022-08-20T11:48:07</time></trkpt><trkpt lat="67.8780638" lon="33.0122823"><time>2022-08-20T11:48:19</time></trkpt><trkpt lat="67.8780778" lon="33.0122761"><time>2022-08-20T11:48:37</time></trkpt><trkpt lat="67.8780994" lon="33.0123861"><time>2022-08-20T11:48:51</time></trkpt><trkpt lat="67.8781118" lon="33.0124782"><time>2022-08-20T11:49:03</time></trkpt><trkpt lat="67.8781507" lon="33.0126359"><time>2022-08-20T11:49:16</time></trkpt><trkpt lat="67.8781854" lon="33.0126729"><time>2022-08-20T11:49:28</time></trkpt><trkpt lat="67.8782455" lon="33.0126651"><time>2022-08-20T11:49:39</time></trkpt><trkpt lat="67.8782807" lon="33.0126327"><time>2022-08-20T11:49:51</time></trkpt><trkpt lat="67.8782895" lon="33.0125648"><time>2022-08-20T11:49:58</time></trkpt><trkpt lat="67.8782997" lon="33.0124472"><time>2022-08-20T11:50:06</time></trkpt><trkpt lat="67.8783198" lon="33.0123669"><time>2022-08-20T11:50:13</time></trkpt><trkpt lat="67.8783451" lon="33.0123726"><time>2022-08-20T11:50:21</time></trkpt><trkpt lat="67.8783860" lon="33.0124374"><time>2022-08-20T11:50:34</time></trkpt><trkpt lat="67.8784223" lon="33.0124567"><time>2022-08-20T11:50:46</time></trkpt><trkpt lat="67.8784480" lon="33.0124921"><time>2022-08-20T11:51:00</time></trkpt><trkpt lat="67.8784861" lon="33.0125884"><time>2022-08-20T11:51:12</time></trkpt><trkpt lat="67.8785023" lon="33.0125978"><time>2022-08-20T11:51:25</time></trkpt><trkpt lat="67.8785228" lon="33.0125721"><time>2022-08-20T11:51:51</time></trkpt><trkpt lat="67.8785658" lon="33.0125396"><time>2022-08-20T11:52:03</time></trkpt><trkpt lat="67.8785961" lon="33.0125495"><time>2022-08-20T11:52:19</time></trkpt><trkpt lat="67.8786344" lon="33.0125854"><time>2022-08-20T11:52:29</time></trkpt><trkpt lat="67.8786899" lon="33.0126949"><time>2022-08-20T11:52:40</time></trkpt><trkpt lat="67.8787243" lon="33.0127861"><time>2022-08-20T11:52:47</time></trkpt><trkpt lat="67.8787681" lon="33.0129916"><time>2022-08-20T11:52:59</time></trkpt><trkpt lat="67.8788026" lon="33.0131048"><time>2022-08-20T11:53:08</time></trkpt><trkpt lat="67.8788101" lon="33.0131630"><time>2022-08-20T11:53:10</time></trkpt><trkpt lat="67.8788194" lon="33.0133041"><time>2022-08-20T11:53:17</time></trkpt><trkpt lat="67.8788672" lon="33.0135299"><time>2022-08-20T11:53:29</time></trkpt><trkpt lat="67.8789142" lon="33.0137352"><time>2022-08-20T11:53:39</time></trkpt><trkpt lat="67.8789158" lon="33.0137506"><time>2022-08-20T11:53:40</time></trkpt><trkpt lat="67.8789462" lon="33.0138231"><time>2022-08-20T11:53:45</time></trkpt><trkpt lat="67.8790225" lon="33.0139429"><time>2022-08-20T11:53:56</time></trkpt><trkpt lat="67.8791064" lon="33.0141201"><time>2022-08-20T11:54:07</time></trkpt><trkpt lat="67.8791161" lon="33.0141369"><time>2022-08-20T11:54:08</time></trkpt><trkpt lat="67.8791527" lon="33.0142608"><time>2022-08-20T11:54:15</time></trkpt><trkpt lat="67.8791876" lon="33.0143786"><time>2022-08-20T11:54:20</time></trkpt><trkpt lat="67.8793236" lon="33.0143453"><time>2022-08-20T11:54:31</time></trkpt><trkpt lat="67.8794743" lon="33.0143699"><time>2022-08-20T11:54:44</time></trkpt><trkpt lat="67.8796205" lon="33.0144589"><time>2022-08-20T11:54:57</time></trkpt><trkpt lat="67.8797466" lon="33.0144919"><time>2022-08-20T11:55:09</time></trkpt><trkpt lat="67.8799470" lon="33.0145660"><time>2022-08-20T11:55:22</time></trkpt><trkpt lat="67.8800524" lon="33.0146305"><time>2022-08-20T11:55:31</time></trkpt><trkpt lat="67.8802179" lon="33.0147253"><time>2022-08-20T11:55:45</time></trkpt><trkpt lat="67.8803235" lon="33.0147112"><time>2022-08-20T11:55:54</time></trkpt><trkpt lat="67.8804362" lon="33.0146847"><time>2022-08-20T11:56:03</time></trkpt><trkpt lat="67.8804748" lon="33.0146866"><time>2022-08-20T11:56:06</time></trkpt><trkpt lat="67.8806138" lon="33.0146646"><time>2022-08-20T11:56:19</time></trkpt><trkpt lat="67.8807200" lon="33.0146852"><time>2022-08-20T11:56:28</time></trkpt><trkpt lat="67.8808172" lon="33.0147338"><time>2022-08-20T11:56:33</time></trkpt><trkpt lat="67.8809712" lon="33.0147650"><time>2022-08-20T11:56:43</time></trkpt><trkpt lat="67.8810470" lon="33.0147942"><time>2022-08-20T11:56:49</time></trkpt><trkpt lat="67.8811543" lon="33.0147333"><time>2022-08-20T11:56:55</time></trkpt><trkpt lat="67.8811840" lon="33.0146940"><time>2022-08-20T11:56:57</time></trkpt><trkpt lat="67.8813664" lon="33.0147557"><time>2022-08-20T11:57:10</time></trkpt><trkpt lat="67.8814266" lon="33.0148244"><time>2022-08-20T11:57:16</time></trkpt><trkpt lat="67.8815828" lon="33.0149596"><time>2022-08-20T11:57:27</time></trkpt><trkpt lat="67.8817622" lon="33.0150215"><time>2022-08-20T11:57:39</time></trkpt><trkpt lat="67.8818063" lon="33.0149959"><time>2022-08-20T11:57:43</time></trkpt><trkpt lat="67.8818573" lon="33.0149970"><time>2022-08-20T11:57:46</time></trkpt><trkpt lat="67.8820269" lon="33.0148805"><time>2022-08-20T11:57:59</time></trkpt><trkpt lat="67.8822153" lon="33.0146398"><time>2022-08-20T11:58:12</time></trkpt><trkpt lat="67.8823181" lon="33.0145396"><time>2022-08-20T11:58:19</time></trkpt><trkpt lat="67.8824054" lon="33.0144841"><time>2022-08-20T11:58:27</time></trkpt><trkpt lat="67.8824813" lon="33.0143768"><time>2022-08-20T11:58:36</time></trkpt><trkpt lat="67.8825859" lon="33.0142766"><time>2022-08-20T11:58:46</time></trkpt><trkpt lat="67.8827174" lon="33.0141711"><time>2022-08-20T11:58:57</time></trkpt><trkpt lat="67.8828406" lon="33.0142500"><time>2022-08-20T11:59:08</time></trkpt><trkpt lat="67.8830545" lon="33.0140884"><time>2022-08-20T11:59:22</time></trkpt><trkpt lat="67.8830847" lon="33.0140433"><time>2022-08-20T11:59:25</time></trkpt><trkpt lat="67.8831189" lon="33.0139315"><time>2022-08-20T11:59:30</time></trkpt><trkpt lat="67.8831919" lon="33.0133172"><time>2022-08-20T11:59:47</time></trkpt><trkpt lat="67.8831925" lon="33.0132718"><time>2022-08-20T12:00:06</time></trkpt><trkpt lat="67.8831996" lon="33.0132655"><time>2022-08-20T12:00:20</time></trkpt><trkpt lat="67.8832553" lon="33.0127377"><time>2022-08-20T12:00:35</time></trkpt><trkpt lat="67.8833982" lon="33.0124934"><time>2022-08-20T12:00:48</time></trkpt><trkpt lat="67.8835191" lon="33.0119830"><time>2022-08-20T12:01:04</time></trkpt><trkpt lat="67.8836381" lon="33.0115752"><time>2022-08-20T12:01:19</time></trkpt><trkpt lat="67.8837159" lon="33.0113638"><time>2022-08-20T12:01:26</time></trkpt><trkpt lat="67.8838314" lon="33.0110577"><time>2022-08-20T12:01:41</time></trkpt><trkpt lat="67.8839643" lon="33.0106803"><time>2022-08-20T12:01:55</time></trkpt><trkpt lat="67.8840814" lon="33.0105110"><time>2022-08-20T12:02:07</time></trkpt><trkpt lat="67.8842908" lon="33.0103254"><time>2022-08-20T12:02:21</time></trkpt><trkpt lat="67.8844699" lon="33.0099795"><time>2022-08-20T12:02:35</time></trkpt><trkpt lat="67.8846368" lon="33.0097718"><time>2022-08-20T12:02:50</time></trkpt><trkpt lat="67.8847003" lon="33.0096581"><time>2022-08-20T12:02:55</time></trkpt><trkpt lat="67.8849060" lon="33.0094180"><time>2022-08-20T12:03:12</time></trkpt><trkpt lat="67.8851073" lon="33.0093710"><time>2022-08-20T12:03:25</time></trkpt><trkpt lat="67.8852101" lon="33.0093204"><time>2022-08-20T12:03:33</time></trkpt><trkpt lat="67.8852383" lon="33.0093798"><time>2022-08-20T12:03:36</time></trkpt><trkpt lat="67.8852629" lon="33.0094608"><time>2022-08-20T12:03:39</time></trkpt><trkpt lat="67.8853867" lon="33.0096950"><time>2022-08-20T12:03:51</time></trkpt><trkpt lat="67.8854512" lon="33.0097550"><time>2022-08-20T12:03:56</time></trkpt><trkpt lat="67.8855433" lon="33.0099201"><time>2022-08-20T12:04:07</time></trkpt><trkpt lat="67.8856419" lon="33.0099222"><time>2022-08-20T12:04:21</time></trkpt><trkpt lat="67.8856479" lon="33.0099275"><time>2022-08-20T12:04:25</time></trkpt><trkpt lat="67.8857120" lon="33.0099389"><time>2022-08-20T12:04:29</time></trkpt><trkpt lat="67.8857423" lon="33.0099187"><time>2022-08-20T12:04:31</time></trkpt><trkpt lat="67.8857998" lon="33.0099306"><time>2022-08-20T12:04:35</time></trkpt><trkpt lat="67.8858415" lon="33.0099076"><time>2022-08-20T12:04:39</time></trkpt><trkpt lat="67.8859402" lon="33.0097825"><time>2022-08-20T12:04:50</time></trkpt><trkpt lat="67.8859666" lon="33.0097460"><time>2022-08-20T12:04:53</time></trkpt><trkpt lat="67.8859851" lon="33.0097627"><time>2022-08-20T12:04:55</time></trkpt><trkpt lat="67.8859933" lon="33.0097607"><time>2022-08-20T12:04:56</time></trkpt><trkpt lat="67.8860166" lon="33.0091244"><time>2022-08-20T12:05:12</time></trkpt><trkpt lat="67.8860358" lon="33.0085627"><time>2022-08-20T12:05:29</time></trkpt><trkpt lat="67.8860455" lon="33.0079759"><time>2022-08-20T12:05:44</time></trkpt><trkpt lat="67.8861192" lon="33.0079091"><time>2022-08-20T12:05:58</time></trkpt><trkpt lat="67.8861263" lon="33.0079095"><time>2022-08-20T12:06:25</time></trkpt><trkpt lat="67.8861239" lon="33.0079193"><time>2022-08-20T12:06:40</time></trkpt><trkpt lat="67.8861244" lon="33.0079192"><time>2022-08-20T12:06:42</time></trkpt><trkpt lat="67.8861151" lon="33.0078361"><time>2022-08-20T12:07:10</time></trkpt><trkpt lat="67.8860267" lon="33.0078076"><time>2022-08-20T12:07:23</time></trkpt><trkpt lat="67.8860227" lon="33.0077469"><time>2022-08-20T12:07:39</time></trkpt><trkpt lat="67.8860261" lon="33.0075811"><time>2022-08-20T12:07:44</time></trkpt><trkpt lat="67.8860220" lon="33.0075018"><time>2022-08-20T12:07:58</time></trkpt><trkpt lat="67.8860213" lon="33.0074355"><time>2022-08-20T12:08:14</time></trkpt><trkpt lat="67.8860302" lon="33.0073164"><time>2022-08-20T12:08:39</time></trkpt><trkpt lat="67.8860614" lon="33.0067751"><time>2022-08-20T12:08:53</time></trkpt><trkpt lat="67.8860745" lon="33.0062290"><time>2022-08-20T12:09:11</time></trkpt><trkpt lat="67.8860710" lon="33.0056225"><time>2022-08-20T12:09:27</time></trkpt><trkpt lat="67.8860694" lon="33.0050835"><time>2022-08-20T12:09:40</time></trkpt><trkpt lat="67.8860831" lon="33.0044606"><time>2022-08-20T12:09:54</time></trkpt><trkpt lat="67.8861061" lon="33.0038100"><time>2022-08-20T12:10:11</time></trkpt><trkpt lat="67.8861410" lon="33.0032314"><time>2022-08-20T12:10:26</time></trkpt><trkpt lat="67.8861875" lon="33.0028584"><time>2022-08-20T12:10:40</time></trkpt><trkpt lat="67.8861924" lon="33.0028423"><time>2022-08-20T12:10:46</time></trkpt><trkpt lat="67.8862811" lon="33.0023247"><time>2022-08-20T12:11:00</time></trkpt><trkpt lat="67.8863583" lon="33.0018514"><time>2022-08-20T12:11:13</time></trkpt><trkpt lat="67.8864376" lon="33.0013653"><time>2022-08-20T12:11:25</time></trkpt><trkpt lat="67.8865319" lon="33.0008869"><time>2022-08-20T12:11:39</time></trkpt><trkpt lat="67.8866587" lon="33.0005465"><time>2022-08-20T12:11:50</time></trkpt><trkpt lat="67.8867840" lon="33.0001414"><time>2022-08-20T12:12:04</time></trkpt><trkpt lat="67.8868311" lon="32.9999835"><time>2022-08-20T12:12:11</time></trkpt><trkpt lat="67.8869884" lon="32.9996900"><time>2022-08-20T12:12:23</time></trkpt><trkpt lat="67.8871845" lon="32.9993413"><time>2022-08-20T12:12:37</time></trkpt><trkpt lat="67.8873605" lon="32.9990463"><time>2022-08-20T12:12:50</time></trkpt><trkpt lat="67.8875175" lon="32.9987842"><time>2022-08-20T12:13:02</time></trkpt><trkpt lat="67.8876928" lon="32.9985079"><time>2022-08-20T12:13:16</time></trkpt><trkpt lat="67.8877376" lon="32.9984279"><time>2022-08-20T12:13:21</time></trkpt><trkpt lat="67.8879102" lon="32.9982525"><time>2022-08-20T12:13:33</time></trkpt><trkpt lat="67.8879286" lon="32.9982341"><time>2022-08-20T12:13:35</time></trkpt><trkpt lat="67.8881787" lon="32.9980370"><time>2022-08-20T12:13:51</time></trkpt><trkpt lat="67.8883041" lon="32.9978526"><time>2022-08-20T12:14:06</time></trkpt><trkpt lat="67.8882279" lon="32.9974539"><time>2022-08-20T12:14:20</time></trkpt><trkpt lat="67.8881918" lon="32.9972772"><time>2022-08-20T12:14:25</time></trkpt><trkpt lat="67.8880649" lon="32.9968349"><time>2022-08-20T12:14:38</time></trkpt><trkpt lat="67.8879741" lon="32.9963667"><time>2022-08-20T12:14:52</time></trkpt><trkpt lat="67.8878914" lon="32.9960412"><time>2022-08-20T12:15:07</time></trkpt><trkpt lat="67.8878102" lon="32.9956622"><time>2022-08-20T12:15:21</time></trkpt><trkpt lat="67.8877830" lon="32.9955195"><time>2022-08-20T12:15:27</time></trkpt><trkpt lat="67.8877235" lon="32.9950214"><time>2022-08-20T12:15:42</time></trkpt><trkpt lat="67.8876676" lon="32.9946362"><time>2022-08-20T12:15:59</time></trkpt><trkpt lat="67.8876463" lon="32.9943492"><time>2022-08-20T12:16:17</time></trkpt><trkpt lat="67.8876484" lon="32.9939108"><time>2022-08-20T12:16:30</time></trkpt><trkpt lat="67.8876629" lon="32.9935399"><time>2022-08-20T12:16:42</time></trkpt><trkpt lat="67.8876778" lon="32.9931244"><time>2022-08-20T12:16:56</time></trkpt><trkpt lat="67.8877122" lon="32.9925828"><time>2022-08-20T12:17:11</time></trkpt><trkpt lat="67.8876963" lon="32.9924314"><time>2022-08-20T12:17:26</time></trkpt><trkpt lat="67.8876911" lon="32.9924127"><time>2022-08-20T12:17:35</time></trkpt><trkpt lat="67.8876992" lon="32.9923021"><time>2022-08-20T12:17:50</time></trkpt><trkpt lat="67.8877100" lon="32.9922400"><time>2022-08-20T12:17:54</time></trkpt><trkpt lat="67.8877483" lon="32.9917388"><time>2022-08-20T12:18:11</time></trkpt><trkpt lat="67.8877610" lon="32.9913598"><time>2022-08-20T12:18:24</time></trkpt><trkpt lat="67.8877774" lon="32.9909662"><time>2022-08-20T12:18:38</time></trkpt><trkpt lat="67.8877738" lon="32.9908292"><time>2022-08-20T12:18:50</time></trkpt><trkpt lat="67.8877735" lon="32.9907959"><time>2022-08-20T12:19:06</time></trkpt><trkpt lat="67.8877960" lon="32.9905366"><time>2022-08-20T12:19:17</time></trkpt><trkpt lat="67.8878114" lon="32.9902545"><time>2022-08-20T12:19:29</time></trkpt><trkpt lat="67.8877927" lon="32.9901023"><time>2022-08-20T12:19:34</time></trkpt><trkpt lat="67.8877927" lon="32.9899945"><time>2022-08-20T12:19:50</time></trkpt><trkpt lat="67.8877863" lon="32.9899719"><time>2022-08-20T12:20:00</time></trkpt><trkpt lat="67.8877509" lon="32.9897493"><time>2022-08-20T12:20:15</time></trkpt><trkpt lat="67.8876757" lon="32.9897632"><time>2022-08-20T12:20:28</time></trkpt><trkpt lat="67.8875995" lon="32.9897576"><time>2022-08-20T12:20:50</time></trkpt><trkpt lat="67.8875160" lon="32.9896721"><time>2022-08-20T12:21:07</time></trkpt><trkpt lat="67.8875417" lon="32.9896678"><time>2022-08-20T12:21:26</time></trkpt><trkpt lat="67.8875548" lon="32.9895692"><time>2022-08-20T12:21:46</time></trkpt><trkpt lat="67.8875387" lon="32.9895430"><time>2022-08-20T12:22:16</time></trkpt><trkpt lat="67.8874823" lon="32.9895464"><time>2022-08-20T12:22:32</time></trkpt><trkpt lat="67.8874669" lon="32.9895164"><time>2022-08-20T12:22:54</time></trkpt><trkpt lat="67.8874708" lon="32.9895764"><time>2022-08-20T12:23:17</time></trkpt><trkpt lat="67.8875057" lon="32.9896008"><time>2022-08-20T12:23:46</time></trkpt><trkpt lat="67.8874837" lon="32.9896017"><time>2022-08-20T12:24:18</time></trkpt><trkpt lat="67.8874831" lon="32.9895859"><time>2022-08-20T12:24:56</time></trkpt><trkpt lat="67.8874873" lon="32.9895591"><time>2022-08-20T12:25:32</time></trkpt><trkpt lat="67.8874825" lon="32.9895596"><time>2022-08-20T12:26:11</time></trkpt><trkpt lat="67.8874730" lon="32.9894885"><time>2022-08-20T12:26:38</time></trkpt><trkpt lat="67.8874785" lon="32.9895272"><time>2022-08-20T12:27:15</time></trkpt><trkpt lat="67.8874778" lon="32.9895359"><time>2022-08-20T12:27:46</time></trkpt><trkpt lat="67.8874613" lon="32.9895492"><time>2022-08-20T12:28:18</time></trkpt><trkpt lat="67.8874631" lon="32.9895165"><time>2022-08-20T12:28:52</time></trkpt><trkpt lat="67.8874688" lon="32.9895153"><time>2022-08-20T12:29:26</time></trkpt><trkpt lat="67.8874659" lon="32.9895501"><time>2022-08-20T12:30:04</time></trkpt><trkpt lat="67.8874625" lon="32.9895204"><time>2022-08-20T12:30:35</time></trkpt><trkpt lat="67.8874602" lon="32.9895156"><time>2022-08-20T12:31:16</time></trkpt><trkpt lat="67.8874854" lon="32.9894822"><time>2022-08-20T12:31:42</time></trkpt><trkpt lat="67.8874816" lon="32.9894891"><time>2022-08-20T12:31:50</time></trkpt><trkpt lat="67.8874657" lon="32.9895451"><time>2022-08-20T12:32:35</time></trkpt><trkpt lat="67.8874541" lon="32.9894812"><time>2022-08-20T12:33:14</time></trkpt><trkpt lat="67.8874733" lon="32.9894048"><time>2022-08-20T12:33:30</time></trkpt><trkpt lat="67.8874932" lon="32.9893467"><time>2022-08-20T12:33:43</time></trkpt><trkpt lat="67.8874560" lon="32.9891961"><time>2022-08-20T12:34:07</time></trkpt><trkpt lat="67.8874510" lon="32.9889833"><time>2022-08-20T12:34:21</time></trkpt><trkpt lat="67.8874520" lon="32.9888815"><time>2022-08-20T12:34:25</time></trkpt><trkpt lat="67.8874997" lon="32.9885168"><time>2022-08-20T12:34:39</time></trkpt><trkpt lat="67.8875634" lon="32.9883313"><time>2022-08-20T12:34:49</time></trkpt><trkpt lat="67.8875791" lon="32.9879993"><time>2022-08-20T12:35:05</time></trkpt><trkpt lat="67.8876043" lon="32.9875653"><time>2022-08-20T12:35:22</time></trkpt><trkpt lat="67.8876040" lon="32.9875197"><time>2022-08-20T12:35:40</time></trkpt><trkpt lat="67.8876015" lon="32.9874498"><time>2022-08-20T12:36:06</time></trkpt><trkpt lat="67.8875610" lon="32.9873625"><time>2022-08-20T12:36:18</time></trkpt><trkpt lat="67.8873785" lon="32.9871078"><time>2022-08-20T12:36:35</time></trkpt><trkpt lat="67.8873272" lon="32.9870294"><time>2022-08-20T12:36:50</time></trkpt><trkpt lat="67.8873060" lon="32.9869721"><time>2022-08-20T12:36:56</time></trkpt><trkpt lat="67.8872602" lon="32.9868413"><time>2022-08-20T12:37:06</time></trkpt><trkpt lat="67.8872090" lon="32.9866586"><time>2022-08-20T12:37:17</time></trkpt><trkpt lat="67.8871228" lon="32.9862413"><time>2022-08-20T12:37:33</time></trkpt><trkpt lat="67.8870999" lon="32.9861292"><time>2022-08-20T12:37:54</time></trkpt><trkpt lat="67.8870982" lon="32.9860821"><time>2022-08-20T12:38:26</time></trkpt><trkpt lat="67.8871064" lon="32.9860832"><time>2022-08-20T12:38:38</time></trkpt><trkpt lat="67.8871126" lon="32.9861034"><time>2022-08-20T12:38:40</time></trkpt><trkpt lat="67.8870713" lon="32.9859244"><time>2022-08-20T12:38:54</time></trkpt><trkpt lat="67.8870644" lon="32.9858330"><time>2022-08-20T12:39:01</time></trkpt><trkpt lat="67.8870697" lon="32.9857418"><time>2022-08-20T12:39:17</time></trkpt><trkpt lat="67.8870687" lon="32.9856960"><time>2022-08-20T12:39:24</time></trkpt><trkpt lat="67.8870703" lon="32.9856321"><time>2022-08-20T12:39:28</time></trkpt><trkpt lat="67.8870713" lon="32.9855766"><time>2022-08-20T12:39:31</time></trkpt><trkpt lat="67.8870682" lon="32.9855030"><time>2022-08-20T12:39:36</time></trkpt><trkpt lat="67.8869767" lon="32.9851924"><time>2022-08-20T12:39:49</time></trkpt><trkpt lat="67.8869714" lon="32.9851822"><time>2022-08-20T12:39:54</time></trkpt><trkpt lat="67.8869774" lon="32.9851979"><time>2022-08-20T12:39:56</time></trkpt><trkpt lat="67.8869681" lon="32.9850619"><time>2022-08-20T12:40:09</time></trkpt><trkpt lat="67.8869314" lon="32.9850253"><time>2022-08-20T12:40:28</time></trkpt><trkpt lat="67.8869060" lon="32.9849332"><time>2022-08-20T12:40:36</time></trkpt><trkpt lat="67.8867848" lon="32.9846125"><time>2022-08-20T12:40:48</time></trkpt><trkpt lat="67.8867447" lon="32.9844631"><time>2022-08-20T12:40:53</time></trkpt><trkpt lat="67.8866389" lon="32.9839629"><time>2022-08-20T12:41:12</time></trkpt><trkpt lat="67.8865810" lon="32.9837117"><time>2022-08-20T12:41:31</time></trkpt><trkpt lat="67.8864640" lon="32.9838093"><time>2022-08-20T12:41:47</time></trkpt><trkpt lat="67.8865446" lon="32.9840888"><time>2022-08-20T12:42:05</time></trkpt><trkpt lat="67.8865321" lon="32.9842684"><time>2022-08-20T12:42:22</time></trkpt><trkpt lat="67.8865986" lon="32.9845467"><time>2022-08-20T12:42:36</time></trkpt><trkpt lat="67.8866346" lon="32.9844718"><time>2022-08-20T12:42:52</time></trkpt><trkpt lat="67.8867856" lon="32.9845761"><time>2022-08-20T12:43:08</time></trkpt><trkpt lat="67.8867928" lon="32.9845970"><time>2022-08-20T12:43:09</time></trkpt><trkpt lat="67.8868378" lon="32.9847372"><time>2022-08-20T12:43:15</time></trkpt><trkpt lat="67.8869395" lon="32.9850622"><time>2022-08-20T12:43:31</time></trkpt><trkpt lat="67.8868996" lon="32.9852174"><time>2022-08-20T12:43:43</time></trkpt><trkpt lat="67.8868485" lon="32.9852574"><time>2022-08-20T12:43:56</time></trkpt><trkpt lat="67.8869087" lon="32.9849642"><time>2022-08-20T12:44:11</time></trkpt><trkpt lat="67.8868341" lon="32.9847394"><time>2022-08-20T12:44:19</time></trkpt><trkpt lat="67.8867129" lon="32.9843276"><time>2022-08-20T12:44:35</time></trkpt><trkpt lat="67.8866411" lon="32.9840308"><time>2022-08-20T12:44:51</time></trkpt><trkpt lat="67.8865940" lon="32.9840288"><time>2022-08-20T12:45:04</time></trkpt><trkpt lat="67.8865222" lon="32.9841532"><time>2022-08-20T12:45:21</time></trkpt><trkpt lat="67.8865638" lon="32.9841758"><time>2022-08-20T12:45:36</time></trkpt><trkpt lat="67.8865693" lon="32.9841808"><time>2022-08-20T12:45:37</time></trkpt><trkpt lat="67.8865772" lon="32.9842757"><time>2022-08-20T12:45:46</time></trkpt><trkpt lat="67.8865625" lon="32.9843576"><time>2022-08-20T12:45:50</time></trkpt><trkpt lat="67.8865557" lon="32.9844426"><time>2022-08-20T12:45:57</time></trkpt><trkpt lat="67.8865450" lon="32.9844670"><time>2022-08-20T12:46:40</time></trkpt><trkpt lat="67.8865215" lon="32.9843069"><time>2022-08-20T12:46:52</time></trkpt><trkpt lat="67.8865515" lon="32.9841902"><time>2022-08-20T12:46:58</time></trkpt><trkpt lat="67.8866082" lon="32.9840412"><time>2022-08-20T12:47:05</time></trkpt><trkpt lat="67.8866222" lon="32.9838666"><time>2022-08-20T12:47:12</time></trkpt><trkpt lat="67.8865873" lon="32.9833632"><time>2022-08-20T12:47:30</time></trkpt><trkpt lat="67.8865593" lon="32.9829819"><time>2022-08-20T12:47:47</time></trkpt><trkpt lat="67.8865869" lon="32.9823289"><time>2022-08-20T12:48:03</time></trkpt><trkpt lat="67.8866237" lon="32.9817122"><time>2022-08-20T12:48:18</time></trkpt><trkpt lat="67.8866202" lon="32.9809899"><time>2022-08-20T12:48:36</time></trkpt><trkpt lat="67.8865973" lon="32.9803708"><time>2022-08-20T12:48:52</time></trkpt><trkpt lat="67.8866049" lon="32.9797965"><time>2022-08-20T12:49:06</time></trkpt><trkpt lat="67.8864926" lon="32.9792240"><time>2022-08-20T12:49:23</time></trkpt><trkpt lat="67.8864092" lon="32.9789590"><time>2022-08-20T12:49:35</time></trkpt><trkpt lat="67.8862475" lon="32.9783420"><time>2022-08-20T12:49:54</time></trkpt><trkpt lat="67.8862021" lon="32.9781270"><time>2022-08-20T12:50:08</time></trkpt><trkpt lat="67.8861809" lon="32.9779901"><time>2022-08-20T12:50:39</time></trkpt><trkpt lat="67.8861441" lon="32.9778307"><time>2022-08-20T12:50:46</time></trkpt><trkpt lat="67.8860702" lon="32.9776035"><time>2022-08-20T12:51:01</time></trkpt><trkpt lat="67.8859232" lon="32.9771121"><time>2022-08-20T12:51:18</time></trkpt><trkpt lat="67.8859025" lon="32.9769936"><time>2022-08-20T12:51:22</time></trkpt><trkpt lat="67.8857852" lon="32.9764941"><time>2022-08-20T12:51:41</time></trkpt><trkpt lat="67.8857456" lon="32.9762684"><time>2022-08-20T12:51:50</time></trkpt><trkpt lat="67.8857286" lon="32.9761564"><time>2022-08-20T12:51:54</time></trkpt><trkpt lat="67.8857153" lon="32.9761116"><time>2022-08-20T12:51:56</time></trkpt><trkpt lat="67.8855177" lon="32.9758405"><time>2022-08-20T12:52:15</time></trkpt><trkpt lat="67.8853648" lon="32.9755927"><time>2022-08-20T12:52:30</time></trkpt><trkpt lat="67.8853195" lon="32.9754465"><time>2022-08-20T12:52:44</time></trkpt><trkpt lat="67.8853162" lon="32.9754889"><time>2022-08-20T12:53:17</time></trkpt><trkpt lat="67.8853060" lon="32.9754774"><time>2022-08-20T12:53:55</time></trkpt><trkpt lat="67.8853043" lon="32.9754325"><time>2022-08-20T12:54:14</time></trkpt><trkpt lat="67.8852874" lon="32.9754305"><time>2022-08-20T12:54:21</time></trkpt><trkpt lat="67.8852873" lon="32.9752360"><time>2022-08-20T12:54:29</time></trkpt><trkpt lat="67.8851109" lon="32.9748584"><time>2022-08-20T12:54:46</time></trkpt><trkpt lat="67.8851049" lon="32.9747413"><time>2022-08-20T12:54:51</time></trkpt><trkpt lat="67.8850984" lon="32.9745843"><time>2022-08-20T12:54:55</time></trkpt><trkpt lat="67.8850285" lon="32.9740717"><time>2022-08-20T12:55:12</time></trkpt><trkpt lat="67.8849364" lon="32.9736571"><time>2022-08-20T12:55:27</time></trkpt><trkpt lat="67.8848571" lon="32.9734850"><time>2022-08-20T12:55:35</time></trkpt><trkpt lat="67.8846848" lon="32.9730133"><time>2022-08-20T12:55:51</time></trkpt><trkpt lat="67.8845711" lon="32.9727214"><time>2022-08-20T12:56:06</time></trkpt><trkpt lat="67.8844983" lon="32.9725144"><time>2022-08-20T12:56:18</time></trkpt><trkpt lat="67.8843882" lon="32.9719866"><time>2022-08-20T12:56:34</time></trkpt><trkpt lat="67.8843445" lon="32.9717649"><time>2022-08-20T12:56:40</time></trkpt><trkpt lat="67.8842569" lon="32.9714107"><time>2022-08-20T12:56:52</time></trkpt><trkpt lat="67.8842404" lon="32.9713567"><time>2022-08-20T12:56:54</time></trkpt><trkpt lat="67.8842051" lon="32.9713001"><time>2022-08-20T12:56:58</time></trkpt><trkpt lat="67.8841874" lon="32.9712373"><time>2022-08-20T12:57:02</time></trkpt><trkpt lat="67.8841399" lon="32.9710106"><time>2022-08-20T12:57:10</time></trkpt><trkpt lat="67.8840686" lon="32.9707262"><time>2022-08-20T12:57:20</time></trkpt><trkpt lat="67.8839948" lon="32.9703351"><time>2022-08-20T12:57:37</time></trkpt><trkpt lat="67.8839015" lon="32.9696698"><time>2022-08-20T12:57:54</time></trkpt><trkpt lat="67.8838503" lon="32.9692360"><time>2022-08-20T12:58:11</time></trkpt><trkpt lat="67.8837974" lon="32.9688361"><time>2022-08-20T12:58:25</time></trkpt><trkpt lat="67.8837750" lon="32.9688034"><time>2022-08-20T12:58:29</time></trkpt><trkpt lat="67.8836607" lon="32.9683984"><time>2022-08-20T12:58:45</time></trkpt><trkpt lat="67.8835976" lon="32.9681087"><time>2022-08-20T12:58:57</time></trkpt><trkpt lat="67.8835974" lon="32.9680076"><time>2022-08-20T12:59:05</time></trkpt><trkpt lat="67.8836874" lon="32.9678170"><time>2022-08-20T12:59:17</time></trkpt><trkpt lat="67.8837540" lon="32.9677101"><time>2022-08-20T12:59:32</time></trkpt><trkpt lat="67.8837283" lon="32.9676981"><time>2022-08-20T12:59:48</time></trkpt><trkpt lat="67.8837036" lon="32.9677168"><time>2022-08-20T13:00:20</time></trkpt><trkpt lat="67.8837281" lon="32.9676820"><time>2022-08-20T13:00:31</time></trkpt><trkpt lat="67.8838549" lon="32.9675371"><time>2022-08-20T13:00:43</time></trkpt><trkpt lat="67.8839040" lon="32.9674283"><time>2022-08-20T13:00:47</time></trkpt><trkpt lat="67.8839786" lon="32.9672387"><time>2022-08-20T13:00:56</time></trkpt><trkpt lat="67.8840282" lon="32.9668276"><time>2022-08-20T13:01:10</time></trkpt><trkpt lat="67.8840827" lon="32.9665391"><time>2022-08-20T13:01:23</time></trkpt><trkpt lat="67.8841092" lon="32.9664536"><time>2022-08-20T13:01:38</time></trkpt><trkpt lat="67.8841036" lon="32.9664195"><time>2022-08-20T13:02:07</time></trkpt><trkpt lat="67.8841658" lon="32.9662449"><time>2022-08-20T13:02:24</time></trkpt><trkpt lat="67.8841834" lon="32.9662014"><time>2022-08-20T13:02:27</time></trkpt><trkpt lat="67.8841907" lon="32.9661438"><time>2022-08-20T13:02:29</time></trkpt><trkpt lat="67.8842184" lon="32.9660833"><time>2022-08-20T13:02:48</time></trkpt><trkpt lat="67.8842425" lon="32.9659825"><time>2022-08-20T13:03:17</time></trkpt><trkpt lat="67.8843121" lon="32.9657697"><time>2022-08-20T13:03:41</time></trkpt><trkpt lat="67.8843616" lon="32.9656464"><time>2022-08-20T13:03:56</time></trkpt><trkpt lat="67.8843869" lon="32.9655543"><time>2022-08-20T13:04:24</time></trkpt><trkpt lat="67.8844628" lon="32.9652843"><time>2022-08-20T13:04:40</time></trkpt><trkpt lat="67.8844688" lon="32.9652806"><time>2022-08-20T13:04:43</time></trkpt><trkpt lat="67.8845437" lon="32.9651316"><time>2022-08-20T13:04:56</time></trkpt><trkpt lat="67.8845621" lon="32.9651043"><time>2022-08-20T13:04:58</time></trkpt><trkpt lat="67.8847133" lon="32.9647495"><time>2022-08-20T13:05:13</time></trkpt><trkpt lat="67.8847656" lon="32.9646119"><time>2022-08-20T13:05:29</time></trkpt><trkpt lat="67.8847644" lon="32.9646252"><time>2022-08-20T13:05:37</time></trkpt><trkpt lat="67.8847040" lon="32.9647779"><time>2022-08-20T13:05:44</time></trkpt><trkpt lat="67.8846113" lon="32.9649223"><time>2022-08-20T13:05:51</time></trkpt><trkpt lat="67.8845716" lon="32.9649740"><time>2022-08-20T13:05:54</time></trkpt><trkpt lat="67.8844323" lon="32.9652626"><time>2022-08-20T13:06:08</time></trkpt><trkpt lat="67.8843188" lon="32.9656016"><time>2022-08-20T13:06:24</time></trkpt><trkpt lat="67.8841614" lon="32.9660891"><time>2022-08-20T13:06:39</time></trkpt><trkpt lat="67.8840642" lon="32.9664805"><time>2022-08-20T13:06:53</time></trkpt><trkpt lat="67.8840606" lon="32.9665232"><time>2022-08-20T13:06:54</time></trkpt><trkpt lat="67.8839984" lon="32.9670530"><time>2022-08-20T13:07:08</time></trkpt><trkpt lat="67.8839437" lon="32.9672758"><time>2022-08-20T13:07:17</time></trkpt><trkpt lat="67.8837419" lon="32.9676111"><time>2022-08-20T13:07:32</time></trkpt><trkpt lat="67.8836402" lon="32.9678315"><time>2022-08-20T13:07:44</time></trkpt><trkpt lat="67.8835924" lon="32.9679046"><time>2022-08-20T13:07:53</time></trkpt><trkpt lat="67.8835240" lon="32.9677931"><time>2022-08-20T13:08:04</time></trkpt><trkpt lat="67.8834553" lon="32.9676121"><time>2022-08-20T13:08:14</time></trkpt><trkpt lat="67.8833452" lon="32.9670597"><time>2022-08-20T13:08:29</time></trkpt><trkpt lat="67.8832515" lon="32.9665576"><time>2022-08-20T13:08:44</time></trkpt><trkpt lat="67.8831653" lon="32.9659564"><time>2022-08-20T13:09:01</time></trkpt><trkpt lat="67.8831620" lon="32.9659367"><time>2022-08-20T13:09:02</time></trkpt><trkpt lat="67.8831278" lon="32.9656617"><time>2022-08-20T13:09:08</time></trkpt><trkpt lat="67.8831095" lon="32.9655155"><time>2022-08-20T13:09:12</time></trkpt><trkpt lat="67.8830490" lon="32.9648686"><time>2022-08-20T13:09:31</time></trkpt><trkpt lat="67.8829880" lon="32.9642920"><time>2022-08-20T13:09:48</time></trkpt><trkpt lat="67.8829096" lon="32.9639922"><time>2022-08-20T13:10:03</time></trkpt><trkpt lat="67.8829070" lon="32.9639362"><time>2022-08-20T13:10:13</time></trkpt><trkpt lat="67.8827982" lon="32.9636828"><time>2022-08-20T13:10:28</time></trkpt><trkpt lat="67.8827032" lon="32.9635553"><time>2022-08-20T13:10:41</time></trkpt><trkpt lat="67.8827127" lon="32.9635881"><time>2022-08-20T13:10:57</time></trkpt><trkpt lat="67.8826834" lon="32.9636317"><time>2022-08-20T13:11:26</time></trkpt><trkpt lat="67.8827078" lon="32.9637005"><time>2022-08-20T13:11:39</time></trkpt><trkpt lat="67.8827527" lon="32.9637146"><time>2022-08-20T13:12:00</time></trkpt><trkpt lat="67.8828448" lon="32.9637654"><time>2022-08-20T13:12:08</time></trkpt><trkpt lat="67.8828527" lon="32.9638505"><time>2022-08-20T13:12:10</time></trkpt><trkpt lat="67.8828907" lon="32.9640470"><time>2022-08-20T13:12:16</time></trkpt><trkpt lat="67.8829651" lon="32.9644865"><time>2022-08-20T13:12:31</time></trkpt><trkpt lat="67.8829807" lon="32.9646048"><time>2022-08-20T13:12:34</time></trkpt><trkpt lat="67.8830109" lon="32.9648522"><time>2022-08-20T13:12:43</time></trkpt><trkpt lat="67.8830180" lon="32.9648957"><time>2022-08-20T13:12:45</time></trkpt><trkpt lat="67.8830837" lon="32.9654964"><time>2022-08-20T13:13:02</time></trkpt><trkpt lat="67.8830843" lon="32.9655761"><time>2022-08-20T13:13:13</time></trkpt><trkpt lat="67.8831283" lon="32.9657573"><time>2022-08-20T13:13:37</time></trkpt><trkpt lat="67.8831941" lon="32.9661756"><time>2022-08-20T13:13:50</time></trkpt><trkpt lat="67.8831959" lon="32.9662066"><time>2022-08-20T13:13:51</time></trkpt><trkpt lat="67.8832165" lon="32.9665153"><time>2022-08-20T13:14:07</time></trkpt><trkpt lat="67.8832394" lon="32.9666427"><time>2022-08-20T13:14:12</time></trkpt><trkpt lat="67.8833187" lon="32.9670431"><time>2022-08-20T13:14:25</time></trkpt><trkpt lat="67.8833928" lon="32.9675053"><time>2022-08-20T13:14:40</time></trkpt><trkpt lat="67.8834696" lon="32.9678337"><time>2022-08-20T13:14:55</time></trkpt><trkpt lat="67.8836450" lon="32.9676984"><time>2022-08-20T13:15:10</time></trkpt><trkpt lat="67.8836892" lon="32.9676874"><time>2022-08-20T13:15:20</time></trkpt><trkpt lat="67.8838221" lon="32.9675032"><time>2022-08-20T13:15:33</time></trkpt><trkpt lat="67.8838712" lon="32.9674115"><time>2022-08-20T13:15:37</time></trkpt><trkpt lat="67.8839608" lon="32.9671313"><time>2022-08-20T13:15:48</time></trkpt><trkpt lat="67.8840616" lon="32.9665783"><time>2022-08-20T13:16:02</time></trkpt><trkpt lat="67.8840829" lon="32.9664766"><time>2022-08-20T13:16:05</time></trkpt><trkpt lat="67.8840894" lon="32.9664480"><time>2022-08-20T13:16:06</time></trkpt><trkpt lat="67.8841150" lon="32.9663290"><time>2022-08-20T13:16:09</time></trkpt><trkpt lat="67.8841624" lon="32.9661819"><time>2022-08-20T13:16:14</time></trkpt><trkpt lat="67.8842378" lon="32.9659958"><time>2022-08-20T13:16:20</time></trkpt><trkpt lat="67.8842488" lon="32.9659172"><time>2022-08-20T13:16:23</time></trkpt><trkpt lat="67.8842476" lon="32.9659097"><time>2022-08-20T13:16:24</time></trkpt><trkpt lat="67.8842323" lon="32.9658575"><time>2022-08-20T13:16:41</time></trkpt><trkpt lat="67.8842278" lon="32.9658242"><time>2022-08-20T13:16:53</time></trkpt><trkpt lat="67.8842251" lon="32.9658229"><time>2022-08-20T13:16:54</time></trkpt><trkpt lat="67.8842235" lon="32.9658243"><time>2022-08-20T13:16:55</time></trkpt><trkpt lat="67.8842264" lon="32.9658295"><time>2022-08-20T13:16:57</time></trkpt><trkpt lat="67.8842668" lon="32.9657937"><time>2022-08-20T13:17:00</time></trkpt><trkpt lat="67.8842958" lon="32.9657201"><time>2022-08-20T13:17:03</time></trkpt><trkpt lat="67.8843227" lon="32.9656551"><time>2022-08-20T13:17:06</time></trkpt><trkpt lat="67.8843566" lon="32.9655849"><time>2022-08-20T13:17:10</time></trkpt><trkpt lat="67.8843625" lon="32.9655696"><time>2022-08-20T13:17:11</time></trkpt><trkpt lat="67.8844320" lon="32.9653604"><time>2022-08-20T13:17:17</time></trkpt><trkpt lat="67.8844950" lon="32.9652151"><time>2022-08-20T13:17:23</time></trkpt><trkpt lat="67.8845315" lon="32.9651280"><time>2022-08-20T13:17:26</time></trkpt><trkpt lat="67.8845799" lon="32.9650333"><time>2022-08-20T13:17:32</time></trkpt><trkpt lat="67.8845834" lon="32.9650290"><time>2022-08-20T13:17:33</time></trkpt><trkpt lat="67.8845859" lon="32.9650247"><time>2022-08-20T13:17:34</time></trkpt><trkpt lat="67.8846320" lon="32.9649348"><time>2022-08-20T13:17:38</time></trkpt><trkpt lat="67.8846676" lon="32.9648817"><time>2022-08-20T13:17:41</time></trkpt><trkpt lat="67.8847259" lon="32.9648203"><time>2022-08-20T13:17:47</time></trkpt><trkpt lat="67.8848802" lon="32.9643614"><time>2022-08-20T13:18:01</time></trkpt><trkpt lat="67.8850203" lon="32.9640114"><time>2022-08-20T13:18:13</time></trkpt><trkpt lat="67.8850903" lon="32.9639036"><time>2022-08-20T13:18:19</time></trkpt><trkpt lat="67.8850950" lon="32.9639019"><time>2022-08-20T13:18:20</time></trkpt><trkpt lat="67.8851173" lon="32.9638548"><time>2022-08-20T13:18:32</time></trkpt><trkpt lat="67.8852334" lon="32.9636971"><time>2022-08-20T13:18:41</time></trkpt><trkpt lat="67.8853419" lon="32.9635781"><time>2022-08-20T13:18:49</time></trkpt><trkpt lat="67.8853718" lon="32.9635649"><time>2022-08-20T13:18:51</time></trkpt><trkpt lat="67.8854147" lon="32.9635048"><time>2022-08-20T13:18:54</time></trkpt><trkpt lat="67.8854448" lon="32.9634736"><time>2022-08-20T13:18:56</time></trkpt><trkpt lat="67.8855393" lon="32.9633006"><time>2022-08-20T13:19:04</time></trkpt><trkpt lat="67.8856987" lon="32.9630520"><time>2022-08-20T13:19:18</time></trkpt><trkpt lat="67.8858543" lon="32.9627797"><time>2022-08-20T13:19:31</time></trkpt><trkpt lat="67.8858895" lon="32.9626981"><time>2022-08-20T13:19:34</time></trkpt><trkpt lat="67.8859195" lon="32.9626365"><time>2022-08-20T13:19:38</time></trkpt><trkpt lat="67.8860846" lon="32.9624836"><time>2022-08-20T13:19:49</time></trkpt><trkpt lat="67.8862375" lon="32.9623820"><time>2022-08-20T13:19:59</time></trkpt><trkpt lat="67.8863359" lon="32.9623130"><time>2022-08-20T13:20:05</time></trkpt><trkpt lat="67.8863609" lon="32.9622898"><time>2022-08-20T13:20:07</time></trkpt><trkpt lat="67.8864432" lon="32.9622307"><time>2022-08-20T13:20:12</time></trkpt><trkpt lat="67.8865061" lon="32.9622310"><time>2022-08-20T13:20:18</time></trkpt><trkpt lat="67.8865893" lon="32.9621881"><time>2022-08-20T13:20:23</time></trkpt><trkpt lat="67.8866362" lon="32.9621813"><time>2022-08-20T13:20:27</time></trkpt><trkpt lat="67.8867113" lon="32.9621732"><time>2022-08-20T13:20:31</time></trkpt><trkpt lat="67.8867614" lon="32.9621927"><time>2022-08-20T13:20:34</time></trkpt><trkpt lat="67.8867816" lon="32.9621961"><time>2022-08-20T13:20:35</time></trkpt><trkpt lat="67.8869467" lon="32.9622516"><time>2022-08-20T13:20:48</time></trkpt><trkpt lat="67.8869781" lon="32.9622466"><time>2022-08-20T13:20:51</time></trkpt><trkpt lat="67.8870372" lon="32.9622415"><time>2022-08-20T13:20:56</time></trkpt><trkpt lat="67.8871958" lon="32.9620996"><time>2022-08-20T13:21:05</time></trkpt><trkpt lat="67.8872755" lon="32.9619332"><time>2022-08-20T13:21:14</time></trkpt><trkpt lat="67.8873569" lon="32.9617450"><time>2022-08-20T13:21:21</time></trkpt><trkpt lat="67.8874251" lon="32.9615920"><time>2022-08-20T13:21:26</time></trkpt><trkpt lat="67.8875165" lon="32.9613259"><time>2022-08-20T13:21:41</time></trkpt><trkpt lat="67.8876811" lon="32.9610282"><time>2022-08-20T13:21:58</time></trkpt><trkpt lat="67.8878573" lon="32.9605269"><time>2022-08-20T13:22:13</time></trkpt><trkpt lat="67.8879980" lon="32.9602915"><time>2022-08-20T13:22:29</time></trkpt><trkpt lat="67.8881505" lon="32.9599845"><time>2022-08-20T13:22:47</time></trkpt><trkpt lat="67.8882231" lon="32.9598655"><time>2022-08-20T13:23:01</time></trkpt><trkpt lat="67.8883264" lon="32.9597830"><time>2022-08-20T13:23:16</time></trkpt><trkpt lat="67.8884813" lon="32.9596581"><time>2022-08-20T13:23:32</time></trkpt><trkpt lat="67.8886558" lon="32.9594794"><time>2022-08-20T13:23:45</time></trkpt><trkpt lat="67.8887490" lon="32.9589883"><time>2022-08-20T13:23:59</time></trkpt><trkpt lat="67.8887486" lon="32.9589604"><time>2022-08-20T13:24:00</time></trkpt><trkpt lat="67.8887537" lon="32.9586399"><time>2022-08-20T13:24:08</time></trkpt><trkpt lat="67.8888049" lon="32.9580484"><time>2022-08-20T13:24:27</time></trkpt><trkpt lat="67.8888766" lon="32.9574985"><time>2022-08-20T13:24:41</time></trkpt><trkpt lat="67.8889419" lon="32.9569745"><time>2022-08-20T13:24:54</time></trkpt><trkpt lat="67.8889438" lon="32.9567895"><time>2022-08-20T13:24:59</time></trkpt><trkpt lat="67.8889491" lon="32.9564352"><time>2022-08-20T13:25:12</time></trkpt><trkpt lat="67.8889890" lon="32.9559745"><time>2022-08-20T13:25:30</time></trkpt><trkpt lat="67.8890859" lon="32.9557290"><time>2022-08-20T13:25:42</time></trkpt><trkpt lat="67.8892010" lon="32.9552333"><time>2022-08-20T13:26:01</time></trkpt><trkpt lat="67.8892072" lon="32.9551332"><time>2022-08-20T13:26:03</time></trkpt><trkpt lat="67.8892671" lon="32.9546065"><time>2022-08-20T13:26:18</time></trkpt><trkpt lat="67.8892682" lon="32.9542781"><time>2022-08-20T13:26:30</time></trkpt><trkpt lat="67.8892643" lon="32.9540687"><time>2022-08-20T13:26:39</time></trkpt><trkpt lat="67.8893027" lon="32.9537760"><time>2022-08-20T13:26:47</time></trkpt><trkpt lat="67.8893417" lon="32.9533719"><time>2022-08-20T13:27:02</time></trkpt><trkpt lat="67.8894330" lon="32.9529886"><time>2022-08-20T13:27:17</time></trkpt><trkpt lat="67.8895286" lon="32.9522902"><time>2022-08-20T13:27:36</time></trkpt><trkpt lat="67.8895799" lon="32.9520242"><time>2022-08-20T13:27:48</time></trkpt><trkpt lat="67.8896101" lon="32.9519539"><time>2022-08-20T13:28:02</time></trkpt><trkpt lat="67.8897246" lon="32.9518495"><time>2022-08-20T13:28:17</time></trkpt><trkpt lat="67.8897779" lon="32.9518554"><time>2022-08-20T13:28:25</time></trkpt><trkpt lat="67.8899641" lon="32.9517628"><time>2022-08-20T13:28:41</time></trkpt><trkpt lat="67.8900131" lon="32.9517111"><time>2022-08-20T13:28:45</time></trkpt><trkpt lat="67.8900730" lon="32.9516712"><time>2022-08-20T13:28:50</time></trkpt><trkpt lat="67.8901524" lon="32.9515315"><time>2022-08-20T13:28:58</time></trkpt><trkpt lat="67.8901772" lon="32.9514304"><time>2022-08-20T13:29:01</time></trkpt><trkpt lat="67.8902825" lon="32.9509125"><time>2022-08-20T13:29:15</time></trkpt><trkpt lat="67.8903384" lon="32.9505297"><time>2022-08-20T13:29:30</time></trkpt><trkpt lat="67.8903702" lon="32.9504219"><time>2022-08-20T13:29:35</time></trkpt><trkpt lat="67.8904777" lon="32.9498591"><time>2022-08-20T13:29:52</time></trkpt><trkpt lat="67.8904818" lon="32.9498291"><time>2022-08-20T13:29:53</time></trkpt><trkpt lat="67.8905362" lon="32.9494948"><time>2022-08-20T13:30:01</time></trkpt><trkpt lat="67.8906248" lon="32.9491475"><time>2022-08-20T13:30:16</time></trkpt><trkpt lat="67.8906412" lon="32.9490677"><time>2022-08-20T13:30:20</time></trkpt><trkpt lat="67.8907799" lon="32.9485214"><time>2022-08-20T13:30:38</time></trkpt><trkpt lat="67.8908311" lon="32.9483539"><time>2022-08-20T13:30:48</time></trkpt><trkpt lat="67.8908765" lon="32.9480102"><time>2022-08-20T13:31:05</time></trkpt><trkpt lat="67.8908903" lon="32.9479736"><time>2022-08-20T13:31:08</time></trkpt><trkpt lat="67.8909533" lon="32.9477825"><time>2022-08-20T13:31:18</time></trkpt><trkpt lat="67.8910315" lon="32.9475291"><time>2022-08-20T13:31:32</time></trkpt><trkpt lat="67.8910544" lon="32.9474176"><time>2022-08-20T13:31:38</time></trkpt><trkpt lat="67.8911278" lon="32.9473824"><time>2022-08-20T13:31:48</time></trkpt><trkpt lat="67.8911509" lon="32.9474225"><time>2022-08-20T13:31:52</time></trkpt><trkpt lat="67.8912535" lon="32.9475281"><time>2022-08-20T13:32:04</time></trkpt><trkpt lat="67.8913498" lon="32.9475325"><time>2022-08-20T13:32:14</time></trkpt><trkpt lat="67.8913980" lon="32.9474717"><time>2022-08-20T13:32:18</time></trkpt><trkpt lat="67.8914504" lon="32.9474043"><time>2022-08-20T13:32:23</time></trkpt><trkpt lat="67.8915078" lon="32.9472226"><time>2022-08-20T13:32:32</time></trkpt><trkpt lat="67.8916293" lon="32.9470709"><time>2022-08-20T13:32:46</time></trkpt><trkpt lat="67.8916807" lon="32.9470475"><time>2022-08-20T13:32:52</time></trkpt><trkpt lat="67.8918316" lon="32.9470242"><time>2022-08-20T13:33:06</time></trkpt><trkpt lat="67.8918428" lon="32.9470123"><time>2022-08-20T13:33:08</time></trkpt><trkpt lat="67.8918634" lon="32.9470043"><time>2022-08-20T13:33:10</time></trkpt><trkpt lat="67.8919189" lon="32.9469875"><time>2022-08-20T13:33:17</time></trkpt><trkpt lat="67.8919603" lon="32.9469258"><time>2022-08-20T13:33:23</time></trkpt><trkpt lat="67.8920208" lon="32.9468071"><time>2022-08-20T13:33:30</time></trkpt><trkpt lat="67.8921223" lon="32.9466837"><time>2022-08-20T13:33:43</time></trkpt><trkpt lat="67.8922005" lon="32.9466702"><time>2022-08-20T13:33:55</time></trkpt><trkpt lat="67.8922278" lon="32.9466838"><time>2022-08-20T13:34:01</time></trkpt><trkpt lat="67.8922896" lon="32.9465497"><time>2022-08-20T13:34:13</time></trkpt><trkpt lat="67.8922997" lon="32.9465180"><time>2022-08-20T13:34:27</time></trkpt><trkpt lat="67.8923259" lon="32.9465865"><time>2022-08-20T13:34:38</time></trkpt><trkpt lat="67.8924182" lon="32.9465116"><time>2022-08-20T13:34:50</time></trkpt><trkpt lat="67.8924477" lon="32.9464508"><time>2022-08-20T13:34:53</time></trkpt><trkpt lat="67.8924922" lon="32.9463264"><time>2022-08-20T13:34:58</time></trkpt><trkpt lat="67.8925719" lon="32.9462312"><time>2022-08-20T13:35:11</time></trkpt><trkpt lat="67.8926891" lon="32.9458825"><time>2022-08-20T13:35:27</time></trkpt><trkpt lat="67.8926912" lon="32.9458664"><time>2022-08-20T13:35:28</time></trkpt><trkpt lat="67.8927146" lon="32.9454218"><time>2022-08-20T13:35:44</time></trkpt><trkpt lat="67.8927083" lon="32.9453498"><time>2022-08-20T13:35:47</time></trkpt><trkpt lat="67.8926968" lon="32.9450670"><time>2022-08-20T13:35:57</time></trkpt><trkpt lat="67.8926944" lon="32.9446695"><time>2022-08-20T13:36:10</time></trkpt><trkpt lat="67.8926382" lon="32.9443407"><time>2022-08-20T13:36:23</time></trkpt><trkpt lat="67.8926361" lon="32.9442853"><time>2022-08-20T13:36:26</time></trkpt><trkpt lat="67.8926176" lon="32.9439435"><time>2022-08-20T13:36:40</time></trkpt><trkpt lat="67.8925941" lon="32.9436004"><time>2022-08-20T13:36:53</time></trkpt><trkpt lat="67.8925710" lon="32.9433942"><time>2022-08-20T13:37:02</time></trkpt><trkpt lat="67.8925622" lon="32.9431563"><time>2022-08-20T13:37:12</time></trkpt><trkpt lat="67.8926713" lon="32.9427635"><time>2022-08-20T13:37:27</time></trkpt><trkpt lat="67.8927357" lon="32.9426454"><time>2022-08-20T13:37:35</time></trkpt><trkpt lat="67.8927627" lon="32.9425809"><time>2022-08-20T13:37:39</time></trkpt><trkpt lat="67.8927810" lon="32.9423612"><time>2022-08-20T13:37:45</time></trkpt><trkpt lat="67.8927855" lon="32.9421311"><time>2022-08-20T13:37:56</time></trkpt><trkpt lat="67.8927796" lon="32.9416603"><time>2022-08-20T13:38:14</time></trkpt><trkpt lat="67.8927925" lon="32.9415564"><time>2022-08-20T13:38:31</time></trkpt><trkpt lat="67.8927840" lon="32.9412863"><time>2022-08-20T13:38:46</time></trkpt><trkpt lat="67.8927829" lon="32.9412960"><time>2022-08-20T13:38:48</time></trkpt><trkpt lat="67.8927730" lon="32.9411991"><time>2022-08-20T13:38:57</time></trkpt><trkpt lat="67.8927653" lon="32.9410387"><time>2022-08-20T13:39:06</time></trkpt><trkpt lat="67.8927466" lon="32.9408882"><time>2022-08-20T13:39:19</time></trkpt><trkpt lat="67.8927431" lon="32.9407881"><time>2022-08-20T13:39:25</time></trkpt><trkpt lat="67.8927531" lon="32.9406833"><time>2022-08-20T13:39:35</time></trkpt><trkpt lat="67.8927639" lon="32.9403917"><time>2022-08-20T13:39:46</time></trkpt><trkpt lat="67.8927725" lon="32.9403786"><time>2022-08-20T13:39:48</time></trkpt><trkpt lat="67.8928035" lon="32.9402041"><time>2022-08-20T13:40:01</time></trkpt><trkpt lat="67.8928352" lon="32.9401504"><time>2022-08-20T13:40:08</time></trkpt><trkpt lat="67.8928772" lon="32.9400505"><time>2022-08-20T13:40:18</time></trkpt><trkpt lat="67.8929108" lon="32.9397364"><time>2022-08-20T13:40:31</time></trkpt><trkpt lat="67.8929235" lon="32.9395216"><time>2022-08-20T13:40:43</time></trkpt><trkpt lat="67.8929048" lon="32.9395018"><time>2022-08-20T13:40:45</time></trkpt><trkpt lat="67.8928801" lon="32.9392430"><time>2022-08-20T13:40:59</time></trkpt><trkpt lat="67.8928493" lon="32.9390868"><time>2022-08-20T13:41:14</time></trkpt><trkpt lat="67.8928231" lon="32.9388489"><time>2022-08-20T13:41:29</time></trkpt><trkpt lat="67.8928387" lon="32.9387702"><time>2022-08-20T13:41:35</time></trkpt><trkpt lat="67.8928291" lon="32.9385907"><time>2022-08-20T13:41:48</time></trkpt><trkpt lat="67.8928234" lon="32.9385421"><time>2022-08-20T13:42:04</time></trkpt><trkpt lat="67.8928243" lon="32.9385217"><time>2022-08-20T13:42:28</time></trkpt><trkpt lat="67.8928433" lon="32.9384252"><time>2022-08-20T13:42:34</time></trkpt><trkpt lat="67.8928495" lon="32.9382404"><time>2022-08-20T13:42:42</time></trkpt><trkpt lat="67.8928105" lon="32.9379315"><time>2022-08-20T13:42:56</time></trkpt><trkpt lat="67.8928150" lon="32.9378725"><time>2022-08-20T13:43:00</time></trkpt><trkpt lat="67.8927917" lon="32.9378470"><time>2022-08-20T13:43:03</time></trkpt><trkpt lat="67.8927817" lon="32.9377654"><time>2022-08-20T13:43:06</time></trkpt><trkpt lat="67.8927785" lon="32.9374782"><time>2022-08-20T13:43:19</time></trkpt><trkpt lat="67.8927795" lon="32.9374262"><time>2022-08-20T13:43:22</time></trkpt><trkpt lat="67.8927781" lon="32.9371438"><time>2022-08-20T13:43:34</time></trkpt><trkpt lat="67.8927573" lon="32.9370307"><time>2022-08-20T13:43:39</time></trkpt><trkpt lat="67.8927592" lon="32.9368303"><time>2022-08-20T13:43:50</time></trkpt><trkpt lat="67.8927941" lon="32.9367750"><time>2022-08-20T13:43:54</time></trkpt><trkpt lat="67.8928109" lon="32.9366155"><time>2022-08-20T13:44:00</time></trkpt><trkpt lat="67.8928150" lon="32.9364113"><time>2022-08-20T13:44:12</time></trkpt><trkpt lat="67.8928270" lon="32.9363694"><time>2022-08-20T13:44:15</time></trkpt><trkpt lat="67.8928305" lon="32.9362014"><time>2022-08-20T13:44:26</time></trkpt><trkpt lat="67.8928083" lon="32.9360519"><time>2022-08-20T13:44:36</time></trkpt><trkpt lat="67.8927467" lon="32.9359450"><time>2022-08-20T13:44:47</time></trkpt><trkpt lat="67.8927407" lon="32.9359122"><time>2022-08-20T13:44:49</time></trkpt><trkpt lat="67.8927362" lon="32.9358332"><time>2022-08-20T13:45:02</time></trkpt><trkpt lat="67.8927382" lon="32.9357097"><time>2022-08-20T13:45:08</time></trkpt><trkpt lat="67.8927157" lon="32.9354928"><time>2022-08-20T13:45:24</time></trkpt><trkpt lat="67.8926862" lon="32.9351955"><time>2022-08-20T13:45:36</time></trkpt><trkpt lat="67.8926474" lon="32.9348903"><time>2022-08-20T13:45:51</time></trkpt><trkpt lat="67.8926002" lon="32.9346053"><time>2022-08-20T13:46:06</time></trkpt><trkpt lat="67.8925960" lon="32.9345907"><time>2022-08-20T13:46:07</time></trkpt><trkpt lat="67.8925907" lon="32.9343348"><time>2022-08-20T13:46:20</time></trkpt><trkpt lat="67.8926393" lon="32.9341297"><time>2022-08-20T13:46:32</time></trkpt><trkpt lat="67.8926957" lon="32.9338660"><time>2022-08-20T13:46:47</time></trkpt><trkpt lat="67.8927001" lon="32.9338615"><time>2022-08-20T13:46:48</time></trkpt><trkpt lat="67.8927772" lon="32.9336423"><time>2022-08-20T13:47:03</time></trkpt><trkpt lat="67.8927795" lon="32.9336305"><time>2022-08-20T13:47:08</time></trkpt><trkpt lat="67.8928538" lon="32.9334238"><time>2022-08-20T13:47:23</time></trkpt><trkpt lat="67.8928748" lon="32.9333617"><time>2022-08-20T13:47:38</time></trkpt><trkpt lat="67.8929501" lon="32.9332171"><time>2022-08-20T13:47:53</time></trkpt><trkpt lat="67.8930217" lon="32.9331892"><time>2022-08-20T13:48:04</time></trkpt><trkpt lat="67.8930305" lon="32.9331728"><time>2022-08-20T13:48:05</time></trkpt><trkpt lat="67.8930221" lon="32.9328861"><time>2022-08-20T13:48:17</time></trkpt><trkpt lat="67.8930053" lon="32.9327803"><time>2022-08-20T13:48:22</time></trkpt><trkpt lat="67.8930054" lon="32.9327041"><time>2022-08-20T13:48:25</time></trkpt><trkpt lat="67.8929885" lon="32.9326118"><time>2022-08-20T13:48:29</time></trkpt><trkpt lat="67.8929114" lon="32.9322400"><time>2022-08-20T13:48:47</time></trkpt><trkpt lat="67.8928736" lon="32.9321160"><time>2022-08-20T13:49:01</time></trkpt><trkpt lat="67.8928569" lon="32.9320190"><time>2022-08-20T13:49:07</time></trkpt><trkpt lat="67.8928106" lon="32.9319221"><time>2022-08-20T13:49:15</time></trkpt><trkpt lat="67.8927424" lon="32.9318354"><time>2022-08-20T13:49:30</time></trkpt><trkpt lat="67.8925939" lon="32.9316787"><time>2022-08-20T13:49:47</time></trkpt><trkpt lat="67.8925271" lon="32.9315707"><time>2022-08-20T13:49:56</time></trkpt><trkpt lat="67.8924374" lon="32.9312917"><time>2022-08-20T13:50:13</time></trkpt><trkpt lat="67.8923908" lon="32.9310899"><time>2022-08-20T13:50:26</time></trkpt><trkpt lat="67.8923683" lon="32.9308953"><time>2022-08-20T13:50:45</time></trkpt><trkpt lat="67.8923549" lon="32.9306322"><time>2022-08-20T13:51:01</time></trkpt><trkpt lat="67.8923273" lon="32.9303353"><time>2022-08-20T13:51:18</time></trkpt><trkpt lat="67.8923086" lon="32.9301122"><time>2022-08-20T13:51:36</time></trkpt><trkpt lat="67.8923690" lon="32.9299461"><time>2022-08-20T13:51:52</time></trkpt><trkpt lat="67.8923642" lon="32.9297935"><time>2022-08-20T13:52:01</time></trkpt><trkpt lat="67.8923863" lon="32.9295395"><time>2022-08-20T13:52:13</time></trkpt><trkpt lat="67.8923374" lon="32.9293039"><time>2022-08-20T13:52:27</time></trkpt><trkpt lat="67.8922838" lon="32.9289316"><time>2022-08-20T13:52:46</time></trkpt><trkpt lat="67.8922512" lon="32.9285987"><time>2022-08-20T13:53:04</time></trkpt><trkpt lat="67.8922547" lon="32.9285229"><time>2022-08-20T13:53:07</time></trkpt><trkpt lat="67.8922483" lon="32.9281867"><time>2022-08-20T13:53:21</time></trkpt><trkpt lat="67.8922803" lon="32.9278011"><time>2022-08-20T13:53:38</time></trkpt><trkpt lat="67.8922649" lon="32.9277532"><time>2022-08-20T13:53:41</time></trkpt><trkpt lat="67.8922349" lon="32.9276057"><time>2022-08-20T13:53:57</time></trkpt><trkpt lat="67.8922392" lon="32.9275872"><time>2022-08-20T13:53:58</time></trkpt><trkpt lat="67.8922221" lon="32.9273759"><time>2022-08-20T13:54:08</time></trkpt><trkpt lat="67.8921581" lon="32.9271075"><time>2022-08-20T13:54:24</time></trkpt><trkpt lat="67.8920863" lon="32.9268987"><time>2022-08-20T13:54:38</time></trkpt><trkpt lat="67.8920683" lon="32.9266804"><time>2022-08-20T13:54:49</time></trkpt><trkpt lat="67.8920495" lon="32.9264418"><time>2022-08-20T13:55:01</time></trkpt><trkpt lat="67.8920107" lon="32.9261520"><time>2022-08-20T13:55:14</time></trkpt><trkpt lat="67.8919797" lon="32.9259240"><time>2022-08-20T13:55:25</time></trkpt><trkpt lat="67.8919223" lon="32.9256624"><time>2022-08-20T13:55:41</time></trkpt><trkpt lat="67.8918917" lon="32.9254371"><time>2022-08-20T13:55:56</time></trkpt><trkpt lat="67.8918833" lon="32.9253257"><time>2022-08-20T13:56:02</time></trkpt><trkpt lat="67.8918411" lon="32.9250792"><time>2022-08-20T13:56:15</time></trkpt><trkpt lat="67.8918347" lon="32.9250383"><time>2022-08-20T13:56:17</time></trkpt><trkpt lat="67.8917934" lon="32.9247920"><time>2022-08-20T13:56:32</time></trkpt><trkpt lat="67.8917746" lon="32.9245215"><time>2022-08-20T13:56:47</time></trkpt><trkpt lat="67.8917665" lon="32.9242627"><time>2022-08-20T13:57:03</time></trkpt><trkpt lat="67.8917539" lon="32.9240896"><time>2022-08-20T13:57:17</time></trkpt><trkpt lat="67.8917150" lon="32.9239941"><time>2022-08-20T13:57:30</time></trkpt><trkpt lat="67.8916392" lon="32.9238681"><time>2022-08-20T13:57:44</time></trkpt><trkpt lat="67.8916220" lon="32.9237749"><time>2022-08-20T13:57:55</time></trkpt><trkpt lat="67.8916126" lon="32.9237482"><time>2022-08-20T13:58:01</time></trkpt><trkpt lat="67.8915899" lon="32.9236653"><time>2022-08-20T13:58:07</time></trkpt><trkpt lat="67.8916036" lon="32.9234664"><time>2022-08-20T13:58:19</time></trkpt><trkpt lat="67.8916013" lon="32.9233635"><time>2022-08-20T13:58:24</time></trkpt><trkpt lat="67.8915916" lon="32.9233221"><time>2022-08-20T13:58:36</time></trkpt><trkpt lat="67.8915871" lon="32.9233198"><time>2022-08-20T13:59:03</time></trkpt><trkpt lat="67.8915854" lon="32.9232296"><time>2022-08-20T13:59:12</time></trkpt><trkpt lat="67.8915890" lon="32.9231862"><time>2022-08-20T13:59:14</time></trkpt><trkpt lat="67.8915744" lon="32.9230030"><time>2022-08-20T13:59:23</time></trkpt><trkpt lat="67.8915635" lon="32.9229565"><time>2022-08-20T13:59:26</time></trkpt><trkpt lat="67.8915957" lon="32.9228313"><time>2022-08-20T13:59:40</time></trkpt><trkpt lat="67.8916022" lon="32.9228096"><time>2022-08-20T13:59:41</time></trkpt><trkpt lat="67.8916150" lon="32.9227613"><time>2022-08-20T13:59:43</time></trkpt><trkpt lat="67.8916260" lon="32.9226901"><time>2022-08-20T13:59:48</time></trkpt><trkpt lat="67.8916221" lon="32.9226994"><time>2022-08-20T14:00:03</time></trkpt><trkpt lat="67.8916231" lon="32.9227011"><time>2022-08-20T14:00:04</time></trkpt><trkpt lat="67.8916255" lon="32.9227058"><time>2022-08-20T14:00:06</time></trkpt><trkpt lat="67.8916289" lon="32.9227207"><time>2022-08-20T14:00:07</time></trkpt><trkpt lat="67.8916437" lon="32.9227495"><time>2022-08-20T14:00:09</time></trkpt><trkpt lat="67.8917319" lon="32.9227501"><time>2022-08-20T14:00:25</time></trkpt><trkpt lat="67.8917131" lon="32.9227730"><time>2022-08-20T14:00:48</time></trkpt><trkpt lat="67.8917048" lon="32.9227790"><time>2022-08-20T14:00:49</time></trkpt><trkpt lat="67.8916200" lon="32.9229282"><time>2022-08-20T14:00:58</time></trkpt><trkpt lat="67.8916049" lon="32.9229697"><time>2022-08-20T14:01:01</time></trkpt><trkpt lat="67.8916038" lon="32.9229685"><time>2022-08-20T14:01:02</time></trkpt><trkpt lat="67.8915951" lon="32.9229702"><time>2022-08-20T14:01:04</time></trkpt><trkpt lat="67.8915892" lon="32.9229669"><time>2022-08-20T14:01:05</time></trkpt><trkpt lat="67.8915836" lon="32.9229693"><time>2022-08-20T14:01:06</time></trkpt><trkpt lat="67.8915664" lon="32.9229714"><time>2022-08-20T14:01:08</time></trkpt><trkpt lat="67.8915577" lon="32.9229731"><time>2022-08-20T14:01:09</time></trkpt><trkpt lat="67.8914964" lon="32.9230186"><time>2022-08-20T14:01:16</time></trkpt><trkpt lat="67.8914043" lon="32.9230588"><time>2022-08-20T14:01:26</time></trkpt><trkpt lat="67.8913638" lon="32.9230507"><time>2022-08-20T14:01:31</time></trkpt><trkpt lat="67.8913569" lon="32.9230496"><time>2022-08-20T14:01:32</time></trkpt><trkpt lat="67.8913496" lon="32.9230503"><time>2022-08-20T14:01:33</time></trkpt><trkpt lat="67.8913405" lon="32.9230550"><time>2022-08-20T14:01:34</time></trkpt><trkpt lat="67.8913211" lon="32.9230693"><time>2022-08-20T14:01:36</time></trkpt><trkpt lat="67.8913141" lon="32.9230730"><time>2022-08-20T14:01:37</time></trkpt><trkpt lat="67.8912806" lon="32.9231156"><time>2022-08-20T14:01:41</time></trkpt><trkpt lat="67.8912828" lon="32.9231159"><time>2022-08-20T14:01:44</time></trkpt><trkpt lat="67.8912205" lon="32.9231098"><time>2022-08-20T14:01:59</time></trkpt><trkpt lat="67.8912125" lon="32.9231211"><time>2022-08-20T14:02:00</time></trkpt><trkpt lat="67.8912077" lon="32.9231331"><time>2022-08-20T14:02:01</time></trkpt><trkpt lat="67.8911839" lon="32.9231742"><time>2022-08-20T14:02:06</time></trkpt><trkpt lat="67.8911236" lon="32.9232127"><time>2022-08-20T14:02:17</time></trkpt><trkpt lat="67.8911137" lon="32.9231986"><time>2022-08-20T14:02:19</time></trkpt><trkpt lat="67.8910988" lon="32.9231741"><time>2022-08-20T14:02:21</time></trkpt><trkpt lat="67.8910686" lon="32.9231613"><time>2022-08-20T14:02:26</time></trkpt><trkpt lat="67.8910548" lon="32.9231675"><time>2022-08-20T14:02:33</time></trkpt><trkpt lat="67.8910423" lon="32.9231255"><time>2022-08-20T14:02:40</time></trkpt><trkpt lat="67.8910411" lon="32.9230895"><time>2022-08-20T14:02:43</time></trkpt><trkpt lat="67.8910574" lon="32.9230390"><time>2022-08-20T14:02:55</time></trkpt><trkpt lat="67.8910549" lon="32.9230575"><time>2022-08-20T14:03:11</time></trkpt><trkpt lat="67.8910617" lon="32.9230640"><time>2022-08-20T14:03:28</time></trkpt><trkpt lat="67.8910633" lon="32.9230352"><time>2022-08-20T14:03:44</time></trkpt><trkpt lat="67.8910844" lon="32.9230797"><time>2022-08-20T14:03:56</time></trkpt><trkpt lat="67.8910840" lon="32.9231331"><time>2022-08-20T14:04:02</time></trkpt><trkpt lat="67.8910759" lon="32.9234248"><time>2022-08-20T14:04:16</time></trkpt><trkpt lat="67.8910838" lon="32.9236423"><time>2022-08-20T14:04:29</time></trkpt><trkpt lat="67.8910926" lon="32.9236113"><time>2022-08-20T14:04:44</time></trkpt><trkpt lat="67.8910981" lon="32.9236524"><time>2022-08-20T14:04:56</time></trkpt><trkpt lat="67.8911027" lon="32.9236944"><time>2022-08-20T14:04:58</time></trkpt><trkpt lat="67.8911769" lon="32.9239244"><time>2022-08-20T14:05:12</time></trkpt><trkpt lat="67.8911942" lon="32.9239928"><time>2022-08-20T14:05:28</time></trkpt><trkpt lat="67.8912107" lon="32.9240499"><time>2022-08-20T14:05:31</time></trkpt><trkpt lat="67.8912133" lon="32.9240657"><time>2022-08-20T14:05:32</time></trkpt><trkpt lat="67.8912553" lon="32.9241955"><time>2022-08-20T14:05:38</time></trkpt><trkpt lat="67.8913113" lon="32.9243147"><time>2022-08-20T14:05:46</time></trkpt><trkpt lat="67.8913646" lon="32.9244242"><time>2022-08-20T14:05:52</time></trkpt><trkpt lat="67.8914046" lon="32.9244675"><time>2022-08-20T14:05:57</time></trkpt><trkpt lat="67.8914773" lon="32.9246187"><time>2022-08-20T14:06:07</time></trkpt><trkpt lat="67.8915407" lon="32.9246398"><time>2022-08-20T14:06:12</time></trkpt><trkpt lat="67.8915757" lon="32.9247022"><time>2022-08-20T14:06:15</time></trkpt><trkpt lat="67.8916593" lon="32.9248628"><time>2022-08-20T14:06:27</time></trkpt><trkpt lat="67.8917187" lon="32.9249536"><time>2022-08-20T14:06:34</time></trkpt><trkpt lat="67.8917724" lon="32.9249543"><time>2022-08-20T14:06:40</time></trkpt><trkpt lat="67.8917932" lon="32.9248718"><time>2022-08-20T14:06:44</time></trkpt><trkpt lat="67.8918587" lon="32.9248744"><time>2022-08-20T14:06:49</time></trkpt><trkpt lat="67.8918745" lon="32.9248717"><time>2022-08-20T14:06:51</time></trkpt><trkpt lat="67.8919939" lon="32.9248727"><time>2022-08-20T14:07:05</time></trkpt><trkpt lat="67.8919941" lon="32.9248744"><time>2022-08-20T14:07:08</time></trkpt><trkpt lat="67.8921292" lon="32.9250199"><time>2022-08-20T14:07:21</time></trkpt><trkpt lat="67.8921452" lon="32.9250363"><time>2022-08-20T14:07:23</time></trkpt><trkpt lat="67.8922014" lon="32.9250599"><time>2022-08-20T14:07:28</time></trkpt><trkpt lat="67.8923301" lon="32.9252130"><time>2022-08-20T14:07:41</time></trkpt><trkpt lat="67.8923659" lon="32.9252470"><time>2022-08-20T14:07:45</time></trkpt><trkpt lat="67.8923867" lon="32.9252550"><time>2022-08-20T14:07:47</time></trkpt><trkpt lat="67.8924561" lon="32.9253651"><time>2022-08-20T14:07:52</time></trkpt><trkpt lat="67.8925612" lon="32.9254100"><time>2022-08-20T14:08:03</time></trkpt><trkpt lat="67.8927183" lon="32.9254486"><time>2022-08-20T14:08:12</time></trkpt><trkpt lat="67.8927384" lon="32.9254453"><time>2022-08-20T14:08:14</time></trkpt><trkpt lat="67.8927927" lon="32.9254733"><time>2022-08-20T14:08:25</time></trkpt><trkpt lat="67.8928429" lon="32.9255650"><time>2022-08-20T14:08:31</time></trkpt><trkpt lat="67.8928621" lon="32.9255846"><time>2022-08-20T14:08:33</time></trkpt><trkpt lat="67.8928729" lon="32.9255955"><time>2022-08-20T14:08:34</time></trkpt><trkpt lat="67.8929293" lon="32.9257748"><time>2022-08-20T14:08:40</time></trkpt><trkpt lat="67.8929711" lon="32.9258407"><time>2022-08-20T14:08:44</time></trkpt><trkpt lat="67.8931274" lon="32.9261519"><time>2022-08-20T14:08:58</time></trkpt><trkpt lat="67.8931587" lon="32.9261943"><time>2022-08-20T14:09:00</time></trkpt><trkpt lat="67.8932848" lon="32.9263419"><time>2022-08-20T14:09:13</time></trkpt><trkpt lat="67.8933237" lon="32.9263571"><time>2022-08-20T14:09:16</time></trkpt><trkpt lat="67.8934738" lon="32.9262150"><time>2022-08-20T14:09:33</time></trkpt><trkpt lat="67.8935003" lon="32.9262147"><time>2022-08-20T14:09:50</time></trkpt><trkpt lat="67.8935190" lon="32.9262275"><time>2022-08-20T14:09:52</time></trkpt><trkpt lat="67.8935526" lon="32.9262582"><time>2022-08-20T14:09:56</time></trkpt><trkpt lat="67.8935909" lon="32.9262892"><time>2022-08-20T14:10:00</time></trkpt><trkpt lat="67.8936711" lon="32.9262885"><time>2022-08-20T14:10:07</time></trkpt><trkpt lat="67.8937162" lon="32.9263155"><time>2022-08-20T14:10:12</time></trkpt><trkpt lat="67.8937467" lon="32.9263624"><time>2022-08-20T14:10:15</time></trkpt><trkpt lat="67.8938168" lon="32.9264528"><time>2022-08-20T14:10:23</time></trkpt><trkpt lat="67.8938898" lon="32.9264954"><time>2022-08-20T14:10:29</time></trkpt><trkpt lat="67.8939080" lon="32.9265101"><time>2022-08-20T14:10:31</time></trkpt><trkpt lat="67.8939360" lon="32.9265228"><time>2022-08-20T14:10:34</time></trkpt><trkpt lat="67.8939572" lon="32.9265311"><time>2022-08-20T14:10:36</time></trkpt><trkpt lat="67.8939919" lon="32.9265720"><time>2022-08-20T14:10:39</time></trkpt><trkpt lat="67.8940294" lon="32.9265857"><time>2022-08-20T14:10:42</time></trkpt><trkpt lat="67.8940912" lon="32.9266274"><time>2022-08-20T14:10:48</time></trkpt><trkpt lat="67.8941126" lon="32.9266357"><time>2022-08-20T14:10:50</time></trkpt><trkpt lat="67.8942035" lon="32.9266951"><time>2022-08-20T14:10:58</time></trkpt><trkpt lat="67.8942966" lon="32.9268886"><time>2022-08-20T14:11:08</time></trkpt><trkpt lat="67.8944102" lon="32.9270606"><time>2022-08-20T14:11:22</time></trkpt><trkpt lat="67.8944798" lon="32.9270798"><time>2022-08-20T14:11:27</time></trkpt><trkpt lat="67.8946032" lon="32.9272472"><time>2022-08-20T14:11:39</time></trkpt><trkpt lat="67.8946292" lon="32.9272692"><time>2022-08-20T14:11:41</time></trkpt><trkpt lat="67.8948024" lon="32.9272693"><time>2022-08-20T14:11:55</time></trkpt><trkpt lat="67.8949170" lon="32.9273479"><time>2022-08-20T14:12:07</time></trkpt><trkpt lat="67.8949337" lon="32.9273622"><time>2022-08-20T14:12:09</time></trkpt><trkpt lat="67.8949849" lon="32.9273787"><time>2022-08-20T14:12:14</time></trkpt><trkpt lat="67.8950338" lon="32.9273817"><time>2022-08-20T14:12:18</time></trkpt><trkpt lat="67.8950744" lon="32.9273801"><time>2022-08-20T14:12:23</time></trkpt><trkpt lat="67.8951093" lon="32.9273227"><time>2022-08-20T14:12:28</time></trkpt><trkpt lat="67.8952453" lon="32.9274524"><time>2022-08-20T14:12:43</time></trkpt><trkpt lat="67.8952661" lon="32.9274702"><time>2022-08-20T14:12:45</time></trkpt><trkpt lat="67.8953592" lon="32.9275139"><time>2022-08-20T14:12:53</time></trkpt><trkpt lat="67.8953895" lon="32.9275269"><time>2022-08-20T14:12:55</time></trkpt><trkpt lat="67.8955658" lon="32.9277982"><time>2022-08-20T14:13:11</time></trkpt><trkpt lat="67.8956278" lon="32.9278503"><time>2022-08-20T14:13:16</time></trkpt><trkpt lat="67.8956838" lon="32.9278745"><time>2022-08-20T14:13:21</time></trkpt><trkpt lat="67.8957532" lon="32.9279364"><time>2022-08-20T14:13:28</time></trkpt><trkpt lat="67.8958764" lon="32.9280746"><time>2022-08-20T14:13:42</time></trkpt><trkpt lat="67.8959220" lon="32.9280150"><time>2022-08-20T14:13:49</time></trkpt><trkpt lat="67.8960383" lon="32.9278915"><time>2022-08-20T14:14:03</time></trkpt><trkpt lat="67.8961083" lon="32.9278670"><time>2022-08-20T14:14:10</time></trkpt><trkpt lat="67.8961458" lon="32.9278857"><time>2022-08-20T14:14:14</time></trkpt><trkpt lat="67.8962933" lon="32.9280011"><time>2022-08-20T14:14:27</time></trkpt><trkpt lat="67.8964323" lon="32.9280596"><time>2022-08-20T14:14:41</time></trkpt><trkpt lat="67.8964737" lon="32.9281220"><time>2022-08-20T14:14:45</time></trkpt><trkpt lat="67.8965033" lon="32.9281835"><time>2022-08-20T14:14:49</time></trkpt><trkpt lat="67.8965856" lon="32.9283717"><time>2022-08-20T14:14:59</time></trkpt><trkpt lat="67.8966015" lon="32.9284095"><time>2022-08-20T14:15:01</time></trkpt><trkpt lat="67.8966462" lon="32.9285528"><time>2022-08-20T14:15:06</time></trkpt><trkpt lat="67.8967242" lon="32.9288683"><time>2022-08-20T14:15:15</time></trkpt><trkpt lat="67.8967275" lon="32.9288873"><time>2022-08-20T14:15:16</time></trkpt><trkpt lat="67.8967440" lon="32.9290565"><time>2022-08-20T14:15:22</time></trkpt><trkpt lat="67.8967687" lon="32.9291190"><time>2022-08-20T14:15:25</time></trkpt><trkpt lat="67.8967822" lon="32.9291417"><time>2022-08-20T14:15:27</time></trkpt><trkpt lat="67.8968058" lon="32.9291528"><time>2022-08-20T14:15:30</time></trkpt><trkpt lat="67.8968477" lon="32.9292128"><time>2022-08-20T14:15:34</time></trkpt><trkpt lat="67.8968736" lon="32.9292747"><time>2022-08-20T14:15:38</time></trkpt><trkpt lat="67.8968887" lon="32.9293265"><time>2022-08-20T14:15:40</time></trkpt><trkpt lat="67.8969730" lon="32.9295760"><time>2022-08-20T14:15:51</time></trkpt><trkpt lat="67.8970362" lon="32.9298603"><time>2022-08-20T14:16:05</time></trkpt><trkpt lat="67.8971100" lon="32.9301328"><time>2022-08-20T14:16:19</time></trkpt><trkpt lat="67.8971250" lon="32.9301745"><time>2022-08-20T14:16:21</time></trkpt><trkpt lat="67.8972164" lon="32.9304183"><time>2022-08-20T14:16:33</time></trkpt><trkpt lat="67.8972232" lon="32.9304587"><time>2022-08-20T14:16:35</time></trkpt><trkpt lat="67.8972577" lon="32.9307825"><time>2022-08-20T14:16:47</time></trkpt><trkpt lat="67.8972600" lon="32.9308050"><time>2022-08-20T14:16:48</time></trkpt><trkpt lat="67.8973315" lon="32.9311302"><time>2022-08-20T14:17:01</time></trkpt><trkpt lat="67.8973409" lon="32.9311873"><time>2022-08-20T14:17:03</time></trkpt><trkpt lat="67.8974126" lon="32.9315536"><time>2022-08-20T14:17:13</time></trkpt><trkpt lat="67.8974616" lon="32.9317700"><time>2022-08-20T14:17:22</time></trkpt><trkpt lat="67.8975133" lon="32.9318257"><time>2022-08-20T14:17:26</time></trkpt><trkpt lat="67.8976579" lon="32.9320629"><time>2022-08-20T14:17:40</time></trkpt><trkpt lat="67.8976676" lon="32.9320863"><time>2022-08-20T14:17:42</time></trkpt><trkpt lat="67.8976973" lon="32.9321450"><time>2022-08-20T14:17:46</time></trkpt><trkpt lat="67.8978031" lon="32.9323557"><time>2022-08-20T14:17:55</time></trkpt><trkpt lat="67.8979063" lon="32.9325964"><time>2022-08-20T14:18:08</time></trkpt><trkpt lat="67.8979718" lon="32.9327323"><time>2022-08-20T14:18:15</time></trkpt><trkpt lat="67.8981034" lon="32.9330540"><time>2022-08-20T14:18:31</time></trkpt><trkpt lat="67.8981346" lon="32.9331383"><time>2022-08-20T14:18:35</time></trkpt><trkpt lat="67.8981562" lon="32.9331861"><time>2022-08-20T14:18:37</time></trkpt><trkpt lat="67.8982215" lon="32.9333400"><time>2022-08-20T14:18:43</time></trkpt><trkpt lat="67.8982534" lon="32.9333780"><time>2022-08-20T14:18:46</time></trkpt><trkpt lat="67.8983066" lon="32.9334922"><time>2022-08-20T14:18:53</time></trkpt><trkpt lat="67.8984100" lon="32.9336481"><time>2022-08-20T14:19:03</time></trkpt><trkpt lat="67.8984285" lon="32.9336595"><time>2022-08-20T14:19:05</time></trkpt><trkpt lat="67.8984421" lon="32.9336698"><time>2022-08-20T14:19:06</time></trkpt><trkpt lat="67.8984661" lon="32.9336915"><time>2022-08-20T14:19:08</time></trkpt><trkpt lat="67.8985965" lon="32.9338928"><time>2022-08-20T14:19:20</time></trkpt><trkpt lat="67.8986777" lon="32.9340318"><time>2022-08-20T14:19:32</time></trkpt><trkpt lat="67.8986999" lon="32.9341026"><time>2022-08-20T14:19:35</time></trkpt><trkpt lat="67.8987144" lon="32.9341606"><time>2022-08-20T14:19:37</time></trkpt><trkpt lat="67.8987834" lon="32.9343877"><time>2022-08-20T14:19:46</time></trkpt><trkpt lat="67.8988130" lon="32.9345201"><time>2022-08-20T14:19:50</time></trkpt><trkpt lat="67.8988390" lon="32.9345293"><time>2022-08-20T14:19:52</time></trkpt><trkpt lat="67.8988511" lon="32.9345362"><time>2022-08-20T14:19:53</time></trkpt><trkpt lat="67.8990937" lon="32.9347868"><time>2022-08-20T14:20:12</time></trkpt><trkpt lat="67.8991047" lon="32.9348139"><time>2022-08-20T14:20:13</time></trkpt><trkpt lat="67.8992984" lon="32.9349440"><time>2022-08-20T14:20:28</time></trkpt><trkpt lat="67.8994653" lon="32.9350596"><time>2022-08-20T14:20:42</time></trkpt><trkpt lat="67.8994734" lon="32.9350767"><time>2022-08-20T14:20:43</time></trkpt><trkpt lat="67.8994837" lon="32.9350926"><time>2022-08-20T14:20:44</time></trkpt><trkpt lat="67.8995272" lon="32.9351416"><time>2022-08-20T14:20:48</time></trkpt><trkpt lat="67.8996846" lon="32.9354068"><time>2022-08-20T14:21:02</time></trkpt><trkpt lat="67.8998361" lon="32.9355606"><time>2022-08-20T14:21:16</time></trkpt><trkpt lat="67.9000412" lon="32.9358331"><time>2022-08-20T14:21:31</time></trkpt><trkpt lat="67.9000815" lon="32.9359073"><time>2022-08-20T14:21:35</time></trkpt><trkpt lat="67.9002018" lon="32.9360749"><time>2022-08-20T14:21:49</time></trkpt><trkpt lat="67.9002312" lon="32.9360926"><time>2022-08-20T14:21:51</time></trkpt><trkpt lat="67.9003873" lon="32.9361495"><time>2022-08-20T14:22:06</time></trkpt><trkpt lat="67.9004803" lon="32.9361948"><time>2022-08-20T14:22:19</time></trkpt><trkpt lat="67.9004964" lon="32.9361980"><time>2022-08-20T14:22:21</time></trkpt><trkpt lat="67.9005172" lon="32.9362099"><time>2022-08-20T14:22:23</time></trkpt><trkpt lat="67.9005547" lon="32.9362678"><time>2022-08-20T14:22:28</time></trkpt><trkpt lat="67.9005773" lon="32.9364276"><time>2022-08-20T14:22:34</time></trkpt><trkpt lat="67.9005948" lon="32.9364970"><time>2022-08-20T14:22:36</time></trkpt><trkpt lat="67.9006960" lon="32.9365983"><time>2022-08-20T14:22:43</time></trkpt><trkpt lat="67.9007732" lon="32.9367117"><time>2022-08-20T14:22:58</time></trkpt><trkpt lat="67.9008890" lon="32.9367441"><time>2022-08-20T14:23:08</time></trkpt><trkpt lat="67.9009654" lon="32.9368489"><time>2022-08-20T14:23:17</time></trkpt><trkpt lat="67.9010788" lon="32.9370785"><time>2022-08-20T14:23:32</time></trkpt><trkpt lat="67.9011272" lon="32.9371675"><time>2022-08-20T14:23:38</time></trkpt><trkpt lat="67.9011565" lon="32.9372165"><time>2022-08-20T14:23:41</time></trkpt><trkpt lat="67.9012327" lon="32.9373200"><time>2022-08-20T14:23:46</time></trkpt><trkpt lat="67.9013912" lon="32.9374949"><time>2022-08-20T14:23:56</time></trkpt><trkpt lat="67.9014871" lon="32.9376026"><time>2022-08-20T14:24:05</time></trkpt><trkpt lat="67.9015369" lon="32.9376553"><time>2022-08-20T14:24:10</time></trkpt><trkpt lat="67.9016407" lon="32.9377684"><time>2022-08-20T14:24:19</time></trkpt><trkpt lat="67.9016504" lon="32.9377887"><time>2022-08-20T14:24:20</time></trkpt><trkpt lat="67.9017396" lon="32.9379553"><time>2022-08-20T14:24:28</time></trkpt><trkpt lat="67.9019144" lon="32.9382240"><time>2022-08-20T14:24:44</time></trkpt><trkpt lat="67.9020257" lon="32.9383594"><time>2022-08-20T14:24:53</time></trkpt><trkpt lat="67.9020996" lon="32.9384234"><time>2022-08-20T14:24:58</time></trkpt><trkpt lat="67.9021161" lon="32.9384327"><time>2022-08-20T14:25:00</time></trkpt><trkpt lat="67.9021230" lon="32.9384444"><time>2022-08-20T14:25:01</time></trkpt><trkpt lat="67.9021495" lon="32.9384955"><time>2022-08-20T14:25:05</time></trkpt><trkpt lat="67.9022101" lon="32.9385935"><time>2022-08-20T14:25:11</time></trkpt><trkpt lat="67.9022939" lon="32.9388438"><time>2022-08-20T14:25:23</time></trkpt><trkpt lat="67.9024323" lon="32.9390851"><time>2022-08-20T14:25:36</time></trkpt><trkpt lat="67.9025833" lon="32.9393956"><time>2022-08-20T14:25:48</time></trkpt><trkpt lat="67.9026701" lon="32.9396691"><time>2022-08-20T14:25:57</time></trkpt><trkpt lat="67.9026751" lon="32.9396898"><time>2022-08-20T14:25:58</time></trkpt><trkpt lat="67.9028296" lon="32.9401559"><time>2022-08-20T14:26:13</time></trkpt><trkpt lat="67.9029611" lon="32.9405033"><time>2022-08-20T14:26:27</time></trkpt><trkpt lat="67.9030146" lon="32.9406619"><time>2022-08-20T14:26:31</time></trkpt><trkpt lat="67.9030596" lon="32.9407850"><time>2022-08-20T14:26:35</time></trkpt><trkpt lat="67.9030744" lon="32.9408138"><time>2022-08-20T14:26:37</time></trkpt><trkpt lat="67.9031846" lon="32.9411062"><time>2022-08-20T14:26:51</time></trkpt><trkpt lat="67.9032386" lon="32.9412331"><time>2022-08-20T14:27:05</time></trkpt><trkpt lat="67.9032299" lon="32.9412525"><time>2022-08-20T14:27:16</time></trkpt><trkpt lat="67.9032604" lon="32.9417736"><time>2022-08-20T14:27:32</time></trkpt><trkpt lat="67.9032591" lon="32.9420749"><time>2022-08-20T14:27:43</time></trkpt><trkpt lat="67.9032606" lon="32.9424859"><time>2022-08-20T14:27:58</time></trkpt><trkpt lat="67.9032745" lon="32.9426161"><time>2022-08-20T14:28:02</time></trkpt><trkpt lat="67.9032735" lon="32.9427086"><time>2022-08-20T14:28:04</time></trkpt><trkpt lat="67.9032703" lon="32.9428073"><time>2022-08-20T14:28:06</time></trkpt><trkpt lat="67.9032871" lon="32.9429237"><time>2022-08-20T14:28:09</time></trkpt><trkpt lat="67.9032886" lon="32.9434115"><time>2022-08-20T14:28:25</time></trkpt><trkpt lat="67.9032799" lon="32.9436523"><time>2022-08-20T14:28:31</time></trkpt><trkpt lat="67.9032565" lon="32.9443651"><time>2022-08-20T14:28:46</time></trkpt><trkpt lat="67.9032366" lon="32.9445470"><time>2022-08-20T14:28:50</time></trkpt><trkpt lat="67.9032141" lon="32.9447291"><time>2022-08-20T14:28:55</time></trkpt><trkpt lat="67.9031162" lon="32.9452077"><time>2022-08-20T14:29:12</time></trkpt><trkpt lat="67.9030469" lon="32.9453773"><time>2022-08-20T14:29:24</time></trkpt><trkpt lat="67.9030493" lon="32.9453673"><time>2022-08-20T14:29:44</time></trkpt><trkpt lat="67.9030494" lon="32.9453680"><time>2022-08-20T14:29:46</time></trkpt><trkpt lat="67.9029821" lon="32.9454550"><time>2022-08-20T14:29:51</time></trkpt><trkpt lat="67.9029471" lon="32.9455080"><time>2022-08-20T14:29:54</time></trkpt><trkpt lat="67.9029175" lon="32.9455399"><time>2022-08-20T14:29:57</time></trkpt><trkpt lat="67.9027801" lon="32.9457418"><time>2022-08-20T14:30:07</time></trkpt><trkpt lat="67.9027485" lon="32.9457921"><time>2022-08-20T14:30:10</time></trkpt><trkpt lat="67.9026282" lon="32.9459985"><time>2022-08-20T14:30:22</time></trkpt><trkpt lat="67.9025958" lon="32.9460470"><time>2022-08-20T14:30:25</time></trkpt><trkpt lat="67.9024864" lon="32.9462646"><time>2022-08-20T14:30:40</time></trkpt><trkpt lat="67.9023122" lon="32.9465966"><time>2022-08-20T14:30:54</time></trkpt><trkpt lat="67.9021585" lon="32.9467281"><time>2022-08-20T14:31:05</time></trkpt><trkpt lat="67.9021342" lon="32.9467628"><time>2022-08-20T14:31:08</time></trkpt><trkpt lat="67.9021148" lon="32.9468029"><time>2022-08-20T14:31:10</time></trkpt><trkpt lat="67.9018676" lon="32.9472165"><time>2022-08-20T14:31:26</time></trkpt><trkpt lat="67.9016910" lon="32.9473826"><time>2022-08-20T14:31:40</time></trkpt><trkpt lat="67.9015119" lon="32.9476561"><time>2022-08-20T14:31:54</time></trkpt><trkpt lat="67.9014812" lon="32.9477431"><time>2022-08-20T14:31:56</time></trkpt><trkpt lat="67.9014018" lon="32.9479712"><time>2022-08-20T14:32:04</time></trkpt><trkpt lat="67.9012775" lon="32.9483156"><time>2022-08-20T14:32:15</time></trkpt><trkpt lat="67.9011462" lon="32.9486732"><time>2022-08-20T14:32:27</time></trkpt><trkpt lat="67.9010990" lon="32.9490854"><time>2022-08-20T14:32:40</time></trkpt><trkpt lat="67.9010886" lon="32.9491715"><time>2022-08-20T14:32:45</time></trkpt><trkpt lat="67.9010729" lon="32.9492611"><time>2022-08-20T14:32:49</time></trkpt><trkpt lat="67.9010353" lon="32.9495225"><time>2022-08-20T14:33:00</time></trkpt><trkpt lat="67.9009889" lon="32.9500722"><time>2022-08-20T14:33:16</time></trkpt><trkpt lat="67.9009833" lon="32.9501318"><time>2022-08-20T14:33:18</time></trkpt><trkpt lat="67.9009371" lon="32.9504539"><time>2022-08-20T14:33:26</time></trkpt><trkpt lat="67.9008770" lon="32.9507687"><time>2022-08-20T14:33:40</time></trkpt><trkpt lat="67.9008134" lon="32.9512131"><time>2022-08-20T14:33:55</time></trkpt><trkpt lat="67.9008069" lon="32.9512388"><time>2022-08-20T14:33:56</time></trkpt><trkpt lat="67.9007600" lon="32.9514065"><time>2022-08-20T14:34:01</time></trkpt><trkpt lat="67.9005620" lon="32.9516502"><time>2022-08-20T14:34:15</time></trkpt><trkpt lat="67.9004243" lon="32.9518175"><time>2022-08-20T14:34:30</time></trkpt><trkpt lat="67.9003575" lon="32.9519608"><time>2022-08-20T14:34:37</time></trkpt><trkpt lat="67.9001540" lon="32.9523750"><time>2022-08-20T14:34:50</time></trkpt><trkpt lat="67.9000356" lon="32.9526897"><time>2022-08-20T14:35:06</time></trkpt><trkpt lat="67.8999747" lon="32.9528106"><time>2022-08-20T14:35:15</time></trkpt><trkpt lat="67.8999379" lon="32.9529139"><time>2022-08-20T14:35:19</time></trkpt><trkpt lat="67.8998695" lon="32.9530087"><time>2022-08-20T14:35:23</time></trkpt><trkpt lat="67.8997491" lon="32.9530844"><time>2022-08-20T14:35:32</time></trkpt><trkpt lat="67.8995914" lon="32.9531689"><time>2022-08-20T14:35:44</time></trkpt><trkpt lat="67.8995787" lon="32.9532260"><time>2022-08-20T14:35:46</time></trkpt><trkpt lat="67.8995316" lon="32.9533044"><time>2022-08-20T14:35:51</time></trkpt><trkpt lat="67.8994802" lon="32.9533748"><time>2022-08-20T14:35:56</time></trkpt><trkpt lat="67.8993837" lon="32.9535496"><time>2022-08-20T14:36:06</time></trkpt><trkpt lat="67.8993171" lon="32.9536314"><time>2022-08-20T14:36:12</time></trkpt><trkpt lat="67.8993008" lon="32.9536489"><time>2022-08-20T14:36:14</time></trkpt><trkpt lat="67.8991087" lon="32.9537607"><time>2022-08-20T14:36:27</time></trkpt><trkpt lat="67.8989115" lon="32.9537972"><time>2022-08-20T14:36:39</time></trkpt><trkpt lat="67.8988844" lon="32.9538165"><time>2022-08-20T14:36:41</time></trkpt><trkpt lat="67.8986690" lon="32.9539143"><time>2022-08-20T14:36:53</time></trkpt><trkpt lat="67.8986297" lon="32.9539246"><time>2022-08-20T14:36:55</time></trkpt><trkpt lat="67.8984205" lon="32.9539623"><time>2022-08-20T14:37:10</time></trkpt><trkpt lat="67.8982665" lon="32.9540701"><time>2022-08-20T14:37:23</time></trkpt><trkpt lat="67.8982059" lon="32.9541477"><time>2022-08-20T14:37:27</time></trkpt><trkpt lat="67.8980388" lon="32.9543222"><time>2022-08-20T14:37:40</time></trkpt><trkpt lat="67.8979953" lon="32.9543570"><time>2022-08-20T14:37:43</time></trkpt><trkpt lat="67.8979667" lon="32.9543720"><time>2022-08-20T14:37:46</time></trkpt><trkpt lat="67.8978794" lon="32.9544198"><time>2022-08-20T14:37:51</time></trkpt><trkpt lat="67.8976658" lon="32.9544948"><time>2022-08-20T14:38:05</time></trkpt><trkpt lat="67.8975688" lon="32.9545582"><time>2022-08-20T14:38:14</time></trkpt><trkpt lat="67.8975491" lon="32.9545925"><time>2022-08-20T14:38:17</time></trkpt><trkpt lat="67.8975143" lon="32.9546977"><time>2022-08-20T14:38:34</time></trkpt><trkpt lat="67.8975291" lon="32.9547546"><time>2022-08-20T14:38:37</time></trkpt><trkpt lat="67.8975560" lon="32.9548843"><time>2022-08-20T14:38:43</time></trkpt><trkpt lat="67.8975864" lon="32.9549480"><time>2022-08-20T14:38:47</time></trkpt><trkpt lat="67.8976080" lon="32.9550841"><time>2022-08-20T14:38:52</time></trkpt><trkpt lat="67.8976696" lon="32.9551766"><time>2022-08-20T14:38:58</time></trkpt><trkpt lat="67.8978001" lon="32.9554686"><time>2022-08-20T14:39:15</time></trkpt><trkpt lat="67.8978934" lon="32.9556755"><time>2022-08-20T14:39:25</time></trkpt><trkpt lat="67.8979883" lon="32.9559324"><time>2022-08-20T14:39:38</time></trkpt><trkpt lat="67.8980586" lon="32.9562394"><time>2022-08-20T14:39:52</time></trkpt><trkpt lat="67.8980639" lon="32.9562454"><time>2022-08-20T14:39:53</time></trkpt><trkpt lat="67.8981205" lon="32.9563763"><time>2022-08-20T14:40:01</time></trkpt><trkpt lat="67.8981391" lon="32.9564882"><time>2022-08-20T14:40:06</time></trkpt><trkpt lat="67.8981481" lon="32.9566027"><time>2022-08-20T14:40:11</time></trkpt><trkpt lat="67.8981661" lon="32.9567363"><time>2022-08-20T14:40:16</time></trkpt><trkpt lat="67.8982157" lon="32.9569085"><time>2022-08-20T14:40:24</time></trkpt><trkpt lat="67.8982699" lon="32.9572421"><time>2022-08-20T14:40:37</time></trkpt><trkpt lat="67.8983696" lon="32.9573300"><time>2022-08-20T14:40:49</time></trkpt><trkpt lat="67.8984097" lon="32.9574012"><time>2022-08-20T14:40:54</time></trkpt><trkpt lat="67.8985113" lon="32.9574455"><time>2022-08-20T14:41:06</time></trkpt><trkpt lat="67.8985511" lon="32.9575125"><time>2022-08-20T14:41:11</time></trkpt><trkpt lat="67.8985668" lon="32.9576589"><time>2022-08-20T14:41:18</time></trkpt><trkpt lat="67.8985469" lon="32.9578556"><time>2022-08-20T14:41:27</time></trkpt><trkpt lat="67.8985162" lon="32.9580442"><time>2022-08-20T14:41:35</time></trkpt><trkpt lat="67.8984829" lon="32.9581547"><time>2022-08-20T14:41:40</time></trkpt><trkpt lat="67.8984297" lon="32.9582278"><time>2022-08-20T14:41:46</time></trkpt><trkpt lat="67.8984114" lon="32.9582552"><time>2022-08-20T14:42:01</time></trkpt><trkpt lat="67.8984184" lon="32.9582842"><time>2022-08-20T14:42:23</time></trkpt><trkpt lat="67.8984154" lon="32.9582712"><time>2022-08-20T14:42:31</time></trkpt><trkpt lat="67.8984080" lon="32.9582672"><time>2022-08-20T14:42:51</time></trkpt><trkpt lat="67.8984303" lon="32.9582304"><time>2022-08-20T14:42:55</time></trkpt><trkpt lat="67.8985020" lon="32.9581690"><time>2022-08-20T14:43:02</time></trkpt><trkpt lat="67.8985549" lon="32.9581111"><time>2022-08-20T14:43:09</time></trkpt><trkpt lat="67.8986066" lon="32.9580946"><time>2022-08-20T14:43:15</time></trkpt><trkpt lat="67.8987139" lon="32.9577401"><time>2022-08-20T14:43:26</time></trkpt><trkpt lat="67.8987806" lon="32.9575333"><time>2022-08-20T14:43:37</time></trkpt><trkpt lat="67.8987843" lon="32.9574629"><time>2022-08-20T14:43:40</time></trkpt><trkpt lat="67.8988062" lon="32.9573896"><time>2022-08-20T14:43:44</time></trkpt><trkpt lat="67.8988959" lon="32.9569395"><time>2022-08-20T14:44:00</time></trkpt><trkpt lat="67.8990023" lon="32.9566359"><time>2022-08-20T14:44:14</time></trkpt><trkpt lat="67.8990533" lon="32.9562838"><time>2022-08-20T14:44:27</time></trkpt><trkpt lat="67.8990970" lon="32.9559273"><time>2022-08-20T14:44:40</time></trkpt><trkpt lat="67.8991257" lon="32.9557635"><time>2022-08-20T14:44:45</time></trkpt><trkpt lat="67.8991564" lon="32.9555479"><time>2022-08-20T14:44:55</time></trkpt><trkpt lat="67.8991725" lon="32.9553942"><time>2022-08-20T14:45:01</time></trkpt><trkpt lat="67.8992154" lon="32.9551054"><time>2022-08-20T14:45:13</time></trkpt><trkpt lat="67.8992419" lon="32.9547384"><time>2022-08-20T14:45:26</time></trkpt><trkpt lat="67.8992506" lon="32.9546151"><time>2022-08-20T14:45:42</time></trkpt><trkpt lat="67.8992652" lon="32.9545115"><time>2022-08-20T14:46:15</time></trkpt><trkpt lat="67.8993279" lon="32.9540903"><time>2022-08-20T14:46:30</time></trkpt><trkpt lat="67.8993239" lon="32.9537601"><time>2022-08-20T14:46:42</time></trkpt><trkpt lat="67.8993261" lon="32.9537340"><time>2022-08-20T14:46:43</time></trkpt><trkpt lat="67.8994365" lon="32.9534246"><time>2022-08-20T14:46:55</time></trkpt><trkpt lat="67.8996295" lon="32.9531808"><time>2022-08-20T14:47:09</time></trkpt><trkpt lat="67.8997401" lon="32.9530433"><time>2022-08-20T14:47:18</time></trkpt><trkpt lat="67.8999529" lon="32.9528944"><time>2022-08-20T14:47:33</time></trkpt><trkpt lat="67.9000335" lon="32.9526403"><time>2022-08-20T14:47:47</time></trkpt><trkpt lat="67.9001676" lon="32.9522824"><time>2022-08-20T14:48:00</time></trkpt><trkpt lat="67.9003158" lon="32.9519425"><time>2022-08-20T14:48:13</time></trkpt><trkpt lat="67.9004934" lon="32.9517096"><time>2022-08-20T14:48:26</time></trkpt><trkpt lat="67.9006797" lon="32.9515556"><time>2022-08-20T14:48:39</time></trkpt><trkpt lat="67.9007444" lon="32.9514501"><time>2022-08-20T14:48:43</time></trkpt><trkpt lat="67.9008175" lon="32.9510568"><time>2022-08-20T14:48:54</time></trkpt><trkpt lat="67.9008703" lon="32.9507999"><time>2022-08-20T14:49:01</time></trkpt><trkpt lat="67.9009724" lon="32.9503529"><time>2022-08-20T14:49:13</time></trkpt><trkpt lat="67.9009870" lon="32.9502777"><time>2022-08-20T14:49:16</time></trkpt><trkpt lat="67.9010078" lon="32.9500333"><time>2022-08-20T14:49:21</time></trkpt><trkpt lat="67.9010502" lon="32.9494671"><time>2022-08-20T14:49:36</time></trkpt><trkpt lat="67.9010930" lon="32.9490949"><time>2022-08-20T14:49:49</time></trkpt><trkpt lat="67.9011114" lon="32.9489786"><time>2022-08-20T14:49:53</time></trkpt><trkpt lat="67.9011178" lon="32.9487584"><time>2022-08-20T14:50:02</time></trkpt><trkpt lat="67.9011396" lon="32.9486156"><time>2022-08-20T14:50:06</time></trkpt><trkpt lat="67.9013083" lon="32.9481761"><time>2022-08-20T14:50:21</time></trkpt><trkpt lat="67.9014609" lon="32.9477774"><time>2022-08-20T14:50:35</time></trkpt><trkpt lat="67.9016178" lon="32.9474465"><time>2022-08-20T14:50:50</time></trkpt><trkpt lat="67.9018198" lon="32.9472597"><time>2022-08-20T14:51:04</time></trkpt><trkpt lat="67.9020107" lon="32.9469835"><time>2022-08-20T14:51:19</time></trkpt><trkpt lat="67.9021943" lon="32.9467896"><time>2022-08-20T14:51:34</time></trkpt><trkpt lat="67.9023532" lon="32.9465431"><time>2022-08-20T14:51:46</time></trkpt><trkpt lat="67.9023714" lon="32.9465062"><time>2022-08-20T14:51:48</time></trkpt><trkpt lat="67.9023975" lon="32.9464192"><time>2022-08-20T14:51:51</time></trkpt><trkpt lat="67.9026087" lon="32.9460921"><time>2022-08-20T14:52:06</time></trkpt><trkpt lat="67.9026439" lon="32.9460393"><time>2022-08-20T14:52:09</time></trkpt><trkpt lat="67.9027931" lon="32.9457596"><time>2022-08-20T14:52:22</time></trkpt><trkpt lat="67.9029558" lon="32.9455391"><time>2022-08-20T14:52:36</time></trkpt><trkpt lat="67.9031176" lon="32.9453076"><time>2022-08-20T14:52:49</time></trkpt><trkpt lat="67.9031234" lon="32.9453046"><time>2022-08-20T14:52:50</time></trkpt><trkpt lat="67.9031416" lon="32.9452900"><time>2022-08-20T14:52:52</time></trkpt><trkpt lat="67.9032602" lon="32.9452541"><time>2022-08-20T14:53:05</time></trkpt><trkpt lat="67.9032870" lon="32.9452540"><time>2022-08-20T14:53:07</time></trkpt><trkpt lat="67.9034720" lon="32.9451187"><time>2022-08-20T14:53:21</time></trkpt><trkpt lat="67.9036112" lon="32.9450273"><time>2022-08-20T14:53:37</time></trkpt><trkpt lat="67.9036314" lon="32.9450012"><time>2022-08-20T14:53:39</time></trkpt><trkpt lat="67.9038334" lon="32.9448246"><time>2022-08-20T14:53:54</time></trkpt><trkpt lat="67.9039819" lon="32.9447526"><time>2022-08-20T14:54:08</time></trkpt><trkpt lat="67.9041126" lon="32.9446447"><time>2022-08-20T14:54:22</time></trkpt><trkpt lat="67.9041557" lon="32.9445807"><time>2022-08-20T14:54:26</time></trkpt><trkpt lat="67.9042295" lon="32.9444501"><time>2022-08-20T14:54:32</time></trkpt><trkpt lat="67.9042609" lon="32.9444196"><time>2022-08-20T14:54:35</time></trkpt><trkpt lat="67.9043051" lon="32.9443362"><time>2022-08-20T14:54:39</time></trkpt><trkpt lat="67.9043877" lon="32.9441958"><time>2022-08-20T14:54:46</time></trkpt><trkpt lat="67.9044756" lon="32.9440714"><time>2022-08-20T14:54:54</time></trkpt><trkpt lat="67.9045992" lon="32.9439385"><time>2022-08-20T14:55:07</time></trkpt><trkpt lat="67.9047152" lon="32.9437842"><time>2022-08-20T14:55:20</time></trkpt><trkpt lat="67.9047578" lon="32.9437501"><time>2022-08-20T14:55:25</time></trkpt><trkpt lat="67.9048248" lon="32.9437548"><time>2022-08-20T14:55:30</time></trkpt><trkpt lat="67.9048681" lon="32.9437158"><time>2022-08-20T14:55:44</time></trkpt><trkpt lat="67.9048503" lon="32.9436681"><time>2022-08-20T14:56:05</time></trkpt><trkpt lat="67.9048798" lon="32.9436545"><time>2022-08-20T14:56:26</time></trkpt><trkpt lat="67.9049572" lon="32.9436219"><time>2022-08-20T14:56:34</time></trkpt><trkpt lat="67.9050664" lon="32.9435891"><time>2022-08-20T14:56:45</time></trkpt><trkpt lat="67.9051592" lon="32.9435749"><time>2022-08-20T14:56:56</time></trkpt><trkpt lat="67.9052394" lon="32.9435116"><time>2022-08-20T14:57:05</time></trkpt><trkpt lat="67.9052712" lon="32.9434996"><time>2022-08-20T14:57:10</time></trkpt><trkpt lat="67.9053190" lon="32.9434631"><time>2022-08-20T14:57:22</time></trkpt><trkpt lat="67.9054047" lon="32.9433825"><time>2022-08-20T14:57:33</time></trkpt><trkpt lat="67.9054181" lon="32.9433521"><time>2022-08-20T14:57:36</time></trkpt><trkpt lat="67.9054657" lon="32.9432686"><time>2022-08-20T14:57:43</time></trkpt><trkpt lat="67.9055894" lon="32.9431412"><time>2022-08-20T14:57:55</time></trkpt><trkpt lat="67.9056545" lon="32.9431499"><time>2022-08-20T14:58:00</time></trkpt><trkpt lat="67.9057234" lon="32.9431659"><time>2022-08-20T14:58:07</time></trkpt><trkpt lat="67.9057305" lon="32.9431543"><time>2022-08-20T14:58:08</time></trkpt><trkpt lat="67.9058203" lon="32.9430351"><time>2022-08-20T14:58:17</time></trkpt><trkpt lat="67.9058706" lon="32.9429758"><time>2022-08-20T14:58:24</time></trkpt><trkpt lat="67.9059127" lon="32.9429134"><time>2022-08-20T14:58:42</time></trkpt><trkpt lat="67.9059338" lon="32.9427489"><time>2022-08-20T14:58:50</time></trkpt><trkpt lat="67.9059367" lon="32.9426889"><time>2022-08-20T14:58:52</time></trkpt><trkpt lat="67.9059465" lon="32.9426334"><time>2022-08-20T14:58:54</time></trkpt><trkpt lat="67.9060134" lon="32.9425384"><time>2022-08-20T14:59:10</time></trkpt><trkpt lat="67.9061009" lon="32.9426260"><time>2022-08-20T14:59:20</time></trkpt><trkpt lat="67.9061339" lon="32.9427233"><time>2022-08-20T14:59:28</time></trkpt><trkpt lat="67.9061606" lon="32.9428341"><time>2022-08-20T14:59:32</time></trkpt><trkpt lat="67.9062998" lon="32.9431637"><time>2022-08-20T14:59:50</time></trkpt><trkpt lat="67.9063775" lon="32.9432797"><time>2022-08-20T15:00:05</time></trkpt><trkpt lat="67.9065210" lon="32.9432431"><time>2022-08-20T15:00:21</time></trkpt><trkpt lat="67.9065290" lon="32.9432307"><time>2022-08-20T15:00:22</time></trkpt><trkpt lat="67.9065375" lon="32.9432239"><time>2022-08-20T15:00:23</time></trkpt><trkpt lat="67.9066360" lon="32.9432056"><time>2022-08-20T15:00:36</time></trkpt><trkpt lat="67.9066954" lon="32.9432152"><time>2022-08-20T15:00:46</time></trkpt><trkpt lat="67.9067687" lon="32.9431841"><time>2022-08-20T15:00:56</time></trkpt><trkpt lat="67.9068913" lon="32.9430865"><time>2022-08-20T15:01:08</time></trkpt><trkpt lat="67.9069089" lon="32.9430648"><time>2022-08-20T15:01:10</time></trkpt><trkpt lat="67.9069422" lon="32.9430149"><time>2022-08-20T15:01:13</time></trkpt><trkpt lat="67.9069542" lon="32.9429996"><time>2022-08-20T15:01:14</time></trkpt><trkpt lat="67.9070753" lon="32.9429236"><time>2022-08-20T15:01:26</time></trkpt><trkpt lat="67.9070880" lon="32.9429276"><time>2022-08-20T15:01:28</time></trkpt><trkpt lat="67.9071148" lon="32.9429319"><time>2022-08-20T15:01:31</time></trkpt><trkpt lat="67.9071430" lon="32.9429169"><time>2022-08-20T15:01:47</time></trkpt><trkpt lat="67.9071442" lon="32.9429112"><time>2022-08-20T15:01:52</time></trkpt><trkpt lat="67.9071649" lon="32.9429038"><time>2022-08-20T15:02:10</time></trkpt><trkpt lat="67.9071813" lon="32.9429053"><time>2022-08-20T15:02:20</time></trkpt><trkpt lat="67.9072572" lon="32.9429195"><time>2022-08-20T15:02:28</time></trkpt><trkpt lat="67.9073390" lon="32.9430370"><time>2022-08-20T15:02:39</time></trkpt><trkpt lat="67.9074477" lon="32.9431779"><time>2022-08-20T15:02:53</time></trkpt><trkpt lat="67.9074757" lon="32.9431965"><time>2022-08-20T15:02:56</time></trkpt><trkpt lat="67.9075250" lon="32.9432011"><time>2022-08-20T15:03:02</time></trkpt><trkpt lat="67.9076024" lon="32.9431779"><time>2022-08-20T15:03:18</time></trkpt><trkpt lat="67.9076302" lon="32.9431558"><time>2022-08-20T15:03:21</time></trkpt><trkpt lat="67.9077567" lon="32.9430939"><time>2022-08-20T15:03:33</time></trkpt><trkpt lat="67.9078370" lon="32.9430758"><time>2022-08-20T15:03:44</time></trkpt><trkpt lat="67.9079230" lon="32.9430885"><time>2022-08-20T15:04:00</time></trkpt><trkpt lat="67.9079647" lon="32.9430878"><time>2022-08-20T15:04:05</time></trkpt><trkpt lat="67.9080654" lon="32.9431032"><time>2022-08-20T15:04:20</time></trkpt><trkpt lat="67.9081096" lon="32.9431170"><time>2022-08-20T15:04:27</time></trkpt><trkpt lat="67.9082035" lon="32.9430932"><time>2022-08-20T15:04:36</time></trkpt><trkpt lat="67.9083088" lon="32.9430575"><time>2022-08-20T15:04:51</time></trkpt><trkpt lat="67.9083864" lon="32.9430180"><time>2022-08-20T15:05:04</time></trkpt><trkpt lat="67.9084005" lon="32.9430094"><time>2022-08-20T15:05:06</time></trkpt><trkpt lat="67.9084682" lon="32.9430227"><time>2022-08-20T15:05:15</time></trkpt><trkpt lat="67.9085614" lon="32.9430479"><time>2022-08-20T15:05:27</time></trkpt><trkpt lat="67.9086694" lon="32.9430925"><time>2022-08-20T15:05:40</time></trkpt><trkpt lat="67.9087024" lon="32.9431407"><time>2022-08-20T15:05:44</time></trkpt><trkpt lat="67.9087855" lon="32.9431975"><time>2022-08-20T15:05:56</time></trkpt><trkpt lat="67.9088672" lon="32.9431341"><time>2022-08-20T15:06:11</time></trkpt><trkpt lat="67.9089276" lon="32.9432229"><time>2022-08-20T15:06:25</time></trkpt><trkpt lat="67.9090261" lon="32.9432334"><time>2022-08-20T15:06:38</time></trkpt><trkpt lat="67.9091070" lon="32.9432559"><time>2022-08-20T15:06:49</time></trkpt><trkpt lat="67.9091748" lon="32.9433831"><time>2022-08-20T15:07:01</time></trkpt><trkpt lat="67.9092799" lon="32.9434904"><time>2022-08-20T15:07:16</time></trkpt><trkpt lat="67.9093725" lon="32.9434490"><time>2022-08-20T15:07:30</time></trkpt><trkpt lat="67.9094254" lon="32.9435158"><time>2022-08-20T15:07:42</time></trkpt><trkpt lat="67.9095079" lon="32.9435327"><time>2022-08-20T15:07:55</time></trkpt><trkpt lat="67.9095668" lon="32.9435884"><time>2022-08-20T15:08:03</time></trkpt><trkpt lat="67.9096752" lon="32.9437055"><time>2022-08-20T15:08:18</time></trkpt><trkpt lat="67.9097617" lon="32.9438532"><time>2022-08-20T15:08:32</time></trkpt><trkpt lat="67.9098151" lon="32.9439650"><time>2022-08-20T15:08:45</time></trkpt><trkpt lat="67.9098451" lon="32.9441716"><time>2022-08-20T15:08:59</time></trkpt><trkpt lat="67.9098807" lon="32.9444792"><time>2022-08-20T15:09:15</time></trkpt><trkpt lat="67.9099209" lon="32.9447265"><time>2022-08-20T15:09:25</time></trkpt><trkpt lat="67.9100136" lon="32.9450750"><time>2022-08-20T15:09:39</time></trkpt><trkpt lat="67.9100961" lon="32.9451205"><time>2022-08-20T15:09:46</time></trkpt><trkpt lat="67.9101469" lon="32.9450935"><time>2022-08-20T15:09:52</time></trkpt><trkpt lat="67.9102870" lon="32.9450769"><time>2022-08-20T15:10:05</time></trkpt><trkpt lat="67.9102976" lon="32.9450743"><time>2022-08-20T15:10:06</time></trkpt><trkpt lat="67.9103100" lon="32.9450728"><time>2022-08-20T15:10:07</time></trkpt><trkpt lat="67.9105285" lon="32.9450532"><time>2022-08-20T15:10:21</time></trkpt><trkpt lat="67.9106081" lon="32.9450625"><time>2022-08-20T15:10:27</time></trkpt><trkpt lat="67.9107827" lon="32.9450825"><time>2022-08-20T15:10:38</time></trkpt><trkpt lat="67.9108688" lon="32.9450502"><time>2022-08-20T15:10:44</time></trkpt><trkpt lat="67.9108912" lon="32.9450556"><time>2022-08-20T15:10:46</time></trkpt><trkpt lat="67.9109453" lon="32.9450286"><time>2022-08-20T15:10:49</time></trkpt><trkpt lat="67.9110011" lon="32.9450449"><time>2022-08-20T15:10:54</time></trkpt><trkpt lat="67.9110490" lon="32.9449980"><time>2022-08-20T15:10:57</time></trkpt><trkpt lat="67.9112133" lon="32.9450051"><time>2022-08-20T15:11:08</time></trkpt><trkpt lat="67.9113956" lon="32.9449715"><time>2022-08-20T15:11:19</time></trkpt><trkpt lat="67.9115736" lon="32.9449646"><time>2022-08-20T15:11:29</time></trkpt><trkpt lat="67.9117441" lon="32.9449413"><time>2022-08-20T15:11:40</time></trkpt><trkpt lat="67.9119355" lon="32.9449375"><time>2022-08-20T15:11:51</time></trkpt><trkpt lat="67.9120369" lon="32.9449004"><time>2022-08-20T15:11:57</time></trkpt><trkpt lat="67.9122380" lon="32.9449073"><time>2022-08-20T15:12:10</time></trkpt><trkpt lat="67.9123960" lon="32.9449278"><time>2022-08-20T15:12:20</time></trkpt><trkpt lat="67.9124183" lon="32.9449258"><time>2022-08-20T15:12:22</time></trkpt><trkpt lat="67.9124290" lon="32.9449171"><time>2022-08-20T15:12:23</time></trkpt><trkpt lat="67.9125626" lon="32.9448178"><time>2022-08-20T15:12:32</time></trkpt><trkpt lat="67.9127435" lon="32.9448111"><time>2022-08-20T15:12:44</time></trkpt><trkpt lat="67.9128637" lon="32.9448205"><time>2022-08-20T15:12:54</time></trkpt><trkpt lat="67.9128648" lon="32.9449200"><time>2022-08-20T15:12:57</time></trkpt><trkpt lat="67.9128646" lon="32.9449922"><time>2022-08-20T15:13:05</time></trkpt><trkpt lat="67.9128760" lon="32.9451097"><time>2022-08-20T15:13:10</time></trkpt><trkpt lat="67.9128737" lon="32.9451988"><time>2022-08-20T15:13:14</time></trkpt><trkpt lat="67.9128837" lon="32.9452317"><time>2022-08-20T15:13:16</time></trkpt><trkpt lat="67.9128776" lon="32.9452041"><time>2022-08-20T15:13:26</time></trkpt><trkpt lat="67.9128792" lon="32.9452067"><time>2022-08-20T15:13:27</time></trkpt><trkpt lat="67.9128917" lon="32.9452232"><time>2022-08-20T15:13:51</time></trkpt><trkpt lat="67.9129059" lon="32.9452515"><time>2022-08-20T15:14:17</time></trkpt><trkpt lat="67.9128193" lon="32.9452032"><time>2022-08-20T15:14:34</time></trkpt><trkpt lat="67.9128063" lon="32.9452148"><time>2022-08-20T15:14:36</time></trkpt><trkpt lat="67.9127855" lon="32.9452076"><time>2022-08-20T15:14:38</time></trkpt><trkpt lat="67.9127329" lon="32.9452541"><time>2022-08-20T15:14:53</time></trkpt><trkpt lat="67.9127238" lon="32.9452871"><time>2022-08-20T15:15:13</time></trkpt><trkpt lat="67.9126465" lon="32.9453251"><time>2022-08-20T15:15:26</time></trkpt><trkpt lat="67.9126066" lon="32.9453251"><time>2022-08-20T15:15:45</time></trkpt><trkpt lat="67.9126022" lon="32.9453574"><time>2022-08-20T15:15:58</time></trkpt><trkpt lat="67.9126809" lon="32.9453683"><time>2022-08-20T15:16:10</time></trkpt><trkpt lat="67.9127284" lon="32.9454142"><time>2022-08-20T15:16:27</time></trkpt><trkpt lat="67.9127172" lon="32.9454422"><time>2022-08-20T15:16:50</time></trkpt><trkpt lat="67.9127320" lon="32.9454974"><time>2022-08-20T15:17:04</time></trkpt><trkpt lat="67.9128078" lon="32.9454750"><time>2022-08-20T15:17:23</time></trkpt><trkpt lat="67.9127920" lon="32.9453116"><time>2022-08-20T15:17:38</time></trkpt><trkpt lat="67.9127589" lon="32.9451531"><time>2022-08-20T15:17:49</time></trkpt><trkpt lat="67.9127450" lon="32.9451507"><time>2022-08-20T15:18:09</time></trkpt><trkpt lat="67.9126977" lon="32.9450042"><time>2022-08-20T15:18:38</time></trkpt><trkpt lat="67.9126976" lon="32.9449607"><time>2022-08-20T15:18:39</time></trkpt><trkpt lat="67.9126833" lon="32.9448693"><time>2022-08-20T15:18:41</time></trkpt><trkpt lat="67.9128146" lon="32.9447963"><time>2022-08-20T15:18:53</time></trkpt><trkpt lat="67.9129951" lon="32.9447874"><time>2022-08-20T15:19:05</time></trkpt><trkpt lat="67.9132156" lon="32.9447321"><time>2022-08-20T15:19:21</time></trkpt><trkpt lat="67.9134000" lon="32.9447071"><time>2022-08-20T15:19:35</time></trkpt><trkpt lat="67.9135535" lon="32.9446888"><time>2022-08-20T15:19:47</time></trkpt><trkpt lat="67.9137269" lon="32.9446689"><time>2022-08-20T15:20:00</time></trkpt><trkpt lat="67.9139126" lon="32.9446576"><time>2022-08-20T15:20:15</time></trkpt><trkpt lat="67.9139633" lon="32.9446434"><time>2022-08-20T15:20:18</time></trkpt><trkpt lat="67.9140311" lon="32.9446542"><time>2022-08-20T15:20:23</time></trkpt><trkpt lat="67.9142398" lon="32.9446081"><time>2022-08-20T15:20:37</time></trkpt><trkpt lat="67.9142655" lon="32.9446091"><time>2022-08-20T15:20:51</time></trkpt><trkpt lat="67.9143411" lon="32.9446127"><time>2022-08-20T15:21:00</time></trkpt><trkpt lat="67.9145258" lon="32.9445757"><time>2022-08-20T15:21:13</time></trkpt><trkpt lat="67.9145382" lon="32.9445757"><time>2022-08-20T15:21:14</time></trkpt><trkpt lat="67.9145626" lon="32.9445032"><time>2022-08-20T15:21:17</time></trkpt><trkpt lat="67.9145678" lon="32.9443833"><time>2022-08-20T15:21:23</time></trkpt><trkpt lat="67.9145615" lon="32.9441480"><time>2022-08-20T15:21:35</time></trkpt><trkpt lat="67.9145513" lon="32.9438211"><time>2022-08-20T15:21:47</time></trkpt><trkpt lat="67.9145327" lon="32.9434152"><time>2022-08-20T15:22:04</time></trkpt><trkpt lat="67.9145205" lon="32.9434280"><time>2022-08-20T15:22:07</time></trkpt><trkpt lat="67.9145374" lon="32.9438887"><time>2022-08-20T15:22:17</time></trkpt><trkpt lat="67.9145212" lon="32.9442797"><time>2022-08-20T15:22:30</time></trkpt><trkpt lat="67.9146336" lon="32.9443173"><time>2022-08-20T15:22:44</time></trkpt><trkpt lat="67.9146740" lon="32.9442647"><time>2022-08-20T15:22:47</time></trkpt><trkpt lat="67.9147695" lon="32.9440846"><time>2022-08-20T15:22:53</time></trkpt><trkpt lat="67.9148423" lon="32.9440425"><time>2022-08-20T15:22:57</time></trkpt><trkpt lat="67.9149113" lon="32.9438545"><time>2022-08-20T15:23:04</time></trkpt><trkpt lat="67.9149259" lon="32.9437343"><time>2022-08-20T15:23:08</time></trkpt><trkpt lat="67.9150302" lon="32.9434790"><time>2022-08-20T15:23:25</time></trkpt><trkpt lat="67.9150492" lon="32.9433908"><time>2022-08-20T15:23:30</time></trkpt><trkpt lat="67.9151041" lon="32.9432391"><time>2022-08-20T15:23:39</time></trkpt><trkpt lat="67.9151386" lon="32.9429926"><time>2022-08-20T15:23:47</time></trkpt><trkpt lat="67.9151903" lon="32.9429607"><time>2022-08-20T15:23:52</time></trkpt><trkpt lat="67.9153898" lon="32.9428483"><time>2022-08-20T15:24:03</time></trkpt><trkpt lat="67.9154716" lon="32.9428658"><time>2022-08-20T15:24:08</time></trkpt><trkpt lat="67.9156543" lon="32.9428919"><time>2022-08-20T15:24:18</time></trkpt><trkpt lat="67.9158416" lon="32.9428801"><time>2022-08-20T15:24:29</time></trkpt><trkpt lat="67.9159925" lon="32.9429199"><time>2022-08-20T15:24:38</time></trkpt><trkpt lat="67.9161626" lon="32.9429234"><time>2022-08-20T15:24:48</time></trkpt><trkpt lat="67.9162804" lon="32.9428998"><time>2022-08-20T15:24:56</time></trkpt><trkpt lat="67.9164158" lon="32.9429239"><time>2022-08-20T15:25:05</time></trkpt><trkpt lat="67.9165474" lon="32.9429407"><time>2022-08-20T15:25:13</time></trkpt><trkpt lat="67.9166548" lon="32.9429179"><time>2022-08-20T15:25:19</time></trkpt><trkpt lat="67.9168369" lon="32.9428925"><time>2022-08-20T15:25:30</time></trkpt><trkpt lat="67.9169925" lon="32.9428925"><time>2022-08-20T15:25:41</time></trkpt><trkpt lat="67.9171035" lon="32.9429048"><time>2022-08-20T15:25:48</time></trkpt><trkpt lat="67.9172381" lon="32.9429980"><time>2022-08-20T15:25:57</time></trkpt><trkpt lat="67.9173008" lon="32.9430348"><time>2022-08-20T15:26:00</time></trkpt><trkpt lat="67.9173914" lon="32.9434175"><time>2022-08-20T15:26:11</time></trkpt><trkpt lat="67.9173920" lon="32.9434494"><time>2022-08-20T15:26:12</time></trkpt><trkpt lat="67.9174889" lon="32.9439741"><time>2022-08-20T15:26:24</time></trkpt><trkpt lat="67.9174987" lon="32.9440426"><time>2022-08-20T15:26:26</time></trkpt><trkpt lat="67.9175311" lon="32.9444310"><time>2022-08-20T15:26:36</time></trkpt><trkpt lat="67.9175820" lon="32.9449848"><time>2022-08-20T15:26:49</time></trkpt><trkpt lat="67.9176145" lon="32.9455647"><time>2022-08-20T15:27:01</time></trkpt><trkpt lat="67.9176531" lon="32.9461933"><time>2022-08-20T15:27:15</time></trkpt><trkpt lat="67.9176646" lon="32.9468942"><time>2022-08-20T15:27:30</time></trkpt><trkpt lat="67.9176654" lon="32.9473385"><time>2022-08-20T15:27:40</time></trkpt><trkpt lat="67.9176597" lon="32.9478567"><time>2022-08-20T15:27:52</time></trkpt><trkpt lat="67.9176387" lon="32.9483980"><time>2022-08-20T15:28:05</time></trkpt><trkpt lat="67.9176289" lon="32.9485548"><time>2022-08-20T15:28:09</time></trkpt><trkpt lat="67.9175733" lon="32.9492867"><time>2022-08-20T15:28:25</time></trkpt><trkpt lat="67.9175158" lon="32.9499936"><time>2022-08-20T15:28:40</time></trkpt><trkpt lat="67.9174723" lon="32.9504678"><time>2022-08-20T15:28:51</time></trkpt><trkpt lat="67.9174580" lon="32.9505644"><time>2022-08-20T15:28:54</time></trkpt><trkpt lat="67.9174464" lon="32.9507324"><time>2022-08-20T15:28:57</time></trkpt><trkpt lat="67.9174225" lon="32.9511588"><time>2022-08-20T15:29:08</time></trkpt><trkpt lat="67.9174415" lon="32.9514030"><time>2022-08-20T15:29:13</time></trkpt><trkpt lat="67.9174177" lon="32.9515262"><time>2022-08-20T15:29:17</time></trkpt><trkpt lat="67.9173320" lon="32.9519846"><time>2022-08-20T15:29:28</time></trkpt><trkpt lat="67.9172425" lon="32.9524236"><time>2022-08-20T15:29:40</time></trkpt><trkpt lat="67.9171366" lon="32.9529357"><time>2022-08-20T15:29:53</time></trkpt><trkpt lat="67.9171143" lon="32.9530405"><time>2022-08-20T15:29:57</time></trkpt><trkpt lat="67.9170336" lon="32.9534753"><time>2022-08-20T15:30:08</time></trkpt><trkpt lat="67.9170229" lon="32.9535278"><time>2022-08-20T15:30:10</time></trkpt><trkpt lat="67.9169457" lon="32.9539577"><time>2022-08-20T15:30:20</time></trkpt><trkpt lat="67.9168609" lon="32.9543373"><time>2022-08-20T15:30:31</time></trkpt><trkpt lat="67.9167844" lon="32.9547268"><time>2022-08-20T15:30:42</time></trkpt><trkpt lat="67.9167061" lon="32.9551419"><time>2022-08-20T15:30:53</time></trkpt><trkpt lat="67.9166103" lon="32.9556949"><time>2022-08-20T15:31:06</time></trkpt><trkpt lat="67.9165364" lon="32.9561235"><time>2022-08-20T15:31:18</time></trkpt><trkpt lat="67.9164612" lon="32.9565113"><time>2022-08-20T15:31:29</time></trkpt><trkpt lat="67.9163586" lon="32.9569553"><time>2022-08-20T15:31:42</time></trkpt><trkpt lat="67.9162860" lon="32.9573854"><time>2022-08-20T15:31:53</time></trkpt><trkpt lat="67.9161799" lon="32.9579623"><time>2022-08-20T15:32:09</time></trkpt><trkpt lat="67.9160665" lon="32.9585120"><time>2022-08-20T15:32:24</time></trkpt><trkpt lat="67.9159775" lon="32.9589715"><time>2022-08-20T15:32:37</time></trkpt><trkpt lat="67.9158868" lon="32.9594569"><time>2022-08-20T15:32:51</time></trkpt><trkpt lat="67.9158086" lon="32.9598078"><time>2022-08-20T15:33:01</time></trkpt><trkpt lat="67.9157660" lon="32.9600633"><time>2022-08-20T15:33:08</time></trkpt><trkpt lat="67.9156884" lon="32.9605738"><time>2022-08-20T15:33:22</time></trkpt><trkpt lat="67.9156064" lon="32.9609361"><time>2022-08-20T15:33:33</time></trkpt><trkpt lat="67.9154926" lon="32.9615225"><time>2022-08-20T15:33:49</time></trkpt><trkpt lat="67.9153962" lon="32.9620709"><time>2022-08-20T15:34:07</time></trkpt><trkpt lat="67.9152842" lon="32.9626787"><time>2022-08-20T15:34:23</time></trkpt><trkpt lat="67.9152332" lon="32.9629549"><time>2022-08-20T15:34:34</time></trkpt><trkpt lat="67.9150730" lon="32.9635072"><time>2022-08-20T15:34:51</time></trkpt><trkpt lat="67.9150923" lon="32.9635986"><time>2022-08-20T15:35:02</time></trkpt><trkpt lat="67.9150528" lon="32.9637455"><time>2022-08-20T15:35:13</time></trkpt><trkpt lat="67.9151465" lon="32.9641879"><time>2022-08-20T15:35:28</time></trkpt><trkpt lat="67.9151962" lon="32.9644992"><time>2022-08-20T15:35:39</time></trkpt><trkpt lat="67.9151941" lon="32.9648827"><time>2022-08-20T15:35:54</time></trkpt><trkpt lat="67.9152096" lon="32.9652169"><time>2022-08-20T15:36:06</time></trkpt><trkpt lat="67.9152479" lon="32.9653663"><time>2022-08-20T15:36:13</time></trkpt><trkpt lat="67.9152491" lon="32.9655346"><time>2022-08-20T15:36:19</time></trkpt><trkpt lat="67.9152872" lon="32.9656772"><time>2022-08-20T15:36:31</time></trkpt><trkpt lat="67.9152985" lon="32.9660046"><time>2022-08-20T15:36:43</time></trkpt><trkpt lat="67.9153056" lon="32.9660877"><time>2022-08-20T15:36:47</time></trkpt><trkpt lat="67.9153246" lon="32.9663192"><time>2022-08-20T15:36:58</time></trkpt><trkpt lat="67.9153492" lon="32.9665721"><time>2022-08-20T15:37:10</time></trkpt><trkpt lat="67.9153828" lon="32.9665847"><time>2022-08-20T15:37:28</time></trkpt><trkpt lat="67.9153961" lon="32.9665692"><time>2022-08-20T15:37:53</time></trkpt><trkpt lat="67.9153870" lon="32.9666038"><time>2022-08-20T15:38:21</time></trkpt><trkpt lat="67.9153769" lon="32.9666579"><time>2022-08-20T15:38:41</time></trkpt><trkpt lat="67.9153661" lon="32.9666570"><time>2022-08-20T15:39:06</time></trkpt><trkpt lat="67.9153743" lon="32.9666714"><time>2022-08-20T15:39:32</time></trkpt><trkpt lat="67.9154121" lon="32.9668894"><time>2022-08-20T15:39:41</time></trkpt><trkpt lat="67.9154350" lon="32.9671651"><time>2022-08-20T15:39:55</time></trkpt><trkpt lat="67.9154426" lon="32.9673759"><time>2022-08-20T15:40:06</time></trkpt><trkpt lat="67.9154635" lon="32.9675115"><time>2022-08-20T15:40:16</time></trkpt><trkpt lat="67.9154719" lon="32.9675162"><time>2022-08-20T15:40:21</time></trkpt><trkpt lat="67.9154787" lon="32.9676457"><time>2022-08-20T15:40:27</time></trkpt><trkpt lat="67.9154815" lon="32.9678725"><time>2022-08-20T15:40:38</time></trkpt><trkpt lat="67.9155111" lon="32.9681155"><time>2022-08-20T15:40:49</time></trkpt><trkpt lat="67.9155205" lon="32.9681979"><time>2022-08-20T15:40:53</time></trkpt><trkpt lat="67.9155236" lon="32.9682900"><time>2022-08-20T15:40:57</time></trkpt><trkpt lat="67.9155361" lon="32.9684118"><time>2022-08-20T15:41:03</time></trkpt><trkpt lat="67.9155374" lon="32.9684219"><time>2022-08-20T15:41:04</time></trkpt><trkpt lat="67.9155484" lon="32.9684699"><time>2022-08-20T15:41:07</time></trkpt><trkpt lat="67.9155765" lon="32.9686785"><time>2022-08-20T15:41:18</time></trkpt><trkpt lat="67.9155757" lon="32.9687220"><time>2022-08-20T15:41:21</time></trkpt><trkpt lat="67.9155594" lon="32.9687785"><time>2022-08-20T15:41:26</time></trkpt><trkpt lat="67.9155718" lon="32.9688781"><time>2022-08-20T15:41:30</time></trkpt><trkpt lat="67.9155809" lon="32.9690898"><time>2022-08-20T15:41:42</time></trkpt><trkpt lat="67.9156099" lon="32.9692490"><time>2022-08-20T15:41:53</time></trkpt><trkpt lat="67.9156196" lon="32.9693136"><time>2022-08-20T15:41:57</time></trkpt><trkpt lat="67.9156369" lon="32.9693546"><time>2022-08-20T15:42:00</time></trkpt><trkpt lat="67.9156691" lon="32.9694332"><time>2022-08-20T15:42:07</time></trkpt><trkpt lat="67.9156845" lon="32.9695942"><time>2022-08-20T15:42:17</time></trkpt><trkpt lat="67.9156969" lon="32.9697180"><time>2022-08-20T15:42:29</time></trkpt><trkpt lat="67.9156944" lon="32.9698415"><time>2022-08-20T15:42:40</time></trkpt><trkpt lat="67.9156961" lon="32.9699049"><time>2022-08-20T15:42:43</time></trkpt><trkpt lat="67.9156919" lon="32.9699995"><time>2022-08-20T15:42:48</time></trkpt><trkpt lat="67.9157119" lon="32.9701083"><time>2022-08-20T15:42:56</time></trkpt><trkpt lat="67.9157169" lon="32.9702556"><time>2022-08-20T15:43:04</time></trkpt><trkpt lat="67.9157396" lon="32.9702682"><time>2022-08-20T15:43:16</time></trkpt><trkpt lat="67.9157361" lon="32.9703849"><time>2022-08-20T15:43:30</time></trkpt><trkpt lat="67.9157340" lon="32.9704564"><time>2022-08-20T15:43:35</time></trkpt><trkpt lat="67.9157386" lon="32.9706123"><time>2022-08-20T15:43:47</time></trkpt><trkpt lat="67.9157552" lon="32.9707504"><time>2022-08-20T15:43:57</time></trkpt><trkpt lat="67.9157566" lon="32.9709298"><time>2022-08-20T15:44:11</time></trkpt><trkpt lat="67.9157770" lon="32.9710482"><time>2022-08-20T15:44:21</time></trkpt><trkpt lat="67.9157981" lon="32.9711705"><time>2022-08-20T15:44:33</time></trkpt><trkpt lat="67.9158203" lon="32.9712896"><time>2022-08-20T15:44:44</time></trkpt><trkpt lat="67.9157971" lon="32.9713933"><time>2022-08-20T15:44:52</time></trkpt><trkpt lat="67.9157844" lon="32.9715405"><time>2022-08-20T15:44:58</time></trkpt><trkpt lat="67.9157722" lon="32.9716158"><time>2022-08-20T15:45:01</time></trkpt><trkpt lat="67.9157888" lon="32.9717105"><time>2022-08-20T15:45:08</time></trkpt><trkpt lat="67.9157862" lon="32.9717380"><time>2022-08-20T15:45:10</time></trkpt><trkpt lat="67.9157843" lon="32.9717506"><time>2022-08-20T15:45:11</time></trkpt><trkpt lat="67.9157894" lon="32.9718073"><time>2022-08-20T15:45:14</time></trkpt><trkpt lat="67.9158002" lon="32.9718607"><time>2022-08-20T15:45:17</time></trkpt><trkpt lat="67.9158337" lon="32.9720884"><time>2022-08-20T15:45:30</time></trkpt><trkpt lat="67.9158357" lon="32.9721026"><time>2022-08-20T15:45:31</time></trkpt><trkpt lat="67.9158506" lon="32.9721782"><time>2022-08-20T15:45:35</time></trkpt><trkpt lat="67.9158831" lon="32.9723607"><time>2022-08-20T15:45:49</time></trkpt><trkpt lat="67.9158937" lon="32.9724955"><time>2022-08-20T15:45:58</time></trkpt><trkpt lat="67.9159218" lon="32.9725559"><time>2022-08-20T15:46:10</time></trkpt><trkpt lat="67.9159416" lon="32.9726772"><time>2022-08-20T15:46:22</time></trkpt><trkpt lat="67.9159414" lon="32.9727562"><time>2022-08-20T15:46:28</time></trkpt><trkpt lat="67.9159405" lon="32.9727637"><time>2022-08-20T15:46:29</time></trkpt><trkpt lat="67.9159535" lon="32.9729217"><time>2022-08-20T15:46:41</time></trkpt><trkpt lat="67.9159655" lon="32.9730217"><time>2022-08-20T15:46:48</time></trkpt><trkpt lat="67.9159841" lon="32.9730579"><time>2022-08-20T15:46:51</time></trkpt><trkpt lat="67.9160092" lon="32.9731097"><time>2022-08-20T15:47:00</time></trkpt><trkpt lat="67.9160658" lon="32.9732567"><time>2022-08-20T15:47:12</time></trkpt><trkpt lat="67.9160615" lon="32.9732769"><time>2022-08-20T15:47:14</time></trkpt><trkpt lat="67.9160446" lon="32.9733531"><time>2022-08-20T15:47:19</time></trkpt><trkpt lat="67.9160203" lon="32.9734291"><time>2022-08-20T15:47:25</time></trkpt><trkpt lat="67.9160182" lon="32.9734680"><time>2022-08-20T15:47:27</time></trkpt><trkpt lat="67.9160167" lon="32.9734741"><time>2022-08-20T15:47:29</time></trkpt><trkpt lat="67.9159913" lon="32.9735388"><time>2022-08-20T15:47:33</time></trkpt><trkpt lat="67.9159860" lon="32.9735613"><time>2022-08-20T15:47:34</time></trkpt><trkpt lat="67.9159794" lon="32.9735967"><time>2022-08-20T15:47:36</time></trkpt><trkpt lat="67.9159680" lon="32.9736859"><time>2022-08-20T15:47:40</time></trkpt><trkpt lat="67.9159593" lon="32.9738425"><time>2022-08-20T15:47:49</time></trkpt><trkpt lat="67.9159870" lon="32.9739787"><time>2022-08-20T15:47:56</time></trkpt><trkpt lat="67.9160407" lon="32.9741397"><time>2022-08-20T15:48:07</time></trkpt><trkpt lat="67.9160449" lon="32.9741611"><time>2022-08-20T15:48:08</time></trkpt><trkpt lat="67.9160603" lon="32.9741943"><time>2022-08-20T15:48:10</time></trkpt><trkpt lat="67.9160667" lon="32.9741974"><time>2022-08-20T15:48:11</time></trkpt><trkpt lat="67.9161348" lon="32.9743047"><time>2022-08-20T15:48:22</time></trkpt><trkpt lat="67.9161403" lon="32.9743238"><time>2022-08-20T15:48:23</time></trkpt><trkpt lat="67.9161448" lon="32.9744036"><time>2022-08-20T15:48:34</time></trkpt><trkpt lat="67.9161391" lon="32.9744541"><time>2022-08-20T15:48:36</time></trkpt><trkpt lat="67.9161368" lon="32.9745320"><time>2022-08-20T15:48:42</time></trkpt><trkpt lat="67.9161275" lon="32.9746876"><time>2022-08-20T15:48:53</time></trkpt><trkpt lat="67.9161271" lon="32.9746877"><time>2022-08-20T15:48:56</time></trkpt><trkpt lat="67.9161203" lon="32.9747962"><time>2022-08-20T15:49:06</time></trkpt><trkpt lat="67.9160850" lon="32.9749214"><time>2022-08-20T15:49:16</time></trkpt><trkpt lat="67.9160842" lon="32.9749257"><time>2022-08-20T15:49:17</time></trkpt><trkpt lat="67.9160493" lon="32.9750360"><time>2022-08-20T15:49:26</time></trkpt><trkpt lat="67.9160565" lon="32.9751331"><time>2022-08-20T15:49:35</time></trkpt><trkpt lat="67.9160702" lon="32.9752609"><time>2022-08-20T15:49:46</time></trkpt><trkpt lat="67.9161045" lon="32.9754012"><time>2022-08-20T15:49:58</time></trkpt><trkpt lat="67.9161538" lon="32.9754743"><time>2022-08-20T15:50:09</time></trkpt><trkpt lat="67.9161546" lon="32.9754734"><time>2022-08-20T15:50:11</time></trkpt><trkpt lat="67.9161579" lon="32.9754892"><time>2022-08-20T15:50:15</time></trkpt><trkpt lat="67.9161859" lon="32.9755642"><time>2022-08-20T15:50:21</time></trkpt><trkpt lat="67.9161943" lon="32.9755923"><time>2022-08-20T15:50:23</time></trkpt><trkpt lat="67.9161821" lon="32.9757244"><time>2022-08-20T15:50:33</time></trkpt><trkpt lat="67.9161798" lon="32.9757489"><time>2022-08-20T15:50:35</time></trkpt><trkpt lat="67.9161801" lon="32.9758126"><time>2022-08-20T15:50:40</time></trkpt><trkpt lat="67.9162038" lon="32.9759314"><time>2022-08-20T15:50:51</time></trkpt><trkpt lat="67.9162296" lon="32.9759763"><time>2022-08-20T15:50:56</time></trkpt><trkpt lat="67.9162916" lon="32.9761601"><time>2022-08-20T15:51:07</time></trkpt><trkpt lat="67.9163078" lon="32.9762381"><time>2022-08-20T15:51:17</time></trkpt><trkpt lat="67.9163059" lon="32.9762390"><time>2022-08-20T15:51:19</time></trkpt><trkpt lat="67.9163078" lon="32.9762444"><time>2022-08-20T15:51:21</time></trkpt><trkpt lat="67.9163050" lon="32.9763223"><time>2022-08-20T15:51:32</time></trkpt><trkpt lat="67.9162995" lon="32.9763632"><time>2022-08-20T15:51:44</time></trkpt><trkpt lat="67.9162799" lon="32.9763867"><time>2022-08-20T15:51:49</time></trkpt><trkpt lat="67.9162664" lon="32.9764197"><time>2022-08-20T15:51:52</time></trkpt><trkpt lat="67.9162458" lon="32.9765242"><time>2022-08-20T15:52:02</time></trkpt><trkpt lat="67.9162409" lon="32.9765410"><time>2022-08-20T15:52:03</time></trkpt><trkpt lat="67.9162399" lon="32.9765319"><time>2022-08-20T15:52:04</time></trkpt><trkpt lat="67.9162475" lon="32.9765997"><time>2022-08-20T15:52:10</time></trkpt><trkpt lat="67.9162502" lon="32.9766759"><time>2022-08-20T15:52:15</time></trkpt><trkpt lat="67.9162564" lon="32.9767040"><time>2022-08-20T15:52:17</time></trkpt><trkpt lat="67.9162568" lon="32.9767243"><time>2022-08-20T15:52:19</time></trkpt><trkpt lat="67.9162416" lon="32.9768027"><time>2022-08-20T15:52:28</time></trkpt><trkpt lat="67.9162430" lon="32.9768163"><time>2022-08-20T15:52:29</time></trkpt><trkpt lat="67.9162476" lon="32.9769192"><time>2022-08-20T15:52:38</time></trkpt><trkpt lat="67.9162441" lon="32.9770677"><time>2022-08-20T15:52:49</time></trkpt><trkpt lat="67.9162709" lon="32.9771746"><time>2022-08-20T15:52:59</time></trkpt><trkpt lat="67.9162705" lon="32.9772630"><time>2022-08-20T15:53:04</time></trkpt><trkpt lat="67.9162502" lon="32.9774075"><time>2022-08-20T15:53:16</time></trkpt><trkpt lat="67.9162843" lon="32.9775044"><time>2022-08-20T15:53:25</time></trkpt><trkpt lat="67.9163005" lon="32.9775950"><time>2022-08-20T15:53:32</time></trkpt><trkpt lat="67.9163093" lon="32.9776314"><time>2022-08-20T15:53:34</time></trkpt><trkpt lat="67.9163465" lon="32.9777130"><time>2022-08-20T15:53:41</time></trkpt><trkpt lat="67.9164144" lon="32.9778077"><time>2022-08-20T15:53:53</time></trkpt><trkpt lat="67.9164336" lon="32.9778406"><time>2022-08-20T15:53:57</time></trkpt><trkpt lat="67.9164619" lon="32.9779318"><time>2022-08-20T15:54:02</time></trkpt><trkpt lat="67.9164855" lon="32.9780202"><time>2022-08-20T15:54:07</time></trkpt><trkpt lat="67.9164839" lon="32.9780118"><time>2022-08-20T15:54:13</time></trkpt><trkpt lat="67.9164742" lon="32.9780465"><time>2022-08-20T15:54:42</time></trkpt><trkpt lat="67.9164741" lon="32.9780681"><time>2022-08-20T15:54:47</time></trkpt><trkpt lat="67.9164798" lon="32.9780504"><time>2022-08-20T15:54:56</time></trkpt><trkpt lat="67.9164989" lon="32.9779929"><time>2022-08-20T15:55:00</time></trkpt><trkpt lat="67.9164778" lon="32.9778908"><time>2022-08-20T15:55:16</time></trkpt><trkpt lat="67.9164302" lon="32.9777655"><time>2022-08-20T15:55:29</time></trkpt><trkpt lat="67.9164045" lon="32.9777625"><time>2022-08-20T15:55:43</time></trkpt><trkpt lat="67.9164061" lon="32.9779924"><time>2022-08-20T15:55:57</time></trkpt><trkpt lat="67.9163329" lon="32.9779788"><time>2022-08-20T15:56:09</time></trkpt><trkpt lat="67.9163362" lon="32.9779661"><time>2022-08-20T15:56:21</time></trkpt><trkpt lat="67.9163226" lon="32.9778924"><time>2022-08-20T15:56:29</time></trkpt><trkpt lat="67.9163055" lon="32.9778307"><time>2022-08-20T15:56:38</time></trkpt><trkpt lat="67.9163045" lon="32.9778271"><time>2022-08-20T15:56:41</time></trkpt><trkpt lat="67.9163000" lon="32.9778230"><time>2022-08-20T15:56:45</time></trkpt><trkpt lat="67.9162565" lon="32.9778400"><time>2022-08-20T15:56:57</time></trkpt><trkpt lat="67.9162478" lon="32.9778155"><time>2022-08-20T15:57:09</time></trkpt><trkpt lat="67.9162410" lon="32.9778402"><time>2022-08-20T15:57:17</time></trkpt><trkpt lat="67.9162200" lon="32.9778924"><time>2022-08-20T15:57:21</time></trkpt><trkpt lat="67.9161711" lon="32.9778915"><time>2022-08-20T15:57:27</time></trkpt><trkpt lat="67.9161487" lon="32.9778199"><time>2022-08-20T15:57:41</time></trkpt><trkpt lat="67.9161481" lon="32.9778118"><time>2022-08-20T15:57:42</time></trkpt><trkpt lat="67.9161447" lon="32.9778270"><time>2022-08-20T15:57:43</time></trkpt><trkpt lat="67.9161482" lon="32.9778277"><time>2022-08-20T15:57:45</time></trkpt><trkpt lat="67.9161627" lon="32.9778122"><time>2022-08-20T15:57:48</time></trkpt><trkpt lat="67.9161865" lon="32.9777788"><time>2022-08-20T15:57:54</time></trkpt><trkpt lat="67.9162156" lon="32.9777414"><time>2022-08-20T15:58:10</time></trkpt><trkpt lat="67.9162360" lon="32.9777152"><time>2022-08-20T15:58:25</time></trkpt><trkpt lat="67.9162617" lon="32.9776009"><time>2022-08-20T15:58:38</time></trkpt><trkpt lat="67.9162423" lon="32.9775821"><time>2022-08-20T15:58:50</time></trkpt><trkpt lat="67.9162543" lon="32.9774842"><time>2022-08-20T15:59:12</time></trkpt><trkpt lat="67.9162367" lon="32.9773919"><time>2022-08-20T15:59:34</time></trkpt><trkpt lat="67.9162791" lon="32.9774972"><time>2022-08-20T15:59:55</time></trkpt><trkpt lat="67.9162986" lon="32.9775395"><time>2022-08-20T15:59:59</time></trkpt><trkpt lat="67.9163310" lon="32.9774337"><time>2022-08-20T16:00:08</time></trkpt><trkpt lat="67.9163416" lon="32.9773965"><time>2022-08-20T16:00:13</time></trkpt><trkpt lat="67.9163774" lon="32.9774139"><time>2022-08-20T16:00:20</time></trkpt><trkpt lat="67.9164457" lon="32.9773649"><time>2022-08-20T16:00:34</time></trkpt><trkpt lat="67.9164822" lon="32.9774321"><time>2022-08-20T16:00:42</time></trkpt><trkpt lat="67.9165137" lon="32.9774885"><time>2022-08-20T16:00:54</time></trkpt><trkpt lat="67.9165297" lon="32.9775251"><time>2022-08-20T16:01:02</time></trkpt><trkpt lat="67.9165481" lon="32.9775873"><time>2022-08-20T16:01:09</time></trkpt><trkpt lat="67.9165631" lon="32.9776089"><time>2022-08-20T16:01:25</time></trkpt><trkpt lat="67.9165551" lon="32.9776449"><time>2022-08-20T16:01:30</time></trkpt><trkpt lat="67.9165563" lon="32.9776353"><time>2022-08-20T16:01:31</time></trkpt><trkpt lat="67.9165559" lon="32.9776475"><time>2022-08-20T16:01:32</time></trkpt><trkpt lat="67.9165621" lon="32.9777461"><time>2022-08-20T16:01:44</time></trkpt><trkpt lat="67.9165864" lon="32.9779104"><time>2022-08-20T16:01:56</time></trkpt><trkpt lat="67.9165943" lon="32.9780193"><time>2022-08-20T16:02:09</time></trkpt><trkpt lat="67.9166088" lon="32.9779533"><time>2022-08-20T16:02:13</time></trkpt><trkpt lat="67.9166374" lon="32.9778183"><time>2022-08-20T16:02:21</time></trkpt><trkpt lat="67.9166763" lon="32.9777494"><time>2022-08-20T16:02:35</time></trkpt><trkpt lat="67.9167423" lon="32.9777409"><time>2022-08-20T16:02:47</time></trkpt><trkpt lat="67.9168096" lon="32.9778747"><time>2022-08-20T16:03:02</time></trkpt><trkpt lat="67.9168510" lon="32.9779274"><time>2022-08-20T16:03:09</time></trkpt><trkpt lat="67.9168701" lon="32.9779856"><time>2022-08-20T16:03:22</time></trkpt><trkpt lat="67.9168658" lon="32.9779147"><time>2022-08-20T16:03:28</time></trkpt><trkpt lat="67.9168651" lon="32.9779191"><time>2022-08-20T16:03:30</time></trkpt><trkpt lat="67.9168357" lon="32.9777989"><time>2022-08-20T16:03:42</time></trkpt><trkpt lat="67.9168191" lon="32.9777969"><time>2022-08-20T16:03:46</time></trkpt><trkpt lat="67.9167960" lon="32.9777953"><time>2022-08-20T16:03:48</time></trkpt><trkpt lat="67.9167704" lon="32.9777315"><time>2022-08-20T16:03:53</time></trkpt><trkpt lat="67.9167145" lon="32.9776960"><time>2022-08-20T16:04:00</time></trkpt><trkpt lat="67.9166604" lon="32.9776199"><time>2022-08-20T16:04:10</time></trkpt><trkpt lat="67.9166241" lon="32.9775930"><time>2022-08-20T16:04:24</time></trkpt><trkpt lat="67.9165926" lon="32.9775915"><time>2022-08-20T16:04:37</time></trkpt><trkpt lat="67.9165838" lon="32.9775941"><time>2022-08-20T16:04:38</time></trkpt><trkpt lat="67.9165683" lon="32.9776266"><time>2022-08-20T16:04:40</time></trkpt><trkpt lat="67.9165480" lon="32.9776124"><time>2022-08-20T16:04:44</time></trkpt><trkpt lat="67.9165227" lon="32.9775870"><time>2022-08-20T16:04:47</time></trkpt><trkpt lat="67.9164683" lon="32.9776611"><time>2022-08-20T16:04:58</time></trkpt><trkpt lat="67.9164189" lon="32.9777259"><time>2022-08-20T16:05:09</time></trkpt><trkpt lat="67.9163670" lon="32.9777556"><time>2022-08-20T16:05:20</time></trkpt><trkpt lat="67.9163449" lon="32.9777469"><time>2022-08-20T16:05:25</time></trkpt><trkpt lat="67.9163335" lon="32.9778151"><time>2022-08-20T16:05:36</time></trkpt><trkpt lat="67.9163367" lon="32.9778278"><time>2022-08-20T16:05:38</time></trkpt><trkpt lat="67.9163569" lon="32.9778607"><time>2022-08-20T16:05:44</time></trkpt><trkpt lat="67.9163144" lon="32.9778028"><time>2022-08-20T16:05:54</time></trkpt><trkpt lat="67.9163005" lon="32.9778337"><time>2022-08-20T16:06:02</time></trkpt><trkpt lat="67.9162831" lon="32.9778108"><time>2022-08-20T16:06:12</time></trkpt><trkpt lat="67.9162638" lon="32.9778575"><time>2022-08-20T16:06:16</time></trkpt><trkpt lat="67.9162412" lon="32.9778634"><time>2022-08-20T16:06:21</time></trkpt><trkpt lat="67.9161979" lon="32.9778916"><time>2022-08-20T16:06:27</time></trkpt><trkpt lat="67.9161546" lon="32.9778677"><time>2022-08-20T16:06:32</time></trkpt><trkpt lat="67.9161235" lon="32.9778541"><time>2022-08-20T16:06:45</time></trkpt><trkpt lat="67.9160882" lon="32.9778052"><time>2022-08-20T16:06:56</time></trkpt><trkpt lat="67.9160791" lon="32.9777909"><time>2022-08-20T16:07:03</time></trkpt><trkpt lat="67.9160622" lon="32.9778406"><time>2022-08-20T16:07:06</time></trkpt><trkpt lat="67.9160626" lon="32.9778642"><time>2022-08-20T16:07:07</time></trkpt><trkpt lat="67.9160628" lon="32.9779316"><time>2022-08-20T16:07:11</time></trkpt><trkpt lat="67.9160631" lon="32.9779297"><time>2022-08-20T16:07:12</time></trkpt><trkpt lat="67.9160383" lon="32.9779646"><time>2022-08-20T16:07:19</time></trkpt><trkpt lat="67.9160341" lon="32.9779558"><time>2022-08-20T16:07:20</time></trkpt><trkpt lat="67.9160279" lon="32.9779155"><time>2022-08-20T16:07:27</time></trkpt><trkpt lat="67.9160071" lon="32.9778195"><time>2022-08-20T16:07:45</time></trkpt><trkpt lat="67.9160424" lon="32.9776826"><time>2022-08-20T16:07:57</time></trkpt><trkpt lat="67.9160716" lon="32.9775797"><time>2022-08-20T16:08:13</time></trkpt><trkpt lat="67.9161084" lon="32.9773978"><time>2022-08-20T16:08:28</time></trkpt><trkpt lat="67.9161297" lon="32.9773233"><time>2022-08-20T16:08:40</time></trkpt><trkpt lat="67.9161380" lon="32.9773488"><time>2022-08-20T16:08:54</time></trkpt><trkpt lat="67.9161641" lon="32.9773397"><time>2022-08-20T16:09:06</time></trkpt><trkpt lat="67.9161655" lon="32.9773340"><time>2022-08-20T16:09:08</time></trkpt><trkpt lat="67.9162114" lon="32.9773040"><time>2022-08-20T16:09:23</time></trkpt><trkpt lat="67.9162210" lon="32.9773039"><time>2022-08-20T16:09:32</time></trkpt><trkpt lat="67.9162402" lon="32.9773169"><time>2022-08-20T16:09:45</time></trkpt><trkpt lat="67.9162437" lon="32.9773287"><time>2022-08-20T16:10:07</time></trkpt><trkpt lat="67.9162511" lon="32.9773537"><time>2022-08-20T16:10:15</time></trkpt><trkpt lat="67.9162795" lon="32.9772578"><time>2022-08-20T16:10:28</time></trkpt><trkpt lat="67.9162821" lon="32.9771858"><time>2022-08-20T16:10:32</time></trkpt><trkpt lat="67.9162728" lon="32.9771013"><time>2022-08-20T16:10:36</time></trkpt><trkpt lat="67.9162563" lon="32.9769543"><time>2022-08-20T16:10:50</time></trkpt><trkpt lat="67.9162578" lon="32.9769473"><time>2022-08-20T16:10:52</time></trkpt><trkpt lat="67.9162542" lon="32.9768089"><time>2022-08-20T16:11:07</time></trkpt><trkpt lat="67.9162638" lon="32.9767001"><time>2022-08-20T16:11:15</time></trkpt><trkpt lat="67.9162416" lon="32.9765513"><time>2022-08-20T16:11:27</time></trkpt><trkpt lat="67.9161908" lon="32.9764124"><time>2022-08-20T16:11:36</time></trkpt><trkpt lat="67.9161845" lon="32.9763966"><time>2022-08-20T16:11:37</time></trkpt><trkpt lat="67.9161615" lon="32.9762044"><time>2022-08-20T16:11:49</time></trkpt><trkpt lat="67.9161139" lon="32.9759209"><time>2022-08-20T16:12:04</time></trkpt><trkpt lat="67.9160872" lon="32.9757559"><time>2022-08-20T16:12:15</time></trkpt><trkpt lat="67.9160599" lon="32.9757548"><time>2022-08-20T16:12:18</time></trkpt><trkpt lat="67.9160289" lon="32.9756075"><time>2022-08-20T16:12:32</time></trkpt><trkpt lat="67.9159878" lon="32.9754308"><time>2022-08-20T16:12:43</time></trkpt><trkpt lat="67.9159580" lon="32.9753412"><time>2022-08-20T16:12:47</time></trkpt><trkpt lat="67.9159323" lon="32.9752413"><time>2022-08-20T16:12:59</time></trkpt><trkpt lat="67.9159119" lon="32.9751396"><time>2022-08-20T16:13:03</time></trkpt><trkpt lat="67.9158849" lon="32.9749838"><time>2022-08-20T16:13:10</time></trkpt><trkpt lat="67.9158746" lon="32.9749212"><time>2022-08-20T16:13:13</time></trkpt><trkpt lat="67.9158700" lon="32.9747968"><time>2022-08-20T16:13:19</time></trkpt><trkpt lat="67.9158558" lon="32.9747272"><time>2022-08-20T16:13:22</time></trkpt><trkpt lat="67.9158447" lon="32.9745726"><time>2022-08-20T16:13:30</time></trkpt><trkpt lat="67.9158302" lon="32.9745364"><time>2022-08-20T16:13:33</time></trkpt><trkpt lat="67.9158312" lon="32.9745227"><time>2022-08-20T16:13:57</time></trkpt><trkpt lat="67.9158307" lon="32.9744885"><time>2022-08-20T16:14:00</time></trkpt><trkpt lat="67.9157539" lon="32.9742324"><time>2022-08-20T16:14:13</time></trkpt><trkpt lat="67.9157378" lon="32.9740565"><time>2022-08-20T16:14:21</time></trkpt><trkpt lat="67.9157496" lon="32.9739637"><time>2022-08-20T16:14:24</time></trkpt><trkpt lat="67.9157514" lon="32.9739321"><time>2022-08-20T16:14:25</time></trkpt><trkpt lat="67.9157489" lon="32.9738674"><time>2022-08-20T16:14:28</time></trkpt><trkpt lat="67.9157442" lon="32.9738525"><time>2022-08-20T16:14:29</time></trkpt><trkpt lat="67.9157321" lon="32.9737777"><time>2022-08-20T16:14:32</time></trkpt><trkpt lat="67.9157322" lon="32.9735347"><time>2022-08-20T16:14:45</time></trkpt><trkpt lat="67.9157238" lon="32.9733238"><time>2022-08-20T16:14:59</time></trkpt><trkpt lat="67.9157232" lon="32.9730665"><time>2022-08-20T16:15:11</time></trkpt><trkpt lat="67.9157183" lon="32.9728973"><time>2022-08-20T16:15:17</time></trkpt><trkpt lat="67.9157109" lon="32.9728549"><time>2022-08-20T16:15:20</time></trkpt><trkpt lat="67.9156759" lon="32.9727875"><time>2022-08-20T16:15:26</time></trkpt><trkpt lat="67.9156665" lon="32.9726462"><time>2022-08-20T16:15:36</time></trkpt><trkpt lat="67.9156431" lon="32.9725883"><time>2022-08-20T16:15:41</time></trkpt><trkpt lat="67.9155795" lon="32.9724316"><time>2022-08-20T16:15:56</time></trkpt><trkpt lat="67.9154389" lon="32.9724051"><time>2022-08-20T16:16:10</time></trkpt><trkpt lat="67.9152575" lon="32.9724947"><time>2022-08-20T16:16:23</time></trkpt><trkpt lat="67.9152017" lon="32.9725170"><time>2022-08-20T16:16:28</time></trkpt><trkpt lat="67.9151408" lon="32.9725508"><time>2022-08-20T16:16:31</time></trkpt><trkpt lat="67.9150558" lon="32.9726056"><time>2022-08-20T16:16:37</time></trkpt><trkpt lat="67.9150101" lon="32.9726179"><time>2022-08-20T16:16:49</time></trkpt><trkpt lat="67.9149517" lon="32.9726707"><time>2022-08-20T16:16:57</time></trkpt><trkpt lat="67.9149200" lon="32.9726863"><time>2022-08-20T16:17:00</time></trkpt><trkpt lat="67.9149029" lon="32.9726965"><time>2022-08-20T16:17:01</time></trkpt><trkpt lat="67.9147070" lon="32.9728114"><time>2022-08-20T16:17:13</time></trkpt><trkpt lat="67.9146719" lon="32.9728211"><time>2022-08-20T16:17:15</time></trkpt><trkpt lat="67.9145930" lon="32.9728522"><time>2022-08-20T16:17:20</time></trkpt><trkpt lat="67.9145196" lon="32.9728423"><time>2022-08-20T16:17:25</time></trkpt><trkpt lat="67.9143616" lon="32.9729076"><time>2022-08-20T16:17:36</time></trkpt><trkpt lat="67.9142094" lon="32.9730039"><time>2022-08-20T16:17:45</time></trkpt><trkpt lat="67.9141710" lon="32.9730355"><time>2022-08-20T16:17:48</time></trkpt><trkpt lat="67.9141538" lon="32.9730447"><time>2022-08-20T16:17:49</time></trkpt><trkpt lat="67.9141037" lon="32.9731075"><time>2022-08-20T16:17:52</time></trkpt><trkpt lat="67.9139524" lon="32.9732896"><time>2022-08-20T16:18:03</time></trkpt><trkpt lat="67.9137607" lon="32.9734554"><time>2022-08-20T16:18:14</time></trkpt><trkpt lat="67.9136058" lon="32.9735717"><time>2022-08-20T16:18:26</time></trkpt><trkpt lat="67.9134656" lon="32.9736738"><time>2022-08-20T16:18:36</time></trkpt><trkpt lat="67.9133151" lon="32.9737729"><time>2022-08-20T16:18:46</time></trkpt><trkpt lat="67.9132613" lon="32.9738426"><time>2022-08-20T16:18:49</time></trkpt><trkpt lat="67.9131141" lon="32.9740426"><time>2022-08-20T16:19:01</time></trkpt><trkpt lat="67.9131215" lon="32.9740696"><time>2022-08-20T16:19:19</time></trkpt><trkpt lat="67.9130407" lon="32.9741088"><time>2022-08-20T16:19:25</time></trkpt><trkpt lat="67.9128819" lon="32.9742611"><time>2022-08-20T16:19:35</time></trkpt><trkpt lat="67.9128304" lon="32.9742978"><time>2022-08-20T16:19:40</time></trkpt><trkpt lat="67.9127510" lon="32.9743860"><time>2022-08-20T16:19:52</time></trkpt><trkpt lat="67.9127507" lon="32.9743892"><time>2022-08-20T16:19:54</time></trkpt><trkpt lat="67.9127526" lon="32.9743770"><time>2022-08-20T16:20:11</time></trkpt><trkpt lat="67.9127498" lon="32.9743797"><time>2022-08-20T16:20:12</time></trkpt><trkpt lat="67.9126012" lon="32.9745517"><time>2022-08-20T16:20:22</time></trkpt><trkpt lat="67.9124586" lon="32.9747042"><time>2022-08-20T16:20:32</time></trkpt><trkpt lat="67.9123077" lon="32.9748837"><time>2022-08-20T16:20:46</time></trkpt><trkpt lat="67.9121200" lon="32.9750060"><time>2022-08-20T16:20:57</time></trkpt><trkpt lat="67.9119447" lon="32.9749248"><time>2022-08-20T16:21:09</time></trkpt><trkpt lat="67.9118455" lon="32.9746787"><time>2022-08-20T16:21:19</time></trkpt><trkpt lat="67.9117620" lon="32.9742464"><time>2022-08-20T16:21:30</time></trkpt><trkpt lat="67.9117415" lon="32.9741554"><time>2022-08-20T16:21:33</time></trkpt><trkpt lat="67.9116984" lon="32.9739652"><time>2022-08-20T16:21:38</time></trkpt><trkpt lat="67.9116560" lon="32.9737063"><time>2022-08-20T16:21:45</time></trkpt><trkpt lat="67.9115848" lon="32.9733763"><time>2022-08-20T16:21:54</time></trkpt><trkpt lat="67.9115536" lon="32.9732218"><time>2022-08-20T16:21:57</time></trkpt><trkpt lat="67.9114571" lon="32.9728316"><time>2022-08-20T16:22:07</time></trkpt><trkpt lat="67.9113952" lon="32.9724714"><time>2022-08-20T16:22:18</time></trkpt><trkpt lat="67.9113911" lon="32.9724525"><time>2022-08-20T16:22:19</time></trkpt><trkpt lat="67.9113290" lon="32.9721700"><time>2022-08-20T16:22:26</time></trkpt><trkpt lat="67.9113105" lon="32.9720957"><time>2022-08-20T16:22:28</time></trkpt><trkpt lat="67.9112143" lon="32.9716601"><time>2022-08-20T16:22:41</time></trkpt><trkpt lat="67.9111223" lon="32.9712040"><time>2022-08-20T16:22:54</time></trkpt><trkpt lat="67.9111018" lon="32.9710023"><time>2022-08-20T16:23:02</time></trkpt><trkpt lat="67.9110888" lon="32.9708642"><time>2022-08-20T16:23:07</time></trkpt><trkpt lat="67.9110856" lon="32.9708321"><time>2022-08-20T16:23:09</time></trkpt><trkpt lat="67.9109786" lon="32.9703635"><time>2022-08-20T16:23:22</time></trkpt><trkpt lat="67.9109595" lon="32.9702657"><time>2022-08-20T16:23:26</time></trkpt><trkpt lat="67.9108958" lon="32.9700893"><time>2022-08-20T16:23:41</time></trkpt><trkpt lat="67.9108939" lon="32.9700582"><time>2022-08-20T16:23:51</time></trkpt><trkpt lat="67.9108922" lon="32.9700106"><time>2022-08-20T16:24:09</time></trkpt><trkpt lat="67.9108708" lon="32.9699585"><time>2022-08-20T16:24:33</time></trkpt><trkpt lat="67.9108513" lon="32.9700046"><time>2022-08-20T16:24:44</time></trkpt><trkpt lat="67.9107726" lon="32.9700748"><time>2022-08-20T16:24:50</time></trkpt><trkpt lat="67.9106583" lon="32.9702552"><time>2022-08-20T16:25:04</time></trkpt><trkpt lat="67.9106580" lon="32.9702548"><time>2022-08-20T16:25:05</time></trkpt><trkpt lat="67.9106591" lon="32.9702499"><time>2022-08-20T16:25:07</time></trkpt><trkpt lat="67.9106805" lon="32.9702345"><time>2022-08-20T16:25:30</time></trkpt><trkpt lat="67.9106789" lon="32.9702365"><time>2022-08-20T16:25:34</time></trkpt><trkpt lat="67.9106793" lon="32.9702326"><time>2022-08-20T16:25:42</time></trkpt><trkpt lat="67.9105452" lon="32.9704440"><time>2022-08-20T16:25:55</time></trkpt><trkpt lat="67.9104662" lon="32.9705950"><time>2022-08-20T16:26:01</time></trkpt><trkpt lat="67.9104408" lon="32.9706495"><time>2022-08-20T16:26:03</time></trkpt><trkpt lat="67.9103137" lon="32.9708329"><time>2022-08-20T16:26:13</time></trkpt><trkpt lat="67.9101737" lon="32.9710442"><time>2022-08-20T16:26:24</time></trkpt><trkpt lat="67.9100931" lon="32.9711846"><time>2022-08-20T16:26:29</time></trkpt><trkpt lat="67.9100232" lon="32.9713284"><time>2022-08-20T16:26:43</time></trkpt><trkpt lat="67.9100085" lon="32.9714091"><time>2022-08-20T16:27:11</time></trkpt><trkpt lat="67.9100104" lon="32.9713966"><time>2022-08-20T16:27:17</time></trkpt><trkpt lat="67.9100001" lon="32.9714375"><time>2022-08-20T16:27:50</time></trkpt><trkpt lat="67.9099993" lon="32.9714822"><time>2022-08-20T16:28:16</time></trkpt><trkpt lat="67.9099983" lon="32.9714625"><time>2022-08-20T16:28:19</time></trkpt><trkpt lat="67.9099959" lon="32.9714517"><time>2022-08-20T16:28:58</time></trkpt><trkpt lat="67.9099882" lon="32.9714366"><time>2022-08-20T16:29:11</time></trkpt><trkpt lat="67.9099984" lon="32.9714170"><time>2022-08-20T16:29:28</time></trkpt><trkpt lat="67.9100065" lon="32.9714010"><time>2022-08-20T16:29:37</time></trkpt><trkpt lat="67.9100044" lon="32.9713644"><time>2022-08-20T16:29:52</time></trkpt><trkpt lat="67.9099968" lon="32.9713686"><time>2022-08-20T16:30:04</time></trkpt><trkpt lat="67.9099794" lon="32.9713727"><time>2022-08-20T16:30:07</time></trkpt><trkpt lat="67.9098005" lon="32.9715691"><time>2022-08-20T16:30:20</time></trkpt><trkpt lat="67.9096469" lon="32.9718166"><time>2022-08-20T16:30:32</time></trkpt><trkpt lat="67.9095213" lon="32.9719611"><time>2022-08-20T16:30:42</time></trkpt><trkpt lat="67.9093413" lon="32.9722419"><time>2022-08-20T16:30:56</time></trkpt><trkpt lat="67.9093356" lon="32.9722511"><time>2022-08-20T16:30:57</time></trkpt><trkpt lat="67.9091977" lon="32.9724311"><time>2022-08-20T16:31:07</time></trkpt><trkpt lat="67.9090295" lon="32.9727005"><time>2022-08-20T16:31:18</time></trkpt><trkpt lat="67.9088923" lon="32.9728856"><time>2022-08-20T16:31:28</time></trkpt><trkpt lat="67.9087723" lon="32.9732319"><time>2022-08-20T16:31:39</time></trkpt><trkpt lat="67.9087008" lon="32.9734619"><time>2022-08-20T16:31:48</time></trkpt><trkpt lat="67.9086573" lon="32.9736568"><time>2022-08-20T16:31:52</time></trkpt><trkpt lat="67.9086409" lon="32.9737170"><time>2022-08-20T16:31:55</time></trkpt><trkpt lat="67.9085683" lon="32.9739441"><time>2022-08-20T16:32:01</time></trkpt><trkpt lat="67.9084884" lon="32.9743078"><time>2022-08-20T16:32:11</time></trkpt><trkpt lat="67.9084121" lon="32.9747004"><time>2022-08-20T16:32:22</time></trkpt><trkpt lat="67.9083540" lon="32.9749622"><time>2022-08-20T16:32:30</time></trkpt><trkpt lat="67.9082639" lon="32.9754234"><time>2022-08-20T16:32:42</time></trkpt><trkpt lat="67.9082377" lon="32.9755094"><time>2022-08-20T16:32:45</time></trkpt><trkpt lat="67.9081595" lon="32.9758750"><time>2022-08-20T16:32:53</time></trkpt><trkpt lat="67.9081383" lon="32.9759837"><time>2022-08-20T16:32:55</time></trkpt><trkpt lat="67.9080230" lon="32.9764430"><time>2022-08-20T16:33:07</time></trkpt><trkpt lat="67.9079394" lon="32.9769476"><time>2022-08-20T16:33:19</time></trkpt><trkpt lat="67.9078538" lon="32.9774076"><time>2022-08-20T16:33:31</time></trkpt><trkpt lat="67.9077766" lon="32.9777813"><time>2022-08-20T16:33:41</time></trkpt><trkpt lat="67.9077050" lon="32.9781606"><time>2022-08-20T16:33:51</time></trkpt><trkpt lat="67.9076000" lon="32.9786019"><time>2022-08-20T16:34:03</time></trkpt><trkpt lat="67.9075801" lon="32.9786893"><time>2022-08-20T16:34:05</time></trkpt><trkpt lat="67.9074825" lon="32.9789675"><time>2022-08-20T16:34:15</time></trkpt><trkpt lat="67.9073927" lon="32.9792117"><time>2022-08-20T16:34:24</time></trkpt><trkpt lat="67.9073103" lon="32.9794508"><time>2022-08-20T16:34:32</time></trkpt><trkpt lat="67.9072707" lon="32.9795832"><time>2022-08-20T16:34:36</time></trkpt><trkpt lat="67.9071386" lon="32.9799166"><time>2022-08-20T16:34:47</time></trkpt><trkpt lat="67.9070787" lon="32.9800416"><time>2022-08-20T16:34:52</time></trkpt><trkpt lat="67.9069385" lon="32.9803505"><time>2022-08-20T16:35:03</time></trkpt><trkpt lat="67.9068883" lon="32.9804369"><time>2022-08-20T16:35:07</time></trkpt><trkpt lat="67.9067409" lon="32.9807062"><time>2022-08-20T16:35:20</time></trkpt><trkpt lat="67.9067322" lon="32.9807159"><time>2022-08-20T16:35:21</time></trkpt><trkpt lat="67.9066567" lon="32.9808150"><time>2022-08-20T16:35:26</time></trkpt><trkpt lat="67.9065828" lon="32.9809099"><time>2022-08-20T16:35:32</time></trkpt><trkpt lat="67.9064457" lon="32.9810739"><time>2022-08-20T16:35:42</time></trkpt><trkpt lat="67.9064107" lon="32.9811226"><time>2022-08-20T16:35:45</time></trkpt><trkpt lat="67.9063698" lon="32.9811662"><time>2022-08-20T16:35:47</time></trkpt><trkpt lat="67.9062690" lon="32.9812778"><time>2022-08-20T16:35:55</time></trkpt><trkpt lat="67.9061877" lon="32.9813624"><time>2022-08-20T16:36:00</time></trkpt><trkpt lat="67.9060955" lon="32.9814685"><time>2022-08-20T16:36:06</time></trkpt><trkpt lat="67.9060015" lon="32.9815558"><time>2022-08-20T16:36:15</time></trkpt><trkpt lat="67.9057985" lon="32.9817826"><time>2022-08-20T16:36:31</time></trkpt><trkpt lat="67.9056467" lon="32.9819382"><time>2022-08-20T16:36:41</time></trkpt><trkpt lat="67.9054824" lon="32.9821085"><time>2022-08-20T16:36:52</time></trkpt><trkpt lat="67.9053280" lon="32.9822476"><time>2022-08-20T16:37:07</time></trkpt><trkpt lat="67.9051354" lon="32.9824267"><time>2022-08-20T16:37:22</time></trkpt><trkpt lat="67.9049680" lon="32.9825525"><time>2022-08-20T16:37:32</time></trkpt><trkpt lat="67.9047838" lon="32.9827166"><time>2022-08-20T16:37:45</time></trkpt><trkpt lat="67.9047608" lon="32.9827347"><time>2022-08-20T16:37:47</time></trkpt><trkpt lat="67.9047476" lon="32.9827430"><time>2022-08-20T16:37:49</time></trkpt><trkpt lat="67.9046656" lon="32.9827897"><time>2022-08-20T16:38:01</time></trkpt><trkpt lat="67.9044667" lon="32.9829932"><time>2022-08-20T16:38:16</time></trkpt><trkpt lat="67.9042767" lon="32.9832147"><time>2022-08-20T16:38:30</time></trkpt><trkpt lat="67.9042376" lon="32.9832451"><time>2022-08-20T16:38:36</time></trkpt><trkpt lat="67.9041408" lon="32.9833722"><time>2022-08-20T16:38:42</time></trkpt><trkpt lat="67.9040486" lon="32.9834758"><time>2022-08-20T16:38:48</time></trkpt><trkpt lat="67.9038540" lon="32.9836710"><time>2022-08-20T16:39:04</time></trkpt><trkpt lat="67.9038415" lon="32.9836831"><time>2022-08-20T16:39:05</time></trkpt><trkpt lat="67.9038229" lon="32.9837065"><time>2022-08-20T16:39:07</time></trkpt><trkpt lat="67.9037892" lon="32.9837388"><time>2022-08-20T16:39:11</time></trkpt><trkpt lat="67.9037356" lon="32.9838438"><time>2022-08-20T16:39:15</time></trkpt><trkpt lat="67.9036404" lon="32.9840080"><time>2022-08-20T16:39:23</time></trkpt><trkpt lat="67.9034867" lon="32.9843167"><time>2022-08-20T16:39:34</time></trkpt><trkpt lat="67.9034197" lon="32.9844477"><time>2022-08-20T16:39:43</time></trkpt><trkpt lat="67.9032899" lon="32.9847709"><time>2022-08-20T16:39:54</time></trkpt><trkpt lat="67.9031475" lon="32.9850560"><time>2022-08-20T16:40:06</time></trkpt><trkpt lat="67.9030355" lon="32.9853265"><time>2022-08-20T16:40:16</time></trkpt><trkpt lat="67.9028499" lon="32.9858561"><time>2022-08-20T16:40:33</time></trkpt><trkpt lat="67.9027934" lon="32.9859562"><time>2022-08-20T16:40:40</time></trkpt><trkpt lat="67.9026738" lon="32.9863266"><time>2022-08-20T16:40:52</time></trkpt><trkpt lat="67.9026066" lon="32.9865038"><time>2022-08-20T16:40:59</time></trkpt><trkpt lat="67.9024800" lon="32.9869149"><time>2022-08-20T16:41:12</time></trkpt><trkpt lat="67.9023191" lon="32.9873348"><time>2022-08-20T16:41:24</time></trkpt><trkpt lat="67.9022841" lon="32.9873891"><time>2022-08-20T16:41:29</time></trkpt><trkpt lat="67.9022393" lon="32.9875085"><time>2022-08-20T16:41:33</time></trkpt><trkpt lat="67.9020910" lon="32.9879822"><time>2022-08-20T16:41:48</time></trkpt><trkpt lat="67.9019650" lon="32.9883050"><time>2022-08-20T16:41:59</time></trkpt><trkpt lat="67.9019255" lon="32.9884149"><time>2022-08-20T16:42:04</time></trkpt><trkpt lat="67.9018479" lon="32.9886043"><time>2022-08-20T16:42:09</time></trkpt><trkpt lat="67.9017512" lon="32.9888516"><time>2022-08-20T16:42:18</time></trkpt><trkpt lat="67.9016321" lon="32.9891948"><time>2022-08-20T16:42:28</time></trkpt><trkpt lat="67.9015751" lon="32.9893471"><time>2022-08-20T16:42:32</time></trkpt><trkpt lat="67.9014680" lon="32.9896198"><time>2022-08-20T16:42:42</time></trkpt><trkpt lat="67.9014402" lon="32.9896994"><time>2022-08-20T16:42:44</time></trkpt><trkpt lat="67.9013267" lon="32.9900001"><time>2022-08-20T16:42:53</time></trkpt><trkpt lat="67.9012269" lon="32.9902666"><time>2022-08-20T16:43:02</time></trkpt><trkpt lat="67.9010914" lon="32.9906463"><time>2022-08-20T16:43:13</time></trkpt><trkpt lat="67.9010607" lon="32.9907353"><time>2022-08-20T16:43:16</time></trkpt><trkpt lat="67.9009549" lon="32.9910462"><time>2022-08-20T16:43:26</time></trkpt><trkpt lat="67.9009046" lon="32.9911932"><time>2022-08-20T16:43:31</time></trkpt><trkpt lat="67.9006929" lon="32.9917321"><time>2022-08-20T16:43:50</time></trkpt><trkpt lat="67.9006225" lon="32.9919458"><time>2022-08-20T16:43:57</time></trkpt><trkpt lat="67.9004192" lon="32.9924773"><time>2022-08-20T16:44:15</time></trkpt><trkpt lat="67.9002144" lon="32.9929584"><time>2022-08-20T16:44:33</time></trkpt><trkpt lat="67.9001647" lon="32.9930531"><time>2022-08-20T16:44:37</time></trkpt><trkpt lat="67.8999963" lon="32.9935769"><time>2022-08-20T16:44:54</time></trkpt><trkpt lat="67.8999418" lon="32.9937323"><time>2022-08-20T16:45:07</time></trkpt><trkpt lat="67.8997606" lon="32.9941942"><time>2022-08-20T16:45:23</time></trkpt><trkpt lat="67.8995109" lon="32.9948562"><time>2022-08-20T16:45:45</time></trkpt><trkpt lat="67.8993242" lon="32.9953307"><time>2022-08-20T16:46:02</time></trkpt><trkpt lat="67.8991538" lon="32.9958092"><time>2022-08-20T16:46:17</time></trkpt><trkpt lat="67.8989332" lon="32.9963940"><time>2022-08-20T16:46:36</time></trkpt><trkpt lat="67.8986974" lon="32.9970225"><time>2022-08-20T16:46:57</time></trkpt><trkpt lat="67.8986393" lon="32.9971572"><time>2022-08-20T16:47:02</time></trkpt><trkpt lat="67.8984795" lon="32.9975918"><time>2022-08-20T16:47:17</time></trkpt><trkpt lat="67.8982667" lon="32.9981203"><time>2022-08-20T16:47:35</time></trkpt><trkpt lat="67.8980563" lon="32.9987140"><time>2022-08-20T16:47:55</time></trkpt><trkpt lat="67.8978743" lon="32.9991924"><time>2022-08-20T16:48:12</time></trkpt><trkpt lat="67.8976888" lon="32.9996105"><time>2022-08-20T16:48:28</time></trkpt><trkpt lat="67.8975016" lon="33.0001109"><time>2022-08-20T16:48:46</time></trkpt><trkpt lat="67.8973044" lon="33.0005375"><time>2022-08-20T16:49:03</time></trkpt><trkpt lat="67.8971381" lon="33.0007704"><time>2022-08-20T16:49:19</time></trkpt><trkpt lat="67.8971414" lon="33.0007754"><time>2022-08-20T16:49:38</time></trkpt><trkpt lat="67.8969404" lon="33.0009141"><time>2022-08-20T16:49:52</time></trkpt><trkpt lat="67.8967849" lon="33.0010444"><time>2022-08-20T16:50:03</time></trkpt><trkpt lat="67.8966133" lon="33.0011626"><time>2022-08-20T16:50:15</time></trkpt><trkpt lat="67.8964463" lon="33.0012588"><time>2022-08-20T16:50:27</time></trkpt><trkpt lat="67.8962590" lon="33.0013395"><time>2022-08-20T16:50:40</time></trkpt><trkpt lat="67.8960709" lon="33.0013241"><time>2022-08-20T16:50:57</time></trkpt><trkpt lat="67.8958164" lon="33.0012223"><time>2022-08-20T16:51:18</time></trkpt><trkpt lat="67.8955403" lon="33.0010337"><time>2022-08-20T16:51:35</time></trkpt><trkpt lat="67.8953697" lon="33.0008599"><time>2022-08-20T16:51:50</time></trkpt><trkpt lat="67.8951435" lon="33.0007301"><time>2022-08-20T16:52:03</time></trkpt><trkpt lat="67.8948954" lon="33.0006389"><time>2022-08-20T16:52:18</time></trkpt><trkpt lat="67.8946483" lon="33.0004579"><time>2022-08-20T16:52:34</time></trkpt><trkpt lat="67.8945019" lon="33.0003667"><time>2022-08-20T16:52:45</time></trkpt><trkpt lat="67.8944725" lon="33.0002885"><time>2022-08-20T16:52:49</time></trkpt><trkpt lat="67.8944282" lon="33.0002261"><time>2022-08-20T16:52:54</time></trkpt><trkpt lat="67.8942866" lon="33.0000166"><time>2022-08-20T16:53:10</time></trkpt><trkpt lat="67.8940624" lon="32.9997620"><time>2022-08-20T16:53:26</time></trkpt><trkpt lat="67.8938671" lon="32.9995578"><time>2022-08-20T16:53:43</time></trkpt><trkpt lat="67.8937485" lon="32.9994317"><time>2022-08-20T16:53:57</time></trkpt><trkpt lat="67.8935680" lon="32.9992656"><time>2022-08-20T16:54:16</time></trkpt><trkpt lat="67.8933122" lon="32.9990472"><time>2022-08-20T16:54:32</time></trkpt><trkpt lat="67.8931731" lon="32.9989065"><time>2022-08-20T16:54:42</time></trkpt><trkpt lat="67.8931454" lon="32.9989124"><time>2022-08-20T16:54:44</time></trkpt><trkpt lat="67.8931194" lon="32.9989267"><time>2022-08-20T16:54:46</time></trkpt><trkpt lat="67.8929659" lon="32.9988092"><time>2022-08-20T16:55:00</time></trkpt><trkpt lat="67.8928298" lon="32.9987221"><time>2022-08-20T16:55:16</time></trkpt><trkpt lat="67.8925554" lon="32.9984610"><time>2022-08-20T16:55:34</time></trkpt><trkpt lat="67.8922835" lon="32.9982129"><time>2022-08-20T16:55:53</time></trkpt><trkpt lat="67.8921342" lon="32.9981278"><time>2022-08-20T16:56:05</time></trkpt><trkpt lat="67.8919556" lon="32.9980564"><time>2022-08-20T16:56:22</time></trkpt><trkpt lat="67.8919191" lon="32.9980459"><time>2022-08-20T16:56:26</time></trkpt><trkpt lat="67.8918380" lon="32.9980634"><time>2022-08-20T16:56:33</time></trkpt><trkpt lat="67.8917554" lon="32.9980494"><time>2022-08-20T16:56:40</time></trkpt><trkpt lat="67.8914880" lon="32.9980194"><time>2022-08-20T16:56:54</time></trkpt><trkpt lat="67.8912466" lon="32.9979874"><time>2022-08-20T16:57:10</time></trkpt><trkpt lat="67.8909925" lon="32.9979898"><time>2022-08-20T16:57:30</time></trkpt><trkpt lat="67.8907430" lon="32.9979916"><time>2022-08-20T16:57:46</time></trkpt><trkpt lat="67.8905305" lon="32.9979821"><time>2022-08-20T16:58:00</time></trkpt><trkpt lat="67.8903164" lon="32.9979819"><time>2022-08-20T16:58:15</time></trkpt><trkpt lat="67.8901051" lon="32.9979219"><time>2022-08-20T16:58:29</time></trkpt><trkpt lat="67.8898918" lon="32.9979115"><time>2022-08-20T16:58:42</time></trkpt><trkpt lat="67.8896862" lon="32.9979014"><time>2022-08-20T16:58:57</time></trkpt><trkpt lat="67.8896579" lon="32.9978922"><time>2022-08-20T16:58:59</time></trkpt><trkpt lat="67.8896009" lon="32.9978782"><time>2022-08-20T16:59:03</time></trkpt><trkpt lat="67.8894297" lon="32.9978823"><time>2022-08-20T16:59:14</time></trkpt><trkpt lat="67.8893992" lon="32.9978865"><time>2022-08-20T16:59:16</time></trkpt><trkpt lat="67.8893148" lon="32.9978936"><time>2022-08-20T16:59:21</time></trkpt><trkpt lat="67.8892981" lon="32.9978985"><time>2022-08-20T16:59:23</time></trkpt><trkpt lat="67.8891061" lon="32.9978669"><time>2022-08-20T16:59:36</time></trkpt><trkpt lat="67.8888911" lon="32.9978831"><time>2022-08-20T16:59:50</time></trkpt><trkpt lat="67.8887030" lon="32.9979444"><time>2022-08-20T17:00:03</time></trkpt><trkpt lat="67.8886369" lon="32.9979686"><time>2022-08-20T17:00:17</time></trkpt><trkpt lat="67.8885325" lon="32.9979945"><time>2022-08-20T17:00:30</time></trkpt><trkpt lat="67.8883021" lon="32.9981296"><time>2022-08-20T17:00:45</time></trkpt><trkpt lat="67.8880964" lon="32.9982360"><time>2022-08-20T17:00:59</time></trkpt><trkpt lat="67.8878873" lon="32.9983943"><time>2022-08-20T17:01:13</time></trkpt><trkpt lat="67.8877020" lon="32.9985806"><time>2022-08-20T17:01:27</time></trkpt><trkpt lat="67.8874940" lon="32.9988626"><time>2022-08-20T17:01:43</time></trkpt><trkpt lat="67.8873292" lon="32.9991143"><time>2022-08-20T17:01:56</time></trkpt><trkpt lat="67.8871476" lon="32.9994416"><time>2022-08-20T17:02:10</time></trkpt><trkpt lat="67.8869694" lon="32.9997295"><time>2022-08-20T17:02:26</time></trkpt><trkpt lat="67.8869408" lon="32.9998191"><time>2022-08-20T17:02:30</time></trkpt><trkpt lat="67.8868253" lon="33.0001620"><time>2022-08-20T17:02:47</time></trkpt><trkpt lat="67.8868191" lon="33.0001723"><time>2022-08-20T17:02:49</time></trkpt><trkpt lat="67.8867013" lon="33.0004671"><time>2022-08-20T17:03:03</time></trkpt><trkpt lat="67.8866983" lon="33.0004665"><time>2022-08-20T17:03:07</time></trkpt><trkpt lat="67.8866674" lon="33.0005957"><time>2022-08-20T17:03:13</time></trkpt><trkpt lat="67.8866590" lon="33.0006807"><time>2022-08-20T17:03:26</time></trkpt><trkpt lat="67.8866139" lon="33.0008067"><time>2022-08-20T17:03:38</time></trkpt><trkpt lat="67.8865063" lon="33.0012053"><time>2022-08-20T17:03:54</time></trkpt><trkpt lat="67.8863767" lon="33.0018265"><time>2022-08-20T17:04:10</time></trkpt><trkpt lat="67.8863471" lon="33.0019950"><time>2022-08-20T17:04:17</time></trkpt><trkpt lat="67.8862746" lon="33.0024363"><time>2022-08-20T17:04:29</time></trkpt><trkpt lat="67.8861883" lon="33.0029225"><time>2022-08-20T17:04:41</time></trkpt><trkpt lat="67.8861292" lon="33.0034420"><time>2022-08-20T17:04:54</time></trkpt><trkpt lat="67.8861119" lon="33.0038651"><time>2022-08-20T17:05:05</time></trkpt><trkpt lat="67.8861163" lon="33.0044079"><time>2022-08-20T17:05:22</time></trkpt><trkpt lat="67.8860934" lon="33.0052365"><time>2022-08-20T17:05:40</time></trkpt><trkpt lat="67.8860908" lon="33.0057010"><time>2022-08-20T17:05:54</time></trkpt><trkpt lat="67.8861035" lon="33.0062619"><time>2022-08-20T17:06:12</time></trkpt><trkpt lat="67.8860956" lon="33.0067167"><time>2022-08-20T17:06:27</time></trkpt><trkpt lat="67.8860957" lon="33.0071947"><time>2022-08-20T17:06:40</time></trkpt><trkpt lat="67.8860900" lon="33.0075128"><time>2022-08-20T17:06:49</time></trkpt><trkpt lat="67.8861203" lon="33.0076647"><time>2022-08-20T17:06:58</time></trkpt><trkpt lat="67.8861240" lon="33.0076951"><time>2022-08-20T17:07:02</time></trkpt><trkpt lat="67.8861147" lon="33.0078014"><time>2022-08-20T17:07:13</time></trkpt><trkpt lat="67.8860939" lon="33.0078028"><time>2022-08-20T17:07:17</time></trkpt><trkpt lat="67.8860806" lon="33.0079535"><time>2022-08-20T17:07:29</time></trkpt><trkpt lat="67.8860809" lon="33.0079592"><time>2022-08-20T17:07:37</time></trkpt><trkpt lat="67.8860761" lon="33.0079678"><time>2022-08-20T17:07:49</time></trkpt><trkpt lat="67.8860813" lon="33.0080105"><time>2022-08-20T17:08:12</time></trkpt><trkpt lat="67.8860814" lon="33.0080043"><time>2022-08-20T17:08:32</time></trkpt><trkpt lat="67.8860840" lon="33.0080277"><time>2022-08-20T17:09:02</time></trkpt><trkpt lat="67.8860765" lon="33.0080095"><time>2022-08-20T17:09:30</time></trkpt><trkpt lat="67.8860895" lon="33.0080176"><time>2022-08-20T17:09:53</time></trkpt><trkpt lat="67.8860854" lon="33.0080176"><time>2022-08-20T17:09:58</time></trkpt><trkpt lat="67.8860783" lon="33.0081628"><time>2022-08-20T17:10:09</time></trkpt><trkpt lat="67.8860637" lon="33.0085114"><time>2022-08-20T17:10:20</time></trkpt><trkpt lat="67.8860609" lon="33.0090217"><time>2022-08-20T17:10:35</time></trkpt><trkpt lat="67.8860712" lon="33.0095546"><time>2022-08-20T17:10:50</time></trkpt><trkpt lat="67.8860744" lon="33.0100243"><time>2022-08-20T17:11:02</time></trkpt><trkpt lat="67.8860866" lon="33.0106012"><time>2022-08-20T17:11:14</time></trkpt><trkpt lat="67.8860904" lon="33.0108968"><time>2022-08-20T17:11:21</time></trkpt><trkpt lat="67.8860892" lon="33.0112970"><time>2022-08-20T17:11:31</time></trkpt><trkpt lat="67.8861011" lon="33.0116759"><time>2022-08-20T17:11:41</time></trkpt><trkpt lat="67.8861021" lon="33.0118453"><time>2022-08-20T17:11:45</time></trkpt><trkpt lat="67.8860973" lon="33.0122447"><time>2022-08-20T17:11:54</time></trkpt><trkpt lat="67.8860906" lon="33.0126694"><time>2022-08-20T17:12:05</time></trkpt><trkpt lat="67.8860636" lon="33.0131602"><time>2022-08-20T17:12:18</time></trkpt><trkpt lat="67.8860601" lon="33.0135027"><time>2022-08-20T17:12:26</time></trkpt><trkpt lat="67.8860564" lon="33.0135602"><time>2022-08-20T17:12:28</time></trkpt><trkpt lat="67.8860436" lon="33.0138236"><time>2022-08-20T17:12:34</time></trkpt><trkpt lat="67.8859945" lon="33.0142921"><time>2022-08-20T17:12:47</time></trkpt><trkpt lat="67.8859578" lon="33.0147099"><time>2022-08-20T17:12:57</time></trkpt><trkpt lat="67.8859125" lon="33.0151716"><time>2022-08-20T17:13:09</time></trkpt><trkpt lat="67.8858423" lon="33.0157240"><time>2022-08-20T17:13:23</time></trkpt><trkpt lat="67.8857733" lon="33.0163279"><time>2022-08-20T17:13:38</time></trkpt><trkpt lat="67.8857707" lon="33.0163814"><time>2022-08-20T17:13:40</time></trkpt><trkpt lat="67.8856980" lon="33.0169305"><time>2022-08-20T17:13:53</time></trkpt><trkpt lat="67.8856552" lon="33.0173508"><time>2022-08-20T17:14:04</time></trkpt><trkpt lat="67.8856008" lon="33.0177589"><time>2022-08-20T17:14:14</time></trkpt><trkpt lat="67.8855768" lon="33.0179330"><time>2022-08-20T17:14:18</time></trkpt><trkpt lat="67.8855411" lon="33.0181788"><time>2022-08-20T17:14:25</time></trkpt><trkpt lat="67.8855261" lon="33.0183227"><time>2022-08-20T17:14:28</time></trkpt><trkpt lat="67.8854714" lon="33.0187913"><time>2022-08-20T17:14:40</time></trkpt><trkpt lat="67.8854424" lon="33.0189877"><time>2022-08-20T17:14:45</time></trkpt><trkpt lat="67.8853965" lon="33.0193535"><time>2022-08-20T17:14:55</time></trkpt><trkpt lat="67.8853282" lon="33.0199030"><time>2022-08-20T17:15:09</time></trkpt><trkpt lat="67.8853051" lon="33.0200814"><time>2022-08-20T17:15:14</time></trkpt><trkpt lat="67.8852456" lon="33.0205359"><time>2022-08-20T17:15:26</time></trkpt><trkpt lat="67.8851555" lon="33.0210531"><time>2022-08-20T17:15:39</time></trkpt><trkpt lat="67.8851466" lon="33.0210866"><time>2022-08-20T17:15:40</time></trkpt><trkpt lat="67.8851364" lon="33.0211442"><time>2022-08-20T17:15:42</time></trkpt><trkpt lat="67.8850474" lon="33.0214499"><time>2022-08-20T17:15:52</time></trkpt><trkpt lat="67.8850154" lon="33.0215960"><time>2022-08-20T17:15:56</time></trkpt><trkpt lat="67.8849121" lon="33.0219668"><time>2022-08-20T17:16:07</time></trkpt><trkpt lat="67.8848356" lon="33.0222449"><time>2022-08-20T17:16:16</time></trkpt><trkpt lat="67.8847935" lon="33.0223863"><time>2022-08-20T17:16:20</time></trkpt><trkpt lat="67.8847330" lon="33.0225816"><time>2022-08-20T17:16:26</time></trkpt><trkpt lat="67.8846822" lon="33.0227316"><time>2022-08-20T17:16:32</time></trkpt><trkpt lat="67.8846374" lon="33.0228862"><time>2022-08-20T17:16:36</time></trkpt><trkpt lat="67.8845938" lon="33.0230100"><time>2022-08-20T17:16:41</time></trkpt><trkpt lat="67.8844893" lon="33.0233684"><time>2022-08-20T17:16:53</time></trkpt><trkpt lat="67.8844402" lon="33.0235048"><time>2022-08-20T17:16:57</time></trkpt><trkpt lat="67.8843281" lon="33.0239488"><time>2022-08-20T17:17:10</time></trkpt><trkpt lat="67.8842854" lon="33.0240787"><time>2022-08-20T17:17:14</time></trkpt><trkpt lat="67.8841600" lon="33.0245814"><time>2022-08-20T17:17:28</time></trkpt><trkpt lat="67.8840074" lon="33.0250691"><time>2022-08-20T17:17:43</time></trkpt><trkpt lat="67.8838828" lon="33.0255253"><time>2022-08-20T17:17:56</time></trkpt><trkpt lat="67.8838664" lon="33.0255903"><time>2022-08-20T17:17:58</time></trkpt><trkpt lat="67.8837904" lon="33.0258776"><time>2022-08-20T17:18:07</time></trkpt><trkpt lat="67.8836888" lon="33.0262365"><time>2022-08-20T17:18:19</time></trkpt><trkpt lat="67.8835648" lon="33.0264819"><time>2022-08-20T17:18:29</time></trkpt><trkpt lat="67.8834664" lon="33.0267874"><time>2022-08-20T17:18:38</time></trkpt><trkpt lat="67.8833131" lon="33.0271522"><time>2022-08-20T17:18:50</time></trkpt><trkpt lat="67.8832676" lon="33.0272551"><time>2022-08-20T17:18:55</time></trkpt><trkpt lat="67.8831526" lon="33.0275997"><time>2022-08-20T17:19:05</time></trkpt><trkpt lat="67.8830903" lon="33.0278054"><time>2022-08-20T17:19:11</time></trkpt><trkpt lat="67.8829463" lon="33.0281212"><time>2022-08-20T17:19:23</time></trkpt><trkpt lat="67.8828627" lon="33.0283976"><time>2022-08-20T17:19:31</time></trkpt><trkpt lat="67.8827713" lon="33.0288070"><time>2022-08-20T17:19:42</time></trkpt><trkpt lat="67.8825973" lon="33.0293259"><time>2022-08-20T17:19:58</time></trkpt><trkpt lat="67.8825828" lon="33.0293764"><time>2022-08-20T17:20:00</time></trkpt><trkpt lat="67.8825579" lon="33.0294490"><time>2022-08-20T17:20:02</time></trkpt><trkpt lat="67.8824735" lon="33.0297015"><time>2022-08-20T17:20:10</time></trkpt><trkpt lat="67.8823911" lon="33.0299531"><time>2022-08-20T17:20:18</time></trkpt><trkpt lat="67.8822604" lon="33.0302808"><time>2022-08-20T17:20:29</time></trkpt><trkpt lat="67.8822060" lon="33.0304403"><time>2022-08-20T17:20:35</time></trkpt><trkpt lat="67.8821341" lon="33.0307366"><time>2022-08-20T17:20:43</time></trkpt><trkpt lat="67.8820276" lon="33.0311131"><time>2022-08-20T17:20:55</time></trkpt><trkpt lat="67.8819012" lon="33.0314750"><time>2022-08-20T17:21:07</time></trkpt><trkpt lat="67.8817705" lon="33.0318496"><time>2022-08-20T17:21:19</time></trkpt><trkpt lat="67.8817550" lon="33.0318772"><time>2022-08-20T17:21:20</time></trkpt><trkpt lat="67.8816157" lon="33.0323089"><time>2022-08-20T17:21:33</time></trkpt><trkpt lat="67.8814904" lon="33.0326847"><time>2022-08-20T17:21:45</time></trkpt><trkpt lat="67.8813746" lon="33.0330236"><time>2022-08-20T17:21:56</time></trkpt><trkpt lat="67.8812415" lon="33.0333100"><time>2022-08-20T17:22:06</time></trkpt><trkpt lat="67.8811446" lon="33.0337495"><time>2022-08-20T17:22:18</time></trkpt><trkpt lat="67.8810608" lon="33.0342033"><time>2022-08-20T17:22:29</time></trkpt><trkpt lat="67.8810029" lon="33.0347331"><time>2022-08-20T17:22:42</time></trkpt><trkpt lat="67.8809679" lon="33.0349564"><time>2022-08-20T17:22:48</time></trkpt><trkpt lat="67.8809390" lon="33.0352618"><time>2022-08-20T17:22:56</time></trkpt><trkpt lat="67.8809285" lon="33.0357879"><time>2022-08-20T17:23:08</time></trkpt><trkpt lat="67.8809280" lon="33.0363013"><time>2022-08-20T17:23:20</time></trkpt><trkpt lat="67.8809267" lon="33.0367329"><time>2022-08-20T17:23:30</time></trkpt><trkpt lat="67.8809288" lon="33.0367635"><time>2022-08-20T17:23:31</time></trkpt><trkpt lat="67.8809349" lon="33.0368555"><time>2022-08-20T17:23:33</time></trkpt><trkpt lat="67.8809320" lon="33.0369994"><time>2022-08-20T17:23:36</time></trkpt><trkpt lat="67.8809384" lon="33.0371503"><time>2022-08-20T17:23:40</time></trkpt><trkpt lat="67.8809302" lon="33.0375233"><time>2022-08-20T17:23:48</time></trkpt><trkpt lat="67.8809271" lon="33.0380202"><time>2022-08-20T17:24:00</time></trkpt><trkpt lat="67.8809246" lon="33.0381072"><time>2022-08-20T17:24:02</time></trkpt><trkpt lat="67.8809155" lon="33.0386502"><time>2022-08-20T17:24:15</time></trkpt><trkpt lat="67.8809150" lon="33.0388430"><time>2022-08-20T17:24:19</time></trkpt><trkpt lat="67.8809091" lon="33.0394310"><time>2022-08-20T17:24:33</time></trkpt><trkpt lat="67.8809139" lon="33.0399471"><time>2022-08-20T17:24:45</time></trkpt><trkpt lat="67.8809221" lon="33.0404286"><time>2022-08-20T17:24:55</time></trkpt><trkpt lat="67.8809195" lon="33.0409107"><time>2022-08-20T17:25:07</time></trkpt><trkpt lat="67.8809059" lon="33.0411811"><time>2022-08-20T17:25:13</time></trkpt><trkpt lat="67.8809167" lon="33.0417190"><time>2022-08-20T17:25:25</time></trkpt><trkpt lat="67.8809154" lon="33.0418490"><time>2022-08-20T17:25:29</time></trkpt><trkpt lat="67.8809046" lon="33.0423349"><time>2022-08-20T17:25:39</time></trkpt><trkpt lat="67.8809655" lon="33.0429708"><time>2022-08-20T17:25:53</time></trkpt><trkpt lat="67.8809709" lon="33.0432238"><time>2022-08-20T17:25:59</time></trkpt><trkpt lat="67.8809707" lon="33.0436606"><time>2022-08-20T17:26:09</time></trkpt><trkpt lat="67.8809725" lon="33.0436885"><time>2022-08-20T17:26:10</time></trkpt><trkpt lat="67.8810376" lon="33.0440849"><time>2022-08-20T17:26:22</time></trkpt><trkpt lat="67.8810567" lon="33.0440619"><time>2022-08-20T17:26:24</time></trkpt><trkpt lat="67.8810936" lon="33.0439081"><time>2022-08-20T17:26:28</time></trkpt><trkpt lat="67.8812356" lon="33.0434296"><time>2022-08-20T17:26:42</time></trkpt><trkpt lat="67.8812554" lon="33.0433818"><time>2022-08-20T17:26:44</time></trkpt><trkpt lat="67.8813955" lon="33.0430040"><time>2022-08-20T17:26:57</time></trkpt><trkpt lat="67.8814091" lon="33.0429440"><time>2022-08-20T17:26:59</time></trkpt><trkpt lat="67.8815175" lon="33.0425621"><time>2022-08-20T17:27:12</time></trkpt><trkpt lat="67.8815595" lon="33.0424110"><time>2022-08-20T17:27:16</time></trkpt><trkpt lat="67.8816153" lon="33.0422979"><time>2022-08-20T17:27:22</time></trkpt><trkpt lat="67.8817331" lon="33.0422045"><time>2022-08-20T17:27:30</time></trkpt><trkpt lat="67.8817987" lon="33.0422237"><time>2022-08-20T17:27:34</time></trkpt><trkpt lat="67.8818140" lon="33.0422406"><time>2022-08-20T17:27:35</time></trkpt><trkpt lat="67.8819076" lon="33.0422850"><time>2022-08-20T17:27:45</time></trkpt><trkpt lat="67.8819556" lon="33.0423581"><time>2022-08-20T17:27:51</time></trkpt><trkpt lat="67.8819817" lon="33.0424059"><time>2022-08-20T17:27:54</time></trkpt><trkpt lat="67.8820505" lon="33.0426281"><time>2022-08-20T17:28:01</time></trkpt><trkpt lat="67.8820886" lon="33.0427257"><time>2022-08-20T17:28:05</time></trkpt><trkpt lat="67.8822170" lon="33.0431362"><time>2022-08-20T17:28:19</time></trkpt><trkpt lat="67.8823329" lon="33.0435540"><time>2022-08-20T17:28:33</time></trkpt><trkpt lat="67.8823891" lon="33.0437473"><time>2022-08-20T17:28:38</time></trkpt><trkpt lat="67.8824307" lon="33.0438635"><time>2022-08-20T17:28:42</time></trkpt><trkpt lat="67.8825211" lon="33.0441981"><time>2022-08-20T17:28:56</time></trkpt><trkpt lat="67.8826254" lon="33.0445996"><time>2022-08-20T17:29:08</time></trkpt><trkpt lat="67.8827379" lon="33.0450947"><time>2022-08-20T17:29:23</time></trkpt><trkpt lat="67.8827744" lon="33.0452693"><time>2022-08-20T17:29:28</time></trkpt><trkpt lat="67.8828959" lon="33.0456772"><time>2022-08-20T17:29:41</time></trkpt><trkpt lat="67.8829280" lon="33.0458362"><time>2022-08-20T17:29:46</time></trkpt><trkpt lat="67.8830407" lon="33.0462678"><time>2022-08-20T17:30:00</time></trkpt><trkpt lat="67.8831218" lon="33.0466749"><time>2022-08-20T17:30:11</time></trkpt><trkpt lat="67.8832225" lon="33.0471859"><time>2022-08-20T17:30:24</time></trkpt><trkpt lat="67.8833051" lon="33.0475937"><time>2022-08-20T17:30:36</time></trkpt><trkpt lat="67.8833463" lon="33.0478103"><time>2022-08-20T17:30:42</time></trkpt><trkpt lat="67.8833535" lon="33.0478462"><time>2022-08-20T17:30:43</time></trkpt><trkpt lat="67.8834115" lon="33.0484096"><time>2022-08-20T17:30:56</time></trkpt><trkpt lat="67.8834276" lon="33.0485158"><time>2022-08-20T17:31:00</time></trkpt><trkpt lat="67.8834597" lon="33.0489323"><time>2022-08-20T17:31:13</time></trkpt><trkpt lat="67.8835048" lon="33.0492137"><time>2022-08-20T17:31:23</time></trkpt><trkpt lat="67.8835141" lon="33.0496959"><time>2022-08-20T17:31:36</time></trkpt><trkpt lat="67.8835399" lon="33.0503053"><time>2022-08-20T17:31:50</time></trkpt><trkpt lat="67.8835416" lon="33.0504126"><time>2022-08-20T17:31:54</time></trkpt><trkpt lat="67.8835618" lon="33.0506070"><time>2022-08-20T17:31:58</time></trkpt><trkpt lat="67.8835726" lon="33.0507269"><time>2022-08-20T17:32:01</time></trkpt><trkpt lat="67.8836051" lon="33.0511856"><time>2022-08-20T17:32:12</time></trkpt><trkpt lat="67.8836080" lon="33.0514866"><time>2022-08-20T17:32:25</time></trkpt><trkpt lat="67.8836115" lon="33.0516340"><time>2022-08-20T17:32:41</time></trkpt><trkpt lat="67.8836107" lon="33.0516849"><time>2022-08-20T17:33:06</time></trkpt><trkpt lat="67.8835982" lon="33.0522417"><time>2022-08-20T17:33:21</time></trkpt><trkpt lat="67.8836246" lon="33.0524262"><time>2022-08-20T17:33:31</time></trkpt><trkpt lat="67.8836240" lon="33.0527109"><time>2022-08-20T17:33:42</time></trkpt><trkpt lat="67.8836312" lon="33.0529027"><time>2022-08-20T17:33:47</time></trkpt><trkpt lat="67.8836343" lon="33.0530499"><time>2022-08-20T17:33:51</time></trkpt><trkpt lat="67.8836390" lon="33.0533640"><time>2022-08-20T17:33:59</time></trkpt><trkpt lat="67.8836789" lon="33.0536157"><time>2022-08-20T17:34:10</time></trkpt><trkpt lat="67.8837435" lon="33.0538625"><time>2022-08-20T17:34:17</time></trkpt><trkpt lat="67.8838607" lon="33.0540324"><time>2022-08-20T17:34:30</time></trkpt><trkpt lat="67.8838813" lon="33.0540448"><time>2022-08-20T17:34:33</time></trkpt><trkpt lat="67.8839064" lon="33.0540331"><time>2022-08-20T17:34:35</time></trkpt><trkpt lat="67.8840364" lon="33.0539506"><time>2022-08-20T17:34:48</time></trkpt><trkpt lat="67.8841406" lon="33.0537879"><time>2022-08-20T17:35:03</time></trkpt><trkpt lat="67.8842766" lon="33.0533242"><time>2022-08-20T17:35:18</time></trkpt><trkpt lat="67.8844067" lon="33.0528218"><time>2022-08-20T17:35:37</time></trkpt><trkpt lat="67.8845587" lon="33.0524967"><time>2022-08-20T17:35:50</time></trkpt><trkpt lat="67.8845773" lon="33.0524756"><time>2022-08-20T17:35:52</time></trkpt><trkpt lat="67.8847741" lon="33.0526565"><time>2022-08-20T17:36:05</time></trkpt><trkpt lat="67.8849381" lon="33.0530536"><time>2022-08-20T17:36:20</time></trkpt><trkpt lat="67.8849497" lon="33.0530784"><time>2022-08-20T17:36:23</time></trkpt><trkpt lat="67.8849703" lon="33.0531207"><time>2022-08-20T17:36:36</time></trkpt><trkpt lat="67.8849650" lon="33.0531135"><time>2022-08-20T17:36:37</time></trkpt><trkpt lat="67.8849141" lon="33.0530486"><time>2022-08-20T17:36:41</time></trkpt><trkpt lat="67.8848216" lon="33.0528505"><time>2022-08-20T17:36:52</time></trkpt><trkpt lat="67.8848274" lon="33.0528662"><time>2022-08-20T17:37:05</time></trkpt><trkpt lat="67.8847476" lon="33.0525416"><time>2022-08-20T17:37:15</time></trkpt><trkpt lat="67.8846819" lon="33.0524005"><time>2022-08-20T17:37:25</time></trkpt><trkpt lat="67.8846050" lon="33.0524625"><time>2022-08-20T17:37:29</time></trkpt><trkpt lat="67.8844260" lon="33.0528453"><time>2022-08-20T17:37:44</time></trkpt><trkpt lat="67.8843042" lon="33.0532216"><time>2022-08-20T17:37:58</time></trkpt><trkpt lat="67.8841776" lon="33.0536838"><time>2022-08-20T17:38:11</time></trkpt><trkpt lat="67.8840685" lon="33.0538318"><time>2022-08-20T17:38:22</time></trkpt><trkpt lat="67.8838591" lon="33.0538845"><time>2022-08-20T17:38:35</time></trkpt><trkpt lat="67.8837322" lon="33.0539875"><time>2022-08-20T17:38:47</time></trkpt><trkpt lat="67.8837082" lon="33.0542355"><time>2022-08-20T17:39:03</time></trkpt><trkpt lat="67.8837219" lon="33.0547122"><time>2022-08-20T17:39:19</time></trkpt><trkpt lat="67.8837685" lon="33.0548552"><time>2022-08-20T17:39:24</time></trkpt><trkpt lat="67.8838021" lon="33.0549360"><time>2022-08-20T17:39:26</time></trkpt><trkpt lat="67.8840605" lon="33.0552688"><time>2022-08-20T17:39:46</time></trkpt><trkpt lat="67.8841062" lon="33.0552880"><time>2022-08-20T17:39:50</time></trkpt><trkpt lat="67.8842823" lon="33.0554063"><time>2022-08-20T17:40:02</time></trkpt><trkpt lat="67.8845144" lon="33.0556187"><time>2022-08-20T17:40:18</time></trkpt><trkpt lat="67.8845899" lon="33.0557890"><time>2022-08-20T17:40:24</time></trkpt><trkpt lat="67.8846087" lon="33.0559919"><time>2022-08-20T17:40:32</time></trkpt><trkpt lat="67.8847040" lon="33.0565102"><time>2022-08-20T17:40:46</time></trkpt><trkpt lat="67.8847257" lon="33.0566957"><time>2022-08-20T17:40:55</time></trkpt><trkpt lat="67.8847511" lon="33.0569769"><time>2022-08-20T17:41:03</time></trkpt><trkpt lat="67.8847804" lon="33.0575166"><time>2022-08-20T17:41:18</time></trkpt><trkpt lat="67.8847366" lon="33.0577797"><time>2022-08-20T17:41:30</time></trkpt><trkpt lat="67.8847130" lon="33.0584495"><time>2022-08-20T17:41:46</time></trkpt><trkpt lat="67.8847182" lon="33.0585247"><time>2022-08-20T17:41:48</time></trkpt><trkpt lat="67.8846185" lon="33.0588361"><time>2022-08-20T17:42:03</time></trkpt><trkpt lat="67.8845463" lon="33.0590981"><time>2022-08-20T17:42:13</time></trkpt><trkpt lat="67.8844460" lon="33.0594506"><time>2022-08-20T17:42:26</time></trkpt><trkpt lat="67.8844475" lon="33.0595593"><time>2022-08-20T17:42:29</time></trkpt><trkpt lat="67.8844931" lon="33.0598946"><time>2022-08-20T17:42:39</time></trkpt><trkpt lat="67.8845264" lon="33.0604097"><time>2022-08-20T17:42:51</time></trkpt><trkpt lat="67.8846022" lon="33.0608732"><time>2022-08-20T17:43:03</time></trkpt><trkpt lat="67.8846958" lon="33.0611248"><time>2022-08-20T17:43:16</time></trkpt><trkpt lat="67.8847821" lon="33.0612233"><time>2022-08-20T17:43:22</time></trkpt><trkpt lat="67.8848552" lon="33.0612650"><time>2022-08-20T17:43:34</time></trkpt><trkpt lat="67.8849238" lon="33.0613880"><time>2022-08-20T17:43:42</time></trkpt><trkpt lat="67.8849912" lon="33.0614070"><time>2022-08-20T17:43:46</time></trkpt><trkpt lat="67.8850450" lon="33.0614857"><time>2022-08-20T17:43:50</time></trkpt><trkpt lat="67.8851062" lon="33.0616308"><time>2022-08-20T17:44:02</time></trkpt><trkpt lat="67.8851093" lon="33.0616858"><time>2022-08-20T17:44:04</time></trkpt><trkpt lat="67.8852267" lon="33.0620329"><time>2022-08-20T17:44:15</time></trkpt><trkpt lat="67.8853130" lon="33.0622047"><time>2022-08-20T17:44:25</time></trkpt><trkpt lat="67.8853933" lon="33.0624263"><time>2022-08-20T17:44:35</time></trkpt><trkpt lat="67.8854179" lon="33.0624755"><time>2022-08-20T17:44:38</time></trkpt><trkpt lat="67.8854533" lon="33.0626756"><time>2022-08-20T17:44:49</time></trkpt><trkpt lat="67.8855223" lon="33.0629997"><time>2022-08-20T17:45:00</time></trkpt><trkpt lat="67.8855437" lon="33.0631347"><time>2022-08-20T17:45:08</time></trkpt><trkpt lat="67.8856034" lon="33.0632211"><time>2022-08-20T17:45:17</time></trkpt><trkpt lat="67.8855826" lon="33.0634036"><time>2022-08-20T17:45:29</time></trkpt><trkpt lat="67.8855864" lon="33.0634919"><time>2022-08-20T17:45:38</time></trkpt><trkpt lat="67.8855941" lon="33.0635200"><time>2022-08-20T17:45:39</time></trkpt><trkpt lat="67.8856615" lon="33.0636765"><time>2022-08-20T17:45:47</time></trkpt><trkpt lat="67.8858390" lon="33.0637137"><time>2022-08-20T17:46:02</time></trkpt><trkpt lat="67.8859529" lon="33.0637171"><time>2022-08-20T17:46:16</time></trkpt><trkpt lat="67.8859881" lon="33.0639305"><time>2022-08-20T17:46:24</time></trkpt><trkpt lat="67.8860602" lon="33.0641487"><time>2022-08-20T17:46:32</time></trkpt><trkpt lat="67.8861674" lon="33.0641195"><time>2022-08-20T17:46:38</time></trkpt><trkpt lat="67.8862522" lon="33.0641181"><time>2022-08-20T17:46:50</time></trkpt><trkpt lat="67.8863432" lon="33.0640887"><time>2022-08-20T17:46:56</time></trkpt><trkpt lat="67.8865136" lon="33.0640780"><time>2022-08-20T17:47:09</time></trkpt><trkpt lat="67.8866896" lon="33.0640450"><time>2022-08-20T17:47:26</time></trkpt><trkpt lat="67.8867800" lon="33.0641360"><time>2022-08-20T17:47:40</time></trkpt><trkpt lat="67.8868159" lon="33.0642331"><time>2022-08-20T17:47:45</time></trkpt><trkpt lat="67.8868665" lon="33.0643641"><time>2022-08-20T17:47:52</time></trkpt><trkpt lat="67.8870296" lon="33.0645669"><time>2022-08-20T17:48:05</time></trkpt><trkpt lat="67.8871023" lon="33.0646343"><time>2022-08-20T17:48:17</time></trkpt><trkpt lat="67.8871729" lon="33.0646834"><time>2022-08-20T17:48:23</time></trkpt><trkpt lat="67.8872178" lon="33.0647073"><time>2022-08-20T17:48:27</time></trkpt><trkpt lat="67.8873738" lon="33.0648370"><time>2022-08-20T17:48:41</time></trkpt><trkpt lat="67.8873977" lon="33.0649419"><time>2022-08-20T17:48:46</time></trkpt><trkpt lat="67.8875344" lon="33.0651350"><time>2022-08-20T17:49:02</time></trkpt><trkpt lat="67.8876353" lon="33.0653465"><time>2022-08-20T17:49:15</time></trkpt><trkpt lat="67.8877237" lon="33.0654170"><time>2022-08-20T17:49:24</time></trkpt><trkpt lat="67.8877506" lon="33.0654158"><time>2022-08-20T17:49:32</time></trkpt><trkpt lat="67.8877672" lon="33.0654791"><time>2022-08-20T17:49:36</time></trkpt><trkpt lat="67.8878129" lon="33.0655848"><time>2022-08-20T17:49:44</time></trkpt><trkpt lat="67.8879006" lon="33.0657210"><time>2022-08-20T17:49:58</time></trkpt><trkpt lat="67.8879342" lon="33.0657863"><time>2022-08-20T17:50:05</time></trkpt><trkpt lat="67.8880358" lon="33.0658395"><time>2022-08-20T17:50:17</time></trkpt><trkpt lat="67.8880426" lon="33.0658443"><time>2022-08-20T17:50:18</time></trkpt><trkpt lat="67.8880783" lon="33.0658729"><time>2022-08-20T17:50:22</time></trkpt><trkpt lat="67.8881477" lon="33.0660105"><time>2022-08-20T17:50:34</time></trkpt><trkpt lat="67.8881634" lon="33.0660212"><time>2022-08-20T17:50:41</time></trkpt><trkpt lat="67.8881853" lon="33.0660487"><time>2022-08-20T17:50:55</time></trkpt><trkpt lat="67.8881884" lon="33.0660507"><time>2022-08-20T17:51:21</time></trkpt><trkpt lat="67.8882602" lon="33.0662367"><time>2022-08-20T17:51:45</time></trkpt><trkpt lat="67.8882733" lon="33.0663701"><time>2022-08-20T17:51:50</time></trkpt><trkpt lat="67.8882855" lon="33.0664097"><time>2022-08-20T17:51:52</time></trkpt><trkpt lat="67.8883153" lon="33.0667436"><time>2022-08-20T17:52:08</time></trkpt><trkpt lat="67.8883906" lon="33.0669691"><time>2022-08-20T17:52:22</time></trkpt><trkpt lat="67.8884058" lon="33.0673300"><time>2022-08-20T17:52:38</time></trkpt><trkpt lat="67.8884192" lon="33.0677260"><time>2022-08-20T17:52:56</time></trkpt><trkpt lat="67.8884717" lon="33.0679581"><time>2022-08-20T17:53:10</time></trkpt><trkpt lat="67.8884902" lon="33.0682260"><time>2022-08-20T17:53:24</time></trkpt><trkpt lat="67.8884870" lon="33.0685125"><time>2022-08-20T17:53:40</time></trkpt><trkpt lat="67.8884989" lon="33.0687911"><time>2022-08-20T17:53:55</time></trkpt><trkpt lat="67.8885155" lon="33.0691575"><time>2022-08-20T17:54:12</time></trkpt><trkpt lat="67.8885814" lon="33.0693973"><time>2022-08-20T17:54:27</time></trkpt><trkpt lat="67.8886687" lon="33.0694965"><time>2022-08-20T17:54:42</time></trkpt><trkpt lat="67.8887111" lon="33.0694955"><time>2022-08-20T17:54:57</time></trkpt><trkpt lat="67.8887306" lon="33.0695164"><time>2022-08-20T17:55:14</time></trkpt><trkpt lat="67.8887763" lon="33.0695921"><time>2022-08-20T17:55:31</time></trkpt><trkpt lat="67.8887824" lon="33.0696272"><time>2022-08-20T17:55:48</time></trkpt><trkpt lat="67.8887838" lon="33.0697420"><time>2022-08-20T17:56:02</time></trkpt><trkpt lat="67.8887807" lon="33.0697071"><time>2022-08-20T17:56:24</time></trkpt><trkpt lat="67.8887507" lon="33.0694996"><time>2022-08-20T17:56:36</time></trkpt><trkpt lat="67.8886857" lon="33.0695511"><time>2022-08-20T17:56:49</time></trkpt><trkpt lat="67.8886696" lon="33.0697933"><time>2022-08-20T17:57:03</time></trkpt><trkpt lat="67.8887133" lon="33.0699556"><time>2022-08-20T17:57:17</time></trkpt><trkpt lat="67.8887284" lon="33.0702176"><time>2022-08-20T17:57:33</time></trkpt><trkpt lat="67.8887261" lon="33.0704323"><time>2022-08-20T17:57:47</time></trkpt><trkpt lat="67.8887203" lon="33.0705337"><time>2022-08-20T17:58:00</time></trkpt><trkpt lat="67.8887450" lon="33.0707121"><time>2022-08-20T17:58:12</time></trkpt><trkpt lat="67.8888041" lon="33.0707614"><time>2022-08-20T17:58:25</time></trkpt><trkpt lat="67.8888127" lon="33.0707422"><time>2022-08-20T17:58:29</time></trkpt><trkpt lat="67.8888189" lon="33.0707537"><time>2022-08-20T17:58:49</time></trkpt><trkpt lat="67.8887800" lon="33.0707444"><time>2022-08-20T17:59:02</time></trkpt><trkpt lat="67.8887372" lon="33.0707936"><time>2022-08-20T17:59:19</time></trkpt><trkpt lat="67.8888444" lon="33.0709464"><time>2022-08-20T17:59:37</time></trkpt><trkpt lat="67.8889058" lon="33.0712390"><time>2022-08-20T17:59:55</time></trkpt><trkpt lat="67.8889185" lon="33.0714719"><time>2022-08-20T18:00:11</time></trkpt><trkpt lat="67.8889466" lon="33.0715960"><time>2022-08-20T18:00:25</time></trkpt><trkpt lat="67.8889750" lon="33.0717595"><time>2022-08-20T18:00:41</time></trkpt><trkpt lat="67.8889652" lon="33.0717727"><time>2022-08-20T18:01:05</time></trkpt><trkpt lat="67.8889751" lon="33.0717843"><time>2022-08-20T18:01:26</time></trkpt><trkpt lat="67.8889614" lon="33.0718050"><time>2022-08-20T18:01:53</time></trkpt><trkpt lat="67.8889593" lon="33.0717946"><time>2022-08-20T18:02:30</time></trkpt><trkpt lat="67.8889633" lon="33.0717893"><time>2022-08-20T18:02:46</time></trkpt><trkpt lat="67.8889676" lon="33.0717329"><time>2022-08-20T18:02:54</time></trkpt><trkpt lat="67.8889110" lon="33.0717084"><time>2022-08-20T18:03:26</time></trkpt><trkpt lat="67.8889306" lon="33.0717767"><time>2022-08-20T18:04:02</time></trkpt><trkpt lat="67.8889368" lon="33.0717771"><time>2022-08-20T18:04:43</time></trkpt><trkpt lat="67.8889573" lon="33.0719009"><time>2022-08-20T18:05:21</time></trkpt><trkpt lat="67.8889531" lon="33.0718286"><time>2022-08-20T18:05:50</time></trkpt><trkpt lat="67.8889370" lon="33.0716892"><time>2022-08-20T18:06:08</time></trkpt><trkpt lat="67.8889035" lon="33.0716404"><time>2022-08-20T18:06:41</time></trkpt><trkpt lat="67.8888883" lon="33.0716359"><time>2022-08-20T18:06:45</time></trkpt><trkpt lat="67.8888289" lon="33.0717046"><time>2022-08-20T18:06:53</time></trkpt><trkpt lat="67.8887845" lon="33.0717056"><time>2022-08-20T18:07:02</time></trkpt><trkpt lat="67.8887450" lon="33.0717991"><time>2022-08-20T18:07:15</time></trkpt><trkpt lat="67.8887305" lon="33.0718367"><time>2022-08-20T18:07:18</time></trkpt><trkpt lat="67.8887116" lon="33.0719045"><time>2022-08-20T18:07:23</time></trkpt><trkpt lat="67.8887015" lon="33.0720175"><time>2022-08-20T18:07:51</time></trkpt><trkpt lat="67.8886983" lon="33.0720116"><time>2022-08-20T18:07:55</time></trkpt><trkpt lat="67.8886336" lon="33.0719322"><time>2022-08-20T18:08:08</time></trkpt><trkpt lat="67.8885452" lon="33.0718330"><time>2022-08-20T18:08:19</time></trkpt><trkpt lat="67.8885114" lon="33.0719343"><time>2022-08-20T18:08:26</time></trkpt><trkpt lat="67.8884952" lon="33.0721472"><time>2022-08-20T18:08:36</time></trkpt><trkpt lat="67.8884784" lon="33.0721585"><time>2022-08-20T18:08:38</time></trkpt><trkpt lat="67.8883738" lon="33.0722462"><time>2022-08-20T18:08:51</time></trkpt><trkpt lat="67.8882878" lon="33.0723745"><time>2022-08-20T18:09:04</time></trkpt><trkpt lat="67.8882032" lon="33.0724457"><time>2022-08-20T18:09:18</time></trkpt><trkpt lat="67.8881658" lon="33.0726446"><time>2022-08-20T18:09:33</time></trkpt><trkpt lat="67.8881995" lon="33.0729032"><time>2022-08-20T18:09:45</time></trkpt><trkpt lat="67.8882118" lon="33.0729230"><time>2022-08-20T18:09:47</time></trkpt><trkpt lat="67.8882365" lon="33.0729882"><time>2022-08-20T18:09:50</time></trkpt><trkpt lat="67.8882804" lon="33.0730015"><time>2022-08-20T18:10:07</time></trkpt><trkpt lat="67.8882708" lon="33.0730202"><time>2022-08-20T18:10:16</time></trkpt><trkpt lat="67.8882797" lon="33.0732032"><time>2022-08-20T18:10:29</time></trkpt><trkpt lat="67.8882757" lon="33.0732145"><time>2022-08-20T18:10:30</time></trkpt><trkpt lat="67.8882601" lon="33.0732740"><time>2022-08-20T18:10:34</time></trkpt><trkpt lat="67.8882753" lon="33.0733557"><time>2022-08-20T18:10:38</time></trkpt><trkpt lat="67.8882861" lon="33.0734031"><time>2022-08-20T18:10:40</time></trkpt><trkpt lat="67.8883077" lon="33.0734540"><time>2022-08-20T18:10:45</time></trkpt><trkpt lat="67.8883109" lon="33.0735285"><time>2022-08-20T18:10:49</time></trkpt><trkpt lat="67.8883065" lon="33.0735709"><time>2022-08-20T18:10:51</time></trkpt><trkpt lat="67.8882785" lon="33.0738303"><time>2022-08-20T18:11:05</time></trkpt><trkpt lat="67.8883679" lon="33.0743726"><time>2022-08-20T18:11:22</time></trkpt><trkpt lat="67.8884253" lon="33.0747412"><time>2022-08-20T18:11:35</time></trkpt><trkpt lat="67.8884536" lon="33.0748574"><time>2022-08-20T18:11:41</time></trkpt><trkpt lat="67.8884950" lon="33.0750312"><time>2022-08-20T18:11:46</time></trkpt><trkpt lat="67.8885560" lon="33.0754254"><time>2022-08-20T18:12:02</time></trkpt><trkpt lat="67.8885323" lon="33.0755972"><time>2022-08-20T18:12:09</time></trkpt><trkpt lat="67.8885737" lon="33.0759934"><time>2022-08-20T18:12:27</time></trkpt><trkpt lat="67.8886005" lon="33.0763201"><time>2022-08-20T18:12:43</time></trkpt><trkpt lat="67.8886126" lon="33.0766942"><time>2022-08-20T18:12:59</time></trkpt><trkpt lat="67.8886122" lon="33.0770358"><time>2022-08-20T18:13:11</time></trkpt><trkpt lat="67.8886102" lon="33.0771058"><time>2022-08-20T18:13:13</time></trkpt><trkpt lat="67.8886052" lon="33.0775142"><time>2022-08-20T18:13:27</time></trkpt><trkpt lat="67.8886137" lon="33.0777735"><time>2022-08-20T18:13:39</time></trkpt><trkpt lat="67.8886244" lon="33.0778094"><time>2022-08-20T18:13:41</time></trkpt><trkpt lat="67.8886453" lon="33.0778507"><time>2022-08-20T18:13:43</time></trkpt><trkpt lat="67.8886542" lon="33.0778776"><time>2022-08-20T18:13:44</time></trkpt><trkpt lat="67.8887074" lon="33.0782315"><time>2022-08-20T18:13:58</time></trkpt><trkpt lat="67.8887200" lon="33.0785713"><time>2022-08-20T18:14:11</time></trkpt><trkpt lat="67.8887827" lon="33.0788282"><time>2022-08-20T18:14:24</time></trkpt><trkpt lat="67.8888041" lon="33.0791395"><time>2022-08-20T18:14:39</time></trkpt><trkpt lat="67.8888918" lon="33.0794180"><time>2022-08-20T18:14:53</time></trkpt><trkpt lat="67.8888926" lon="33.0793738"><time>2022-08-20T18:15:04</time></trkpt><trkpt lat="67.8888954" lon="33.0793785"><time>2022-08-20T18:15:06</time></trkpt><trkpt lat="67.8889559" lon="33.0796628"><time>2022-08-20T18:15:19</time></trkpt><trkpt lat="67.8890685" lon="33.0799307"><time>2022-08-20T18:15:31</time></trkpt><trkpt lat="67.8890890" lon="33.0802118"><time>2022-08-20T18:15:40</time></trkpt><trkpt lat="67.8891858" lon="33.0804723"><time>2022-08-20T18:15:53</time></trkpt><trkpt lat="67.8892021" lon="33.0805351"><time>2022-08-20T18:15:55</time></trkpt><trkpt lat="67.8892387" lon="33.0808889"><time>2022-08-20T18:16:07</time></trkpt><trkpt lat="67.8892495" lon="33.0809582"><time>2022-08-20T18:16:10</time></trkpt><trkpt lat="67.8893536" lon="33.0813402"><time>2022-08-20T18:16:26</time></trkpt><trkpt lat="67.8893618" lon="33.0814348"><time>2022-08-20T18:16:29</time></trkpt><trkpt lat="67.8893928" lon="33.0815250"><time>2022-08-20T18:16:33</time></trkpt><trkpt lat="67.8894027" lon="33.0815669"><time>2022-08-20T18:16:33</time></trkpt><trkpt lat="67.8894023" lon="33.0815646"><time>2022-08-20T18:16:36</time></trkpt><trkpt lat="67.8894027" lon="33.0815669"><time>2022-08-20T18:16:37</time></trkpt><trkpt lat="67.8896150" lon="33.0820716"><time>2022-08-20T18:17:03</time></trkpt><trkpt lat="67.8896690" lon="33.0821539"><time>2022-08-20T18:17:08</time></trkpt><trkpt lat="67.8896945" lon="33.0822422"><time>2022-08-20T18:17:12</time></trkpt><trkpt lat="67.8898022" lon="33.0825616"><time>2022-08-20T18:17:26</time></trkpt><trkpt lat="67.8898070" lon="33.0828149"><time>2022-08-20T18:17:38</time></trkpt><trkpt lat="67.8898199" lon="33.0828638"><time>2022-08-20T18:17:40</time></trkpt><trkpt lat="67.8898893" lon="33.0831202"><time>2022-08-20T18:17:57</time></trkpt><trkpt lat="67.8899965" lon="33.0832017"><time>2022-08-20T18:18:18</time></trkpt><trkpt lat="67.8900913" lon="33.0831360"><time>2022-08-20T18:18:38</time></trkpt><trkpt lat="67.8902560" lon="33.0834358"><time>2022-08-20T18:18:59</time></trkpt><trkpt lat="67.8903038" lon="33.0835288"><time>2022-08-20T18:19:04</time></trkpt><trkpt lat="67.8903560" lon="33.0837198"><time>2022-08-20T18:19:11</time></trkpt><trkpt lat="67.8904119" lon="33.0838394"><time>2022-08-20T18:19:16</time></trkpt><trkpt lat="67.8905220" lon="33.0839480"><time>2022-08-20T18:19:24</time></trkpt><trkpt lat="67.8906257" lon="33.0843057"><time>2022-08-20T18:19:40</time></trkpt><trkpt lat="67.8907269" lon="33.0845237"><time>2022-08-20T18:19:55</time></trkpt><trkpt lat="67.8907310" lon="33.0845426"><time>2022-08-20T18:19:56</time></trkpt><trkpt lat="67.8907426" lon="33.0845941"><time>2022-08-20T18:19:58</time></trkpt><trkpt lat="67.8907803" lon="33.0846604"><time>2022-08-20T18:20:02</time></trkpt><trkpt lat="67.8908428" lon="33.0846890"><time>2022-08-20T18:20:06</time></trkpt><trkpt lat="67.8909651" lon="33.0846127"><time>2022-08-20T18:20:19</time></trkpt><trkpt lat="67.8909297" lon="33.0846426"><time>2022-08-20T18:20:23</time></trkpt><trkpt lat="67.8908764" lon="33.0846189"><time>2022-08-20T18:20:26</time></trkpt><trkpt lat="67.8908369" lon="33.0845886"><time>2022-08-20T18:20:28</time></trkpt><trkpt lat="67.8907983" lon="33.0845279"><time>2022-08-20T18:20:31</time></trkpt><trkpt lat="67.8905865" lon="33.0849525"><time>2022-08-20T18:20:48</time></trkpt><trkpt lat="67.8904464" lon="33.0850855"><time>2022-08-20T18:21:04</time></trkpt><trkpt lat="67.8902828" lon="33.0852215"><time>2022-08-20T18:21:21</time></trkpt><trkpt lat="67.8902515" lon="33.0852381"><time>2022-08-20T18:21:24</time></trkpt><trkpt lat="67.8901022" lon="33.0851267"><time>2022-08-20T18:21:38</time></trkpt><trkpt lat="67.8900820" lon="33.0851242"><time>2022-08-20T18:21:40</time></trkpt><trkpt lat="67.8899162" lon="33.0851405"><time>2022-08-20T18:21:55</time></trkpt><trkpt lat="67.8899043" lon="33.0851396"><time>2022-08-20T18:21:56</time></trkpt><trkpt lat="67.8897888" lon="33.0851375"><time>2022-08-20T18:22:09</time></trkpt><trkpt lat="67.8897743" lon="33.0849764"><time>2022-08-20T18:22:20</time></trkpt><trkpt lat="67.8897891" lon="33.0848823"><time>2022-08-20T18:22:25</time></trkpt><trkpt lat="67.8897755" lon="33.0848191"><time>2022-08-20T18:22:38</time></trkpt><trkpt lat="67.8897701" lon="33.0848376"><time>2022-08-20T18:22:39</time></trkpt><trkpt lat="67.8897615" lon="33.0849167"><time>2022-08-20T18:22:43</time></trkpt><trkpt lat="67.8897230" lon="33.0851137"><time>2022-08-20T18:22:55</time></trkpt><trkpt lat="67.8897135" lon="33.0851202"><time>2022-08-20T18:22:56</time></trkpt><trkpt lat="67.8896192" lon="33.0852760"><time>2022-08-20T18:23:06</time></trkpt><trkpt lat="67.8894799" lon="33.0853461"><time>2022-08-20T18:23:21</time></trkpt><trkpt lat="67.8894139" lon="33.0854620"><time>2022-08-20T18:23:28</time></trkpt><trkpt lat="67.8893544" lon="33.0854596"><time>2022-08-20T18:23:33</time></trkpt><trkpt lat="67.8893128" lon="33.0855022"><time>2022-08-20T18:23:37</time></trkpt><trkpt lat="67.8893038" lon="33.0855152"><time>2022-08-20T18:23:38</time></trkpt><trkpt lat="67.8892295" lon="33.0856041"><time>2022-08-20T18:23:50</time></trkpt><trkpt lat="67.8891776" lon="33.0855957"><time>2022-08-20T18:23:55</time></trkpt><trkpt lat="67.8891187" lon="33.0856015"><time>2022-08-20T18:24:01</time></trkpt><trkpt lat="67.8890739" lon="33.0856682"><time>2022-08-20T18:24:07</time></trkpt><trkpt lat="67.8889882" lon="33.0857509"><time>2022-08-20T18:24:17</time></trkpt><trkpt lat="67.8889586" lon="33.0858342"><time>2022-08-20T18:24:24</time></trkpt><trkpt lat="67.8889118" lon="33.0860106"><time>2022-08-20T18:24:31</time></trkpt><trkpt lat="67.8888348" lon="33.0862277"><time>2022-08-20T18:24:42</time></trkpt><trkpt lat="67.8888281" lon="33.0862386"><time>2022-08-20T18:24:43</time></trkpt><trkpt lat="67.8887802" lon="33.0863028"><time>2022-08-20T18:24:49</time></trkpt><trkpt lat="67.8887387" lon="33.0863599"><time>2022-08-20T18:24:54</time></trkpt><trkpt lat="67.8887038" lon="33.0864867"><time>2022-08-20T18:25:00</time></trkpt><trkpt lat="67.8886888" lon="33.0866658"><time>2022-08-20T18:25:09</time></trkpt><trkpt lat="67.8886372" lon="33.0868840"><time>2022-08-20T18:25:20</time></trkpt><trkpt lat="67.8886126" lon="33.0870785"><time>2022-08-20T18:25:31</time></trkpt><trkpt lat="67.8885480" lon="33.0873227"><time>2022-08-20T18:25:45</time></trkpt><trkpt lat="67.8885313" lon="33.0873587"><time>2022-08-20T18:25:47</time></trkpt><trkpt lat="67.8884800" lon="33.0873769"><time>2022-08-20T18:25:52</time></trkpt><trkpt lat="67.8883830" lon="33.0874850"><time>2022-08-20T18:26:05</time></trkpt><trkpt lat="67.8883504" lon="33.0874858"><time>2022-08-20T18:26:09</time></trkpt><trkpt lat="67.8882739" lon="33.0874914"><time>2022-08-20T18:26:21</time></trkpt><trkpt lat="67.8882447" lon="33.0875038"><time>2022-08-20T18:26:27</time></trkpt><trkpt lat="67.8882016" lon="33.0875201"><time>2022-08-20T18:26:35</time></trkpt><trkpt lat="67.8882040" lon="33.0875116"><time>2022-08-20T18:26:47</time></trkpt><trkpt lat="67.8881460" lon="33.0875986"><time>2022-08-20T18:26:55</time></trkpt><trkpt lat="67.8880399" lon="33.0877825"><time>2022-08-20T18:27:07</time></trkpt><trkpt lat="67.8879302" lon="33.0876976"><time>2022-08-20T18:27:21</time></trkpt><trkpt lat="67.8878680" lon="33.0876851"><time>2022-08-20T18:27:29</time></trkpt><trkpt lat="67.8877729" lon="33.0876630"><time>2022-08-20T18:27:40</time></trkpt><trkpt lat="67.8877085" lon="33.0876579"><time>2022-08-20T18:27:47</time></trkpt><trkpt lat="67.8876062" lon="33.0877114"><time>2022-08-20T18:28:01</time></trkpt><trkpt lat="67.8875558" lon="33.0877247"><time>2022-08-20T18:28:09</time></trkpt><trkpt lat="67.8874489" lon="33.0877378"><time>2022-08-20T18:28:25</time></trkpt><trkpt lat="67.8874386" lon="33.0877386"><time>2022-08-20T18:28:26</time></trkpt><trkpt lat="67.8874160" lon="33.0877347"><time>2022-08-20T18:28:28</time></trkpt><trkpt lat="67.8873981" lon="33.0877165"><time>2022-08-20T18:28:31</time></trkpt><trkpt lat="67.8873652" lon="33.0876876"><time>2022-08-20T18:28:35</time></trkpt><trkpt lat="67.8872264" lon="33.0875397"><time>2022-08-20T18:28:52</time></trkpt><trkpt lat="67.8871228" lon="33.0876548"><time>2022-08-20T18:29:05</time></trkpt><trkpt lat="67.8869924" lon="33.0878073"><time>2022-08-20T18:29:21</time></trkpt><trkpt lat="67.8869528" lon="33.0878270"><time>2022-08-20T18:29:25</time></trkpt><trkpt lat="67.8868965" lon="33.0878811"><time>2022-08-20T18:29:30</time></trkpt><trkpt lat="67.8868571" lon="33.0879001"><time>2022-08-20T18:29:34</time></trkpt><trkpt lat="67.8868387" lon="33.0879065"><time>2022-08-20T18:29:36</time></trkpt><trkpt lat="67.8867407" lon="33.0880133"><time>2022-08-20T18:29:49</time></trkpt><trkpt lat="67.8866745" lon="33.0881575"><time>2022-08-20T18:30:01</time></trkpt><trkpt lat="67.8866482" lon="33.0881746"><time>2022-08-20T18:30:03</time></trkpt><trkpt lat="67.8865615" lon="33.0882259"><time>2022-08-20T18:30:12</time></trkpt><trkpt lat="67.8864250" lon="33.0883850"><time>2022-08-20T18:30:29</time></trkpt><trkpt lat="67.8863440" lon="33.0885590"><time>2022-08-20T18:30:40</time></trkpt><trkpt lat="67.8862172" lon="33.0887483"><time>2022-08-20T18:30:54</time></trkpt><trkpt lat="67.8862022" lon="33.0887764"><time>2022-08-20T18:30:56</time></trkpt><trkpt lat="67.8861072" lon="33.0888812"><time>2022-08-20T18:31:05</time></trkpt><trkpt lat="67.8860910" lon="33.0889053"><time>2022-08-20T18:31:06</time></trkpt><trkpt lat="67.8860827" lon="33.0889153"><time>2022-08-20T18:31:07</time></trkpt><trkpt lat="67.8859598" lon="33.0889897"><time>2022-08-20T18:31:22</time></trkpt><trkpt lat="67.8859470" lon="33.0889953"><time>2022-08-20T18:31:24</time></trkpt><trkpt lat="67.8858878" lon="33.0891556"><time>2022-08-20T18:31:34</time></trkpt><trkpt lat="67.8857380" lon="33.0894456"><time>2022-08-20T18:31:52</time></trkpt><trkpt lat="67.8856223" lon="33.0897064"><time>2022-08-20T18:32:09</time></trkpt><trkpt lat="67.8856048" lon="33.0897168"><time>2022-08-20T18:32:11</time></trkpt><trkpt lat="67.8855618" lon="33.0897376"><time>2022-08-20T18:32:16</time></trkpt><trkpt lat="67.8855482" lon="33.0897342"><time>2022-08-20T18:32:18</time></trkpt><trkpt lat="67.8854360" lon="33.0898174"><time>2022-08-20T18:32:30</time></trkpt><trkpt lat="67.8853023" lon="33.0899457"><time>2022-08-20T18:32:47</time></trkpt><trkpt lat="67.8852273" lon="33.0900312"><time>2022-08-20T18:32:56</time></trkpt><trkpt lat="67.8852101" lon="33.0900742"><time>2022-08-20T18:32:58</time></trkpt><trkpt lat="67.8851912" lon="33.0900980"><time>2022-08-20T18:33:00</time></trkpt><trkpt lat="67.8850868" lon="33.0902665"><time>2022-08-20T18:33:09</time></trkpt><trkpt lat="67.8850739" lon="33.0902966"><time>2022-08-20T18:33:11</time></trkpt><trkpt lat="67.8849563" lon="33.0905696"><time>2022-08-20T18:33:26</time></trkpt><trkpt lat="67.8849342" lon="33.0906485"><time>2022-08-20T18:33:31</time></trkpt><trkpt lat="67.8849045" lon="33.0907305"><time>2022-08-20T18:33:36</time></trkpt><trkpt lat="67.8847921" lon="33.0909398"><time>2022-08-20T18:33:51</time></trkpt><trkpt lat="67.8847852" lon="33.0909517"><time>2022-08-20T18:33:52</time></trkpt><trkpt lat="67.8847585" lon="33.0910506"><time>2022-08-20T18:34:00</time></trkpt><trkpt lat="67.8847454" lon="33.0910752"><time>2022-08-20T18:34:18</time></trkpt><trkpt lat="67.8847203" lon="33.0911899"><time>2022-08-20T18:34:36</time></trkpt><trkpt lat="67.8847208" lon="33.0912144"><time>2022-08-20T18:34:38</time></trkpt><trkpt lat="67.8846815" lon="33.0914372"><time>2022-08-20T18:34:50</time></trkpt><trkpt lat="67.8846779" lon="33.0914836"><time>2022-08-20T18:34:52</time></trkpt><trkpt lat="67.8846749" lon="33.0915044"><time>2022-08-20T18:34:54</time></trkpt><trkpt lat="67.8846745" lon="33.0916880"><time>2022-08-20T18:35:10</time></trkpt><trkpt lat="67.8846731" lon="33.0917849"><time>2022-08-20T18:35:15</time></trkpt><trkpt lat="67.8846769" lon="33.0918180"><time>2022-08-20T18:35:16</time></trkpt><trkpt lat="67.8847196" lon="33.0921809"><time>2022-08-20T18:35:32</time></trkpt><trkpt lat="67.8847224" lon="33.0922184"><time>2022-08-20T18:35:33</time></trkpt><trkpt lat="67.8847734" lon="33.0925445"><time>2022-08-20T18:35:52</time></trkpt><trkpt lat="67.8847770" lon="33.0925576"><time>2022-08-20T18:35:53</time></trkpt><trkpt lat="67.8848131" lon="33.0926537"><time>2022-08-20T18:36:09</time></trkpt><trkpt lat="67.8848273" lon="33.0927429"><time>2022-08-20T18:36:30</time></trkpt><trkpt lat="67.8850043" lon="33.0928753"><time>2022-08-20T18:36:45</time></trkpt><trkpt lat="67.8850144" lon="33.0928811"><time>2022-08-20T18:36:46</time></trkpt><trkpt lat="67.8851935" lon="33.0929134"><time>2022-08-20T18:37:03</time></trkpt><trkpt lat="67.8853514" lon="33.0929434"><time>2022-08-20T18:37:21</time></trkpt><trkpt lat="67.8855051" lon="33.0929159"><time>2022-08-20T18:37:35</time></trkpt><trkpt lat="67.8855155" lon="33.0929384"><time>2022-08-20T18:37:37</time></trkpt><trkpt lat="67.8856213" lon="33.0930872"><time>2022-08-20T18:37:54</time></trkpt><trkpt lat="67.8856278" lon="33.0931118"><time>2022-08-20T18:37:55</time></trkpt><trkpt lat="67.8856479" lon="33.0931759"><time>2022-08-20T18:38:00</time></trkpt><trkpt lat="67.8856748" lon="33.0932953"><time>2022-08-20T18:38:09</time></trkpt><trkpt lat="67.8856795" lon="33.0933040"><time>2022-08-20T18:38:10</time></trkpt><trkpt lat="67.8856859" lon="33.0933173"><time>2022-08-20T18:38:11</time></trkpt><trkpt lat="67.8856958" lon="33.0935317"><time>2022-08-20T18:38:21</time></trkpt><trkpt lat="67.8857499" lon="33.0937327"><time>2022-08-20T18:38:31</time></trkpt><trkpt lat="67.8857758" lon="33.0938930"><time>2022-08-20T18:38:37</time></trkpt><trkpt lat="67.8858395" lon="33.0942587"><time>2022-08-20T18:38:52</time></trkpt><trkpt lat="67.8858731" lon="33.0944799"><time>2022-08-20T18:39:03</time></trkpt><trkpt lat="67.8858996" lon="33.0945273"><time>2022-08-20T18:39:06</time></trkpt><trkpt lat="67.8859086" lon="33.0945451"><time>2022-08-20T18:39:08</time></trkpt><trkpt lat="67.8859476" lon="33.0946695"><time>2022-08-20T18:39:15</time></trkpt><trkpt lat="67.8859579" lon="33.0947346"><time>2022-08-20T18:39:18</time></trkpt><trkpt lat="67.8860249" lon="33.0952526"><time>2022-08-20T18:39:40</time></trkpt><trkpt lat="67.8860515" lon="33.0955470"><time>2022-08-20T18:39:52</time></trkpt><trkpt lat="67.8860981" lon="33.0958705"><time>2022-08-20T18:40:08</time></trkpt><trkpt lat="67.8861090" lon="33.0963508"><time>2022-08-20T18:40:27</time></trkpt><trkpt lat="67.8861495" lon="33.0967920"><time>2022-08-20T18:40:42</time></trkpt><trkpt lat="67.8861613" lon="33.0968151"><time>2022-08-20T18:40:43</time></trkpt><trkpt lat="67.8862102" lon="33.0970909"><time>2022-08-20T18:41:00</time></trkpt><trkpt lat="67.8862471" lon="33.0972253"><time>2022-08-20T18:41:08</time></trkpt><trkpt lat="67.8862529" lon="33.0972574"><time>2022-08-20T18:41:10</time></trkpt><trkpt lat="67.8863015" lon="33.0974764"><time>2022-08-20T18:41:18</time></trkpt><trkpt lat="67.8864331" lon="33.0978915"><time>2022-08-20T18:41:37</time></trkpt><trkpt lat="67.8864770" lon="33.0980594"><time>2022-08-20T18:41:46</time></trkpt><trkpt lat="67.8865727" lon="33.0983686"><time>2022-08-20T18:42:02</time></trkpt><trkpt lat="67.8866121" lon="33.0986207"><time>2022-08-20T18:42:12</time></trkpt><trkpt lat="67.8866509" lon="33.0990739"><time>2022-08-20T18:42:30</time></trkpt><trkpt lat="67.8866961" lon="33.0995195"><time>2022-08-20T18:42:48</time></trkpt><trkpt lat="67.8867138" lon="33.0998342"><time>2022-08-20T18:43:00</time></trkpt><trkpt lat="67.8866775" lon="33.1003698"><time>2022-08-20T18:43:20</time></trkpt><trkpt lat="67.8866978" lon="33.1007283"><time>2022-08-20T18:43:34</time></trkpt><trkpt lat="67.8866973" lon="33.1008802"><time>2022-08-20T18:43:38</time></trkpt><trkpt lat="67.8866779" lon="33.1012211"><time>2022-08-20T18:43:51</time></trkpt><trkpt lat="67.8866626" lon="33.1013275"><time>2022-08-20T18:43:55</time></trkpt><trkpt lat="67.8866455" lon="33.1014424"><time>2022-08-20T18:44:01</time></trkpt><trkpt lat="67.8866218" lon="33.1015591"><time>2022-08-20T18:44:07</time></trkpt><trkpt lat="67.8865606" lon="33.1018045"><time>2022-08-20T18:44:18</time></trkpt><trkpt lat="67.8865005" lon="33.1018933"><time>2022-08-20T18:44:22</time></trkpt><trkpt lat="67.8863328" lon="33.1021355"><time>2022-08-20T18:44:38</time></trkpt><trkpt lat="67.8862980" lon="33.1021864"><time>2022-08-20T18:44:41</time></trkpt><trkpt lat="67.8862060" lon="33.1023333"><time>2022-08-20T18:44:50</time></trkpt><trkpt lat="67.8861734" lon="33.1023596"><time>2022-08-20T18:44:54</time></trkpt><trkpt lat="67.8860063" lon="33.1026007"><time>2022-08-20T18:45:11</time></trkpt><trkpt lat="67.8859505" lon="33.1028611"><time>2022-08-20T18:45:20</time></trkpt><trkpt lat="67.8859273" lon="33.1029299"><time>2022-08-20T18:45:25</time></trkpt><trkpt lat="67.8859063" lon="33.1030830"><time>2022-08-20T18:45:31</time></trkpt><trkpt lat="67.8859047" lon="33.1033269"><time>2022-08-20T18:45:39</time></trkpt><trkpt lat="67.8858952" lon="33.1034102"><time>2022-08-20T18:45:41</time></trkpt><trkpt lat="67.8859393" lon="33.1039272"><time>2022-08-20T18:45:59</time></trkpt><trkpt lat="67.8859448" lon="33.1041053"><time>2022-08-20T18:46:04</time></trkpt><trkpt lat="67.8859083" lon="33.1042670"><time>2022-08-20T18:46:13</time></trkpt><trkpt lat="67.8859036" lon="33.1043299"><time>2022-08-20T18:46:16</time></trkpt><trkpt lat="67.8858913" lon="33.1048139"><time>2022-08-20T18:46:35</time></trkpt></trkseg></trk></gpx>